Su Yang Bo 001 — 000000 — position and weather

sailwx.info

Track history (hours):
 
Tides and Currents Weather Stations Pressure Air Temp Water Temp Dewpoint Dewpoint Depression Visibility Wind Speed Wind Dir Waves Ship Positions

Su Yang Bo 001

Last reported at 2017-Aug-21 19:30 UTC. Time now 2017-Aug-21 19:41 UTC.
Position N 31°31' E 121°22'.

Length 50 m.

Type: Towing. MMSI: 200002069.

Date/timePositionNaut miles runAvg speedWind from/ knotsBaromVisibWave heightAir tempDewpointWater temp
2017-Aug-21 19:30N 31°31' E 121°22'8906.3
2017-Aug-21 19:29N 31°26' E 121°29'252529.4
2017-Aug-21 19:29N 31°43' E 121°07'65927926.1
2017-Aug-21 19:27N 23°05' E 113°27'656118089.0
2017-Aug-21 19:27N 31°22' E 121°29'7475.7
2017-Aug-21 19:26N 31°28' E 121°26'6629028.4
2017-Aug-21 19:22N 22°59' E 113°31'6635762.8
2017-Aug-21 19:15N 31°39' E 121°13'104695.4
2017-Aug-21 19:06N 29°60' E 121°49'922765.3
2017-Aug-21 19:04N 31°29' E 121°25'0 6.2
2017-Aug-21 19:02N 31°29' E 121°25'5220.0
2017-Aug-21 19:00N 31°26' E 121°29'7567.3
2017-Aug-21 19:00N 31°30' E 121°23'65839505.8
2017-Aug-21 18:59N 23°05' E 113°27'6591186492.0
2017-Aug-21 18:59N 31°29' E 121°25'222829.5
2017-Aug-21 18:58N 31°44' E 121°06'222214.0
2017-Aug-21 18:58N 31°29' E 121°25'3219.0
2017-Aug-21 18:57N 31°31' E 121°22'66236650.0
2017-Aug-21 18:56N 22°59' E 113°31'613147187.5
2017-Aug-21 18:56N 29°59' E 121°50'1059696.6
2017-Aug-21 18:55N 31°39' E 121°13'22835.6
2017-Aug-21 18:53N 31°22' E 121°29'1061.5
2017-Aug-21 18:44N 31°30' E 121°23'15109.2
2017-Aug-21 18:36N 31°41' E 121°11'115.4
2017-Aug-21 18:32N 31°41' E 121°11'14360.1
2017-Aug-21 18:30N 31°31' E 121°22'81007.6
2017-Aug-21 18:30N 31°26' E 121°29'1018069.3
2017-Aug-21 18:30N 31°32' E 121°20'65916695.7
2017-Aug-21 18:27N 23°05' E 113°27'65927276.1
2017-Aug-21 18:26N 31°30' E 121°25'845.0
2017-Aug-21 18:15N 31°22' E 121°29'221017.7
2017-Aug-21 18:13N 31°39' E 121°13'547742.6
2017-Aug-21 18:13N 31°56' E 120°13'1461594.9
2017-Aug-21 18:08N 29°58' E 121°54'946410.0
2017-Aug-21 18:07N 31°30' E 121°25'66221289.0
2017-Aug-21 18:05N 22°59' E 113°31'776.3
2017-Aug-21 18:00N 23°05' E 113°28'658103029.6
2017-Aug-21 17:59N 31°31' E 121°22'66299260.3
2017-Aug-21 17:59N 22°59' E 113°31'66256759.7
2017-Aug-21 17:58N 31°30' E 121°25'672529.4
2017-Aug-21 17:57N 31°56' E 120°13'525998.3
2017-Aug-21 17:56N 31°41' E 121°11'10935661.4
2017-Aug-21 17:56N 29°58' E 121°55'90324312.8
2017-Aug-21 17:56N 31°26' E 121°29'41607.9
2017-Aug-21 17:56N 31°22' E 121°29'847212.3
2017-Aug-21 17:55N 31°59' E 120°00'157385.6
2017-Aug-21 17:30N 29°59' E 121°58'616554588.7
2017-Aug-21 17:30N 23°03' E 113°30'65887799.4
2017-Aug-21 17:30N 31°26' E 121°29'735451.9
2017-Aug-21 17:29N 31°56' E 120°11'66805.8
2017-Aug-21 17:24N 31°31' E 121°22'3104.6
2017-Aug-21 17:23N 31°29' E 121°25'011.0
2017-Aug-21 17:22N 31°30' E 121°25'163241.3
2017-Aug-21 17:21N 31°41' E 121°11'482991.9
2017-Aug-21 17:20N 31°57' E 120°17'707023.2
2017-Aug-21 17:20N 31°22' E 121°29'65913253.5
2017-Aug-21 17:17N 22°59' E 113°31'66324100.9
2017-Aug-21 17:15N 31°37' E 121°15'64355.2
2017-Aug-21 17:04N 31°58' E 120°04'611137.8
2017-Aug-21 17:01N 31°39' E 121°13'3241.7
2017-Aug-21 17:00N 31°41' E 121°11'148554.7
2017-Aug-21 17:00N 31°31' E 121°22'661264309.8
2017-Aug-21 17:00N 22°60' E 113°31'6452322680.4
2017-Aug-21 17:00N 31°56' E 120°15'6529160.0
2017-Aug-21 17:00N 31°30' E 121°25'7411529.0
2017-Aug-21 17:00N 31°58' E 120°05'3371.6
2017-Aug-21 16:59N 31°56' E 120°08'594858.5
2017-Aug-21 16:58N 31°38' E 121°15'4228.0
2017-Aug-21 16:57N 31°41' E 121°11'2854.0
2017-Aug-21 16:57N 31°39' E 121°13'194072.3
2017-Aug-21 16:57N 31°26' E 121°29'66134018.7
2017-Aug-21 16:56N 22°59' E 113°31'6626225.1
2017-Aug-21 16:49N 31°30' E 121°25'8448.7
2017-Aug-21 16:48N 31°22' E 121°29'1090.4
2017-Aug-21 16:42N 31°30' E 121°23'6623466.5
2017-Aug-21 16:30N 22°56' E 113°33'64580055.7
2017-Aug-21 16:30N 31°56' E 120°11'6514665.9
2017-Aug-21 16:29N 31°31' E 121°22'125192.3
2017-Aug-21 16:29N 31°39' E 121°13'66372312.0
2017-Aug-21 16:29N 22°59' E 113°31'66214526.2
2017-Aug-21 16:26N 31°30' E 121°23'7665.5
2017-Aug-21 16:25N 31°26' E 121°29'7613685.5
2017-Aug-21 16:25N 31°57' E 120°07'71575.9
2017-Aug-21 16:18N 31°30' E 121°25'833.6
2017-Aug-21 16:03N 31°22' E 121°29'22778.4
2017-Aug-21 16:01N 31°39' E 121°13'632960.9
2017-Aug-21 16:00N 31°58' E 120°02'634384.4
2017-Aug-21 15:59N 31°39' E 121°13'3407.8
2017-Aug-21 15:58N 31°42' E 121°11'5613365.3
2017-Aug-21 15:58N 31°56' E 120°08'64368030.8
2017-Aug-21 15:58N 22°59' E 113°31'661119065.4
2017-Aug-21 15:57N 31°26' E 121°29'5981.0
2017-Aug-21 15:57N 31°30' E 121°25'8177.4
2017-Aug-21 15:54N 31°22' E 121°29'7645347.4
2017-Aug-21 15:54N 31°57' E 120°10'541633.9
2017-Aug-21 15:52N 31°41' E 121°11'236.1
2017-Aug-21 15:49N 31°39' E 121°13'12333.0
2017-Aug-21 15:47N 31°31' E 121°22'0 0.0
2017-Aug-21 15:29N 31°31' E 121°22'81295.5
2017-Aug-21 15:29N 31°26' E 121°29'66134511.7
2017-Aug-21 15:28N 22°59' E 113°31'66315293.6
2017-Aug-21 15:25N 31°39' E 121°13'14371.4
2017-Aug-21 15:23N 31°29' E 121°25'675904.7
2017-Aug-21 15:22N 31°57' E 120°13'13752.4
2017-Aug-21 15:21N 32°00' E 119°58'671714.1
2017-Aug-21 15:19N 31°39' E 121°12'22350.3
2017-Aug-21 15:15N 31°22' E 121°29'85993.0
2017-Aug-21 15:15N 31°30' E 121°25'521.5
2017-Aug-21 15:00N 31°26' E 121°29'714304.8
2017-Aug-21 14:59N 31°57' E 120°14'633355.1
2017-Aug-21 14:58N 31°31' E 121°22'109436.1
2017-Aug-21 14:58N 31°22' E 121°29'6597367.6
2017-Aug-21 14:53N 22°59' E 113°31'6421950.1
2017-Aug-21 14:33N 32°02' E 119°57'861705.5
2017-Aug-21 14:30N 31°26' E 121°29'66132620.6
2017-Aug-21 14:29N 22°59' E 113°31'64812960.6
2017-Aug-21 14:26N 31°57' E 120°17'621530.7
2017-Aug-21 14:23N 31°31' E 121°22'781696.2
2017-Aug-21 14:21N 32°01' E 119°58'876240.8
2017-Aug-21 14:20N 31°22' E 121°29'85264.6
2017-Aug-21 14:00N 31°60' E 119°59'834351.2
2017-Aug-21 13:59N 31°26' E 121°29'684438.8
2017-Aug-21 13:58N 31°59' E 120°19'6505751.6
2017-Aug-21 13:52N 22°59' E 113°31'66312053.4
2017-Aug-21 13:48N 31°39' E 121°13'222513.1
2017-Aug-21 13:48N 31°22' E 121°29'0 0.0
2017-Aug-21 13:29N 31°22' E 121°29'251675.3
2017-Aug-21 13:28N 31°41' E 121°10'136.8
2017-Aug-21 13:26N 31°41' E 121°11'22779.9
2017-Aug-21 13:25N 31°26' E 121°29'801428.4
2017-Aug-21 13:21N 31°58' E 120°03'8527860.3
2017-Aug-21 13:21N 31°20' E 121°32'6609205.7
2017-Aug-21 13:17N 22°59' E 113°31'6628248.5
2017-Aug-21 13:12N 31°29' E 121°25'622393.4
2017-Aug-21 13:10N 32°00' E 120°22'49294.9
2017-Aug-21 13:00N 31°39' E 121°14'2110850.3
2017-Aug-21 13:00N 31°22' E 121°29'81054.7
2017-Aug-21 13:00N 31°29' E 121°25'10537.4
2017-Aug-21 12:59N 31°21' E 121°31'12636.4
2017-Aug-21 12:57N 31°31' E 121°22'66222473.3
2017-Aug-21 12:56N 22°59' E 113°31'654112112.9
2017-Aug-21 12:55N 32°01' E 120°23'15888.3
2017-Aug-21 12:54N 31°58' E 120°05'786234.3
2017-Aug-21 12:54N 31°26' E 121°29'221902.2
2017-Aug-21 12:53N 31°41' E 121°11'17156.4
2017-Aug-21 12:46N 31°29' E 121°25'61224.1
2017-Aug-21 12:30N 32°02' E 120°24'662725.6
2017-Aug-21 12:29N 31°26' E 121°29'4204.9
2017-Aug-21 12:28N 31°22' E 121°30'112996.5
2017-Aug-21 12:27N 31°31' E 121°22'682923.3
2017-Aug-21 12:26N 31°57' E 120°08'644193075.0
2017-Aug-21 12:26N 22°59' E 113°31'663125699.3
2017-Aug-21 12:25N 31°41' E 121°11'25404.9
2017-Aug-21 12:22N 31°22' E 121°29'1850.5
2017-Aug-21 12:01N 31°36' E 121°17'17442.8
2017-Aug-21 11:58N 31°23' E 121°30'284.3
2017-Aug-21 11:57N 31°22' E 121°29'255516.4
2017-Aug-21 11:57N 31°41' E 121°11'535605.8
2017-Aug-21 11:56N 31°57' E 120°11'64510316.6
2017-Aug-21 11:53N 22°59' E 113°31'66111788.7
2017-Aug-21 11:49N 31°26' E 121°29'1358.1
2017-Aug-21 11:36N 31°35' E 121°18'6284.4
2017-Aug-21 11:34N 31°31' E 121°22'8104.8
2017-Aug-21 11:30N 31°26' E 121°29'343.0
2017-Aug-21 11:26N 31°24' E 121°31'66261097.4
2017-Aug-21 11:26N 22°59' E 113°31'66314286.8
2017-Aug-21 11:23N 31°35' E 121°19'591673.2
2017-Aug-21 11:21N 31°57' E 120°15'635387.1
2017-Aug-21 11:20N 31°31' E 121°22'66113224.5
2017-Aug-21 11:17N 22°56' E 113°36'663298369.6
2017-Aug-21 11:17N 31°41' E 121°11'256305.7
2017-Aug-21 11:17N 31°22' E 121°29'832.5
2017-Aug-21 11:02N 31°29' E 121°25'17581.5
2017-Aug-21 11:00N 31°41' E 121°11'112995.0
2017-Aug-21 11:00N 31°33' E 121°20'59105719.9
2017-Aug-21 11:00N 31°57' E 120°17'6274050.1
2017-Aug-21 11:00N 31°31' E 121°22'8733.3
2017-Aug-21 10:59N 31°26' E 121°29'661148831.7
2017-Aug-21 10:59N 22°59' E 113°31'659593093.9
2017-Aug-21 10:59N 31°22' E 121°29'4107.3
2017-Aug-21 10:56N 31°26' E 121°29'662108382.7
2017-Aug-21 10:56N 22°55' E 113°36'6633241.1
2017-Aug-21 10:44N 31°29' E 121°25'0 1.4
2017-Aug-21 10:33N 31°29' E 121°25'474.2
2017-Aug-21 10:30N 31°32' E 121°22'12353.8
2017-Aug-21 10:28N 31°22' E 121°29'4299.2
2017-Aug-21 10:27N 31°26' E 121°29'8444.8
2017-Aug-21 10:26N 31°31' E 121°22'662183243.6
2017-Aug-21 10:26N 22°59' E 113°31'65122988.7
2017-Aug-21 10:24N 31°59' E 120°20'65590632.8
2017-Aug-21 10:24N 22°53' E 113°34'665119666.5
2017-Aug-21 10:23N 31°29' E 121°25'0 5.0
2017-Aug-21 10:20N 31°29' E 121°25'17455.4
2017-Aug-21 10:18N 31°41' E 121°11'1575.2
2017-Aug-21 10:06N 31°30' E 121°23'668.1
2017-Aug-21 10:00N 31°26' E 121°29'723974.7
2017-Aug-21 10:00N 31°31' E 121°24'66328753.7
2017-Aug-21 09:59N 22°59' E 113°31'81060.1
2017-Aug-21 09:58N 22°51' E 113°34'66548887.0
2017-Aug-21 09:57N 31°30' E 121°23'028.1
2017-Aug-21 09:56N 31°31' E 121°22'141755.9
2017-Aug-21 09:56N 31°41' E 121°11'468197.2
2017-Aug-21 09:56N 32°01' E 120°23'71938.4
2017-Aug-21 09:51N 31°24' E 121°34'66020493.7
2017-Aug-21 09:49N 23°04' E 113°29'65918398.6
2017-Aug-21 09:47N 31°40' E 121°11'16369.8
2017-Aug-21 09:44N 31°29' E 121°25'8289.3
2017-Aug-21 09:43N 31°22' E 121°29'1068.3
2017-Aug-21 09:34N 31°30' E 121°23'228.5
2017-Aug-21 09:30N 31°29' E 121°25'380.1
2017-Aug-21 09:28N 31°31' E 121°22'66299257.7
2017-Aug-21 09:27N 22°59' E 113°31'662170131.3
2017-Aug-21 09:27N 31°33' E 121°20'10481.8
2017-Aug-21 09:26N 31°26' E 121°29'65846459.6
2017-Aug-21 09:25N 23°04' E 113°29'66017855.8
2017-Aug-21 09:23N 31°29' E 121°27'45314297.3
2017-Aug-21 09:21N 24°33' E 118°06'4538666.6
2017-Aug-21 09:18N 31°30' E 121°23'105925.2
2017-Aug-21 09:18N 31°22' E 121°29'671641.1
2017-Aug-21 09:15N 32°04' E 120°27'4803286.6
2017-Aug-21 09:07N 24°19' E 118°07'47011999.1
2017-Aug-21 09:04N 31°40' E 121°11'4707690.6
2017-Aug-21 09:01N 24°19' E 118°07'46213859.1
2017-Aug-21 08:59N 31°26' E 121°29'45010803.8
2017-Aug-21 08:56N 24°33' E 118°06'452232494.6
2017-Aug-21 08:56N 31°28' E 121°28'32883.0
2017-Aug-21 08:56N 31°29' E 121°25'16560.0
2017-Aug-21 08:54N 31°40' E 121°11'25351.3
2017-Aug-21 08:50N 31°24' E 121°34'5137.8
2017-Aug-21 08:48N 31°22' E 121°29'664125810.8
2017-Aug-21 08:47N 22°48' E 113°37'66922931.6
2017-Aug-21 08:46N 31°41' E 121°11'66321324.4
2017-Aug-21 08:44N 22°59' E 113°31'6629415.7
2017-Aug-21 08:39N 31°31' E 121°22'4662991.9
2017-Aug-21 08:30N 24°17' E 118°10'464835768.4
2017-Aug-21 08:30N 31°24' E 121°34'121560.8
2017-Aug-21 08:30N 31°31' E 121°22'86754.0
2017-Aug-21 08:30N 31°26' E 121°29'174.1
2017-Aug-21 08:29N 31°26' E 121°29'475.2
2017-Aug-21 08:26N 31°22' E 121°29'241671.4
2017-Aug-21 08:25N 31°40' E 121°11'17753.0
2017-Aug-21 08:24N 31°29' E 121°25'66810877.6
2017-Aug-21 08:20N 22°47' E 113°38'142759.5
2017-Aug-21 08:20N 22°59' E 113°31'2692829.3
2017-Aug-21 08:14N 24°33' E 118°06'4594486.9
2017-Aug-21 08:08N 31°41' E 121°11'4593287.4
2017-Aug-21 07:59N 24°32' E 118°05'201530.3
2017-Aug-21 07:59N 24°13' E 118°09'448291.7
2017-Aug-21 07:58N 23°43' E 117°33'510458738.8
2017-Aug-21 07:58N 31°31' E 121°22'658118509.7
2017-Aug-21 07:58N 23°04' E 113°29'205637.2
2017-Aug-21 07:58N 22°46' E 113°39'66766712.7
2017-Aug-21 07:57N 31°26' E 121°29'3132.4
2017-Aug-21 07:56N 31°25' E 121°32'7137.1
2017-Aug-21 07:53N 31°29' E 121°25'6622383863.0
2017-Aug-21 07:53N 22°59' E 113°31'664132723.8
2017-Aug-21 07:52N 31°24' E 121°34'9338.4
2017-Aug-21 07:51N 31°29' E 121°25'8346.8
2017-Aug-21 07:49N 31°22' E 121°29'24546.0
2017-Aug-21 07:47N 31°41' E 121°11'0 1.3
2017-Aug-21 07:39N 31°40' E 121°11'16216.8
2017-Aug-21 07:34N 31°29' E 121°25'4566957.6
2017-Aug-21 07:31N 24°29' E 118°04'264474865.3
2017-Aug-21 07:30N 22°45' E 113°40'67056069.4
2017-Aug-21 07:30N 31°24' E 121°34'127027.5
2017-Aug-21 07:30N 31°31' E 121°22'3919.9
2017-Aug-21 07:29N 31°29' E 121°25'51032.5
2017-Aug-21 07:29N 31°26' E 121°29'47225347.0
2017-Aug-21 07:28N 24°09' E 118°07'48018594.5
2017-Aug-21 07:27N 31°42' E 121°09'65917577.3
2017-Aug-21 07:24N 23°04' E 113°29'6209.4
2017-Aug-21 07:23N 22°59' E 113°31'6595608.5
2017-Aug-21 07:16N 31°22' E 121°29'558.5
2017-Aug-21 07:11N 31°24' E 121°34'4956774.1
2017-Aug-21 07:06N 39°05' E 117°51'47210972.8
2017-Aug-21 07:04N 31°41' E 121°11'4847678.8
2017-Aug-21 07:00N 24°06' E 118°05'48432279.3
2017-Aug-21 06:59N 31°41' E 121°11'66385292.8
2017-Aug-21 06:59N 22°59' E 113°31'65955171.1
2017-Aug-21 06:58N 31°22' E 121°29'43221.3
2017-Aug-21 06:58N 31°26' E 121°29'8228.4
2017-Aug-21 06:56N 31°31' E 121°22'12203.7
2017-Aug-21 06:52N 31°24' E 121°34'66011006.0
2017-Aug-21 06:49N 23°04' E 113°29'6602134.0
2017-Aug-21 06:30N 31°24' E 121°34'5680.8
2017-Aug-21 06:30N 31°26' E 121°29'8230.3
2017-Aug-21 06:28N 31°31' E 121°22'27917623.7
2017-Aug-21 06:27N 36°05' E 120°18'86211984.9
2017-Aug-21 06:23N 22°59' E 113°31'632.2
2017-Aug-21 06:12N 23°04' E 113°29'2564776.3
2017-Aug-21 06:09N 24°00' E 118°02'4825181.9
2017-Aug-21 06:03N 31°24' E 121°34'49512457.1
2017-Aug-21 06:01N 39°05' E 117°51'98673957.5
2017-Aug-21 06:00N 23°04' E 113°29'660125118.8
2017-Aug-21 06:00N 31°24' E 121°34'48414755.2
2017-Aug-21 05:58N 23°59' E 118°01'48617137.5
2017-Aug-21 05:56N 31°31' E 121°22'81132.3
2017-Aug-21 05:56N 31°26' E 121°29'66640615.1
2017-Aug-21 05:55N 22°51' E 113°34'9147.9
2017-Aug-21 05:51N 22°59' E 113°31'66379617.6
2017-Aug-21 05:51N 31°24' E 121°34'25122.7
2017-Aug-21 05:39N 31°41' E 121°12'24288.7
2017-Aug-21 05:34N 31°22' E 121°29'452.9
2017-Aug-21 05:30N 31°26' E 121°29'5583.1
2017-Aug-21 05:29N 31°25' E 121°34'036.6
2017-Aug-21 05:29N 31°24' E 121°34'66325962.4
2017-Aug-21 05:27N 22°59' E 113°31'6502.5
2017-Aug-21 05:27N 22°53' E 113°32'66626943.2
2017-Aug-21 05:25N 31°31' E 121°22'65852671.0
2017-Aug-21 05:24N 23°04' E 113°29'6604132.0
2017-Aug-21 05:15N 31°41' E 121°12'24149.7
2017-Aug-21 05:05N 31°22' E 121°29'6568001.8
2017-Aug-21 05:00N 23°04' E 113°29'65838228.1
2017-Aug-21 04:59N 31°31' E 121°22'81045.2
2017-Aug-21 04:59N 31°26' E 121°29'661264589.7
2017-Aug-21 04:59N 22°59' E 113°31'5462.1
2017-Aug-21 04:58N 22°54' E 113°29'66935392.2
2017-Aug-21 04:57N 31°24' E 121°34'25593.9
2017-Aug-21 04:54N 31°41' E 121°12'41271.1
2017-Aug-21 04:54N 31°43' E 121°08'29481.2
2017-Aug-21 04:51N 31°24' E 121°34'22458.1
2017-Aug-21 04:48N 31°40' E 121°15'23123.2
2017-Aug-21 04:36N 31°21' E 121°31'10215.0
2017-Aug-21 04:33N 31°30' E 121°25'66212161.2
2017-Aug-21 04:30N 22°59' E 113°31'6642388865.1
2017-Aug-21 04:30N 31°24' E 121°34'51085.9
2017-Aug-21 04:30N 31°22' E 121°29'4113.8
2017-Aug-21 04:28N 31°26' E 121°29'171492.3
2017-Aug-21 04:27N 31°38' E 121°16'66121629.0
2017-Aug-21 04:25N 23°04' E 113°29'65991219.5
2017-Aug-21 04:25N 31°30' E 121°25'10594.8
2017-Aug-21 04:24N 31°21' E 121°31'123370.5
2017-Aug-21 04:24N 31°31' E 121°22'57207.8
2017-Aug-21 04:07N 32°02' E 120°26'1 8.9
2017-Aug-21 04:00N 32°01' E 120°25'69124500.2
2017-Aug-21 04:00N 31°25' E 121°34'12331.6
2017-Aug-21 03:58N 31°31' E 121°22'10738.0
2017-Aug-21 03:57N 31°22' E 121°29'656112410.0
2017-Aug-21 03:57N 23°04' E 113°29'65813938.1
2017-Aug-21 03:54N 31°26' E 121°29'51161.9
2017-Aug-21 03:54N 31°21' E 121°31'188107.7
2017-Aug-21 03:54N 31°36' E 121°18'8125.0
2017-Aug-21 03:50N 31°41' E 121°11'26194.1
2017-Aug-21 03:42N 31°24' E 121°34'25239.8
2017-Aug-21 03:35N 31°41' E 121°12'667.6
2017-Aug-21 03:30N 31°44' E 121°06'313810.6
2017-Aug-21 03:30N 31°25' E 121°34'125263.4
2017-Aug-21 03:30N 31°31' E 121°22'31558.7
2017-Aug-21 03:30N 31°34' E 121°20'568135.3
2017-Aug-21 03:29N 31°59' E 120°21'4711251.6
2017-Aug-21 03:29N 31°41' E 121°12'213168.1
2017-Aug-21 03:29N 31°26' E 121°29'4406.0
2017-Aug-21 03:28N 31°24' E 121°34'26588.2
2017-Aug-21 03:25N 31°41' E 121°11'66027308.6
2017-Aug-21 03:24N 23°04' E 113°29'65694504.3
2017-Aug-21 03:23N 31°21' E 121°31'21348.1
2017-Aug-21 03:20N 31°38' E 121°16'19378.8
2017-Aug-21 03:17N 31°22' E 121°29'17241.9
2017-Aug-21 03:13N 31°36' E 121°18'57274.9
2017-Aug-21 03:00N 31°56' E 120°16'6224793.6
2017-Aug-21 03:00N 31°31' E 121°22'1524.0
2017-Aug-21 03:00N 31°32' E 121°23'13934.4
2017-Aug-21 02:59N 31°21' E 121°31'174060.2
2017-Aug-21 02:59N 31°35' E 121°19'494074.3
2017-Aug-21 02:58N 31°57' E 120°28'605868.3
2017-Aug-21 02:58N 31°26' E 121°29'144452.4
2017-Aug-21 02:57N 31°36' E 121°18'8192.6
2017-Aug-21 02:55N 31°41' E 121°11'138.2
2017-Aug-21 02:53N 31°41' E 121°12'242867.7
2017-Aug-21 02:53N 31°22' E 121°29'579.4
2017-Aug-21 02:49N 31°24' E 121°34'011.5
2017-Aug-21 02:48N 31°25' E 121°34'47511712.2
2017-Aug-21 02:46N 24°09' E 118°00'8963803.4
2017-Aug-21 02:32N 39°05' E 117°51'48622124.4
2017-Aug-21 02:30N 31°31' E 121°22'5416255.0
2017-Aug-21 02:30N 31°58' E 120°27'432144.7
2017-Aug-21 02:29N 31°39' E 121°13'5610571.3
2017-Aug-21 02:29N 31°56' E 120°11'774484.7
2017-Aug-21 02:28N 31°24' E 121°34'51402.8
2017-Aug-21 02:28N 31°22' E 121°29'131510.3
2017-Aug-21 02:27N 31°33' E 121°21'48311439.3
2017-Aug-21 02:24N 39°05' E 117°51'89736269.0
2017-Aug-21 02:23N 24°08' E 118°03'47474167.7
2017-Aug-21 02:23N 31°26' E 121°29'65860755.4
2017-Aug-21 02:22N 23°04' E 113°29'66044829.1
2017-Aug-21 02:21N 31°41' E 121°12'251911.1
2017-Aug-21 02:20N 31°25' E 121°34'26668.3
2017-Aug-21 02:18N 31°41' E 121°11'14216.9
2017-Aug-21 02:14N 31°32' E 121°23'1 4.9
2017-Aug-21 02:00N 31°31' E 121°22'104183.8
2017-Aug-21 02:00N 31°22' E 121°29'4757.9
2017-Aug-21 02:00N 31°26' E 121°29'2175624.4
2017-Aug-21 02:00N 31°41' E 121°12'660118797.2
2017-Aug-21 02:00N 23°04' E 113°29'660264144.1
2017-Aug-21 02:00N 31°24' E 121°34'47589957.6
2017-Aug-21 01:59N 24°07' E 118°06'477114598.7
2017-Aug-21 01:59N 31°31' E 121°24'91029.4
2017-Aug-21 01:58N 31°37' E 121°16'20512.0
2017-Aug-21 01:56N 31°24' E 121°34'664584.3
2017-Aug-21 01:55N 31°58' E 120°27'412753.4
2017-Aug-21 01:54N 31°41' E 121°11'201194.7
2017-Aug-21 01:53N 31°28' E 121°29'66118172.3
2017-Aug-21 01:51N 22°60' E 113°32'6422747.3
2017-Aug-21 01:37N 31°55' E 120°10'54462.2
2017-Aug-21 01:30N 31°41' E 121°12'244297.6
2017-Aug-21 01:30N 31°22' E 121°29'162916.0
2017-Aug-21 01:29N 31°36' E 121°18'171621.3
2017-Aug-21 01:29N 31°25' E 121°34'124210.7
2017-Aug-21 01:29N 31°31' E 121°22'4771715824.5
2017-Aug-21 01:29N 24°06' E 118°07'47547457.4
2017-Aug-21 01:28N 31°24' E 121°34'66067912.0
2017-Aug-21 01:27N 23°04' E 113°29'65034415.0
2017-Aug-21 01:26N 31°58' E 120°27'625591.5
2017-Aug-21 01:26N 31°26' E 121°29'22796.1
2017-Aug-21 01:24N 31°41' E 121°11'17135.2
2017-Aug-21 01:17N 31°29' E 121°25'66126423.4
2017-Aug-21 01:15N 22°60' E 113°32'6619918.1
2017-Aug-21 01:11N 31°28' E 121°28'724962.6
2017-Aug-21 01:10N 31°55' E 120°10'48735.1
2017-Aug-21 01:06N 31°45' E 121°06'301770.8
2017-Aug-21 01:05N 31°25' E 121°32'441.5
2017-Aug-21 01:00N 31°23' E 121°36'474568981.9
2017-Aug-21 01:00N 24°06' E 118°07'479861485.2
2017-Aug-21 01:00N 31°33' E 121°20'111095.8
2017-Aug-21 00:59N 31°26' E 121°29'212443.0
2017-Aug-21 00:59N 31°41' E 121°12'243265.8
2017-Aug-21 00:58N 31°25' E 121°32'8101.7
2017-Aug-21 00:54N 31°29' E 121°25'8567.6
2017-Aug-21 00:53N 31°22' E 121°29'5197.1
2017-Aug-21 00:51N 31°24' E 121°34'415681.2
2017-Aug-21 00:51N 31°27' E 121°29'733604.1
2017-Aug-21 00:50N 31°55' E 120°10'101150.9
2017-Aug-21 00:50N 31°58' E 120°22'661142.4
2017-Aug-21 00:46N 31°26' E 121°30'71227.0
2017-Aug-21 00:46N 31°30' E 121°23'1257.3
2017-Aug-21 00:34N 31°21' E 121°31'4707662.0
2017-Aug-21 00:30N 24°07' E 118°08'47795468.3
2017-Aug-21 00:30N 31°32' E 121°23'1761110.9
2017-Aug-21 00:30N 31°22' E 121°39'7650.5
2017-Aug-21 00:29N 31°23' E 121°30'81216.6
2017-Aug-21 00:29N 31°29' E 121°25'161855.6
2017-Aug-21 00:28N 31°41' E 121°12'1312137.2
2017-Aug-21 00:28N 31°31' E 121°22'121823.6
2017-Aug-21 00:28N 31°21' E 121°31'26971.6
2017-Aug-21 00:28N 31°22' E 121°29'5188.3
2017-Aug-21 00:26N 31°24' E 121°34'3130.3
2017-Aug-21 00:25N 31°25' E 121°31'7533663.5
2017-Aug-21 00:25N 31°55' E 120°10'64255011.9
2017-Aug-21 00:24N 22°60' E 113°32'660791841.3
2017-Aug-21 00:24N 31°26' E 121°29'32350.4
2017-Aug-21 00:24N 31°25' E 121°32'701848.7
2017-Aug-21 00:22N 31°57' E 120°18'481590.9
2017-Aug-21 00:20N 31°41' E 121°11'291.4
2017-Aug-21 00:18N 31°42' E 121°08'65911458.4
2017-Aug-21 00:15N 23°04' E 113°29'6422691.4
2017-Aug-21 00:01N 31°56' E 120°15'744869.8
2017-Aug-21 00:00N 31°24' E 121°34'61245.7
2017-Aug-20 23:59N 31°20' E 121°39'75117.5
2017-Aug-20 23:59N 31°24' E 121°32'7616082.9
2017-Aug-20 23:59N 31°55' E 120°10'7713254.1
2017-Aug-20 23:59N 31°21' E 121°32'1322963.2
2017-Aug-20 23:59N 31°31' E 121°22'81600.3
2017-Aug-20 23:58N 31°26' E 121°29'47319151.2
2017-Aug-20 23:57N 24°07' E 118°08'47029703.6
2017-Aug-20 23:56N 31°22' E 121°29'5252.9
2017-Aug-20 23:55N 31°24' E 121°34'66043216.1
2017-Aug-20 23:54N 23°04' E 113°29'66046587.5
2017-Aug-20 23:53N 31°41' E 121°12'16755.7
2017-Aug-20 23:52N 31°29' E 121°25'0184.4
2017-Aug-20 23:52N 31°29' E 121°25'19946.7
2017-Aug-20 23:50N 31°43' E 121°08'12127225.8
2017-Aug-20 23:50N 29°57' E 122°16'1196019.2
2017-Aug-20 23:49N 31°41' E 121°11'16123.4
2017-Aug-20 23:41N 31°30' E 121°24'46413705.1
2017-Aug-20 23:39N 24°18' E 118°10'1 9.6
2017-Aug-20 23:30N 24°17' E 118°11'46352112.6
2017-Aug-20 23:30N 31°24' E 121°34'4775.2
2017-Aug-20 23:30N 31°25' E 121°29'416079.9
2017-Aug-20 23:30N 31°21' E 121°31'71047.1
2017-Aug-20 23:29N 31°20' E 121°39'4914.3
2017-Aug-20 23:29N 31°23' E 121°36'808986.6
2017-Aug-20 23:28N 31°56' E 120°10'6614852.2
2017-Aug-20 23:28N 31°31' E 121°22'161569.2
2017-Aug-20 23:28N 31°42' E 121°09'66098930.5
2017-Aug-20 23:27N 23°04' E 113°29'659263519.5
2017-Aug-20 23:27N 31°29' E 121°25'2107.6
2017-Aug-20 23:26N 31°30' E 121°23'14110.2
2017-Aug-20 23:18N 31°41' E 121°12'242203.5
2017-Aug-20 23:18N 31°22' E 121°29'872.9
2017-Aug-20 23:11N 31°30' E 121°24'161429.9
2017-Aug-20 23:10N 31°41' E 121°11'6625741.5
2017-Aug-20 23:03N 22°60' E 113°32'66315098.5
2017-Aug-20 23:00N 31°22' E 121°38'2228.8
2017-Aug-20 23:00N 31°20' E 121°39'46244995.0
2017-Aug-20 22:59N 24°15' E 118°15'46123352.8
2017-Aug-20 22:58N 31°22' E 121°29'252293.3
2017-Aug-20 22:57N 31°41' E 121°11'1180.2
2017-Aug-20 22:57N 31°41' E 121°12'13571.2
2017-Aug-20 22:56N 31°31' E 121°22'18645.6
2017-Aug-20 22:54N 31°15' E 121°32'17997.5
2017-Aug-20 22:53N 31°30' E 121°23'116608.7
2017-Aug-20 22:53N 31°24' E 121°34'9314.3
2017-Aug-20 22:51N 31°30' E 121°24'142367.8
2017-Aug-20 22:51N 31°17' E 121°34'3112263.7
2017-Aug-20 22:51N 31°41' E 121°11'581029.6
2017-Aug-20 22:47N 31°57' E 120°05'741063.7
2017-Aug-20 22:43N 31°29' E 121°25'963309.3
2017-Aug-20 22:41N 30°00' E 122°06'963827.9
2017-Aug-20 22:40N 31°29' E 121°25'4672905.0
2017-Aug-20 22:30N 24°12' E 118°19'464334296.4
2017-Aug-20 22:30N 31°21' E 121°39'177861.0
2017-Aug-20 22:30N 31°31' E 121°22'1812768.5
2017-Aug-20 22:30N 31°15' E 121°33'7687.6
2017-Aug-20 22:29N 31°20' E 121°39'6345.1
2017-Aug-20 22:28N 31°24' E 121°34'11826.1
2017-Aug-20 22:27N 31°30' E 121°23'743249.8
2017-Aug-20 22:26N 31°58' E 120°02'8291.4
2017-Aug-20 22:24N 31°55' E 120°10'692497.6
2017-Aug-20 22:23N 31°29' E 121°25'014.4
2017-Aug-20 22:22N 31°29' E 121°25'16138.9
2017-Aug-20 22:15N 31°41' E 121°12'32467.5
2017-Aug-20 22:11N 31°13' E 121°30'32929.7
2017-Aug-20 22:09N 31°41' E 121°11'24208.9
2017-Aug-20 22:02N 31°22' E 121°29'9289.4
2017-Aug-20 22:00N 31°20' E 121°39'171170.5
2017-Aug-20 21:59N 31°30' E 121°23'1139652.1
2017-Aug-20 21:59N 31°24' E 121°34'791.1
2017-Aug-20 21:55N 31°20' E 121°40'328731.0
2017-Aug-20 21:54N 31°41' E 121°12'546709.4
2017-Aug-20 21:54N 31°55' E 120°10'6812968.9
2017-Aug-20 21:54N 31°29' E 121°25'347.7
2017-Aug-20 21:50N 31°31' E 121°22'284.7
2017-Aug-20 21:49N 31°30' E 121°24'6595501.6
2017-Aug-20 21:42N 23°04' E 113°29'66021213.4
2017-Aug-20 21:40N 31°41' E 121°11'66258115.0
2017-Aug-20 21:39N 22°60' E 113°32'22724782.2
2017-Aug-20 21:38N 23°42' E 117°35'5163320.1
2017-Aug-20 21:29N 31°41' E 121°12'164424.8
2017-Aug-20 21:29N 31°29' E 121°25'079.6
2017-Aug-20 21:29N 31°30' E 121°24'68122530.8
2017-Aug-20 21:29N 31°55' E 120°10'838305.1
2017-Aug-20 21:28N 31°20' E 121°39'17684.2
2017-Aug-20 21:27N 31°30' E 121°23'111017.0
2017-Aug-20 21:26N 31°24' E 121°34'121555.0
2017-Aug-20 21:25N 31°31' E 121°22'18120.8
2017-Aug-20 21:16N 31°20' E 121°40'32919.8
2017-Aug-20 21:14N 31°41' E 121°11'662108324.1
2017-Aug-20 21:14N 22°60' E 113°32'66224324.4
2017-Aug-20 21:12N 31°42' E 121°11'25440.6
2017-Aug-20 21:09N 31°22' E 121°29'27891.6
2017-Aug-20 21:07N 31°42' E 121°08'65916941.7
2017-Aug-20 21:05N 23°04' E 113°29'6567894.8
2017-Aug-20 21:00N 31°22' E 121°29'91821.5
2017-Aug-20 21:00N 31°20' E 121°39'127.8
2017-Aug-20 20:58N 31°20' E 121°40'182982.8
2017-Aug-20 20:58N 31°31' E 121°22'121134.7
2017-Aug-20 20:57N 31°24' E 121°34'91786.4
2017-Aug-20 20:57N 31°30' E 121°24'66145729.8
2017-Aug-20 20:56N 22°60' E 113°32'66220722.9
2017-Aug-20 20:54N 31°41' E 121°11'66037123.5
2017-Aug-20 20:53N 23°04' E 113°29'64010760.8
2017-Aug-20 20:49N 31°56' E 120°10'541343.1
2017-Aug-20 20:47N 31°41' E 121°12'16217.9
2017-Aug-20 20:43N 31°29' E 121°25'2189.8
2017-Aug-20 20:42N 31°30' E 121°23'2160.1
2017-Aug-20 20:41N 31°29' E 121°25'1583.5
2017-Aug-20 20:30N 31°20' E 121°39'8521823.9
2017-Aug-20 20:30N 31°56' E 120°08'684872.2
2017-Aug-20 20:29N 31°31' E 121°22'3259.4
2017-Aug-20 20:29N 31°29' E 121°25'17778.4
2017-Aug-20 20:28N 31°41' E 121°11'264386.7
2017-Aug-20 20:27N 31°24' E 121°34'91207.3
2017-Aug-20 20:27N 31°29' E 121°25'2114.0
2017-Aug-20 20:26N 31°30' E 121°23'18514.6
2017-Aug-20 20:24N 31°20' E 121°40'66015850.5
2017-Aug-20 20:21N 23°04' E 113°29'6607008.6
2017-Aug-20 20:16N 31°41' E 121°12'241074.4
2017-Aug-20 20:14N 31°22' E 121°29'842.2
2017-Aug-20 20:03N 31°29' E 121°25'0 6.5
2017-Aug-20 20:01N 31°29' E 121°25'161003.8
2017-Aug-20 20:00N 31°41' E 121°12'593156.1
2017-Aug-20 19:59N 31°57' E 120°05'8229537.0
2017-Aug-20 19:59N 31°24' E 121°34'92718.8
2017-Aug-20 19:59N 31°29' E 121°25'151543.0
2017-Aug-20 19:58N 31°20' E 121°39'182878.6
2017-Aug-20 19:58N 31°31' E 121°22'492.2
2017-Aug-20 19:56N 31°28' E 121°25'7251.1
2017-Aug-20 19:54N 31°22' E 121°29'251666.6
2017-Aug-20 19:53N 31°41' E 121°11'173031.0
2017-Aug-20 19:53N 31°29' E 121°25'66154070.2
2017-Aug-20 19:52N 22°60' E 113°32'66014583.5
2017-Aug-20 19:49N 31°30' E 121°23'18179.7
2017-Aug-20 19:43N 31°20' E 121°40'66031284.3
2017-Aug-20 19:42N 23°04' E 113°29'6598784.6
2017-Aug-20 19:38N 31°29' E 121°25'322.8
2017-Aug-20 19:30N 31°31' E 121°22'1762874.8
2017-Aug-20 19:30N 31°21' E 121°39'661297274.5
2017-Aug-20 19:30N 23°04' E 113°29'660139815.5
2017-Aug-20 19:30N 31°24' E 121°34'11720.9
2017-Aug-20 19:29N 31°30' E 121°23'746333.6
2017-Aug-20 19:28N 31°58' E 120°02'772336.3
2017-Aug-20 19:26N 31°28' E 121°25'7634.0
2017-Aug-20 19:26N 31°22' E 121°29'25334.6
2017-Aug-20 19:21N 31°41' E 121°11'147.2
2017-Aug-20 19:20N 31°41' E 121°12'321071.1
2017-Aug-20 19:19N 31°20' E 121°40'66215183.3
2017-Aug-20 19:16N 22°60' E 113°32'6413345.9
2017-Aug-20 19:05N 31°58' E 120°06'731517.0
2017-Aug-20 19:02N 31°29' E 121°25'3137.0
2017-Aug-20 19:00N 31°31' E 121°22'703694.1
2017-Aug-20 18:59N 31°57' E 120°06'826582.0
2017-Aug-20 18:59N 31°23' E 121°34'9345.5
2017-Aug-20 18:57N 31°28' E 121°25'181416.4
2017-Aug-20 18:56N 31°41' E 121°11'641852.7
2017-Aug-20 18:54N 31°60' E 119°59'79142038.1
2017-Aug-20 18:54N 31°29' E 121°25'94664.1
2017-Aug-20 18:54N 31°24' E 121°34'71487.7
2017-Aug-20 18:54N 31°20' E 121°40'66016982.7
2017-Aug-20 18:51N 23°04' E 113°29'559.9
2017-Aug-20 18:46N 22°60' E 113°32'6592269.4
2017-Aug-20 18:29N 31°23' E 121°30'9437.4
2017-Aug-20 18:27N 31°20' E 121°40'6602377571.0
2017-Aug-20 18:27N 23°04' E 113°29'65690790.5
2017-Aug-20 18:27N 31°22' E 121°29'7650.2
2017-Aug-20 18:26N 31°28' E 121°25'81474.2
2017-Aug-20 18:26N 31°24' E 121°34'662297903.2
2017-Aug-20 18:26N 22°60' E 113°32'660198070.2
2017-Aug-20 18:26N 31°31' E 121°22'354.7
2017-Aug-20 18:23N 31°29' E 121°25'17209.3
2017-Aug-20 18:18N 31°41' E 121°11'2874.0
2017-Aug-20 17:55N 31°20' E 121°33'65734266.5
2017-Aug-20 17:54N 23°04' E 113°29'66037728.2
2017-Aug-20 17:53N 31°24' E 121°34'2692415.6
2017-Aug-20 17:53N 31°41' E 121°11'184926.0
2017-Aug-20 17:53N 31°28' E 121°25'41165.6
2017-Aug-20 17:53N 31°31' E 121°22'181868.7
2017-Aug-20 17:52N 31°20' E 121°40'32642.5
2017-Aug-20 17:49N 31°41' E 121°12'16384.9
2017-Aug-20 17:46N 31°30' E 121°25'0 0.6
2017-Aug-20 17:31N 31°29' E 121°25'3236.1
2017-Aug-20 17:30N 31°31' E 121°22'171439.2
2017-Aug-20 17:30N 31°21' E 121°38'131112.5
2017-Aug-20 17:29N 31°28' E 121°25'7220.5
2017-Aug-20 17:27N 31°22' E 121°29'8491.9
2017-Aug-20 17:26N 31°29' E 121°25'66139001.2
2017-Aug-20 17:25N 22°60' E 113°32'66285110.6
2017-Aug-20 17:24N 31°41' E 121°11'17309.2
2017-Aug-20 17:21N 31°30' E 121°25'16446.4
2017-Aug-20 17:19N 31°41' E 121°12'104309.7
2017-Aug-20 16:59N 30°04' E 121°55'818820.3
2017-Aug-20 16:58N 31°23' E 121°37'66388437.5
2017-Aug-20 16:58N 22°60' E 113°32'66081964.8
2017-Aug-20 16:57N 31°31' E 121°22'10377.1
2017-Aug-20 16:56N 31°22' E 121°29'5109.3
2017-Aug-20 16:53N 31°24' E 121°34'255623.7
2017-Aug-20 16:53N 31°41' E 121°12'16468.3
2017-Aug-20 16:51N 31°30' E 121°25'12222.7
2017-Aug-20 16:48N 31°20' E 121°33'65627162.8
2017-Aug-20 16:46N 23°04' E 113°29'65813020.2
2017-Aug-20 16:43N 31°28' E 121°25'416.8
2017-Aug-20 16:30N 31°31' E 121°22'9310853.4
2017-Aug-20 16:30N 30°02' E 121°57'10610906.7
2017-Aug-20 16:29N 31°41' E 121°12'283084.1
2017-Aug-20 16:29N 31°23' E 121°37'66350804.2
2017-Aug-20 16:28N 22°60' E 113°32'660475273.1
2017-Aug-20 16:28N 31°28' E 121°25'134.3
2017-Aug-20 16:26N 31°30' E 121°25'12294.2
2017-Aug-20 16:23N 31°20' E 121°33'65641459.0
2017-Aug-20 16:22N 23°04' E 113°29'6607922.7
2017-Aug-20 16:17N 31°24' E 121°34'11142.5
2017-Aug-20 16:13N 31°14' E 121°29'79387.7
2017-Aug-20 16:00N 29°59' E 121°58'9716602.9
2017-Aug-20 16:00N 31°31' E 121°22'31384.6
2017-Aug-20 16:00N 31°29' E 121°25'123371.0
2017-Aug-20 16:00N 31°20' E 121°33'284620.4
2017-Aug-20 15:59N 31°41' E 121°12'242335.6
2017-Aug-20 15:59N 31°22' E 121°29'656181584.2
2017-Aug-20 15:58N 23°04' E 113°29'65826040.7
2017-Aug-20 15:57N 31°28' E 121°25'8162.8
2017-Aug-20 15:54N 31°24' E 121°34'9257.4
2017-Aug-20 15:52N 31°30' E 121°25'66113991.1
2017-Aug-20 15:49N 22°60' E 113°32'6632581.3
2017-Aug-20 15:34N 31°23' E 121°37'13198.4
2017-Aug-20 15:30N 31°30' E 121°25'21772.9
2017-Aug-20 15:30N 31°31' E 121°22'15720.6
2017-Aug-20 15:28N 31°23' E 121°37'5759.4
2017-Aug-20 15:28N 31°20' E 121°33'76889.4
2017-Aug-20 15:23N 31°56' E 120°16'64379792.2
2017-Aug-20 15:22N 23°04' E 113°29'65687430.0
2017-Aug-20 15:22N 31°22' E 121°29'6581183544.8
2017-Aug-20 15:22N 22°60' E 113°32'62835873.8
2017-Aug-20 15:21N 29°56' E 122°17'961171.4
2017-Aug-20 15:16N 31°24' E 121°34'8191.5
2017-Aug-20 15:13N 31°28' E 121°25'17475.2
2017-Aug-20 15:11N 31°41' E 121°12'6622978.9
2017-Aug-20 14:58N 22°60' E 113°32'660237634.9
2017-Aug-20 14:58N 31°28' E 121°25'4714.8
2017-Aug-20 14:57N 31°31' E 121°22'12197.2
2017-Aug-20 14:54N 31°24' E 121°34'5134.8
2017-Aug-20 14:52N 31°22' E 121°29'798.0
2017-Aug-20 14:47N 31°23' E 121°37'28311.8
2017-Aug-20 14:42N 31°41' E 121°12'1194496.1
2017-Aug-20 14:40N 29°56' E 122°17'933076.2
2017-Aug-20 14:39N 31°21' E 121°31'1074.0
2017-Aug-20 14:30N 31°29' E 121°25'370.3
2017-Aug-20 14:28N 31°31' E 121°22'12746.5
2017-Aug-20 14:27N 31°24' E 121°34'251497.6
2017-Aug-20 14:26N 31°41' E 121°12'255951.6
2017-Aug-20 14:26N 31°22' E 121°30'658338317.1
2017-Aug-20 14:26N 22°60' E 113°32'660264040.6
2017-Aug-20 14:26N 31°28' E 121°25'7148.3
2017-Aug-20 14:23N 31°22' E 121°29'25836.3
2017-Aug-20 14:21N 31°41' E 121°11'1747.2
2017-Aug-20 14:00N 31°29' E 121°25'3122.6
2017-Aug-20 13:58N 31°31' E 121°22'66091423.6
2017-Aug-20 13:58N 22°60' E 113°32'65849314.4
2017-Aug-20 13:57N 31°22' E 121°29'254919.4
2017-Aug-20 13:57N 31°41' E 121°11'251459.3
2017-Aug-20 13:56N 31°24' E 121°32'24947.0
2017-Aug-20 13:54N 31°41' E 121°12'17676.1
2017-Aug-20 13:53N 31°28' E 121°25'8637.0
2017-Aug-20 13:52N 31°24' E 121°34'333.4
2017-Aug-20 13:46N 31°23' E 121°37'13355.6
2017-Aug-20 13:44N 31°30' E 121°25'1052.3
2017-Aug-20 13:32N 31°21' E 121°31'31570.7
2017-Aug-20 13:29N 31°44' E 121°07'312247.5
2017-Aug-20 13:28N 31°21' E 121°31'658236893.8
2017-Aug-20 13:28N 22°60' E 113°32'65814433.4
2017-Aug-20 13:25N 31°22' E 121°29'2412291.0
2017-Aug-20 13:25N 31°41' E 121°12'1143956.4
2017-Aug-20 13:23N 29°56' E 122°04'982443.4
2017-Aug-20 13:21N 31°28' E 121°25'12502.1
2017-Aug-20 13:20N 31°23' E 121°37'3131.9
2017-Aug-20 13:18N 31°24' E 121°34'255066.6
2017-Aug-20 13:18N 31°41' E 121°11'116.6
2017-Aug-20 13:15N 31°41' E 121°11'14167.9
2017-Aug-20 13:10N 31°31' E 121°22'105633.7
2017-Aug-20 13:00N 29°54' E 122°09'95171648.4
2017-Aug-20 13:00N 31°24' E 121°34'12368.1
2017-Aug-20 12:58N 31°31' E 121°22'13606.3
2017-Aug-20 12:57N 31°41' E 121°12'17256.6
2017-Aug-20 12:53N 31°28' E 121°25'725358.1
2017-Aug-20 12:53N 31°22' E 121°29'27520.0
2017-Aug-20 12:50N 31°42' E 121°09'191062.5
2017-Aug-20 12:49N 31°29' E 121°25'9152.6
2017-Aug-20 12:45N 31°21' E 121°30'6587946.9
2017-Aug-20 12:40N 22°60' E 113°32'66382338.4
2017-Aug-20 12:39N 31°23' E 121°37'29810.4
2017-Aug-20 12:37N 31°41' E 121°11'66017864.4
2017-Aug-20 12:35N 23°04' E 113°29'6567868.6
2017-Aug-20 12:30N 31°22' E 121°29'2545888.5
2017-Aug-20 12:30N 31°42' E 121°10'11914302.1
2017-Aug-20 12:30N 29°54' E 122°08'1043547.4
2017-Aug-20 12:28N 31°30' E 121°23'2137.9
2017-Aug-20 12:27N 31°29' E 121°25'8343.8
2017-Aug-20 12:25N 31°22' E 121°30'65867714.1
2017-Aug-20 12:25N 22°60' E 113°32'66036015.3
2017-Aug-20 12:24N 31°31' E 121°22'14406.8
2017-Aug-20 12:22N 31°40' E 121°11'159.8
2017-Aug-20 12:21N 31°41' E 121°11'294714.5
2017-Aug-20 12:21N 31°23' E 121°37'66213686.4
2017-Aug-20 12:18N 23°04' E 113°29'6407045.8
2017-Aug-20 12:12N 31°57' E 120°09'79509.8
2017-Aug-20 12:03N 31°24' E 121°34'12236.0
2017-Aug-20 12:00N 31°31' E 121°22'10667.9
2017-Aug-20 11:59N 31°24' E 121°31'66033000.2
2017-Aug-20 11:58N 22°60' E 113°32'65863975.4
2017-Aug-20 11:57N 31°22' E 121°29'9222065.8
2017-Aug-20 11:57N 29°55' E 122°05'1009474.9
2017-Aug-20 11:56N 31°29' E 121°25'9151.9
2017-Aug-20 11:53N 31°24' E 121°34'66028295.4
2017-Aug-20 11:51N 23°04' E 113°29'65927279.4
2017-Aug-20 11:50N 31°40' E 121°11'552165.5
2017-Aug-20 11:49N 31°57' E 120°09'68616.1
2017-Aug-20 11:42N 31°30' E 121°23'98509.7
2017-Aug-20 11:30N 29°58' E 122°02'9210295.4
2017-Aug-20 11:30N 31°25' E 121°30'221032.7
2017-Aug-20 11:29N 31°41' E 121°12'66258122.3
2017-Aug-20 11:28N 22°60' E 113°32'66244966.2
2017-Aug-20 11:27N 31°24' E 121°34'12933.8
2017-Aug-20 11:26N 31°31' E 121°22'669120.1
2017-Aug-20 11:26N 31°57' E 120°11'53913.4
2017-Aug-20 11:22N 31°41' E 121°11'66010375.1
2017-Aug-20 11:18N 23°04' E 113°29'65843894.5
2017-Aug-20 11:18N 31°30' E 121°23'126.7
2017-Aug-20 11:15N 31°31' E 121°22'11523.7
2017-Aug-20 11:14N 31°22' E 121°29'8122.3
2017-Aug-20 11:10N 31°29' E 121°25'93564.7
2017-Aug-20 11:00N 30°01' E 121°59'9110953.6
2017-Aug-20 10:59N 31°28' E 121°27'5611.9
2017-Aug-20 10:59N 31°31' E 121°22'141210.5
2017-Aug-20 10:58N 31°41' E 121°11'172604.6
2017-Aug-20 10:58N 31°29' E 121°25'93268.5
2017-Aug-20 10:57N 31°24' E 121°34'757973.2
2017-Aug-20 10:57N 31°57' E 120°14'619508.1
2017-Aug-20 10:56N 31°33' E 121°20'659148169.3
2017-Aug-20 10:56N 23°04' E 113°29'5237.7
2017-Aug-20 10:55N 22°60' E 113°32'66388428.4
2017-Aug-20 10:54N 31°23' E 121°37'281179.5
2017-Aug-20 10:53N 31°41' E 121°12'27143.6
2017-Aug-20 10:42N 31°20' E 121°33'42527789.3
2017-Aug-20 10:41N 24°20' E 120°28'426510910.0
2017-Aug-20 10:41N 31°22' E 121°29'752.4
2017-Aug-20 10:33N 31°28' E 121°25'10286.9
2017-Aug-20 10:30N 31°23' E 121°36'122190.2
2017-Aug-20 10:30N 31°29' E 121°24'161202.0
2017-Aug-20 10:29N 31°41' E 121°12'244297.6
2017-Aug-20 10:29N 31°22' E 121°29'10967.8
2017-Aug-20 10:28N 31°31' E 121°22'43486719.0
2017-Aug-20 10:28N 24°20' E 120°26'387126805.2
2017-Aug-20 10:28N 22°60' E 113°32'64642282.2
2017-Aug-20 10:27N 31°57' E 120°16'745406.8
2017-Aug-20 10:26N 31°24' E 121°34'261417.7
2017-Aug-20 10:25N 31°41' E 121°11'182894.4
2017-Aug-20 10:25N 31°28' E 121°25'889922.9
2017-Aug-20 10:24N 30°04' E 121°55'61725840.1
2017-Aug-20 10:23N 23°04' E 113°29'65937058.3
2017-Aug-20 10:22N 31°29' E 121°25'12315.5
2017-Aug-20 10:19N 31°38' E 121°15'633.4
2017-Aug-20 10:08N 31°42' E 121°10'18831.4
2017-Aug-20 10:07N 31°29' E 121°25'976.2
2017-Aug-20 10:00N 31°24' E 121°34'51057.2
2017-Aug-20 10:00N 31°22' E 121°29'1863684.2
2017-Aug-20 10:00N 31°37' E 121°17'189103.1
2017-Aug-20 10:00N 31°23' E 121°30'7150766.2
2017-Aug-20 10:00N 31°59' E 120°19'498407.7
2017-Aug-20 09:59N 31°40' E 121°12'13308.8
2017-Aug-20 09:57N 31°31' E 121°22'11216.2
2017-Aug-20 09:54N 31°25' E 121°33'8281.8
2017-Aug-20 09:52N 31°29' E 121°25'144.1
2017-Aug-20 09:50N 31°28' E 121°25'19166.9
2017-Aug-20 09:44N 31°42' E 121°10'2207.8
2017-Aug-20 09:43N 31°41' E 121°12'16334.7
2017-Aug-20 09:40N 31°29' E 121°25'314.0
2017-Aug-20 09:29N 31°31' E 121°22'53191.1
2017-Aug-20 09:29N 31°35' E 121°19'72567.4
2017-Aug-20 09:29N 31°30' E 121°24'2312.9
2017-Aug-20 09:29N 31°28' E 121°25'8387.3
2017-Aug-20 09:27N 31°25' E 121°33'2135.2
2017-Aug-20 09:26N 31°25' E 121°30'3426.6
2017-Aug-20 09:26N 31°24' E 121°34'15512.5
2017-Aug-20 09:24N 31°33' E 121°19'12952.8
2017-Aug-20 09:24N 31°42' E 121°10'261186.5
2017-Aug-20 09:22N 31°22' E 121°29'6562958.1
2017-Aug-20 09:09N 23°04' E 113°29'6594251.7
2017-Aug-20 09:00N 31°34' E 121°20'65930811.3
2017-Aug-20 08:58N 23°04' E 113°29'66023530.0
2017-Aug-20 08:57N 31°25' E 121°33'1210898.7
2017-Aug-20 08:57N 31°31' E 121°21'151.4
2017-Aug-20 08:55N 31°31' E 121°22'4139.7
2017-Aug-20 08:54N 31°28' E 121°25'829535.3
2017-Aug-20 08:54N 31°24' E 121°34'2664.4
2017-Aug-20 08:30N 31°41' E 121°11'254292.0
2017-Aug-20 08:30N 31°25' E 121°33'8429.9
2017-Aug-20 08:29N 31°28' E 121°25'7191.8
2017-Aug-20 08:26N 31°33' E 121°19'3326.0
2017-Aug-20 08:26N 31°31' E 121°22'146.9
2017-Aug-20 08:25N 31°31' E 121°22'12424.8
2017-Aug-20 08:23N 31°24' E 121°34'6629494.5
2017-Aug-20 08:19N 22°60' E 113°32'66244971.1
2017-Aug-20 08:18N 31°42' E 121°10'143438.7
2017-Aug-20 08:18N 31°31' E 121°21'65826926.7
2017-Aug-20 08:16N 23°04' E 113°29'66022845.6
2017-Aug-20 08:14N 31°41' E 121°12'1558.0
2017-Aug-20 07:59N 31°30' E 121°23'10864.6
2017-Aug-20 07:59N 31°25' E 121°33'8316.3
2017-Aug-20 07:57N 31°28' E 121°25'81181.8
2017-Aug-20 07:57N 31°24' E 121°34'261646.0
2017-Aug-20 07:56N 31°41' E 121°11'66011313.8
2017-Aug-20 07:52N 23°04' E 113°29'65979045.0
2017-Aug-20 07:52N 31°34' E 121°18'15370.2
2017-Aug-20 07:49N 31°22' E 121°29'105392.0
2017-Aug-20 07:49N 31°31' E 121°22'31016.2
2017-Aug-20 07:49N 31°29' E 121°25'428308278.6
2017-Aug-20 07:49N 24°24' E 120°32'43486894.0
2017-Aug-20 07:49N 31°37' E 121°16'6591939.1
2017-Aug-20 07:28N 23°04' E 113°29'66017099.0
2017-Aug-20 07:26N 31°24' E 121°34'12119.5
2017-Aug-20 07:20N 31°31' E 121°22'109436.1
2017-Aug-20 07:20N 31°22' E 121°29'25761.5
2017-Aug-20 07:18N 31°41' E 121°11'5131.1
2017-Aug-20 07:16N 31°38' E 121°15'6162.3
2017-Aug-20 07:14N 31°41' E 121°09'2611802.3
2017-Aug-20 07:14N 31°25' E 121°33'8482.7
2017-Aug-20 07:13N 31°28' E 121°25'6606619.3
2017-Aug-20 07:07N 22°60' E 113°32'66112871.5
2017-Aug-20 07:04N 31°40' E 121°12'23266.2
2017-Aug-20 06:59N 31°25' E 121°33'271389.7
2017-Aug-20 06:57N 31°42' E 121°08'350.6
2017-Aug-20 06:54N 31°41' E 121°11'66013126.8
2017-Aug-20 06:51N 23°04' E 113°29'65859241.1
2017-Aug-20 06:51N 31°28' E 121°25'4171.4
2017-Aug-20 06:49N 31°31' E 121°22'14164.3
2017-Aug-20 06:44N 31°41' E 121°11'24391.3
2017-Aug-20 06:41N 31°22' E 121°29'65847341.1
2017-Aug-20 06:40N 22°60' E 113°32'66268091.8
2017-Aug-20 06:39N 31°24' E 121°34'435.2
2017-Aug-20 06:32N 31°25' E 121°29'0 0.0
2017-Aug-20 06:29N 31°25' E 121°29'4330.3
2017-Aug-20 06:28N 31°28' E 121°25'660125070.1
2017-Aug-20 06:28N 22°60' E 113°32'5465.4
2017-Aug-20 06:27N 23°04' E 113°29'65613488.9
2017-Aug-20 06:24N 31°22' E 121°29'25423.2
2017-Aug-20 06:21N 31°41' E 121°11'222.2
2017-Aug-20 06:15N 31°42' E 121°09'163052.9
2017-Aug-20 06:15N 31°31' E 121°22'11110.0
2017-Aug-20 06:09N 31°25' E 121°33'1179.8
2017-Aug-20 06:00N 31°31' E 121°22'102897.8
2017-Aug-20 06:00N 31°22' E 121°29'5492.4
2017-Aug-20 06:00N 31°25' E 121°33'1041.1
2017-Aug-20 05:45N 31°29' E 121°23'65869645.2
2017-Aug-20 05:44N 23°04' E 113°29'569.8
2017-Aug-20 05:40N 22°60' E 113°32'66141763.6
2017-Aug-20 05:39N 31°44' E 121°06'22612.7
2017-Aug-20 05:37N 31°28' E 121°25'8756.0
2017-Aug-20 05:36N 31°24' E 121°34'1298.7
2017-Aug-20 05:29N 31°31' E 121°22'145.3
2017-Aug-20 05:27N 31°29' E 121°23'66017590.3
2017-Aug-20 05:25N 22°60' E 113°32'662595827.7
2017-Aug-20 05:25N 31°24' E 121°34'5202.0
2017-Aug-20 05:23N 31°22' E 121°29'251042.5
2017-Aug-20 05:22N 31°41' E 121°11'6200.7
2017-Aug-20 05:20N 31°44' E 121°05'23568.6
2017-Aug-20 05:18N 31°28' E 121°25'177713.6
2017-Aug-20 05:18N 31°41' E 121°12'1445.4
2017-Aug-20 05:00N 31°31' E 121°22'66020669.0
2017-Aug-20 04:58N 22°60' E 113°32'6605657.9
2017-Aug-20 04:51N 31°28' E 121°25'7551.3
2017-Aug-20 04:50N 31°22' E 121°29'829572.1
2017-Aug-20 04:50N 31°29' E 121°25'9601.1
2017-Aug-20 04:49N 31°24' E 121°34'66012251.9
2017-Aug-20 04:46N 23°04' E 113°29'64511052.6
2017-Aug-20 04:42N 31°09' E 121°27'214030.4
2017-Aug-20 04:42N 31°29' E 121°23'943.5
2017-Aug-20 04:30N 31°22' E 121°29'65642152.7
2017-Aug-20 04:29N 23°04' E 113°29'66059412.1
2017-Aug-20 04:28N 31°25' E 121°33'11336.9
2017-Aug-20 04:26N 31°31' E 121°22'66032560.7
2017-Aug-20 04:25N 22°60' E 113°32'660158312.4
2017-Aug-20 04:25N 31°29' E 121°23'37714143.8
2017-Aug-20 04:23N 37°47' E 121°32'39718553.8
2017-Aug-20 04:22N 31°10' E 121°28'20134.8
2017-Aug-20 04:13N 31°29' E 121°25'9187.8
2017-Aug-20 04:10N 31°24' E 121°34'8157.7
2017-Aug-20 04:07N 31°28' E 121°25'3793487.4
2017-Aug-20 04:00N 37°47' E 121°30'39617809.9
2017-Aug-20 03:59N 31°11' E 121°28'33395.3
2017-Aug-20 03:54N 31°41' E 121°12'25371.0
2017-Aug-20 03:50N 31°24' E 121°34'121678.4
2017-Aug-20 03:49N 31°31' E 121°22'158.7
2017-Aug-20 03:48N 31°29' E 121°23'9518.0
2017-Aug-20 03:47N 31°22' E 121°29'932.2
2017-Aug-20 03:30N 31°29' E 121°23'18580.1
2017-Aug-20 03:28N 31°13' E 121°30'12229.2
2017-Aug-20 03:25N 31°24' E 121°34'12285.5
2017-Aug-20 03:23N 31°31' E 121°22'37736684.8
2017-Aug-20 03:22N 37°48' E 121°26'97818233.9
2017-Aug-20 03:19N 22°60' E 113°32'98961399.5
2017-Aug-20 03:18N 39°05' E 117°45'49818853.8
2017-Aug-20 03:16N 31°22' E 121°29'23471.8
2017-Aug-20 03:13N 31°40' E 121°13'16167.8
2017-Aug-20 03:08N 31°28' E 121°25'65829255.6
2017-Aug-20 03:06N 23°04' E 113°29'66043209.6
2017-Aug-20 03:05N 31°25' E 121°33'11104.1
2017-Aug-20 02:59N 31°31' E 121°22'171442.0
2017-Aug-20 02:58N 31°15' E 121°29'65139692.4
2017-Aug-20 02:57N 23°04' E 113°29'660169777.7
2017-Aug-20 02:57N 31°24' E 121°34'38519496.1
2017-Aug-20 02:56N 37°49' E 121°23'3846984.6
2017-Aug-20 02:53N 31°25' E 121°33'66258119.9
2017-Aug-20 02:52N 22°60' E 113°32'65812794.6
2017-Aug-20 02:49N 31°22' E 121°29'7230.5
2017-Aug-20 02:47N 31°28' E 121°25'227.7
2017-Aug-20 02:42N 31°29' E 121°23'231.5
2017-Aug-20 02:39N 31°29' E 121°25'212.1
2017-Aug-20 02:30N 31°29' E 121°23'9200.2
2017-Aug-20 02:27N 31°22' E 121°29'71204.3
2017-Aug-20 02:27N 31°15' E 121°32'256004.8
2017-Aug-20 02:27N 31°37' E 121°17'78793.1
2017-Aug-20 02:27N 31°31' E 121°22'12392.3
2017-Aug-20 02:25N 31°24' E 121°34'3864977.7
2017-Aug-20 02:20N 37°50' E 121°20'3856221.9
2017-Aug-20 02:17N 31°25' E 121°33'8213.2
2017-Aug-20 02:14N 31°29' E 121°25'939.0
2017-Aug-20 02:00N 31°24' E 121°34'12306.4
2017-Aug-20 01:58N 31°31' E 121°22'4780.9
2017-Aug-20 01:58N 31°34' E 121°19'21777.4
2017-Aug-20 01:56N 31°17' E 121°34'65542862.5
2017-Aug-20 01:55N 23°04' E 113°29'5937.5
2017-Aug-20 01:55N 22°60' E 113°32'66055224.1
2017-Aug-20 01:54N 31°29' E 121°23'1091.5
2017-Aug-20 01:48N 31°25' E 121°33'24319.6
2017-Aug-20 01:43N 31°41' E 121°12'17552.8
2017-Aug-20 01:41N 31°28' E 121°25'18574.1
2017-Aug-20 01:39N 31°41' E 121°11'123.7
2017-Aug-20 01:37N 31°42' E 121°10'27223.8
2017-Aug-20 01:29N 31°24' E 121°34'183.3
2017-Aug-20 01:29N 31°25' E 121°33'66239707.6
2017-Aug-20 01:28N 22°60' E 113°32'66031691.5
2017-Aug-20 01:27N 31°31' E 121°22'10518940.2
2017-Aug-20 01:26N 29°56' E 122°16'11917832.8
2017-Aug-20 01:26N 31°41' E 121°11'66011050.9
2017-Aug-20 01:22N 23°04' E 113°29'66011762.3
2017-Aug-20 01:19N 31°41' E 121°12'116.1
2017-Aug-20 01:14N 31°42' E 121°10'29531.1
2017-Aug-20 01:11N 31°20' E 121°33'1481.6
2017-Aug-20 01:00N 31°31' E 121°22'13356.9
2017-Aug-20 00:58N 31°41' E 121°12'662119152.5
2017-Aug-20 00:58N 22°60' E 113°32'6608480.9
2017-Aug-20 00:53N 31°29' E 121°23'11600.1
2017-Aug-20 00:52N 31°24' E 121°34'38716983.9
2017-Aug-20 00:51N 37°51' E 121°20'3703033.9
2017-Aug-20 00:43N 31°41' E 121°11'1891.1
2017-Aug-20 00:32N 31°28' E 121°25'251.7
2017-Aug-20 00:29N 31°29' E 121°23'178.8
2017-Aug-20 00:28N 31°31' E 121°22'660792293.0
2017-Aug-20 00:28N 22°60' E 113°32'66224823.4
2017-Aug-20 00:26N 31°41' E 121°12'171156.6
2017-Aug-20 00:25N 31°28' E 121°25'18796.1
2017-Aug-20 00:24N 31°41' E 121°11'17198.0
2017-Aug-20 00:19N 31°29' E 121°25'9198.1
2017-Aug-20 00:16N 31°24' E 121°34'264727.7
2017-Aug-20 00:16N 31°42' E 121°10'66015034.1
2017-Aug-20 00:13N 23°04' E 113°29'65615051.0
2017-Aug-20 00:11N 31°22' E 121°30'1160.8
2017-Aug-20 00:00N 31°31' E 121°22'141818.0
2017-Aug-20 00:00N 31°41' E 121°11'17977.0
2017-Aug-19 23:59N 31°29' E 121°25'66149563.3
2017-Aug-19 23:58N 22°60' E 113°32'659263502.0
2017-Aug-19 23:58N 31°23' E 121°30'241318.9
2017-Aug-19 23:57N 31°41' E 121°12'143.3
2017-Aug-19 23:55N 31°42' E 121°10'1811004.4
2017-Aug-19 23:55N 31°28' E 121°25'264.5
2017-Aug-19 23:53N 31°29' E 121°23'10174.8
2017-Aug-19 23:49N 31°24' E 121°34'6603558.1
2017-Aug-19 23:38N 23°04' E 113°29'6605362.0
2017-Aug-19 23:30N 31°42' E 121°10'152218.6
2017-Aug-19 23:30N 31°31' E 121°22'14893.1
2017-Aug-19 23:29N 31°41' E 121°11'241866.1
2017-Aug-19 23:28N 31°24' E 121°31'71144.1
2017-Aug-19 23:28N 31°28' E 121°25'1720438.6
2017-Aug-19 23:28N 31°41' E 121°12'25367.9
2017-Aug-19 23:24N 31°24' E 121°34'10751.7
2017-Aug-19 23:23N 31°29' E 121°23'1107.4
2017-Aug-19 23:22N 31°31' E 121°22'66062543.0
2017-Aug-19 23:22N 22°60' E 113°32'5157.7
2017-Aug-19 23:20N 23°04' E 113°29'6581938.0
2017-Aug-19 22:59N 31°31' E 121°22'1487.1
2017-Aug-19 22:59N 31°29' E 121°23'15909.5
2017-Aug-19 22:58N 31°41' E 121°12'1179.6
2017-Aug-19 22:58N 31°42' E 121°10'262149.6
2017-Aug-19 22:57N 31°24' E 121°34'11237.6
2017-Aug-19 22:54N 31°31' E 121°22'14168.5
2017-Aug-19 22:49N 31°41' E 121°11'17356.0
2017-Aug-19 22:46N 31°29' E 121°25'1 4.6
2017-Aug-19 22:32N 31°28' E 121°25'4122.9
2017-Aug-19 22:30N 31°31' E 121°22'197.1
2017-Aug-19 22:29N 31°29' E 121°23'1219.8
2017-Aug-19 22:29N 31°31' E 121°22'3142.1
2017-Aug-19 22:27N 31°28' E 121°25'171916.1
2017-Aug-19 22:27N 31°41' E 121°12'144.0
2017-Aug-19 22:25N 31°42' E 121°10'140.0
2017-Aug-19 22:24N 31°41' E 121°11'26657.0
2017-Aug-19 22:21N 31°24' E 121°34'9141.2
2017-Aug-19 22:18N 31°29' E 121°25'6594754.1
2017-Aug-19 22:09N 23°04' E 113°29'6583831.6
2017-Aug-19 21:59N 31°29' E 121°23'161930.1
2017-Aug-19 21:59N 31°41' E 121°11'14921.1
2017-Aug-19 21:58N 31°31' E 121°22'658139404.1
2017-Aug-19 21:57N 23°04' E 113°29'65887781.2
2017-Aug-19 21:57N 31°31' E 121°22'31262.3
2017-Aug-19 21:57N 31°29' E 121°25'162529.9
2017-Aug-19 21:56N 31°41' E 121°12'172665.2
2017-Aug-19 21:56N 31°28' E 121°25'47771502.0
2017-Aug-19 21:56N 24°07' E 118°02'47614045.7
2017-Aug-19 21:54N 31°24' E 121°34'3412238.6
2017-Aug-19 21:53N 31°47' E 121°04'828.8
2017-Aug-19 21:37N 31°42' E 121°10'66266182.3
2017-Aug-19 21:37N 22°60' E 113°32'65511024.7
2017-Aug-19 21:33N 32°02' E 120°27'4929904.3
2017-Aug-19 21:30N 24°06' E 118°02'476428731.5
2017-Aug-19 21:30N 31°24' E 121°34'101253.1
2017-Aug-19 21:30N 31°29' E 121°23'242874.4
2017-Aug-19 21:29N 31°47' E 121°04'235413.1
2017-Aug-19 21:29N 31°31' E 121°22'15257.3
2017-Aug-19 21:25N 31°42' E 121°10'1779.3
2017-Aug-19 21:12N 31°29' E 121°25'16868.5
2017-Aug-19 21:11N 31°41' E 121°12'452347.4
2017-Aug-19 21:10N 32°01' E 120°24'653195998.8
2017-Aug-19 21:10N 22°60' E 113°32'577.5
2017-Aug-19 21:05N 23°04' E 113°29'65822354.8
2017-Aug-19 21:04N 31°28' E 121°25'171495.0
2017-Aug-19 21:03N 31°41' E 121°12'012.6
2017-Aug-19 21:01N 31°41' E 121°11'14759.1
2017-Aug-19 21:00N 31°31' E 121°22'4336.2
2017-Aug-19 20:59N 31°28' E 121°25'2620.0
2017-Aug-19 20:59N 31°29' E 121°23'66028611.4
2017-Aug-19 20:58N 22°60' E 113°32'652195634.1
2017-Aug-19 20:57N 32°00' E 120°23'702896.4
2017-Aug-19 20:56N 31°24' E 121°34'66015433.7
2017-Aug-19 20:53N 23°04' E 113°29'6609066.2
2017-Aug-19 20:49N 31°42' E 121°10'140.4
2017-Aug-19 20:47N 31°41' E 121°12'1 5.8
2017-Aug-19 20:40N 31°41' E 121°11'6603616.2
2017-Aug-19 20:29N 23°04' E 113°29'658139418.3
2017-Aug-19 20:29N 31°31' E 121°22'11334.7
2017-Aug-19 20:29N 31°29' E 121°23'15879.7
2017-Aug-19 20:28N 31°41' E 121°12'17273.7
2017-Aug-19 20:24N 31°28' E 121°25'8200.9
2017-Aug-19 20:22N 31°24' E 121°34'717341.3
2017-Aug-19 20:21N 31°58' E 120°20'388100.4
2017-Aug-19 20:21N 31°47' E 121°03'9106.5
2017-Aug-19 20:16N 31°41' E 121°11'17253.3
2017-Aug-19 20:12N 31°29' E 121°25'17146.1
2017-Aug-19 20:05N 31°41' E 121°12'0 5.0
2017-Aug-19 20:00N 31°41' E 121°11'484529.3
2017-Aug-19 20:00N 31°57' E 120°18'626957.9
2017-Aug-19 19:59N 31°29' E 121°23'1205.3
2017-Aug-19 19:59N 31°31' E 121°22'12291.6
2017-Aug-19 19:56N 31°24' E 121°34'25506.4
2017-Aug-19 19:53N 31°41' E 121°12'66066026.2
2017-Aug-19 19:53N 23°04' E 113°29'6599968.0
2017-Aug-19 19:49N 31°29' E 121°25'17443.2
2017-Aug-19 19:46N 31°42' E 121°10'6602230.4
2017-Aug-19 19:29N 23°04' E 113°29'5350.0
2017-Aug-19 19:28N 22°60' E 113°32'662125400.8
2017-Aug-19 19:27N 31°42' E 121°10'151775.9
2017-Aug-19 19:27N 31°31' E 121°22'12777.7
2017-Aug-19 19:26N 31°24' E 121°34'741795.4
2017-Aug-19 19:23N 31°56' E 120°15'502623.7
2017-Aug-19 19:22N 31°41' E 121°11'17756.8
2017-Aug-19 19:21N 31°29' E 121°25'138.9
2017-Aug-19 19:19N 31°28' E 121°25'17187.6
2017-Aug-19 19:14N 31°41' E 121°12'0 4.8
2017-Aug-19 19:08N 31°41' E 121°12'51303.2
2017-Aug-19 18:58N 31°56' E 120°14'754991.4
2017-Aug-19 18:57N 31°24' E 121°34'82272.7
2017-Aug-19 18:57N 31°28' E 121°25'1863628.7
2017-Aug-19 18:57N 31°41' E 121°11'11176.4
2017-Aug-19 18:57N 31°41' E 121°12'132207.5
2017-Aug-19 18:57N 31°31' E 121°22'66026410.4
2017-Aug-19 18:55N 22°60' E 113°32'66221287.3
2017-Aug-19 18:53N 31°41' E 121°12'66057974.6
2017-Aug-19 18:53N 23°04' E 113°29'65821161.1
2017-Aug-19 18:51N 31°31' E 121°22'23666.8
2017-Aug-19 18:49N 31°47' E 121°04'24105.8
2017-Aug-19 18:35N 31°29' E 121°23'118.7
2017-Aug-19 18:30N 31°31' E 121°22'6577529.3
2017-Aug-19 18:30N 31°56' E 120°12'5218750.2
2017-Aug-19 18:30N 31°41' E 121°11'16916.8
2017-Aug-19 18:29N 31°29' E 121°23'257.6
2017-Aug-19 18:27N 31°28' E 121°25'81136.4
2017-Aug-19 18:26N 31°24' E 121°34'66052816.7
2017-Aug-19 18:26N 23°04' E 113°29'660107994.4
2017-Aug-19 18:25N 31°41' E 121°12'66272215.3
2017-Aug-19 18:25N 22°60' E 113°32'66217265.1
2017-Aug-19 18:22N 31°42' E 121°10'17166.2
2017-Aug-19 18:16N 31°29' E 121°25'319.8
2017-Aug-19 18:08N 31°31' E 121°22'1 8.3
2017-Aug-19 17:59N 31°29' E 121°23'156703.6
2017-Aug-19 17:59N 31°41' E 121°12'131617.8
2017-Aug-19 17:58N 31°31' E 121°22'4290.0
2017-Aug-19 17:58N 31°28' E 121°25'181271.9
2017-Aug-19 17:57N 31°41' E 121°11'261560.9
2017-Aug-19 17:56N 31°24' E 121°34'785834.1
2017-Aug-19 17:55N 31°56' E 120°10'6421155577.3
2017-Aug-19 17:55N 22°60' E 113°32'5306.5
2017-Aug-19 17:54N 23°04' E 113°29'660791772.2
2017-Aug-19 17:54N 31°42' E 121°10'25214.9
2017-Aug-19 17:47N 31°25' E 121°32'1035.1
2017-Aug-19 17:30N 31°31' E 121°22'1147.8
2017-Aug-19 17:29N 31°29' E 121°23'692293.5
2017-Aug-19 17:27N 31°56' E 120°08'7921934.3
2017-Aug-19 17:27N 31°24' E 121°34'267678.0
2017-Aug-19 17:27N 31°41' E 121°11'18935.9
2017-Aug-19 17:26N 31°28' E 121°25'65826624.8
2017-Aug-19 17:24N 23°04' E 113°29'66021205.2
2017-Aug-19 17:22N 31°25' E 121°32'831125.8
2017-Aug-19 17:18N 30°04' E 121°55'6197048.2
2017-Aug-19 17:13N 22°60' E 113°32'65812264.8
2017-Aug-19 17:09N 31°22' E 121°29'243308.9
2017-Aug-19 17:09N 31°41' E 121°12'161238.6
2017-Aug-19 17:08N 31°29' E 121°25'212.1
2017-Aug-19 16:59N 31°29' E 121°23'91524.9
2017-Aug-19 16:59N 31°25' E 121°32'847570.7
2017-Aug-19 16:58N 30°03' E 121°56'8342782.4
2017-Aug-19 16:58N 31°24' E 121°34'2692234.7
2017-Aug-19 16:58N 31°41' E 121°11'662148951.1
2017-Aug-19 16:58N 22°60' E 113°32'658118356.2
2017-Aug-19 16:57N 31°22' E 121°29'788535.9
2017-Aug-19 16:57N 31°57' E 120°06'731163.5
2017-Aug-19 16:53N 31°28' E 121°25'4335.8
2017-Aug-19 16:52N 31°31' E 121°22'94249.1
2017-Aug-19 16:30N 30°01' E 121°57'9422678.0
2017-Aug-19 16:29N 31°31' E 121°22'1269.9
2017-Aug-19 16:29N 31°29' E 121°23'10364.7
2017-Aug-19 16:27N 31°24' E 121°34'66014762.3
2017-Aug-19 16:25N 23°04' E 113°29'660125045.6
2017-Aug-19 16:24N 31°41' E 121°11'24876.2
2017-Aug-19 16:23N 31°25' E 121°32'829180.7
2017-Aug-19 16:22N 31°57' E 120°04'813814.6
2017-Aug-19 16:21N 31°22' E 121°29'8169.5
2017-Aug-19 16:18N 31°29' E 121°25'17232.0
2017-Aug-19 16:13N 31°42' E 121°10'181252.6
2017-Aug-19 16:13N 31°28' E 121°25'124.9
2017-Aug-19 16:10N 31°29' E 121°25'16245.5
2017-Aug-19 16:06N 31°41' E 121°12'14150.8
2017-Aug-19 16:00N 31°31' E 121°22'33166.6
2017-Aug-19 16:00N 31°29' E 121°25'96172040.0
2017-Aug-19 16:00N 29°59' E 121°59'964802.5
2017-Aug-19 15:59N 31°29' E 121°23'2158.3
2017-Aug-19 15:58N 31°28' E 121°25'65869695.6
2017-Aug-19 15:58N 23°04' E 113°29'65614220.3
2017-Aug-19 15:55N 31°22' E 121°29'831345.8
2017-Aug-19 15:51N 31°58' E 120°01'636094.0
2017-Aug-19 15:51N 31°41' E 121°12'241226.5
2017-Aug-19 15:49N 31°25' E 121°32'24757.8
2017-Aug-19 15:47N 31°41' E 121°11'26430.9
2017-Aug-19 15:44N 31°21' E 121°30'65832436.4
2017-Aug-19 15:43N 22°60' E 113°32'6623220.5
2017-Aug-19 15:30N 31°41' E 121°12'247189.1
2017-Aug-19 15:30N 31°22' E 121°29'9539.8
2017-Aug-19 15:29N 31°29' E 121°23'915963.8
2017-Aug-19 15:29N 31°25' E 121°32'66042412.0
2017-Aug-19 15:28N 23°04' E 113°29'637163902.1
2017-Aug-19 15:28N 31°60' E 119°59'772446.3
2017-Aug-19 15:26N 31°31' E 121°22'31056.7
2017-Aug-19 15:26N 31°29' E 121°25'23543.3
2017-Aug-19 15:23N 31°45' E 121°06'6625136.3
2017-Aug-19 15:16N 22°60' E 113°32'66046594.4
2017-Aug-19 15:15N 31°28' E 121°25'8186.9
2017-Aug-19 15:12N 31°24' E 121°34'282176.2
2017-Aug-19 15:11N 31°43' E 121°08'3119.9
2017-Aug-19 15:10N 31°41' E 121°11'6634527.5
2017-Aug-19 15:01N 22°56' E 113°36'66324590.7
2017-Aug-19 15:00N 31°43' E 121°08'191922.1
2017-Aug-19 14:59N 31°29' E 121°23'2237.1
2017-Aug-19 14:58N 31°28' E 121°25'4412.6
2017-Aug-19 14:58N 31°31' E 121°22'102355.6
2017-Aug-19 14:58N 31°22' E 121°29'658591755.7
2017-Aug-19 14:58N 22°60' E 113°32'66266199.0
2017-Aug-19 14:57N 31°24' E 121°34'4171.4
2017-Aug-19 14:56N 31°21' E 121°30'253138.3
2017-Aug-19 14:55N 31°41' E 121°12'170.5
2017-Aug-19 14:54N 31°41' E 121°11'66032106.3
2017-Aug-19 14:53N 23°04' E 113°29'11467.6
2017-Aug-19 14:52N 22°54' E 113°30'616.7
2017-Aug-19 14:31N 22°56' E 113°36'6621275.8
2017-Aug-19 14:00N 31°24' E 121°33'10752.0
2017-Aug-19 13:59N 31°29' E 121°23'11075.6
2017-Aug-19 13:59N 31°31' E 121°22'10101.4
2017-Aug-19 13:53N 31°22' E 121°29'838.9
2017-Aug-19 13:40N 31°29' E 121°25'991430.7
2017-Aug-19 13:36N 29°56' E 122°03'1171508.0
2017-Aug-19 13:31N 31°43' E 121°08'1175214.6
2017-Aug-19 13:30N 29°56' E 122°04'61915589.3
2017-Aug-19 13:28N 22°60' E 113°32'66020490.5
2017-Aug-19 13:26N 31°31' E 121°22'663452.9
2017-Aug-19 13:24N 31°57' E 120°11'76393.4
2017-Aug-19 13:13N 31°22' E 121°30'95460.1
2017-Aug-19 13:00N 29°53' E 122°09'95114440.3
2017-Aug-19 13:00N 31°22' E 121°29'10562.8
2017-Aug-19 12:59N 31°31' E 121°22'645653.5
2017-Aug-19 12:59N 31°57' E 120°13'64434604.3
2017-Aug-19 12:57N 22°60' E 113°32'66195193.3
2017-Aug-19 12:57N 31°34' E 121°19'16305.3
2017-Aug-19 12:54N 31°21' E 121°30'1032.8
2017-Aug-19 12:35N 31°29' E 121°23'1031277.5
2017-Aug-19 12:30N 29°54' E 122°08'15617046.3
2017-Aug-19 12:30N 31°57' E 120°15'722532.4
2017-Aug-19 12:28N 31°22' E 121°29'10739.0
2017-Aug-19 12:27N 31°31' E 121°22'1567.1
2017-Aug-19 12:27N 31°32' E 121°22'11275.0
2017-Aug-19 12:25N 31°23' E 121°30'9396.2
2017-Aug-19 12:23N 31°29' E 121°23'16214.9
2017-Aug-19 12:19N 31°41' E 121°11'4545556.2
2017-Aug-19 12:14N 24°24' E 118°53'44620076.6
2017-Aug-19 12:13N 31°30' E 121°25'6596645.4
2017-Aug-19 12:07N 23°04' E 113°29'660395967.2
2017-Aug-19 12:07N 31°37' E 121°16'53403.6
2017-Aug-19 11:59N 31°58' E 120°18'15220328.2
2017-Aug-19 11:58N 29°56' E 122°05'1156766.1
2017-Aug-19 11:57N 31°41' E 121°11'141131.9
2017-Aug-19 11:56N 31°31' E 121°22'10365.9
2017-Aug-19 11:55N 31°22' E 121°29'6562360593.5
2017-Aug-19 11:55N 23°04' E 113°29'65823445.4
2017-Aug-19 11:53N 31°29' E 121°23'4444787.2
2017-Aug-19 11:47N 24°25' E 118°54'3073728.0
2017-Aug-19 11:43N 22°60' E 113°32'65823693.4
2017-Aug-19 11:41N 31°22' E 121°30'881.4
2017-Aug-19 11:35N 31°29' E 121°25'4436041.7
2017-Aug-19 11:30N 24°27' E 118°54'44414387.1
2017-Aug-19 11:29N 31°31' E 121°22'66034955.6
2017-Aug-19 11:27N 22°60' E 113°32'619318525.9
2017-Aug-19 11:27N 29°59' E 122°01'952147.8
2017-Aug-19 11:25N 31°29' E 121°25'172515.9
2017-Aug-19 11:24N 31°41' E 121°11'25459.8
2017-Aug-19 11:21N 31°22' E 121°29'14169.7
2017-Aug-19 11:16N 31°34' E 121°20'11986.4
2017-Aug-19 11:15N 31°27' E 121°29'20592.3
2017-Aug-19 11:13N 31°41' E 121°12'6607664.2
2017-Aug-19 11:08N 23°04' E 113°29'67610865.7
2017-Aug-19 11:04N 30°02' E 123°23'1281821.2
2017-Aug-19 11:00N 31°26' E 121°30'81166.7
2017-Aug-19 11:00N 31°31' E 121°22'658474028.5
2017-Aug-19 11:00N 23°04' E 113°29'66029698.7
2017-Aug-19 10:58N 31°41' E 121°12'66244964.2
2017-Aug-19 10:57N 22°60' E 113°32'66217918.3
2017-Aug-19 10:55N 31°41' E 121°11'16418.1
2017-Aug-19 10:53N 31°29' E 121°23'9400.1
2017-Aug-19 10:52N 31°22' E 121°29'1177.5
2017-Aug-19 10:43N 31°32' E 121°22'11115.0
2017-Aug-19 10:37N 31°25' E 121°32'44253031.2
2017-Aug-19 10:37N 24°26' E 118°54'44413104.7
2017-Aug-19 10:35N 31°29' E 121°25'890.4
2017-Aug-19 10:30N 31°22' E 121°29'2613.1
2017-Aug-19 10:29N 31°24' E 121°31'44144054.3
2017-Aug-19 10:29N 24°26' E 118°54'44594232.6
2017-Aug-19 10:28N 31°31' E 121°22'141818.0
2017-Aug-19 10:28N 31°41' E 121°11'66211739.7
2017-Aug-19 10:25N 22°60' E 113°32'584.6
2017-Aug-19 10:21N 23°04' E 113°29'65869645.5
2017-Aug-19 10:20N 31°29' E 121°23'2265.2
2017-Aug-19 10:20N 31°29' E 121°25'16370.6
2017-Aug-19 10:17N 31°41' E 121°12'23273.9
2017-Aug-19 10:12N 31°25' E 121°32'4442252.2
2017-Aug-19 10:00N 24°24' E 118°53'42461119.7
2017-Aug-19 10:00N 30°44' E 122°27'619527.3
2017-Aug-19 09:59N 31°21' E 121°31'12825.3
2017-Aug-19 09:58N 31°31' E 121°22'14308.4
2017-Aug-19 09:56N 31°41' E 121°11'66235046.3
2017-Aug-19 09:55N 22°60' E 113°32'98948781.1
2017-Aug-19 09:53N 39°05' E 117°46'489109923.3
2017-Aug-19 09:53N 31°29' E 121°23'658338278.0
2017-Aug-19 09:53N 23°04' E 113°29'660197937.5
2017-Aug-19 09:53N 31°25' E 121°32'4318.9
2017-Aug-19 09:52N 31°22' E 121°29'241591.1
2017-Aug-19 09:51N 31°41' E 121°12'16354.6
2017-Aug-19 09:48N 31°29' E 121°25'1 4.0
2017-Aug-19 09:32N 31°28' E 121°25'44620853.8
2017-Aug-19 09:30N 24°23' E 118°52'44836621.3
2017-Aug-19 09:30N 31°31' E 121°22'65814452.1
2017-Aug-19 09:27N 23°04' E 113°29'658131646.9
2017-Aug-19 09:27N 31°28' E 121°25'72997.0
2017-Aug-19 09:27N 31°25' E 121°32'231188.3
2017-Aug-19 09:25N 31°41' E 121°12'15383.1
2017-Aug-19 09:23N 31°29' E 121°23'16242.4
2017-Aug-19 09:19N 31°41' E 121°11'25445.9
2017-Aug-19 09:16N 31°22' E 121°29'6576212.5
2017-Aug-19 09:10N 22°60' E 113°32'6589294.0
2017-Aug-19 09:05N 31°22' E 121°30'4435427.7
2017-Aug-19 09:00N 24°22' E 118°51'30545721.3
2017-Aug-19 09:00N 23°04' E 113°29'65843850.8
2017-Aug-19 08:59N 31°29' E 121°23'932388.4
2017-Aug-19 08:59N 31°22' E 121°29'1107.8
2017-Aug-19 08:58N 31°23' E 121°30'65939517.3
2017-Aug-19 08:57N 22°60' E 113°32'66011708.5
2017-Aug-19 08:54N 31°31' E 121°22'14144.7
2017-Aug-19 08:48N 31°41' E 121°11'60330.0
2017-Aug-19 08:37N 31°58' E 120°03'762972.4
2017-Aug-19 08:36N 31°28' E 121°25'7226.3
2017-Aug-19 08:34N 31°25' E 121°32'7195.7
2017-Aug-19 08:32N 31°29' E 121°25'44819677.8
2017-Aug-19 08:30N 24°22' E 118°51'44537273.0
2017-Aug-19 08:30N 31°24' E 121°31'91008.9
2017-Aug-19 08:29N 31°29' E 121°23'66025261.8
2017-Aug-19 08:28N 22°60' E 113°32'5589.5
2017-Aug-19 08:27N 23°04' E 113°29'65829260.6
2017-Aug-19 08:26N 31°31' E 121°22'10660.6
2017-Aug-19 08:25N 31°22' E 121°29'8013790.4
2017-Aug-19 08:24N 31°58' E 120°04'757488.9
2017-Aug-19 08:24N 31°28' E 121°25'796.4
2017-Aug-19 08:20N 31°25' E 121°32'2373.5
2017-Aug-19 08:00N 31°41' E 121°12'453148275.5
2017-Aug-19 08:00N 24°24' E 118°54'446114583.7
2017-Aug-19 08:00N 31°29' E 121°25'3225.6
2017-Aug-19 07:59N 31°31' E 121°22'1490.7
2017-Aug-19 07:59N 31°29' E 121°23'707236.0
2017-Aug-19 07:58N 31°57' E 120°07'784328.8
2017-Aug-19 07:57N 31°22' E 121°29'5230.8
2017-Aug-19 07:56N 31°27' E 121°28'6599446.0
2017-Aug-19 07:52N 23°04' E 113°29'5607.9
2017-Aug-19 07:51N 22°60' E 113°32'6622670.0
2017-Aug-19 07:37N 31°25' E 121°32'6626615.7
2017-Aug-19 07:31N 22°60' E 113°32'5299.3
2017-Aug-19 07:29N 23°04' E 113°29'658474031.8
2017-Aug-19 07:29N 31°31' E 121°22'10459.9
2017-Aug-19 07:28N 31°22' E 121°29'81249.4
2017-Aug-19 07:28N 31°29' E 121°25'16366.6
2017-Aug-19 07:25N 31°41' E 121°12'5465107.0
2017-Aug-19 07:25N 31°57' E 120°11'64410786.1
2017-Aug-19 07:21N 22°56' E 113°36'6607225.7
2017-Aug-19 07:16N 31°29' E 121°23'9123.3
2017-Aug-19 07:12N 31°25' E 121°32'4447763.6
2017-Aug-19 07:08N 24°24' E 118°53'45443025.0
2017-Aug-19 07:07N 31°41' E 121°11'66910844.0
2017-Aug-19 07:04N 22°48' E 113°36'66812459.6
2017-Aug-19 07:01N 31°25' E 121°32'111051.4
2017-Aug-19 07:00N 31°31' E 121°21'632811.4
2017-Aug-19 06:59N 31°57' E 120°13'525496.2
2017-Aug-19 06:58N 31°41' E 121°12'155362.8
2017-Aug-19 06:58N 31°29' E 121°23'9276.8
2017-Aug-19 06:56N 31°22' E 121°29'10819.7
2017-Aug-19 06:55N 31°31' E 121°22'14959.9
2017-Aug-19 06:54N 31°41' E 121°11'66050551.2
2017-Aug-19 06:53N 23°04' E 113°29'15976.9
2017-Aug-19 06:52N 22°50' E 113°35'6668300.1
2017-Aug-19 06:48N 31°29' E 121°25'6602757.4
2017-Aug-19 06:33N 22°60' E 113°32'64610525.4
2017-Aug-19 06:30N 31°57' E 120°16'64428972.0
2017-Aug-19 06:28N 23°04' E 113°29'659107852.0
2017-Aug-19 06:28N 31°30' E 121°25'6652393389.2
2017-Aug-19 06:28N 22°53' E 113°34'66582601.0
2017-Aug-19 06:27N 31°25' E 121°32'103320.4
2017-Aug-19 06:27N 31°31' E 121°22'14628.1
2017-Aug-19 06:26N 31°41' E 121°11'9439.4
2017-Aug-19 06:25N 31°34' E 121°18'15275.3
2017-Aug-19 06:21N 31°22' E 121°29'241074.0
2017-Aug-19 06:20N 31°41' E 121°12'151411.3
2017-Aug-19 06:19N 31°29' E 121°23'6605749.7
2017-Aug-19 06:12N 22°60' E 113°32'6603247.1
2017-Aug-19 06:00N 31°31' E 121°22'66279435.2
2017-Aug-19 06:00N 22°57' E 113°32'66346790.7
2017-Aug-19 05:59N 31°36' E 121°16'9152.8
2017-Aug-19 05:55N 31°29' E 121°23'91885.7
2017-Aug-19 05:55N 31°25' E 121°32'66264368.2
2017-Aug-19 05:54N 22°60' E 113°32'5178.5
2017-Aug-19 05:53N 23°04' E 113°29'66034433.5
2017-Aug-19 05:51N 31°41' E 121°12'242864.5
2017-Aug-19 05:51N 31°22' E 121°29'692551.9
2017-Aug-19 05:49N 31°60' E 120°20'63675.1
2017-Aug-19 05:44N 31°29' E 121°25'6612977.2
2017-Aug-19 05:30N 22°60' E 113°32'2206.5
2017-Aug-19 05:30N 23°02' E 113°31'66038943.4
2017-Aug-19 05:29N 31°29' E 121°25'372.6
2017-Aug-19 05:26N 31°31' E 121°22'591462.1
2017-Aug-19 05:24N 32°01' E 120°23'482573.5
2017-Aug-19 05:23N 31°39' E 121°13'22583.1
2017-Aug-19 05:21N 31°22' E 121°29'81245.6
2017-Aug-19 05:20N 31°30' E 121°25'2121.0
2017-Aug-19 05:19N 31°29' E 121°23'1341.1
2017-Aug-19 05:00N 31°39' E 121°13'66020141.8
2017-Aug-19 04:58N 23°02' E 113°31'659593328.5
2017-Aug-19 04:58N 31°31' E 121°22'3252.8
2017-Aug-19 04:58N 31°30' E 121°25'61219345.3
2017-Aug-19 04:58N 32°02' E 120°25'611485.0
2017-Aug-19 04:55N 31°29' E 121°25'8241.2
2017-Aug-19 04:53N 31°22' E 121°29'4357.0
2017-Aug-19 04:53N 31°25' E 121°32'958.6
2017-Aug-19 04:43N 31°29' E 121°23'65840826.2
2017-Aug-19 04:42N 23°04' E 113°29'310.2
2017-Aug-19 04:27N 23°02' E 113°31'65921773.5
2017-Aug-19 04:25N 31°31' E 121°22'10500.2
2017-Aug-19 04:24N 31°25' E 121°32'221817.2
2017-Aug-19 04:23N 31°39' E 121°13'65953941.2
2017-Aug-19 04:22N 23°04' E 113°29'6597060.2
2017-Aug-19 04:17N 31°29' E 121°25'1 6.6
2017-Aug-19 04:06N 31°28' E 121°25'798.0
2017-Aug-19 04:02N 31°22' E 121°29'6581184691.4
2017-Aug-19 04:02N 22°56' E 113°36'66110915.3
2017-Aug-19 03:58N 31°31' E 121°22'65956507.5
2017-Aug-19 03:57N 23°02' E 113°31'65762198.7
2017-Aug-19 03:57N 31°22' E 121°29'956966.6
2017-Aug-19 03:56N 29°56' E 122°16'1161636.7
2017-Aug-19 03:52N 31°39' E 121°13'6597463.6
2017-Aug-19 03:46N 23°04' E 113°29'10208.1
2017-Aug-19 03:43N 22°56' E 113°36'66011057.0
2017-Aug-19 03:40N 31°29' E 121°23'218.4
2017-Aug-19 03:34N 31°30' E 121°25'66010800.0
2017-Aug-19 03:30N 23°02' E 113°31'661139960.6
2017-Aug-19 03:30N 31°41' E 121°11'142327.4
2017-Aug-19 03:30N 31°31' E 121°22'147.1
2017-Aug-19 03:28N 31°29' E 121°23'23252.0
2017-Aug-19 03:28N 31°30' E 121°25'661113315.4
2017-Aug-19 03:27N 22°60' E 113°32'4129.5
2017-Aug-19 03:25N 22°56' E 113°36'658263266.5
2017-Aug-19 03:25N 31°22' E 121°29'443.1
2017-Aug-19 03:20N 31°25' E 121°32'22867.8
2017-Aug-19 03:18N 31°39' E 121°13'659182569.0
2017-Aug-19 03:18N 23°04' E 113°29'3 9.2
2017-Aug-19 03:01N 23°02' E 113°31'661264368.1
2017-Aug-19 03:00N 31°41' E 121°11'251055.5
2017-Aug-19 02:59N 31°22' E 121°29'101019.6
2017-Aug-19 02:58N 31°31' E 121°22'3259.2
2017-Aug-19 02:58N 31°30' E 121°25'14267.9
2017-Aug-19 02:55N 31°39' E 121°13'2215628.3
2017-Aug-19 02:55N 31°25' E 121°32'47610206.4
2017-Aug-19 02:52N 24°08' E 117°58'47838227.6
2017-Aug-19 02:51N 31°29' E 121°25'2 5.3
2017-Aug-19 02:31N 31°29' E 121°23'14441.1
2017-Aug-19 02:29N 31°41' E 121°13'22528.4
2017-Aug-19 02:26N 31°25' E 121°32'477143082.2
2017-Aug-19 02:26N 24°06' E 118°01'25643854.0
2017-Aug-19 02:26N 23°02' E 113°31'65938869.2
2017-Aug-19 02:25N 31°29' E 121°23'189.4
2017-Aug-19 02:24N 31°31' E 121°22'115810.3
2017-Aug-19 02:24N 31°20' E 121°21'74210.7
2017-Aug-19 02:24N 31°22' E 121°29'65816102.4
2017-Aug-19 02:21N 22°60' E 113°32'66112871.3
2017-Aug-19 02:18N 31°41' E 121°11'1685.5
2017-Aug-19 02:07N 31°30' E 121°25'0 0.1
2017-Aug-19 01:59N 31°30' E 121°25'66015945.2
2017-Aug-19 01:56N 23°02' E 113°31'659148328.9
2017-Aug-19 01:56N 31°31' E 121°22'1112.7
2017-Aug-19 01:55N 31°29' E 121°23'9906.0
2017-Aug-19 01:55N 31°22' E 121°29'47116624.6
2017-Aug-19 01:53N 24°09' E 118°00'47523422.0
2017-Aug-19 01:52N 31°25' E 121°32'241527.8
2017-Aug-19 01:51N 31°41' E 121°11'66010330.6
2017-Aug-19 01:47N 23°04' E 113°29'658131649.0
2017-Aug-19 01:47N 31°28' E 121°25'161450.2
2017-Aug-19 01:46N 31°41' E 121°13'66358173.0
2017-Aug-19 01:45N 22°60' E 113°32'66228706.3
2017-Aug-19 01:44N 31°41' E 121°12'57385.0
2017-Aug-19 01:35N 31°57' E 120°08'13154.4
2017-Aug-19 01:30N 32°00' E 120°23'472243.7
2017-Aug-19 01:29N 31°41' E 121°13'155979.7
2017-Aug-19 01:29N 31°30' E 121°25'1510585.2
2017-Aug-19 01:29N 31°40' E 121°13'661339853.0
2017-Aug-19 01:28N 23°02' E 113°31'258930143.3
2017-Aug-19 01:28N 24°08' E 118°03'48229930.3
2017-Aug-19 01:27N 31°57' E 120°09'6421156170.0
2017-Aug-19 01:27N 22°60' E 113°32'66019974.5
2017-Aug-19 01:25N 31°31' E 121°22'66531923.2
2017-Aug-19 01:24N 23°03' E 113°19'9515.3
2017-Aug-19 01:23N 23°04' E 113°29'6607894.2
2017-Aug-19 01:18N 31°41' E 121°11'1 8.1
2017-Aug-19 01:13N 31°41' E 121°12'16112.6
2017-Aug-19 01:04N 31°29' E 121°25'16217.0
2017-Aug-19 01:00N 31°41' E 121°12'666133180.7
2017-Aug-19 01:00N 23°02' E 113°21'269107681.6
2017-Aug-19 01:00N 24°07' E 118°06'48325197.1
2017-Aug-19 00:58N 31°41' E 121°13'492054.5
2017-Aug-19 00:57N 31°58' E 120°20'648211922.4
2017-Aug-19 00:57N 23°02' E 113°31'66036001.0
2017-Aug-19 00:56N 31°30' E 121°25'66130905.6
2017-Aug-19 00:54N 22°60' E 113°32'66295328.0
2017-Aug-19 00:54N 31°41' E 121°11'17772.6
2017-Aug-19 00:53N 31°29' E 121°25'9128.1
2017-Aug-19 00:48N 31°20' E 121°23'11385.3
2017-Aug-19 00:47N 31°31' E 121°22'10216.7
2017-Aug-19 00:44N 31°22' E 121°29'439.3
2017-Aug-19 00:38N 31°25' E 121°32'6645651.6
2017-Aug-19 00:30N 23°02' E 113°24'648111039.2
2017-Aug-19 00:30N 31°57' E 120°17'642814.9
2017-Aug-19 00:29N 31°29' E 121°25'3175.8
2017-Aug-19 00:28N 31°31' E 121°22'66091420.4
2017-Aug-19 00:27N 22°60' E 113°32'654336264.5
2017-Aug-19 00:27N 31°20' E 121°25'20437.9
2017-Aug-19 00:25N 31°38' E 121°14'201249.7
2017-Aug-19 00:24N 31°25' E 121°32'66136034.1
2017-Aug-19 00:22N 23°02' E 113°31'65971879.3
2017-Aug-19 00:22N 31°30' E 121°23'9103.2
2017-Aug-19 00:17N 31°22' E 121°29'24673.4
2017-Aug-19 00:15N 31°41' E 121°12'1681.0
2017-Aug-19 00:03N 31°30' E 121°25'47826898.8
2017-Aug-19 00:02N 24°07' E 118°01'25511206.6
2017-Aug-19 00:00N 22°60' E 113°32'643178183.3
2017-Aug-19 00:00N 31°56' E 120°13'6421155530.8
2017-Aug-19 00:00N 23°05' E 113°26'52431.6
2017-Aug-19 00:00N 23°02' E 113°31'657118175.9
2017-Aug-19 00:00N 31°22' E 121°29'3505.3
2017-Aug-18 23:59N 31°21' E 121°26'10696.3
2017-Aug-18 23:58N 31°31' E 121°22'3213.3
2017-Aug-18 23:58N 31°30' E 121°25'47814971.5
2017-Aug-18 23:56N 24°07' E 118°01'477114362.8
2017-Aug-18 23:56N 31°25' E 121°32'231134.4
2017-Aug-18 23:54N 31°41' E 121°12'513511.3
2017-Aug-18 23:53N 31°57' E 120°15'641356.2
2017-Aug-18 23:51N 31°30' E 121°23'1283.1
2017-Aug-18 23:42N 31°21' E 121°32'271464.9
2017-Aug-18 23:41N 31°41' E 121°11'17138.2
2017-Aug-18 23:34N 31°29' E 121°25'65911516.4
2017-Aug-18 23:30N 23°04' E 113°30'660396036.6
2017-Aug-18 23:30N 31°41' E 121°11'552974.7
2017-Aug-18 23:29N 31°56' E 120°09'6760305.5
2017-Aug-18 23:29N 31°31' E 121°22'659593307.5
2017-Aug-18 23:29N 23°02' E 113°31'65659011.3
2017-Aug-18 23:28N 31°22' E 121°28'8197.1
2017-Aug-18 23:26N 31°30' E 121°25'16529.1
2017-Aug-18 23:24N 31°41' E 121°12'15906.1
2017-Aug-18 23:23N 31°30' E 121°23'228.6
2017-Aug-18 23:20N 31°29' E 121°25'47651893.0
2017-Aug-18 23:19N 24°07' E 118°08'47020896.4
2017-Aug-18 23:18N 31°22' E 121°29'1109.6
2017-Aug-18 23:17N 31°21' E 121°30'485.6
2017-Aug-18 23:14N 31°25' E 121°32'44559349.2
2017-Aug-18 23:14N 24°23' E 118°52'3062284.1
2017-Aug-18 23:06N 23°04' E 113°29'6577076.6
2017-Aug-18 23:00N 31°22' E 121°30'33889.0
2017-Aug-18 23:00N 31°25' E 121°32'32335.0
2017-Aug-18 23:00N 31°22' E 121°30'65834328.3
2017-Aug-18 22:59N 23°01' E 113°32'660474841.8
2017-Aug-18 22:59N 31°30' E 121°23'166.5
2017-Aug-18 22:58N 31°31' E 121°22'659131846.1
2017-Aug-18 22:57N 23°02' E 113°31'66116636.4
2017-Aug-18 22:55N 31°41' E 121°12'66034431.1
2017-Aug-18 22:54N 23°04' E 113°29'26317198.4
2017-Aug-18 22:53N 24°07' E 118°08'4765851.1
2017-Aug-18 22:48N 31°30' E 121°25'5387202020.5
2017-Aug-18 22:46N 49°18' W 123°02'5391497599.7
2017-Aug-18 22:46N 31°22' E 121°29'4681776.4
2017-Aug-18 22:30N 24°08' E 118°11'590821270146.5
2017-Aug-18 22:30N 49°18' W 123°03'618463244.4
2017-Aug-18 22:24N 22°60' E 113°32'394.1
2017-Aug-18 22:22N 23°02' E 113°31'3124.1
2017-Aug-18 22:21N 22°60' E 113°32'661475765.6
2017-Aug-18 22:21N 31°28' E 121°27'5250.3
2017-Aug-18 22:20N 31°31' E 121°22'381.6
2017-Aug-18 22:18N 31°30' E 121°25'230.4
2017-Aug-18 22:15N 31°30' E 121°23'932307.3
2017-Aug-18 22:15N 31°22' E 121°29'6567948.1
2017-Aug-18 22:10N 23°04' E 113°29'65824948.8
2017-Aug-18 22:08N 31°24' E 121°31'398.9
2017-Aug-18 22:06N 31°26' E 121°29'877.4
2017-Aug-18 22:00N 31°31' E 121°22'471112993.4
2017-Aug-18 22:00N 24°11' E 118°12'467420691.6
2017-Aug-18 22:00N 31°24' E 121°32'9260.9
2017-Aug-18 21:58N 31°30' E 121°23'658102998.7
2017-Aug-18 21:58N 23°04' E 113°29'3220.0
2017-Aug-18 21:57N 23°02' E 113°31'65718321.8
2017-Aug-18 21:55N 31°22' E 121°29'65887668.1
2017-Aug-18 21:54N 22°60' E 113°32'071.3
2017-Aug-18 21:54N 22°60' E 113°32'6181288974.8
2017-Aug-18 21:53N 49°18' W 123°07'5384217761.2
2017-Aug-18 21:51N 31°27' E 121°28'1959.7
2017-Aug-18 21:32N 31°41' E 121°12'66125858.7
2017-Aug-18 21:30N 23°02' E 113°31'31253.9
2017-Aug-18 21:30N 22°60' E 113°32'0190.1
2017-Aug-18 21:30N 22°60' E 113°32'6181176594.9
2017-Aug-18 21:28N 49°17' W 123°07'5384538398.5
2017-Aug-18 21:28N 31°41' E 121°12'213770.3
2017-Aug-18 21:27N 31°26' E 121°29'46550778.5
2017-Aug-18 21:27N 24°15' E 118°10'4679557.4
2017-Aug-18 21:24N 31°29' E 121°25'260.4
2017-Aug-18 21:22N 31°30' E 121°23'65884603.5
2017-Aug-18 21:22N 23°04' E 113°29'6607008.5
2017-Aug-18 21:16N 31°41' E 121°11'1793.7
2017-Aug-18 21:05N 31°30' E 121°25'6617879.0
2017-Aug-18 21:00N 22°60' E 113°32'0208.8
2017-Aug-18 21:00N 22°60' E 113°32'265191155.3
2017-Aug-18 21:00N 24°18' E 118°09'26647941.5
2017-Aug-18 21:00N 23°02' E 113°31'659790677.9
2017-Aug-18 21:00N 31°30' E 121°23'294.8
2017-Aug-18 20:59N 31°31' E 121°22'5384276893.9
2017-Aug-18 20:58N 49°18' W 123°07'5384312600.1
2017-Aug-18 20:57N 31°41' E 121°11'110.3
2017-Aug-18 20:52N 31°41' E 121°12'6606235.4
2017-Aug-18 20:46N 23°04' E 113°29'66029692.1
2017-Aug-18 20:44N 31°42' E 121°10'592385.7
2017-Aug-18 20:43N 31°58' E 120°04'755397.6
2017-Aug-18 20:42N 31°29' E 121°25'0 2.2
2017-Aug-18 20:36N 31°30' E 121°25'569.8
2017-Aug-18 20:32N 31°33' E 121°20'66028638.1
2017-Aug-18 20:30N 22°60' E 113°32'0179.0
2017-Aug-18 20:30N 22°60' E 113°32'66026693.4
2017-Aug-18 20:29N 31°31' E 121°22'35481.7
2017-Aug-18 20:29N 31°33' E 121°20'6813673.4
2017-Aug-18 20:28N 31°58' E 120°05'591738.3
2017-Aug-18 20:26N 31°41' E 121°12'242671.9
2017-Aug-18 20:26N 31°22' E 121°29'8570.4
2017-Aug-18 20:25N 31°29' E 121°25'18700.0
2017-Aug-18 20:23N 31°42' E 121°10'66020302.3
2017-Aug-18 20:21N 23°04' E 113°29'65852642.6
2017-Aug-18 20:21N 31°30' E 121°23'16202.4
2017-Aug-18 20:16N 31°41' E 121°11'6602546.5
2017-Aug-18 20:01N 23°04' E 113°29'33178.4
2017-Aug-18 20:00N 23°02' E 113°31'3834.4
2017-Aug-18 20:00N 22°60' E 113°32'61763705855.3
2017-Aug-18 20:00N 49°20' W 123°12'53791760477.5
2017-Aug-18 20:00N 31°41' E 121°12'1657784.9
2017-Aug-18 20:00N 31°29' E 121°25'727864.8
2017-Aug-18 19:59N 31°57' E 120°07'6941577.9
2017-Aug-18 19:59N 31°31' E 121°22'152663.9
2017-Aug-18 19:59N 31°42' E 121°10'16424.9
2017-Aug-18 19:57N 31°30' E 121°23'25528.9
2017-Aug-18 19:57N 31°30' E 121°25'66114680.7
2017-Aug-18 19:54N 22°60' E 113°32'65722110.8
2017-Aug-18 19:52N 31°22' E 121°29'251039.0
2017-Aug-18 19:51N 31°41' E 121°11'1135.7
2017-Aug-18 19:32N 31°33' E 121°19'66016849.0
2017-Aug-18 19:30N 22°60' E 113°32'66095028.4
2017-Aug-18 19:30N 31°31' E 121°22'6748448.2
2017-Aug-18 19:29N 31°57' E 120°09'64159196.4
2017-Aug-18 19:29N 23°02' E 113°31'661169907.5
2017-Aug-18 19:29N 31°42' E 121°10'5380880297.1
2017-Aug-18 19:28N 49°20' W 123°12'53791383247.3
2017-Aug-18 19:28N 31°41' E 121°12'16740.4
2017-Aug-18 19:27N 31°29' E 121°25'66116520.6
2017-Aug-18 19:24N 22°60' E 113°32'66069869.4
2017-Aug-18 19:24N 31°30' E 121°23'16139.3
2017-Aug-18 19:17N 31°41' E 121°11'234.4
2017-Aug-18 19:13N 31°39' E 121°13'451478.4
2017-Aug-18 19:11N 32°02' E 120°27'65330536.4
2017-Aug-18 19:10N 23°04' E 113°29'6584309.3
2017-Aug-18 19:00N 31°31' E 121°22'660264132.4
2017-Aug-18 19:00N 22°60' E 113°32'5524.8
2017-Aug-18 19:00N 23°04' E 113°29'3476.8
2017-Aug-18 18:59N 23°02' E 113°31'64244477.1
2017-Aug-18 18:58N 31°57' E 120°12'54101391199.8
2017-Aug-18 18:58N 49°19' W 123°13'617686850.6
2017-Aug-18 18:54N 22°60' E 113°32'65735846.1
2017-Aug-18 18:53N 31°22' E 121°29'252745.7
2017-Aug-18 18:52N 31°42' E 121°10'187.2
2017-Aug-18 18:52N 31°41' E 121°10'4452350.4
2017-Aug-18 18:52N 32°01' E 120°25'455738.6
2017-Aug-18 18:51N 31°41' E 121°12'151527.0
2017-Aug-18 18:51N 31°30' E 121°23'162679.6
2017-Aug-18 18:50N 31°41' E 121°11'18175.0
2017-Aug-18 18:44N 31°28' E 121°25'87741.6
2017-Aug-18 18:37N 30°39' E 122°49'881003.9
2017-Aug-18 18:32N 31°29' E 121°25'66120858.4
2017-Aug-18 18:30N 22°60' E 113°32'3710.2
2017-Aug-18 18:30N 23°02' E 113°31'61772779425.3
2017-Aug-18 18:30N 49°18' W 123°12'54091770300.1
2017-Aug-18 18:30N 31°57' E 120°15'505653.2
2017-Aug-18 18:29N 31°41' E 121°11'14808.0
2017-Aug-18 18:28N 31°31' E 121°22'171050.8
2017-Aug-18 18:27N 31°42' E 121°08'2014166.6
2017-Aug-18 18:27N 31°29' E 121°25'2409.5
2017-Aug-18 18:27N 31°30' E 121°23'6582368898.9
2017-Aug-18 18:27N 23°04' E 113°29'66023291.2
2017-Aug-18 18:25N 31°41' E 121°12'24217.6
2017-Aug-18 18:18N 31°22' E 121°29'69551.1
2017-Aug-18 18:11N 31°59' E 120°21'540330488.6
2017-Aug-18 18:00N 49°18' W 123°11'6177570169.1
2017-Aug-18 18:00N 23°04' E 113°29'647465818.3
2017-Aug-18 18:00N 31°59' E 120°20'608573.9
2017-Aug-18 17:59N 31°31' E 121°22'6136811.7
2017-Aug-18 17:59N 31°58' E 120°17'714886.6
2017-Aug-18 17:58N 31°22' E 121°29'241171.7
2017-Aug-18 17:57N 31°41' E 121°12'662793891.9
2017-Aug-18 17:57N 22°60' E 113°32'6621190951.0
2017-Aug-18 17:57N 31°41' E 121°11'661198273.7
2017-Aug-18 17:57N 23°02' E 113°31'6592372033.6
2017-Aug-18 17:57N 31°30' E 121°23'218.1
2017-Aug-18 17:51N 31°29' E 121°25'17119.4
2017-Aug-18 17:43N 31°41' E 121°11'16405.8
2017-Aug-18 17:41N 31°30' E 121°25'64345.3
2017-Aug-18 17:30N 31°57' E 120°18'646290526.4
2017-Aug-18 17:29N 23°02' E 113°31'61781853479.7
2017-Aug-18 17:29N 49°19' W 123°09'53829688134.9
2017-Aug-18 17:29N 31°31' E 121°22'151421.2
2017-Aug-18 17:29N 31°41' E 121°10'461718.5
2017-Aug-18 17:27N 31°59' E 120°20'6328242.9
2017-Aug-18 17:27N 31°30' E 121°25'228.8
2017-Aug-18 17:24N 31°30' E 121°23'9133.4
2017-Aug-18 17:20N 31°22' E 121°29'244280.0
2017-Aug-18 17:19N 31°41' E 121°12'66228354.1
2017-Aug-18 17:18N 22°60' E 113°32'546.9
2017-Aug-18 17:11N 23°04' E 113°29'618033865.0
2017-Aug-18 17:00N 49°18' W 123°06'61821309035.2
2017-Aug-18 17:00N 22°60' E 113°32'662119163.1
2017-Aug-18 17:00N 31°47' E 121°04'661198376.1
2017-Aug-18 16:59N 23°02' E 113°31'3500.9
2017-Aug-18 16:59N 23°04' E 113°29'6421156069.7
2017-Aug-18 16:59N 31°56' E 120°15'635013.1
2017-Aug-18 16:58N 31°31' E 121°22'2272.0
2017-Aug-18 16:58N 31°30' E 121°23'192621.3
2017-Aug-18 16:58N 31°43' E 121°07'121514.4
2017-Aug-18 16:57N 31°47' E 120°54'39115.2
2017-Aug-18 16:37N 31°22' E 121°29'8141.2
2017-Aug-18 16:33N 31°30' E 121°25'66110167.0
2017-Aug-18 16:29N 23°00' E 113°32'61854453206.7
2017-Aug-18 16:29N 49°18' W 123°02'6184927642.3
2017-Aug-18 16:29N 23°02' E 113°31'65943949.9
2017-Aug-18 16:28N 31°31' E 121°22'66647018.8
2017-Aug-18 16:27N 22°53' E 113°32'66391840.0
2017-Aug-18 16:27N 31°22' E 121°29'96457.8
2017-Aug-18 16:27N 31°30' E 121°23'6647740.3
2017-Aug-18 16:27N 31°56' E 120°12'64092200.0
2017-Aug-18 16:26N 23°04' E 113°29'61788897.8
2017-Aug-18 16:26N 30°05' E 121°54'104978.9
2017-Aug-18 16:19N 31°42' E 121°10'17458.4
2017-Aug-18 16:17N 31°30' E 121°25'0 1.4
2017-Aug-18 16:08N 31°29' E 121°25'16200.5
2017-Aug-18 16:03N 31°41' E 121°12'551208.4
2017-Aug-18 16:00N 31°56' E 120°09'64018151.1
2017-Aug-18 15:58N 23°02' E 113°31'66087978.1
2017-Aug-18 15:58N 31°30' E 121°25'66785796.3
2017-Aug-18 15:57N 22°54' E 113°28'625149937.9
2017-Aug-18 15:57N 30°03' E 121°56'90108280.0
2017-Aug-18 15:57N 31°30' E 121°25'1488.0
2017-Aug-18 15:57N 31°30' E 121°23'255.0
2017-Aug-18 15:55N 31°31' E 121°22'10171.5
2017-Aug-18 15:51N 31°22' E 121°29'84237.4
2017-Aug-18 15:30N 30°02' E 121°57'626450841.3
2017-Aug-18 15:30N 22°55' E 113°25'92898.7
2017-Aug-18 15:30N 23°02' E 113°31'3126.2
2017-Aug-18 15:29N 23°04' E 113°29'6598504.6
2017-Aug-18 15:24N 31°30' E 121°25'31332.9
2017-Aug-18 15:24N 31°31' E 121°22'247.7
2017-Aug-18 15:22N 31°30' E 121°23'74449.0
2017-Aug-18 15:12N 31°58' E 120°03'6393275.7
2017-Aug-18 15:01N 23°02' E 113°31'659237326.2
2017-Aug-18 15:00N 31°31' E 121°22'671241394.8
2017-Aug-18 15:00N 22°54' E 113°22'62912930.4
2017-Aug-18 14:57N 29°59' E 121°59'157281746.1
2017-Aug-18 14:57N 31°58' E 120°01'6378496.1
2017-Aug-18 14:53N 23°04' E 113°29'6603398.7
2017-Aug-18 14:41N 31°41' E 121°12'24397.8
2017-Aug-18 14:37N 31°22' E 121°29'888.5
2017-Aug-18 14:32N 31°30' E 121°25'67415267.6
2017-Aug-18 14:29N 22°53' E 113°18'15360.7
2017-Aug-18 14:27N 23°02' E 113°31'388.0
2017-Aug-18 14:25N 23°04' E 113°29'6594892.4
2017-Aug-18 14:17N 31°30' E 121°25'328.4
2017-Aug-18 14:11N 31°31' E 121°22'210.5
2017-Aug-18 14:03N 31°30' E 121°23'1 9.9
2017-Aug-18 13:54N 31°29' E 121°25'856.8
2017-Aug-18 13:45N 31°22' E 121°29'25267.4
2017-Aug-18 13:40N 31°41' E 121°11'25139.6
2017-Aug-18 13:29N 31°22' E 121°29'81183.7
2017-Aug-18 13:29N 31°29' E 121°25'162743.2
2017-Aug-18 13:28N 31°41' E 121°12'66182033.1
2017-Aug-18 13:28N 23°02' E 113°31'352.3
2017-Aug-18 13:25N 23°04' E 113°29'6597654.3
2017-Aug-18 13:20N 31°30' E 121°25'117.4
2017-Aug-18 13:15N 31°30' E 121°23'16465.0
2017-Aug-18 13:13N 31°41' E 121°11'14454.2
2017-Aug-18 13:11N 31°31' E 121°22'1057.6
2017-Aug-18 13:00N 31°22' E 121°29'101019.6
2017-Aug-18 12:59N 31°31' E 121°22'14305.5
2017-Aug-18 12:56N 31°41' E 121°11'66121054.7
2017-Aug-18 12:55N 23°02' E 113°31'70777088.7
2017-Aug-18 12:54N 31°17' E 122°58'80577.0
2017-Aug-18 12:46N 31°30' E 121°25'0 2.6
2017-Aug-18 12:41N 31°29' E 121°25'1694.4
2017-Aug-18 12:31N 31°14' E 121°29'65133961.8
2017-Aug-18 12:29N 23°02' E 113°31'66050549.0
2017-Aug-18 12:29N 31°30' E 121°25'16771.5
2017-Aug-18 12:27N 31°41' E 121°12'13168.3
2017-Aug-18 12:23N 31°31' E 121°22'17216.7
2017-Aug-18 12:18N 31°15' E 121°30'721.7
2017-Aug-18 11:58N 31°22' E 121°29'65647211.5
2017-Aug-18 11:57N 23°04' E 113°29'65876416.8
2017-Aug-18 11:57N 31°30' E 121°23'253.2
2017-Aug-18 11:55N 31°31' E 121°22'65916589.1
2017-Aug-18 11:53N 23°02' E 113°31'6173045.8
2017-Aug-18 11:40N 29°56' E 122°02'991032.2
2017-Aug-18 11:35N 31°30' E 121°25'17228.6
2017-Aug-18 11:30N 31°41' E 121°11'145128.0
2017-Aug-18 11:30N 31°31' E 121°22'658215462.7
2017-Aug-18 11:30N 23°04' E 113°29'61831780.2
2017-Aug-18 11:29N 29°55' E 122°05'9282858.1
2017-Aug-18 11:29N 31°22' E 121°29'9750.9
2017-Aug-18 11:28N 31°30' E 121°23'65912624.8
2017-Aug-18 11:25N 23°01' E 113°31'66017741.2
2017-Aug-18 11:23N 31°30' E 121°25'15474.2
2017-Aug-18 11:21N 31°40' E 121°13'85366.3
2017-Aug-18 11:07N 31°05' E 122°44'651101.2
2017-Aug-18 11:03N 31°21' E 121°31'25690.3
2017-Aug-18 11:01N 31°41' E 121°13'1199080.7
2017-Aug-18 11:00N 29°52' E 122°09'9568389.2
2017-Aug-18 11:00N 31°21' E 121°30'242043.3
2017-Aug-18 11:00N 31°41' E 121°13'66223359.9
2017-Aug-18 10:58N 23°01' E 113°31'6602377170.0
2017-Aug-18 10:58N 31°30' E 121°25'172.8
2017-Aug-18 10:57N 31°30' E 121°23'721344.3
2017-Aug-18 10:53N 31°04' E 122°42'688495290.7
2017-Aug-18 10:53N 23°04' E 113°29'65660524.8
2017-Aug-18 10:53N 31°22' E 121°29'441.3
2017-Aug-18 10:47N 31°20' E 121°33'28655.2
2017-Aug-18 10:44N 31°41' E 121°11'17302.0
2017-Aug-18 10:41N 31°29' E 121°25'102595.6
2017-Aug-18 10:31N 29°54' E 122°08'11627919.3
2017-Aug-18 10:30N 31°41' E 121°13'2327650.4
2017-Aug-18 10:30N 31°23' E 121°30'139.2
2017-Aug-18 10:29N 31°22' E 121°29'65745479.8
2017-Aug-18 10:28N 23°01' E 113°31'658236713.8
2017-Aug-18 10:28N 31°21' E 121°32'10834.2
2017-Aug-18 10:27N 31°29' E 121°25'2426.3
2017-Aug-18 10:27N 31°30' E 121°23'16536.2
2017-Aug-18 10:25N 31°41' E 121°11'17111.1
2017-Aug-18 10:16N 31°30' E 121°25'16357.6
2017-Aug-18 10:13N 31°41' E 121°12'24105.5
2017-Aug-18 10:00N 31°22' E 121°29'2209.0
2017-Aug-18 09:59N 31°24' E 121°31'65932508.4
2017-Aug-18 09:58N 23°01' E 113°31'6192229371.2
2017-Aug-18 09:58N 29°57' E 122°04'9959175.2
2017-Aug-18 09:58N 31°30' E 121°25'18382.0
2017-Aug-18 09:55N 31°41' E 121°10'261618.6
2017-Aug-18 09:54N 31°22' E 121°30'26571.3
2017-Aug-18 09:51N 31°42' E 121°10'411245.3
2017-Aug-18 09:49N 32°02' E 120°29'42324.2
2017-Aug-18 09:42N 31°41' E 121°11'17507.8
2017-Aug-18 09:40N 31°29' E 121°25'0 6.2
2017-Aug-18 09:39N 31°29' E 121°25'17120.4
2017-Aug-18 09:30N 31°41' E 121°11'2410949.0
2017-Aug-18 09:30N 31°23' E 121°30'883322.1
2017-Aug-18 09:29N 29°60' E 122°01'11314089.3
2017-Aug-18 09:28N 31°43' E 121°07'2124794.3
2017-Aug-18 09:28N 31°30' E 121°25'276.6
2017-Aug-18 09:27N 31°30' E 121°23'595710.7
2017-Aug-18 09:26N 32°01' E 120°25'661896.6
2017-Aug-18 09:24N 31°25' E 121°30'66018417.1
2017-Aug-18 09:22N 23°01' E 113°31'361.8
2017-Aug-18 09:19N 23°04' E 113°29'6596498.2
2017-Aug-18 09:13N 31°29' E 121°25'882.2
2017-Aug-18 09:07N 31°22' E 121°29'83647.8
2017-Aug-18 08:59N 30°02' E 121°57'924954.7
2017-Aug-18 08:58N 31°30' E 121°23'16699.5
2017-Aug-18 08:57N 31°41' E 121°11'66124292.7
2017-Aug-18 08:55N 23°01' E 113°31'3563.7
2017-Aug-18 08:55N 23°04' E 113°29'65910589.8
2017-Aug-18 08:51N 31°46' E 121°03'31369.6
2017-Aug-18 08:46N 31°25' E 121°30'6271.8
2017-Aug-18 08:45N 31°29' E 121°25'8135.3
2017-Aug-18 08:41N 31°22' E 121°29'4725699.7
2017-Aug-18 08:36N 24°08' E 117°59'48512731.8
2017-Aug-18 08:34N 31°57' E 120°18'4857928.7
2017-Aug-18 08:30N 24°08' E 117°60'47651878.6
2017-Aug-18 08:30N 31°26' E 121°29'6608454.9
2017-Aug-18 08:25N 23°01' E 113°31'659593337.4
2017-Aug-18 08:25N 31°47' E 120°60'114421.9
2017-Aug-18 08:25N 31°41' E 121°11'26748.0
2017-Aug-18 08:23N 31°21' E 121°31'11889.3
2017-Aug-18 08:22N 31°30' E 121°23'136575.3
2017-Aug-18 08:22N 31°39' E 121°13'14161.8
2017-Aug-18 08:17N 31°29' E 121°25'1160.3
2017-Aug-18 08:16N 31°29' E 121°24'147.3
2017-Aug-18 08:15N 31°30' E 121°25'661724.9
2017-Aug-18 08:13N 31°56' E 120°14'53997.0
2017-Aug-18 08:10N 31°39' E 121°13'54352.6
2017-Aug-18 08:00N 31°56' E 120°12'6912331.1
2017-Aug-18 08:00N 31°28' E 121°26'3516.5
2017-Aug-18 08:00N 31°30' E 121°23'1416685.7
2017-Aug-18 08:00N 31°40' E 121°12'231445.0
2017-Aug-18 07:59N 31°22' E 121°29'8118.6
2017-Aug-18 07:55N 31°30' E 121°25'17453.8
2017-Aug-18 07:52N 31°41' E 121°11'6614184.3
2017-Aug-18 07:43N 23°01' E 113°31'6575927.6
2017-Aug-18 07:36N 31°22' E 121°29'0 2.0
2017-Aug-18 07:28N 31°22' E 121°29'0156.4
2017-Aug-18 07:28N 31°22' E 121°29'9390.7
2017-Aug-18 07:27N 31°30' E 121°23'2137.7
2017-Aug-18 07:26N 31°29' E 121°25'65987865.9
2017-Aug-18 07:26N 23°04' E 113°29'658148086.7
2017-Aug-18 07:25N 31°30' E 121°23'47713531.3
2017-Aug-18 07:23N 24°07' E 118°02'4844005.0
2017-Aug-18 07:16N 31°41' E 121°11'661595213.5
2017-Aug-18 07:16N 23°01' E 113°31'210.8
2017-Aug-18 07:02N 22°59' E 113°31'65911458.1
2017-Aug-18 06:59N 31°22' E 121°29'9876.4
2017-Aug-18 06:58N 31°30' E 121°23'1614025.4
2017-Aug-18 06:58N 31°41' E 121°11'48524571.5
2017-Aug-18 06:57N 24°06' E 118°03'2587857.8
2017-Aug-18 06:55N 23°01' E 113°31'64034899.1
2017-Aug-18 06:54N 32°00' E 119°60'718859.4
2017-Aug-18 06:53N 31°34' E 121°18'2316645.7
2017-Aug-18 06:53N 31°20' E 120°57'271742.2
2017-Aug-18 06:52N 31°22' E 121°29'8188.3
2017-Aug-18 06:50N 31°29' E 121°25'14301.5
2017-Aug-18 06:47N 31°39' E 121°13'6594223.3
2017-Aug-18 06:38N 23°04' E 113°29'6565331.5
2017-Aug-18 06:30N 31°22' E 121°29'088.5
2017-Aug-18 06:30N 31°22' E 121°29'65629142.8
2017-Aug-18 06:29N 23°04' E 113°29'3261.0
2017-Aug-18 06:28N 23°01' E 113°31'66116179.3
2017-Aug-18 06:25N 31°39' E 121°13'667254.1
2017-Aug-18 06:25N 31°60' E 119°59'645139.3
2017-Aug-18 06:24N 31°41' E 121°11'17445.4
2017-Aug-18 06:22N 31°29' E 121°25'761710.7
2017-Aug-18 06:19N 31°58' E 120°02'76438.3
2017-Aug-18 06:09N 31°29' E 121°25'171083.3
2017-Aug-18 06:08N 31°42' E 121°10'6613980.5
2017-Aug-18 05:58N 23°01' E 113°31'66053974.1
2017-Aug-18 05:57N 31°30' E 121°24'1105.3
2017-Aug-18 05:57N 31°30' E 121°23'725210.1
2017-Aug-18 05:56N 31°58' E 120°05'6421853.8
2017-Aug-18 05:35N 22°59' E 113°31'639176908.7
2017-Aug-18 05:35N 31°20' E 120°57'6387976.7
2017-Aug-18 05:30N 22°60' E 113°31'245.0
2017-Aug-18 05:28N 23°01' E 113°31'65937086.4
2017-Aug-18 05:27N 31°30' E 121°23'7014750.9
2017-Aug-18 05:26N 31°57' E 120°08'56788.5
2017-Aug-18 05:22N 31°20' E 120°57'4602789.9
2017-Aug-18 05:12N 24°06' E 118°02'1 2.6
2017-Aug-18 05:00N 24°06' E 118°03'25620070.7
2017-Aug-18 05:00N 22°60' E 113°32'66013650.0
2017-Aug-18 04:57N 31°30' E 121°23'5332.4
2017-Aug-18 04:56N 31°33' E 121°20'234936.7
2017-Aug-18 04:56N 31°20' E 120°57'262653.5
2017-Aug-18 04:55N 31°29' E 121°25'660396151.0
2017-Aug-18 04:55N 23°01' E 113°31'6424149.0
2017-Aug-18 04:46N 31°56' E 120°11'521484.1
2017-Aug-18 04:44N 31°42' E 121°09'6612840.1
2017-Aug-18 04:30N 22°60' E 113°32'63876536.5
2017-Aug-18 04:29N 31°20' E 120°57'24614.9
2017-Aug-18 04:27N 31°30' E 121°23'786691.1
2017-Aug-18 04:26N 31°60' E 119°59'721296.1
2017-Aug-18 04:23N 31°35' E 121°18'37244601.1
2017-Aug-18 04:22N 37°47' E 121°11'970134317.2
2017-Aug-18 04:22N 23°01' E 113°31'66016060.1
2017-Aug-18 04:19N 31°29' E 121°25'47850614.6
2017-Aug-18 04:19N 24°07' E 118°02'48362155.7
2017-Aug-18 04:18N 31°56' E 120°11'76384.1
2017-Aug-18 04:06N 31°25' E 121°32'30262.6
2017-Aug-18 03:59N 31°20' E 120°57'460103555.0
2017-Aug-18 03:59N 24°07' E 118°01'48257799.0
2017-Aug-18 03:59N 31°36' E 121°16'8454.7
2017-Aug-18 03:58N 31°31' E 121°23'66013575.6
2017-Aug-18 03:55N 23°01' E 113°31'66016502.5
2017-Aug-18 03:52N 31°29' E 121°25'699188.7
2017-Aug-18 03:52N 31°56' E 120°11'64319277.5
2017-Aug-18 03:50N 22°60' E 113°33'6583247.0
2017-Aug-18 03:38N 31°23' E 121°30'1 6.0
2017-Aug-18 03:30N 31°22' E 121°29'201739.3
2017-Aug-18 03:29N 31°38' E 121°15'116595.5
2017-Aug-18 03:29N 31°30' E 121°24'66049503.8
2017-Aug-18 03:29N 22°60' E 113°33'643289162.6
2017-Aug-18 03:28N 31°56' E 120°11'671640.4
2017-Aug-18 03:26N 31°31' E 121°23'4793077.3
2017-Aug-18 03:17N 24°06' E 118°02'2571189.9
2017-Aug-18 03:04N 23°01' E 113°31'657788372.5
2017-Aug-18 03:04N 31°22' E 121°29'4739054.4
2017-Aug-18 03:01N 24°06' E 118°03'47843063.0
2017-Aug-18 03:00N 31°31' E 121°22'10539.6
2017-Aug-18 02:59N 31°22' E 121°29'657262938.6
2017-Aug-18 02:59N 22°60' E 113°33'66069920.4
2017-Aug-18 02:58N 31°31' E 121°23'671368.5
2017-Aug-18 02:55N 31°56' E 120°11'642105044.6
2017-Aug-18 02:55N 23°01' E 113°31'259627.4
2017-Aug-18 02:30N 24°06' E 118°04'25940580.0
2017-Aug-18 02:30N 22°59' E 113°31'265.6
2017-Aug-18 02:28N 23°01' E 113°31'64224584.9
2017-Aug-18 02:26N 31°56' E 120°11'7527031.4
2017-Aug-18 02:26N 31°22' E 121°29'101320.6
2017-Aug-18 02:26N 31°31' E 121°23'1492.2
2017-Aug-18 02:16N 31°41' E 121°11'519.5
2017-Aug-18 02:00N 31°44' E 121°06'485249374.8
2017-Aug-18 02:00N 24°05' E 118°06'48435542.8
2017-Aug-18 01:59N 31°41' E 121°10'121027.3
2017-Aug-18 01:59N 31°33' E 121°20'13264.9
2017-Aug-18 01:56N 31°22' E 121°29'65745483.0
2017-Aug-18 01:55N 23°01' E 113°31'66110488.7
2017-Aug-18 01:51N 31°41' E 121°11'14108.0
2017-Aug-18 01:43N 31°31' E 121°23'665438.5
2017-Aug-18 01:42N 31°56' E 120°11'1591079.7
2017-Aug-18 01:33N 29°58' E 122°14'4158353.3
2017-Aug-18 01:30N 24°06' E 118°07'47939195.1
2017-Aug-18 01:30N 31°34' E 121°19'629714.9
2017-Aug-18 01:29N 31°56' E 120°11'64410123.7
2017-Aug-18 01:26N 22°59' E 113°31'2175.4
2017-Aug-18 01:25N 23°01' E 113°31'97581589.0
2017-Aug-18 01:24N 37°49' E 121°16'38812349.0
2017-Aug-18 01:22N 31°22' E 121°29'863350.7
2017-Aug-18 01:21N 31°60' E 119°59'59574.1
2017-Aug-18 01:14N 31°45' E 121°06'3651520.7
2017-Aug-18 01:00N 37°49' E 121°16'84054031.0
2017-Aug-18 00:59N 24°05' E 118°05'4817908.7
2017-Aug-18 00:55N 31°35' E 121°17'11587.8
2017-Aug-18 00:54N 31°43' E 121°08'502977.5
2017-Aug-18 00:53N 31°56' E 120°11'6659826.1
2017-Aug-18 00:53N 31°31' E 121°23'66027625.1
2017-Aug-18 00:52N 23°01' E 113°31'228.8
2017-Aug-18 00:47N 22°59' E 113°31'6632448.8
2017-Aug-18 00:30N 31°36' E 121°17'482173550.3
2017-Aug-18 00:30N 24°05' E 118°05'485134224.0
2017-Aug-18 00:30N 31°41' E 121°09'15241.9
2017-Aug-18 00:26N 31°31' E 121°23'9720.6
2017-Aug-18 00:25N 31°37' E 121°16'66158049.9
2017-Aug-18 00:25N 23°01' E 113°31'64215613.6
2017-Aug-18 00:22N 31°56' E 120°11'54387.7
2017-Aug-18 00:14N 31°41' E 121°11'6612439.3
2017-Aug-17 23:58N 23°01' E 113°31'25810218.1
2017-Aug-17 23:56N 24°06' E 118°04'48436293.9
2017-Aug-17 23:55N 31°56' E 120°11'661812.9
2017-Aug-17 23:53N 31°31' E 121°23'101129.8
2017-Aug-17 23:53N 31°38' E 121°15'4219.1
2017-Aug-17 23:51N 31°35' E 121°19'66321304.1
2017-Aug-17 23:50N 22°59' E 113°31'6282302.8
2017-Aug-17 23:33N 29°58' E 122°13'1131679.7
2017-Aug-17 23:29N 31°39' E 121°13'31267.9
2017-Aug-17 23:29N 31°41' E 121°11'536401.0
2017-Aug-17 23:28N 31°56' E 120°11'64246215.9
2017-Aug-17 23:28N 23°01' E 113°31'271.2
2017-Aug-17 23:26N 22°59' E 113°31'66356852.8
2017-Aug-17 23:25N 31°41' E 121°11'14488.2
2017-Aug-17 23:23N 31°31' E 121°23'479344621.4
2017-Aug-17 23:23N 24°06' E 118°02'47317016.3
2017-Aug-17 23:21N 31°22' E 121°29'2562.9
2017-Aug-17 22:58N 31°41' E 121°11'661140042.0
2017-Aug-17 22:58N 23°01' E 113°31'64211850.3
2017-Aug-17 22:54N 31°56' E 120°11'751331.6
2017-Aug-17 22:51N 31°22' E 121°29'10156.4
2017-Aug-17 22:47N 31°31' E 121°23'25190.3
2017-Aug-17 22:39N 31°20' E 120°57'46012354.9
2017-Aug-17 22:37N 24°07' E 117°60'48434862.2
2017-Aug-17 22:36N 31°42' E 121°08'1201613.9
2017-Aug-17 22:32N 29°57' E 122°16'1074276.3
2017-Aug-17 22:30N 31°20' E 120°57'252946.6
2017-Aug-17 22:30N 31°41' E 121°11'2588313.3
2017-Aug-17 22:30N 31°22' E 121°29'10873.3
2017-Aug-17 22:29N 31°31' E 121°23'673805.2
2017-Aug-17 22:28N 31°56' E 120°11'64211554.0
2017-Aug-17 22:25N 23°01' E 113°31'6563783.7
2017-Aug-17 22:14N 31°17' E 121°34'726.4
2017-Aug-17 21:59N 31°22' E 121°29'271387.1
2017-Aug-17 21:58N 31°20' E 120°57'544856.9
2017-Aug-17 21:57N 31°56' E 120°11'542879.8
2017-Aug-17 21:56N 31°41' E 121°11'202883.5
2017-Aug-17 21:55N 31°28' E 121°28'66145747.5
2017-Aug-17 21:55N 23°01' E 113°31'66025821.9
2017-Aug-17 21:53N 31°31' E 121°23'17150.2
2017-Aug-17 21:46N 31°15' E 121°30'313143.2
2017-Aug-17 21:46N 31°41' E 121°10'188.9
2017-Aug-17 21:45N 31°41' E 121°10'53212.2
2017-Aug-17 21:30N 31°56' E 120°11'515779.4
2017-Aug-17 21:30N 31°42' E 121°09'171803.3
2017-Aug-17 21:29N 31°31' E 121°23'660237561.9
2017-Aug-17 21:29N 23°01' E 113°31'63729407.5
2017-Aug-17 21:28N 31°20' E 120°57'291368.0
2017-Aug-17 21:26N 31°26' E 121°30'22186.3
2017-Aug-17 21:19N 31°41' E 121°11'258829.6
2017-Aug-17 21:19N 31°22' E 121°29'6593437.5
2017-Aug-17 21:07N 22°59' E 113°31'6395205.5
2017-Aug-17 21:00N 31°20' E 120°57'543469.2
2017-Aug-17 20:59N 31°56' E 120°11'6734227.4
2017-Aug-17 20:59N 31°31' E 121°23'66027304.6
2017-Aug-17 20:58N 23°01' E 113°31'65710021.0
2017-Aug-17 20:54N 31°22' E 121°29'251802.0
2017-Aug-17 20:53N 31°41' E 121°11'6634233.7
2017-Aug-17 20:43N 22°59' E 113°31'6392865.3
2017-Aug-17 20:30N 31°20' E 120°57'25433.3
2017-Aug-17 20:27N 31°41' E 121°11'148699.0
2017-Aug-17 20:27N 31°31' E 121°23'66010749.6
2017-Aug-17 20:23N 23°01' E 113°31'64296284.7
2017-Aug-17 20:22N 31°56' E 120°11'6441159158.8
2017-Aug-17 20:22N 22°59' E 113°31'9775572.5
2017-Aug-17 20:12N 37°49' E 121°16'3888506.8
2017-Aug-17 20:09N 31°22' E 121°29'27187.9
2017-Aug-17 20:00N 31°20' E 120°57'63723893.6
2017-Aug-17 19:59N 23°01' E 113°31'66161043.5
2017-Aug-17 19:58N 31°41' E 121°11'251298.5
2017-Aug-17 19:57N 31°22' E 121°29'660396041.3
2017-Aug-17 19:57N 22°58' E 113°30'64546456.2
2017-Aug-17 19:56N 31°56' E 120°11'3579665.6
2017-Aug-17 19:54N 37°49' E 121°16'35615272.7
2017-Aug-17 19:53N 31°58' E 120°02'74526.2
2017-Aug-17 19:44N 31°31' E 121°23'25104.3
2017-Aug-17 19:30N 31°20' E 120°57'3901404016.3
2017-Aug-17 19:30N 37°49' E 121°16'368662828.1
2017-Aug-17 19:30N 31°41' E 121°11'259812.6
2017-Aug-17 19:30N 31°22' E 121°29'10915.6
2017-Aug-17 19:29N 31°31' E 121°23'660169694.3
2017-Aug-17 19:29N 23°01' E 113°31'64234490.9
2017-Aug-17 19:28N 31°56' E 120°11'648145824.1
2017-Aug-17 19:27N 22°54' E 113°31'6465181.1
2017-Aug-17 19:20N 31°58' E 120°04'58186.7
2017-Aug-17 19:01N 31°41' E 121°10'66046619.8
2017-Aug-17 19:00N 23°01' E 113°31'65794604.0
2017-Aug-17 19:00N 31°22' E 121°29'66418674.0
2017-Aug-17 18:58N 22°54' E 113°28'66730013.7
2017-Aug-17 18:57N 31°31' E 121°23'259823.9
2017-Aug-17 18:56N 31°20' E 120°57'572683.5
2017-Aug-17 18:55N 31°57' E 120°06'4221.3
2017-Aug-17 18:54N 31°56' E 120°11'66824.0
2017-Aug-17 18:49N 31°31' E 121°22'17333.8
2017-Aug-17 18:46N 31°42' E 121°08'320.5
2017-Aug-17 18:39N 31°41' E 121°11'3688337.2
2017-Aug-17 18:36N 37°49' E 121°16'3904229.0
2017-Aug-17 18:30N 31°20' E 120°57'39046800.5
2017-Aug-17 18:30N 37°49' E 121°16'379151465.4
2017-Aug-17 18:30N 31°31' E 121°22'659118633.5
2017-Aug-17 18:29N 23°02' E 113°31'659103199.5
2017-Aug-17 18:29N 31°31' E 121°23'10430.9
2017-Aug-17 18:28N 31°22' E 121°29'7712569.6
2017-Aug-17 18:27N 31°57' E 120°08'2107.0
2017-Aug-17 18:26N 31°56' E 120°11'543937.4
2017-Aug-17 18:25N 31°41' E 121°11'833.0
2017-Aug-17 18:10N 31°47' E 121°04'10300.5
2017-Aug-17 18:08N 31°40' E 121°13'55404.3
2017-Aug-17 18:00N 31°56' E 120°10'547737.4
2017-Aug-17 17:59N 31°20' E 120°57'63343826.3
2017-Aug-17 17:59N 23°05' E 113°33'638143495.7
2017-Aug-17 17:58N 31°56' E 120°11'665291.7
2017-Aug-17 17:58N 31°31' E 121°22'0 6.2
2017-Aug-17 17:53N 31°31' E 121°23'14430.0
2017-Aug-17 17:51N 31°41' E 121°11'115.1
2017-Aug-17 17:49N 31°41' E 121°11'3685593.5
2017-Aug-17 17:45N 37°49' E 121°16'3883791.2
2017-Aug-17 17:39N 31°22' E 121°29'75539.6
2017-Aug-17 17:30N 31°56' E 120°11'515571.4
2017-Aug-17 17:30N 31°42' E 121°08'171231.3
2017-Aug-17 17:29N 31°31' E 121°23'105237.1
2017-Aug-17 17:29N 31°22' E 121°29'65066824.9
2017-Aug-17 17:28N 23°06' E 113°36'65293948.1
2017-Aug-17 17:28N 31°31' E 121°22'37922720.2
2017-Aug-17 17:27N 37°49' E 121°16'39010884.0
2017-Aug-17 17:25N 31°20' E 120°57'0 0.0
2017-Aug-17 17:00N 31°20' E 120°57'251119.9
2017-Aug-17 16:59N 31°31' E 121°23'672497.0
2017-Aug-17 16:57N 31°56' E 120°11'4857782.1
2017-Aug-17 16:57N 31°44' E 121°05'302352.9
2017-Aug-17 16:57N 31°22' E 121°29'643076.4
2017-Aug-17 16:55N 32°02' E 120°30'541197.8
2017-Aug-17 16:53N 31°31' E 121°22'37913497.1
2017-Aug-17 16:51N 37°49' E 121°16'3681697.2
2017-Aug-17 16:38N 31°41' E 121°11'25172.9
2017-Aug-17 16:29N 31°20' E 120°57'24680.1
2017-Aug-17 16:27N 31°31' E 121°22'034.3
2017-Aug-17 16:27N 31°31' E 121°23'14963.3
2017-Aug-17 16:26N 31°41' E 121°11'54497.2
2017-Aug-17 16:19N 31°56' E 120°11'151738.0
2017-Aug-17 16:19N 32°02' E 120°27'3503110.3
2017-Aug-17 16:12N 37°49' E 121°16'35844446.9
2017-Aug-17 16:11N 31°55' E 120°10'66355.1
2017-Aug-17 16:00N 31°31' E 121°22'141964.6
2017-Aug-17 16:00N 31°41' E 121°11'2517728.5
2017-Aug-17 16:00N 31°20' E 120°57'252054.4
2017-Aug-17 15:59N 31°31' E 121°23'586279.7
2017-Aug-17 15:59N 32°01' E 120°25'14525.9
2017-Aug-17 15:57N 31°56' E 120°11'3571285551.3
2017-Aug-17 15:57N 37°49' E 121°16'3587005.3
2017-Aug-17 15:54N 31°55' E 120°10'75260.3
2017-Aug-17 15:37N 31°22' E 121°29'83998.6
2017-Aug-17 15:32N 31°58' E 120°01'35612452.4
2017-Aug-17 15:30N 37°49' E 121°16'390117005.0
2017-Aug-17 15:30N 31°20' E 120°57'5019933.5
2017-Aug-17 15:30N 32°01' E 120°24'5812314.8
2017-Aug-17 15:29N 31°31' E 121°22'14840.2
2017-Aug-17 15:28N 31°41' E 121°11'542502.3
2017-Aug-17 15:27N 31°56' E 120°11'752095.5
2017-Aug-17 15:25N 31°22' E 121°29'75882.4
2017-Aug-17 15:20N 31°55' E 120°10'69597.3
2017-Aug-17 15:13N 31°29' E 121°25'74734.3
2017-Aug-17 15:07N 31°57' E 120°05'58529.7
2017-Aug-17 15:00N 31°20' E 120°57'246696.3
2017-Aug-17 15:00N 31°31' E 121°22'7010568.2
2017-Aug-17 15:00N 31°57' E 120°05'3578082.5
2017-Aug-17 14:57N 37°49' E 121°16'4677002.4
2017-Aug-17 14:53N 30°04' E 121°55'824019.5
2017-Aug-17 14:52N 31°22' E 121°29'6910301.4
2017-Aug-17 14:51N 31°59' E 120°21'91080.8
2017-Aug-17 14:51N 31°56' E 120°11'6160.1
2017-Aug-17 14:49N 31°58' E 120°04'17155.4
2017-Aug-17 14:42N 32°01' E 120°24'583424.6
2017-Aug-17 14:41N 31°31' E 121°23'93530.3
2017-Aug-17 14:31N 30°02' E 121°56'14225615.9
2017-Aug-17 14:30N 31°58' E 120°20'828803.4
2017-Aug-17 14:30N 31°56' E 120°11'546476.3
2017-Aug-17 14:30N 31°20' E 120°57'63631807.5
2017-Aug-17 14:28N 23°03' E 113°31'640109666.0
2017-Aug-17 14:28N 31°57' E 120°07'70711.5
2017-Aug-17 14:22N 31°31' E 121°22'101639.5
2017-Aug-17 14:22N 31°22' E 121°29'10129.2
2017-Aug-17 14:17N 31°31' E 121°23'66794.9
2017-Aug-17 14:12N 31°56' E 120°11'184.2
2017-Aug-17 14:12N 31°55' E 120°10'2 9.0
2017-Aug-17 14:00N 31°56' E 120°12'5318911.8
2017-Aug-17 14:00N 31°20' E 120°57'559365.7
2017-Aug-17 14:00N 31°57' E 120°10'7690909.2
2017-Aug-17 14:00N 31°22' E 121°29'864535.8
2017-Aug-17 13:59N 30°00' E 121°58'9612771.7
2017-Aug-17 13:58N 31°31' E 121°22'661118.8
2017-Aug-17 13:55N 31°55' E 120°10'6404589.7
2017-Aug-17 13:46N 23°03' E 113°31'660132054.6
2017-Aug-17 13:46N 31°41' E 121°11'532790.1
2017-Aug-17 13:45N 31°56' E 120°11'8983.5
2017-Aug-17 13:44N 31°58' E 120°20'835.1
2017-Aug-17 13:30N 31°56' E 120°11'5528.3
2017-Aug-17 13:29N 31°57' E 120°16'288.1
2017-Aug-17 13:28N 31°56' E 120°14'5192208.5
2017-Aug-17 13:28N 31°20' E 120°57'27746.1
2017-Aug-17 13:26N 31°22' E 121°29'704821.5
2017-Aug-17 13:25N 31°57' E 120°19'7280.1
2017-Aug-17 13:24N 31°55' E 120°10'668784.9
2017-Aug-17 13:23N 31°31' E 121°22'65967746.6
2017-Aug-17 13:23N 23°03' E 113°31'6594982.8
2017-Aug-17 13:15N 31°31' E 121°23'63203.7
2017-Aug-17 12:56N 31°56' E 120°15'4152.7
2017-Aug-17 12:55N 31°56' E 120°11'64024525.5
2017-Aug-17 12:53N 23°03' E 113°31'6565318.5
2017-Aug-17 12:46N 31°22' E 121°29'1058.3
2017-Aug-17 12:35N 31°31' E 121°23'69604.7
2017-Aug-17 12:28N 31°56' E 120°08'817115.4
2017-Aug-17 12:28N 31°14' E 121°29'785389.6
2017-Aug-17 12:27N 31°56' E 120°12'65403.2
2017-Aug-17 12:17N 31°31' E 121°23'757121.3
2017-Aug-17 12:16N 31°59' E 120°01'622765.7
2017-Aug-17 12:15N 31°41' E 121°11'141221.7
2017-Aug-17 12:14N 31°31' E 121°22'66845.2
2017-Aug-17 12:10N 31°55' E 120°11'8138.2
2017-Aug-17 12:06N 31°59' E 120°20'60564.2
2017-Aug-17 12:00N 31°31' E 121°22'60651.3
2017-Aug-17 11:54N 31°59' E 120°20'47653.0
2017-Aug-17 11:50N 31°41' E 121°11'604135.4
2017-Aug-17 11:49N 31°57' E 120°03'6243.7
2017-Aug-17 11:47N 31°56' E 120°11'669567.8
2017-Aug-17 11:47N 31°31' E 121°23'7343687.6
2017-Aug-17 11:47N 31°58' E 120°03'765.4
2017-Aug-17 11:41N 31°55' E 120°11'4478.1
2017-Aug-17 11:40N 31°57' E 120°06'6395706.5
2017-Aug-17 11:34N 23°03' E 113°31'65622277.3
2017-Aug-17 11:32N 31°22' E 121°29'752419.8
2017-Aug-17 11:30N 31°55' E 120°11'111238.4
2017-Aug-17 11:29N 32°00' E 120°22'6011293.0
2017-Aug-17 11:29N 31°31' E 121°23'015.0
2017-Aug-17 11:28N 31°31' E 121°22'1417098.8
2017-Aug-17 11:28N 31°41' E 121°11'591747.1
2017-Aug-17 11:26N 31°57' E 120°04'4413.2
2017-Aug-17 11:25N 31°58' E 120°00'841645.7
2017-Aug-17 11:22N 31°22' E 121°29'7134.8
2017-Aug-17 11:19N 31°17' E 121°34'65538644.8
2017-Aug-17 11:18N 23°03' E 113°31'0 0.0
2017-Aug-17 11:00N 23°03' E 113°31'641109858.0
2017-Aug-17 11:00N 31°56' E 120°11'66309.0
2017-Aug-17 10:47N 31°31' E 121°23'0 3.5
2017-Aug-17 10:42N 31°31' E 121°22'10330.6
2017-Aug-17 10:40N 31°22' E 121°29'657.2
2017-Aug-17 10:34N 31°22' E 121°36'14240.0
2017-Aug-17 10:30N 31°31' E 121°22'65943908.1
2017-Aug-17 10:29N 23°03' E 113°31'659158109.4
2017-Aug-17 10:29N 31°31' E 121°23'143650.1
2017-Aug-17 10:29N 31°22' E 121°36'6108.2
2017-Aug-17 10:26N 31°22' E 121°29'7513489.8
2017-Aug-17 10:25N 31°57' E 120°11'155511.2
2017-Aug-17 10:07N 29°56' E 122°04'1556484.9
2017-Aug-17 10:06N 31°56' E 120°11'66704.6
2017-Aug-17 10:00N 31°31' E 121°22'1028019.5
2017-Aug-17 09:59N 29°55' E 122°05'15529341.5
2017-Aug-17 09:59N 31°57' E 120°13'653686.9
2017-Aug-17 09:58N 31°31' E 121°23'121505.8
2017-Aug-17 09:57N 31°21' E 121°31'656107387.3
2017-Aug-17 09:57N 23°03' E 113°31'660263949.1
2017-Aug-17 09:57N 31°22' E 121°36'388279125.7
2017-Aug-17 09:57N 37°49' E 121°16'3575269.6
2017-Aug-17 09:53N 31°56' E 120°11'74942.2
2017-Aug-17 09:48N 31°22' E 121°29'751790.8
2017-Aug-17 09:46N 31°55' E 120°11'53867.3
2017-Aug-17 09:42N 31°41' E 121°11'6634632.4
2017-Aug-17 09:33N 22°56' E 113°36'66113833.3
2017-Aug-17 09:30N 31°31' E 121°22'659474163.7
2017-Aug-17 09:30N 23°03' E 113°31'66040991.2
2017-Aug-17 09:29N 31°21' E 121°38'9347741.3
2017-Aug-17 09:29N 29°52' E 122°10'47947868.5
2017-Aug-17 09:29N 37°49' E 121°16'35732135.0
2017-Aug-17 09:28N 31°56' E 120°12'651274.4
2017-Aug-17 09:25N 31°31' E 121°23'106191.7
2017-Aug-17 09:25N 31°22' E 121°30'729936.9
2017-Aug-17 09:24N 31°57' E 120°16'491533.3
2017-Aug-17 09:22N 31°41' E 121°11'257367.6
2017-Aug-17 09:22N 31°22' E 121°29'4973226.3
2017-Aug-17 09:13N 39°05' E 117°46'99215389.0
2017-Aug-17 09:09N 22°56' E 113°36'6604537.1
2017-Aug-17 09:00N 31°24' E 121°31'9412112.0
2017-Aug-17 09:00N 29°55' E 122°07'477245057.5
2017-Aug-17 09:00N 37°49' E 121°17'97385474.3
2017-Aug-17 08:59N 23°03' E 113°31'64635224.8
2017-Aug-17 08:58N 31°58' E 120°18'6155041.1
2017-Aug-17 08:58N 31°31' E 121°23'051.6
2017-Aug-17 08:58N 31°31' E 121°22'646386.2
2017-Aug-17 08:57N 31°56' E 120°13'6452322532.0
2017-Aug-17 08:57N 22°56' E 113°36'663596511.3
2017-Aug-17 08:57N 31°20' E 121°40'825195.1
2017-Aug-17 08:56N 31°56' E 120°13'357834.8
2017-Aug-17 08:30N 37°49' E 121°22'354141772.0
2017-Aug-17 08:30N 31°58' E 120°21'150538505.0
2017-Aug-17 08:30N 29°57' E 122°04'8919998.3
2017-Aug-17 08:30N 31°23' E 121°35'8486.0
2017-Aug-17 08:29N 31°18' E 121°43'66111842.6
2017-Aug-17 08:25N 23°03' E 113°31'64474740.0
2017-Aug-17 08:25N 31°57' E 120°16'63112820.6
2017-Aug-17 08:25N 31°31' E 121°23'2374.9
2017-Aug-17 08:25N 31°30' E 121°24'661191.0
2017-Aug-17 08:21N 31°56' E 120°13'642827.2
2017-Aug-17 08:20N 31°31' E 121°22'5409574.7
2017-Aug-17 08:17N 22°34' E 120°17'5633477.5
2017-Aug-17 08:07N 31°57' E 120°18'3553340.0
2017-Aug-17 08:01N 37°48' E 121°27'392201356.1
2017-Aug-17 08:00N 31°17' E 121°45'73316.0
2017-Aug-17 08:00N 31°21' E 121°38'7856176.2
2017-Aug-17 08:00N 31°57' E 120°17'561504664.6
2017-Aug-17 08:00N 22°36' E 120°15'37456062.7
2017-Aug-17 08:00N 23°03' E 113°31'618158850.5
2017-Aug-17 07:59N 29°60' E 121°60'1483707.0
2017-Aug-17 07:57N 31°56' E 120°13'5570.6
2017-Aug-17 07:57N 31°58' E 120°18'481785.4
2017-Aug-17 07:55N 31°41' E 121°11'141495.8
2017-Aug-17 07:54N 31°31' E 121°22'194.8
2017-Aug-17 07:54N 31°31' E 121°22'1 5.4
2017-Aug-17 07:43N 31°31' E 121°23'1989.7
2017-Aug-17 07:30N 31°19' E 121°41'8318769.9
2017-Aug-17 07:30N 31°56' E 120°13'358429006.2
2017-Aug-17 07:30N 37°47' E 121°32'465111554.3
2017-Aug-17 07:30N 30°03' E 121°56'95113611.8
2017-Aug-17 07:30N 31°32' E 121°20'3378.7
2017-Aug-17 07:29N 31°31' E 121°22'219392.2
2017-Aug-17 07:29N 31°19' E 121°42'354320.4
2017-Aug-17 07:29N 31°41' E 121°11'524444.1
2017-Aug-17 07:28N 31°56' E 120°13'7404.8
2017-Aug-17 07:27N 31°59' E 120°20'56211109.5
2017-Aug-17 07:24N 22°38' E 120°13'53615325.0
2017-Aug-17 07:22N 31°31' E 121°23'65971871.3
2017-Aug-17 07:21N 23°03' E 113°31'9782806.7
2017-Aug-17 07:01N 37°47' E 121°37'914822690.7
2017-Aug-17 07:00N 22°35' E 120°14'528380414.6
2017-Aug-17 07:00N 31°18' E 121°44'373552.4
2017-Aug-17 07:00N 31°41' E 121°11'142211.2
2017-Aug-17 06:59N 31°31' E 121°22'2448.9
2017-Aug-17 06:30N 31°17' E 121°45'2410877.1
2017-Aug-17 06:30N 31°31' E 121°22'540647968.0
2017-Aug-17 06:29N 22°34' E 120°15'54022600.3
2017-Aug-17 06:28N 31°31' E 121°23'145219.2
2017-Aug-17 06:28N 31°41' E 121°11'6603485.3
2017-Aug-17 06:17N 23°03' E 113°31'6585267.9
2017-Aug-17 06:09N 31°32' E 121°20'23159.0
2017-Aug-17 06:00N 31°19' E 121°42'53222028.5
2017-Aug-17 05:59N 22°32' E 120°16'37590018.8
2017-Aug-17 05:59N 23°03' E 113°31'65920799.1
2017-Aug-17 05:57N 31°31' E 121°22'14255.5
2017-Aug-17 05:54N 31°41' E 121°11'14188.3
2017-Aug-17 05:49N 31°31' E 121°23'4190.9
2017-Aug-17 05:48N 31°33' E 121°19'23433.7
2017-Aug-17 05:44N 31°19' E 121°41'34139.4
2017-Aug-17 05:30N 31°41' E 121°11'66067914.0
2017-Aug-17 05:29N 23°03' E 113°31'65927261.5
2017-Aug-17 05:28N 31°31' E 121°23'195328.6
2017-Aug-17 05:28N 31°19' E 121°41'202828.7
2017-Aug-17 05:27N 31°31' E 121°22'20366.6
2017-Aug-17 05:24N 31°19' E 121°41'6684347.1
2017-Aug-17 05:15N 22°51' E 113°34'6682683.8
2017-Aug-17 05:00N 31°18' E 121°42'1146.6
2017-Aug-17 04:59N 31°19' E 121°41'661297377.8
2017-Aug-17 04:59N 23°03' E 113°31'10137.6
2017-Aug-17 04:55N 22°53' E 113°32'66612296.5
2017-Aug-17 04:52N 31°31' E 121°22'0192.7
2017-Aug-17 04:51N 31°31' E 121°23'0 1.2
2017-Aug-17 04:30N 31°31' E 121°22'248518.8
2017-Aug-17 04:30N 31°17' E 121°45'66777500.3
2017-Aug-17 04:30N 22°56' E 113°30'726606.7
2017-Aug-17 04:30N 23°03' E 113°31'65111260.3
2017-Aug-17 04:26N 31°59' E 120°27'751987.5
2017-Aug-17 04:24N 31°19' E 121°41'342439.0
2017-Aug-17 04:23N 31°41' E 121°11'0 5.1
2017-Aug-17 04:20N 31°41' E 121°11'14815.3
2017-Aug-17 04:19N 31°31' E 121°23'61739.0
2017-Aug-17 04:14N 31°60' E 120°20'44433975.4
2017-Aug-17 04:13N 39°05' E 117°45'9956286.6
2017-Aug-17 04:04N 22°55' E 113°25'10232.7
2017-Aug-17 04:01N 23°03' E 113°32'0 3.0
2017-Aug-17 04:01N 23°03' E 113°32'1208.2
2017-Aug-17 04:00N 23°03' E 113°31'66188158.6
2017-Aug-17 04:00N 31°18' E 121°44'231378.9
2017-Aug-17 03:59N 31°31' E 121°22'141250.1
2017-Aug-17 03:58N 31°41' E 121°11'66977747.9
2017-Aug-17 03:58N 22°55' E 113°26'668133602.7
2017-Aug-17 03:57N 31°31' E 121°23'14239.4
2017-Aug-17 03:54N 31°41' E 121°11'172.9
2017-Aug-17 03:53N 31°41' E 121°11'591789.7
2017-Aug-17 03:51N 31°58' E 120°04'440317121.9
2017-Aug-17 03:51N 39°04' E 117°47'5025724.7
2017-Aug-17 03:46N 31°19' E 121°41'34174.6
2017-Aug-17 03:34N 31°41' E 121°10'44885.1
2017-Aug-17 03:31N 32°02' E 120°23'434257.9
2017-Aug-17 03:30N 31°42' E 121°08'132160.7
2017-Aug-17 03:30N 31°33' E 121°19'233195.1
2017-Aug-17 03:30N 31°19' E 121°41'661198243.6
2017-Aug-17 03:29N 23°04' E 113°30'2586.5
2017-Aug-17 03:29N 23°02' E 113°31'641177380.7
2017-Aug-17 03:29N 31°58' E 120°06'702608.8
2017-Aug-17 03:27N 31°31' E 121°23'663198980.5
2017-Aug-17 03:27N 22°57' E 113°30'4409.1
2017-Aug-17 03:27N 22°55' E 113°28'660216113.6
2017-Aug-17 03:26N 32°02' E 120°24'451187.1
2017-Aug-17 03:24N 31°41' E 121°11'34124.5
2017-Aug-17 03:08N 31°19' E 121°41'6624942.4
2017-Aug-17 03:00N 23°05' E 113°27'66191483.8
2017-Aug-17 02:59N 31°36' E 121°18'66235067.6
2017-Aug-17 02:58N 22°59' E 113°31'663795776.8
2017-Aug-17 02:58N 31°19' E 121°41'66955976.4
2017-Aug-17 02:58N 22°54' E 113°29'4494.9
2017-Aug-17 02:57N 22°57' E 113°30'6638497.0
2017-Aug-17 02:52N 31°31' E 121°23'671067.1
2017-Aug-17 02:49N 31°57' E 120°11'542468.5
2017-Aug-17 02:47N 31°20' E 120°57'37217.6
2017-Aug-17 02:37N 31°19' E 121°41'6686136.8
2017-Aug-17 02:31N 22°53' E 113°31'115620.3
2017-Aug-17 02:30N 23°03' E 113°24'910634.9
2017-Aug-17 02:30N 22°57' E 113°32'646154945.6
2017-Aug-17 02:30N 31°57' E 120°12'5751426.1
2017-Aug-17 02:30N 31°39' E 121°16'2925752.1
2017-Aug-17 02:30N 31°19' E 121°41'0 2.6
2017-Aug-17 02:29N 31°19' E 121°41'192041.8
2017-Aug-17 02:28N 31°31' E 121°23'6635450.9
2017-Aug-17 02:21N 22°57' E 113°30'2582915.9
2017-Aug-17 02:16N 24°09' E 118°01'4841866.8
2017-Aug-17 02:00N 31°41' E 121°15'3329920.5
2017-Aug-17 02:00N 31°18' E 121°43'66549903.3
2017-Aug-17 01:59N 22°55' E 113°33'131388.0
2017-Aug-17 01:59N 23°02' E 113°22'66761537.4
2017-Aug-17 01:58N 31°19' E 121°41'66537417.5
2017-Aug-17 01:57N 22°58' E 113°30'648466868.5
2017-Aug-17 01:57N 31°57' E 120°16'65224958.5
2017-Aug-17 01:55N 22°52' E 113°33'259311180.6
2017-Aug-17 01:55N 24°08' E 118°03'4737036.2
2017-Aug-17 01:51N 31°20' E 121°39'189041.7
2017-Aug-17 01:51N 31°31' E 121°23'14137.1
2017-Aug-17 01:45N 31°41' E 121°11'39159.8
2017-Aug-17 01:30N 31°16' E 121°46'396737.3
2017-Aug-17 01:30N 31°44' E 121°13'164669.4
2017-Aug-17 01:30N 31°31' E 121°23'6651197211.9
2017-Aug-17 01:30N 23°03' E 113°19'193259.1
2017-Aug-17 01:29N 22°51' E 113°35'99714135.6
2017-Aug-17 01:25N 39°05' E 117°45'50460461.2
2017-Aug-17 01:25N 31°19' E 121°41'806144.7
2017-Aug-17 01:24N 31°59' E 120°19'40893.5
2017-Aug-17 01:21N 31°46' E 121°04'40903.1
2017-Aug-17 01:19N 31°20' E 121°40'321339.0
2017-Aug-17 01:17N 31°41' E 121°11'24347.1
2017-Aug-17 01:13N 31°24' E 121°31'4736604.7
2017-Aug-17 01:09N 24°07' E 118°07'4723472.9
2017-Aug-17 01:01N 31°18' E 121°43'391639.4
2017-Aug-17 00:59N 31°46' E 121°11'371553.4
2017-Aug-17 00:58N 31°19' E 121°41'102539.3
2017-Aug-17 00:57N 31°23' E 121°30'47243577.8
2017-Aug-17 00:57N 24°06' E 118°07'485109069.0
2017-Aug-17 00:57N 31°45' E 121°06'38616.7
2017-Aug-17 00:53N 31°20' E 121°39'182296.9
2017-Aug-17 00:52N 31°31' E 121°23'602417.9
2017-Aug-17 00:51N 32°00' E 120°21'65927571.0
2017-Aug-17 00:49N 22°48' E 113°37'6682093.5
2017-Aug-17 00:30N 31°22' E 121°37'5819.2
2017-Aug-17 00:30N 31°21' E 121°31'66579777.1
2017-Aug-17 00:29N 22°47' E 113°38'66980279.6
2017-Aug-17 00:29N 31°19' E 121°41'191106.9
2017-Aug-17 00:28N 31°31' E 121°23'16718.8
2017-Aug-17 00:27N 31°42' E 121°09'36159.1
2017-Aug-17 00:13N 31°19' E 121°41'38367.5
2017-Aug-17 00:07N 31°47' E 121°10'6688748.8
2017-Aug-17 00:02N 22°58' E 113°30'66519293.1
2017-Aug-17 00:00N 31°40' E 121°12'252761.0
2017-Aug-17 00:00N 31°23' E 121°34'72043.0
2017-Aug-16 23:59N 31°19' E 121°41'19749.4
2017-Aug-16 23:58N 31°31' E 121°23'19480.0
2017-Aug-16 23:56N 31°47' E 121°10'38887.7
2017-Aug-16 23:53N 31°19' E 121°41'61092.9
2017-Aug-16 23:53N 31°18' E 121°34'66024252.0
2017-Aug-16 23:51N 22°58' E 113°30'6621936.7
2017-Aug-16 23:30N 31°23' E 121°30'10233.9
2017-Aug-16 23:28N 31°31' E 121°23'194645.6
2017-Aug-16 23:28N 31°19' E 121°41'38136707.8
2017-Aug-16 23:28N 31°47' E 121°10'371413.9
2017-Aug-16 23:26N 31°16' E 121°33'760.2
2017-Aug-16 23:19N 31°19' E 121°41'4722097.7
2017-Aug-16 23:05N 24°07' E 118°08'2646241.9
2017-Aug-16 23:03N 22°58' E 113°30'66515651.1
2017-Aug-16 23:00N 31°19' E 121°41'47232666.5
2017-Aug-16 22:59N 24°07' E 118°08'4647173.1
2017-Aug-16 22:56N 31°15' E 121°30'361058.4
2017-Aug-16 22:54N 31°47' E 121°10'668300518.6
2017-Aug-16 22:53N 22°55' E 113°35'6645920.2
2017-Aug-16 22:47N 31°19' E 121°41'3710376.1
2017-Aug-16 22:46N 31°20' E 120°57'24222.5
2017-Aug-16 22:40N 31°34' E 121°19'66420963.5
2017-Aug-16 22:38N 22°58' E 113°30'66330607.6
2017-Aug-16 22:37N 31°31' E 121°23'18152.7
2017-Aug-16 22:30N 31°13' E 121°30'46338772.5
2017-Aug-16 22:29N 24°07' E 118°08'48743873.3
2017-Aug-16 22:28N 31°47' E 121°10'670402150.7
2017-Aug-16 22:28N 22°52' E 113°34'66719515.7
2017-Aug-16 22:26N 31°19' E 121°41'22330.0
2017-Aug-16 22:22N 31°33' E 121°21'22302.0
2017-Aug-16 22:18N 31°19' E 121°41'19810.0
2017-Aug-16 22:16N 31°31' E 121°23'6635212.7
2017-Aug-16 22:09N 22°58' E 113°30'6646831.9
2017-Aug-16 22:03N 31°46' E 121°03'23443.0
2017-Aug-16 22:00N 31°31' E 121°23'20569.0
2017-Aug-16 21:58N 31°11' E 121°28'286668.8
2017-Aug-16 21:57N 31°20' E 120°57'371405.1
2017-Aug-16 21:56N 31°19' E 121°41'3827338.5
2017-Aug-16 21:56N 31°47' E 121°10'191441.8
2017-Aug-16 21:55N 31°31' E 121°23'19154.0
2017-Aug-16 21:47N 31°19' E 121°41'38916.2
2017-Aug-16 21:45N 31°44' E 121°07'6656519.5
2017-Aug-16 21:39N 22°58' E 113°30'66512528.6
2017-Aug-16 21:36N 31°41' E 121°11'34343.5
2017-Aug-16 21:30N 31°19' E 121°41'161873.4
2017-Aug-16 21:29N 31°29' E 121°27'213647.0
2017-Aug-16 21:29N 31°43' E 121°08'66917451.1
2017-Aug-16 21:27N 22°47' E 113°38'673142499.2
2017-Aug-16 21:26N 31°47' E 121°10'413912.0
2017-Aug-16 21:26N 31°08' E 121°28'36880.1
2017-Aug-16 21:23N 31°41' E 121°11'3420159.4
2017-Aug-16 21:23N 31°19' E 121°41'173111.7
2017-Aug-16 21:23N 31°30' E 121°25'2155.6
2017-Aug-16 21:22N 31°31' E 121°23'245174.1
2017-Aug-16 21:22N 31°20' E 120°57'2877.8
2017-Aug-16 21:00N 31°27' E 121°29'135002.0
2017-Aug-16 21:00N 31°19' E 121°41'386510.6
2017-Aug-16 20:59N 31°47' E 121°10'292901.9
2017-Aug-16 20:59N 31°20' E 120°57'24603.6
2017-Aug-16 20:56N 31°31' E 121°23'669343828.3
2017-Aug-16 20:56N 22°44' E 113°40'67040906.6
2017-Aug-16 20:55N 31°41' E 121°11'341259.7
2017-Aug-16 20:54N 31°19' E 121°41'36127.7
2017-Aug-16 20:37N 31°43' E 121°09'6649684.8
2017-Aug-16 20:33N 22°58' E 113°30'66315015.8
2017-Aug-16 20:30N 31°31' E 121°23'102587.0
2017-Aug-16 20:30N 31°25' E 121°32'225770.4
2017-Aug-16 20:29N 31°40' E 121°13'3212632.7
2017-Aug-16 20:29N 31°19' E 121°41'0 2.7
2017-Aug-16 20:29N 31°19' E 121°41'381120.4
2017-Aug-16 20:27N 31°47' E 121°10'5637.5
2017-Aug-16 20:26N 31°41' E 121°11'25325.9
2017-Aug-16 20:22N 31°20' E 120°57'6453087.5
2017-Aug-16 20:09N 22°55' E 113°27'4320.9
2017-Aug-16 20:08N 22°58' E 113°30'6685043.8
2017-Aug-16 20:00N 31°47' E 121°10'7829.1
2017-Aug-16 20:00N 31°40' E 121°13'125597.2
2017-Aug-16 20:00N 31°31' E 121°23'144012.4
2017-Aug-16 20:00N 31°41' E 121°11'341079.8
2017-Aug-16 19:58N 31°19' E 121°41'7311.9
2017-Aug-16 19:56N 31°23' E 121°34'7586.6
2017-Aug-16 19:56N 31°19' E 121°41'66975253.0
2017-Aug-16 19:55N 22°54' E 113°28'644773136.9
2017-Aug-16 19:55N 31°20' E 120°57'2489.5
2017-Aug-16 19:39N 31°40' E 121°12'35238.8
2017-Aug-16 19:30N 31°17' E 121°44'225310.3
2017-Aug-16 19:30N 31°31' E 121°23'24653.1
2017-Aug-16 19:28N 31°20' E 120°57'297463.4
2017-Aug-16 19:27N 31°47' E 121°10'327598.5
2017-Aug-16 19:27N 31°23' E 121°34'251156.1
2017-Aug-16 19:26N 31°40' E 121°13'1055985.8
2017-Aug-16 19:25N 29°59' E 121°46'10610641.4
2017-Aug-16 19:24N 31°41' E 121°11'273.4
2017-Aug-16 19:22N 31°39' E 121°13'486129.5
2017-Aug-16 19:22N 31°60' E 120°22'78984.1
2017-Aug-16 19:17N 31°19' E 121°41'723.5
2017-Aug-16 19:00N 31°23' E 121°34'114801.1
2017-Aug-16 19:00N 31°17' E 121°45'234199.3
2017-Aug-16 19:00N 31°31' E 121°23'12573.9
2017-Aug-16 18:59N 31°40' E 121°13'321157.4
2017-Aug-16 18:57N 31°19' E 121°41'34999.6
2017-Aug-16 18:55N 31°41' E 121°11'3436.4
2017-Aug-16 18:55N 31°39' E 121°13'8404.8
2017-Aug-16 18:53N 31°47' E 121°10'293196.6
2017-Aug-16 18:53N 31°23' E 121°30'701708.0
2017-Aug-16 18:50N 31°58' E 120°19'50635.0
2017-Aug-16 18:46N 31°20' E 120°57'6412857.6
2017-Aug-16 18:32N 22°58' E 113°30'66523030.2
2017-Aug-16 18:30N 31°19' E 121°41'8120773.1
2017-Aug-16 18:30N 31°57' E 120°17'5030186.1
2017-Aug-16 18:30N 31°20' E 120°57'29104487.4
2017-Aug-16 18:30N 31°47' E 121°10'7830.4
2017-Aug-16 18:30N 31°40' E 121°13'122797.6
2017-Aug-16 18:29N 31°31' E 121°23'19865.9
2017-Aug-16 18:28N 31°19' E 121°41'7504.3
2017-Aug-16 18:27N 31°23' E 121°34'7150991.6
2017-Aug-16 18:27N 31°58' E 120°22'65342736.6
2017-Aug-16 18:26N 22°58' E 113°30'6651540.9
2017-Aug-16 18:00N 31°19' E 121°41'8399175.3
2017-Aug-16 18:00N 31°56' E 120°14'646465405.3
2017-Aug-16 18:00N 22°58' E 113°30'6651196605.8
2017-Aug-16 18:00N 31°40' E 121°13'7829.7
2017-Aug-16 18:00N 31°47' E 121°10'32113977.4
2017-Aug-16 18:00N 31°23' E 121°34'799.2
2017-Aug-16 17:56N 31°19' E 121°41'341728.1
2017-Aug-16 17:54N 31°41' E 121°11'14214.7
2017-Aug-16 17:50N 31°31' E 121°23'24518.6
2017-Aug-16 17:48N 31°20' E 120°57'493887.3
2017-Aug-16 17:47N 31°58' E 120°22'47345.1
2017-Aug-16 17:39N 31°39' E 121°13'6614154.5
2017-Aug-16 17:29N 23°00' E 113°31'64242794.6
2017-Aug-16 17:28N 31°56' E 120°10'565418.5
2017-Aug-16 17:28N 31°40' E 121°13'327091.0
2017-Aug-16 17:27N 31°19' E 121°41'72635.9
2017-Aug-16 17:27N 31°23' E 121°34'3216280.1
2017-Aug-16 17:27N 31°47' E 121°10'192239.7
2017-Aug-16 17:27N 31°31' E 121°23'241377.6
2017-Aug-16 17:25N 31°20' E 120°57'381535.0
2017-Aug-16 17:24N 31°19' E 121°41'34181.6
2017-Aug-16 17:13N 31°41' E 121°11'0 1.8
2017-Aug-16 17:03N 31°41' E 121°11'36674.1
2017-Aug-16 17:00N 31°18' E 121°43'95191.2
2017-Aug-16 17:00N 31°23' E 121°34'273367.6
2017-Aug-16 17:00N 31°41' E 121°11'5614497.9
2017-Aug-16 16:59N 31°56' E 120°07'6920773.9
2017-Aug-16 16:59N 31°31' E 121°23'199897.8
2017-Aug-16 16:59N 31°19' E 121°41'38785.8
2017-Aug-16 16:56N 31°47' E 121°10'7165.9
2017-Aug-16 16:53N 31°40' E 121°13'24534.7
2017-Aug-16 16:51N 31°20' E 120°57'2469.0
2017-Aug-16 16:30N 31°39' E 121°13'3614307.1
2017-Aug-16 16:30N 31°17' E 121°46'957462.4
2017-Aug-16 16:29N 31°57' E 120°04'5942185.6
2017-Aug-16 16:29N 31°20' E 120°57'3228761.1
2017-Aug-16 16:29N 31°23' E 121°34'7282.6
2017-Aug-16 16:28N 31°19' E 121°41'342573.5
2017-Aug-16 16:27N 31°41' E 121°11'14899.3
2017-Aug-16 16:26N 31°31' E 121°23'12474.1
2017-Aug-16 16:25N 31°39' E 121°13'8315.0
2017-Aug-16 16:23N 31°47' E 121°10'39935.4
2017-Aug-16 16:21N 31°58' E 120°26'76224.1
2017-Aug-16 16:00N 31°18' E 121°43'85049.5
2017-Aug-16 16:00N 31°23' E 121°34'878930.5
2017-Aug-16 15:59N 31°58' E 120°01'933863.7
2017-Aug-16 15:58N 31°19' E 121°41'7514919.8
2017-Aug-16 15:58N 31°58' E 120°26'472001.9
2017-Aug-16 15:56N 31°20' E 120°57'24471.4
2017-Aug-16 15:53N 31°31' E 121°23'14305.0
2017-Aug-16 15:50N 31°41' E 121°11'596.9
2017-Aug-16 15:47N 31°47' E 121°10'829.0
2017-Aug-16 15:30N 31°39' E 121°13'8711.8
2017-Aug-16 15:30N 31°47' E 121°10'3210361.6
2017-Aug-16 15:30N 31°23' E 121°34'71319.2
2017-Aug-16 15:29N 31°19' E 121°41'193648.6
2017-Aug-16 15:29N 31°31' E 121°23'193299.3
2017-Aug-16 15:29N 31°19' E 121°41'37248.4
2017-Aug-16 15:20N 31°20' E 120°57'25538.5
2017-Aug-16 15:17N 31°41' E 121°11'3 9.5
2017-Aug-16 15:01N 31°39' E 121°13'312800.3
2017-Aug-16 15:00N 31°19' E 121°41'191444.5
2017-Aug-16 14:59N 31°31' E 121°23'131089.0
2017-Aug-16 14:58N 31°23' E 121°34'780.4
2017-Aug-16 14:53N 31°19' E 121°41'34126.4
2017-Aug-16 14:37N 31°41' E 121°11'25502.0
2017-Aug-16 14:35N 31°20' E 120°57'29417.9
2017-Aug-16 14:30N 31°47' E 121°10'383798.3
2017-Aug-16 14:30N 31°19' E 121°41'0148.2
2017-Aug-16 14:30N 31°19' E 121°41'321051.4
2017-Aug-16 14:28N 31°39' E 121°13'1023088.7
2017-Aug-16 14:26N 30°04' E 121°55'824205.2
2017-Aug-16 14:25N 31°24' E 121°35'3311794.7
2017-Aug-16 14:24N 31°20' E 120°57'25140.7
2017-Aug-16 14:14N 31°41' E 121°11'311.6
2017-Aug-16 14:01N 31°39' E 121°13'3430875.6
2017-Aug-16 14:00N 31°18' E 121°44'4174009.8
2017-Aug-16 14:00N 31°47' E 121°10'294748.5
2017-Aug-16 14:00N 31°20' E 120°57'9320948.5
2017-Aug-16 14:00N 30°02' E 121°56'1073284.5
2017-Aug-16 13:58N 31°41' E 121°11'34496.4
2017-Aug-16 13:54N 31°19' E 121°41'1976.1
2017-Aug-16 13:39N 31°31' E 121°23'23170.0
2017-Aug-16 13:30N 31°17' E 121°45'7816575.6
2017-Aug-16 13:30N 29°60' E 121°58'1075405.9
2017-Aug-16 13:29N 31°39' E 121°13'311496.7
2017-Aug-16 13:28N 31°19' E 121°41'3420222.4
2017-Aug-16 13:28N 31°41' E 121°11'5466.6
2017-Aug-16 13:27N 31°47' E 121°10'19302.4
2017-Aug-16 13:23N 31°31' E 121°23'24201.9
2017-Aug-16 13:16N 31°20' E 120°57'69411.7
2017-Aug-16 13:06N 32°04' E 119°56'943711.4
2017-Aug-16 13:04N 31°24' E 121°35'891388.4
2017-Aug-16 13:00N 29°58' E 122°00'894201.9
2017-Aug-16 12:59N 31°24' E 121°35'7212.2
2017-Aug-16 12:57N 31°19' E 121°41'315656.7
2017-Aug-16 12:57N 31°39' E 121°13'1857.0
2017-Aug-16 12:57N 31°40' E 121°13'12197.6
2017-Aug-16 12:53N 31°31' E 121°23'24420.1
2017-Aug-16 12:50N 31°20' E 120°57'294018.0
2017-Aug-16 12:49N 31°47' E 121°10'652004.2
2017-Aug-16 12:47N 32°03' E 119°56'991445.0
2017-Aug-16 12:43N 31°19' E 121°41'34256.1
2017-Aug-16 12:35N 31°41' E 121°11'25313.1
2017-Aug-16 12:30N 31°20' E 120°57'371482.3
2017-Aug-16 12:29N 31°19' E 121°41'325990.6
2017-Aug-16 12:29N 31°40' E 121°13'72310.3
2017-Aug-16 12:28N 31°47' E 121°10'384715.7
2017-Aug-16 12:28N 31°19' E 121°41'31396.8
2017-Aug-16 12:23N 31°40' E 121°13'123640.4
2017-Aug-16 12:23N 31°31' E 121°23'1371.5
2017-Aug-16 12:12N 31°24' E 121°35'91733.3
2017-Aug-16 12:05N 32°01' E 119°58'971127.0
2017-Aug-16 12:00N 31°19' E 121°41'321355.0
2017-Aug-16 11:58N 31°40' E 121°13'71588.4
2017-Aug-16 11:58N 31°47' E 121°10'389768.2
2017-Aug-16 11:58N 31°19' E 121°41'34697.7
2017-Aug-16 11:55N 31°41' E 121°11'28790.1
2017-Aug-16 11:55N 31°40' E 121°13'674725.9
2017-Aug-16 11:54N 32°01' E 119°58'781350.1
2017-Aug-16 11:51N 31°31' E 121°23'13104.8
2017-Aug-16 11:43N 31°24' E 121°35'163793.4
2017-Aug-16 11:43N 31°32' E 121°19'25119.2
2017-Aug-16 11:30N 31°17' E 121°44'10327.8
2017-Aug-16 11:28N 31°24' E 121°35'7504.6
2017-Aug-16 11:28N 31°19' E 121°41'382045.3
2017-Aug-16 11:26N 31°47' E 121°10'7212.1
2017-Aug-16 11:24N 31°40' E 121°13'64756.2
2017-Aug-16 11:19N 31°59' E 120°01'62577.2
2017-Aug-16 11:13N 31°41' E 121°11'611564.0
2017-Aug-16 11:11N 31°58' E 120°02'97552.0
2017-Aug-16 11:00N 31°17' E 121°45'442624.0
2017-Aug-16 10:59N 31°49' E 121°10'573821.5
2017-Aug-16 10:58N 31°58' E 120°03'85307784.0
2017-Aug-16 10:58N 31°24' E 121°35'275428.4
2017-Aug-16 10:58N 31°41' E 121°11'60742.3
2017-Aug-16 10:53N 31°58' E 120°03'927513.5
2017-Aug-16 10:52N 31°19' E 121°41'1995.1
2017-Aug-16 10:40N 31°31' E 121°23'223.4
2017-Aug-16 10:34N 31°32' E 121°20'681110.7
2017-Aug-16 10:30N 31°58' E 120°06'912253.0
2017-Aug-16 10:28N 31°18' E 121°42'2108.7
2017-Aug-16 10:27N 31°19' E 121°41'3228426.9
2017-Aug-16 10:27N 31°40' E 121°13'601289.1
2017-Aug-16 10:24N 31°58' E 120°06'711326.2
2017-Aug-16 10:21N 31°31' E 121°23'131155.1
2017-Aug-16 10:20N 31°24' E 121°35'275748.6
2017-Aug-16 10:20N 31°41' E 121°11'25205.0
2017-Aug-16 10:13N 31°20' E 120°57'26291.5
2017-Aug-16 10:07N 31°31' E 121°24'20169.5
2017-Aug-16 10:00N 31°18' E 121°43'9010393.6
2017-Aug-16 10:00N 31°57' E 120°08'815514.0
2017-Aug-16 09:59N 31°24' E 121°35'252815.1
2017-Aug-16 09:58N 31°40' E 121°13'582959.7
2017-Aug-16 09:57N 31°57' E 120°08'10568.4
2017-Aug-16 09:56N 32°01' E 119°58'974374.8
2017-Aug-16 09:55N 31°19' E 121°41'371566.4
2017-Aug-16 09:53N 31°20' E 120°57'25439.7
2017-Aug-16 09:50N 31°41' E 121°11'15527.7
2017-Aug-16 09:48N 31°31' E 121°23'1029631.1
2017-Aug-16 09:48N 29°56' E 122°04'9917800.1
2017-Aug-16 09:47N 31°29' E 121°27'631029.2
2017-Aug-16 09:44N 32°02' E 120°24'72324.2
2017-Aug-16 09:31N 31°24' E 121°35'78253.9
2017-Aug-16 09:30N 31°27' E 121°28'9939489.9
2017-Aug-16 09:30N 29°55' E 122°08'8430328.5
2017-Aug-16 09:30N 31°17' E 121°46'426796.4
2017-Aug-16 09:30N 31°20' E 120°57'547477.9
2017-Aug-16 09:29N 31°57' E 120°11'101192.7
2017-Aug-16 09:29N 32°00' E 119°59'212450.0
2017-Aug-16 09:28N 32°02' E 120°24'59805.1
2017-Aug-16 09:24N 31°31' E 121°23'19809.8
2017-Aug-16 09:22N 31°19' E 121°41'3291.8
2017-Aug-16 09:02N 31°40' E 121°13'341260.1
2017-Aug-16 09:00N 31°18' E 121°43'88157707.0
2017-Aug-16 09:00N 29°53' E 122°09'16713360.3
2017-Aug-16 08:59N 31°59' E 120°01'1037265.6
2017-Aug-16 08:59N 31°57' E 120°13'641158.9
2017-Aug-16 08:56N 31°31' E 121°23'644798.8
2017-Aug-16 08:55N 31°57' E 120°14'77465.7
2017-Aug-16 08:45N 31°24' E 121°35'4241.7
2017-Aug-16 08:44N 31°23' E 121°30'10475.8
2017-Aug-16 08:43N 31°19' E 121°41'32270.2
2017-Aug-16 08:36N 31°40' E 121°13'1141237.7
2017-Aug-16 08:30N 29°55' E 122°05'8710117.6
2017-Aug-16 08:30N 31°19' E 121°41'140.3
2017-Aug-16 08:29N 31°19' E 121°41'321360.0
2017-Aug-16 08:28N 31°40' E 121°13'518400.9
2017-Aug-16 08:27N 31°57' E 120°16'0 4.1
2017-Aug-16 08:21N 31°57' E 120°16'754425.4
2017-Aug-16 08:20N 31°24' E 121°35'842427.8
2017-Aug-16 08:18N 31°58' E 120°05'722410.3
2017-Aug-16 08:16N 31°31' E 121°23'4883622.9
2017-Aug-16 08:08N 39°05' E 117°44'4432721.2
2017-Aug-16 07:58N 31°58' E 120°06'595332.8
2017-Aug-16 07:58N 31°40' E 121°13'503391.3
2017-Aug-16 07:57N 31°58' E 120°18'011.8
2017-Aug-16 07:56N 31°58' E 120°18'14910325.1
2017-Aug-16 07:56N 29°58' E 122°02'83149022.8
2017-Aug-16 07:55N 31°19' E 121°41'19186.2
2017-Aug-16 07:49N 31°31' E 121°23'19441.8
2017-Aug-16 07:47N 31°19' E 121°41'71572.5
2017-Aug-16 07:46N 31°24' E 121°35'27263.3
2017-Aug-16 07:40N 31°41' E 121°11'212.6
2017-Aug-16 07:30N 31°40' E 121°13'1075183.0
2017-Aug-16 07:29N 30°01' E 121°59'14647663.7
2017-Aug-16 07:29N 31°60' E 120°20'605441.5
2017-Aug-16 07:28N 31°31' E 121°23'609867.0
2017-Aug-16 07:28N 31°59' E 120°20'794206.0
2017-Aug-16 07:27N 31°19' E 121°41'0 1.9
2017-Aug-16 07:26N 31°19' E 121°41'8716437.2
2017-Aug-16 07:25N 31°57' E 120°09'812300.1
2017-Aug-16 07:23N 31°24' E 121°35'27148.7
2017-Aug-16 07:12N 31°41' E 121°11'105515.9
2017-Aug-16 07:00N 30°04' E 121°55'779215.1
2017-Aug-16 07:00N 31°19' E 121°41'7947258.0
2017-Aug-16 07:00N 32°01' E 120°22'484197.9
2017-Aug-16 06:59N 31°40' E 121°13'121183.5
2017-Aug-16 06:58N 31°31' E 121°23'13808.8
2017-Aug-16 06:57N 31°24' E 121°35'2732486.7
2017-Aug-16 06:57N 31°41' E 121°11'463428.7
2017-Aug-16 06:56N 32°01' E 120°23'791253.6
2017-Aug-16 06:53N 31°19' E 121°41'4601173.2
2017-Aug-16 06:29N 24°19' E 118°08'46316650.4
2017-Aug-16 06:27N 31°24' E 121°35'757.5
2017-Aug-16 06:21N 31°19' E 121°41'19262.7
2017-Aug-16 06:16N 31°31' E 121°23'198664.8
2017-Aug-16 06:16N 31°19' E 121°41'34902.0
2017-Aug-16 06:14N 31°41' E 121°11'47120415.9
2017-Aug-16 06:13N 24°19' E 118°07'47013328.1
2017-Aug-16 06:10N 31°40' E 121°13'4702482.3
2017-Aug-16 05:59N 24°19' E 118°08'46990.3
2017-Aug-16 05:59N 24°19' E 118°13'45914371.3
2017-Aug-16 05:57N 31°19' E 121°41'192667.6
2017-Aug-16 05:57N 31°31' E 121°23'14310.1
2017-Aug-16 05:54N 31°41' E 121°11'34325.8
2017-Aug-16 05:48N 31°19' E 121°41'0 0.1
2017-Aug-16 05:30N 31°19' E 121°41'1969369.6
2017-Aug-16 05:30N 31°31' E 121°23'46442876.8
2017-Aug-16 05:29N 24°17' E 118°13'47113240.2
2017-Aug-16 05:27N 31°41' E 121°11'34578.4
2017-Aug-16 05:23N 31°19' E 121°41'6762347.5
2017-Aug-16 05:06N 22°53' E 113°17'67611701.3
2017-Aug-16 05:03N 31°24' E 121°35'13315.7
2017-Aug-16 05:00N 31°31' E 121°23'19537.4
2017-Aug-16 04:58N 31°19' E 121°41'52816093.6
2017-Aug-16 04:56N 22°37' E 120°15'54567663.8
2017-Aug-16 04:56N 31°40' E 121°13'32523.9
2017-Aug-16 04:52N 31°19' E 121°41'79285.7
2017-Aug-16 04:35N 32°01' E 120°22'48387.3
2017-Aug-16 04:28N 31°40' E 121°13'488149.9
2017-Aug-16 04:28N 32°01' E 120°23'796283.6
2017-Aug-16 04:27N 31°19' E 121°41'0 0.9
2017-Aug-16 04:26N 31°19' E 121°41'342239.7
2017-Aug-16 04:25N 31°41' E 121°11'141335.8
2017-Aug-16 04:24N 31°31' E 121°23'1947.8
2017-Aug-16 04:00N 31°19' E 121°41'194625.5
2017-Aug-16 04:00N 31°31' E 121°23'128991.1
2017-Aug-16 04:00N 31°40' E 121°13'222.1
2017-Aug-16 03:54N 31°41' E 121°11'44846.0
2017-Aug-16 03:51N 32°03' E 120°26'78244.7
2017-Aug-16 03:32N 31°19' E 121°41'0 2.4
2017-Aug-16 03:30N 31°19' E 121°41'7769553.2
2017-Aug-16 03:30N 32°04' E 120°27'5823061.4
2017-Aug-16 03:30N 31°31' E 121°23'192237.7
2017-Aug-16 03:30N 31°19' E 121°41'342572.9
2017-Aug-16 03:29N 31°41' E 121°11'294.3
2017-Aug-16 03:28N 31°40' E 121°13'25467.5
2017-Aug-16 03:24N 31°24' E 121°35'4981863.9
2017-Aug-16 03:08N 39°05' E 117°46'5033721.3
2017-Aug-16 03:00N 31°19' E 121°41'1913876.5
2017-Aug-16 03:00N 31°31' E 121°23'223625.5
2017-Aug-16 03:00N 31°18' E 121°44'3420659.8
2017-Aug-16 03:00N 31°40' E 121°13'25601.5
2017-Aug-16 02:57N 31°24' E 121°35'271265.9
2017-Aug-16 02:56N 31°41' E 121°11'3990.9
2017-Aug-16 02:30N 31°17' E 121°46'245154.7
2017-Aug-16 02:30N 31°31' E 121°23'191827.8
2017-Aug-16 02:30N 31°19' E 121°41'7290.3
2017-Aug-16 02:28N 31°24' E 121°35'25265.3
2017-Aug-16 02:23N 31°40' E 121°13'246.2
2017-Aug-16 02:20N 31°41' E 121°11'34105.7
2017-Aug-16 02:00N 31°19' E 121°42'130.2
2017-Aug-16 01:59N 31°19' E 121°41'32468.4
2017-Aug-16 01:55N 31°40' E 121°13'121403.3
2017-Aug-16 01:54N 31°31' E 121°23'13222.9
2017-Aug-16 01:51N 31°24' E 121°35'272436.1
2017-Aug-16 01:50N 31°41' E 121°11'34103.3
2017-Aug-16 01:30N 31°19' E 121°41'7171.4
2017-Aug-16 01:28N 31°24' E 121°35'13721.0
2017-Aug-16 01:27N 31°31' E 121°23'19251.0
2017-Aug-16 01:22N 31°19' E 121°41'341391.1
2017-Aug-16 01:21N 31°41' E 121°11'35101.6
2017-Aug-16 01:00N 31°18' E 121°42'89796.4
2017-Aug-16 01:00N 31°24' E 121°35'275412.9
2017-Aug-16 01:00N 31°41' E 121°11'26581.1
2017-Aug-16 00:57N 31°43' E 121°41'2417327.9
2017-Aug-16 00:57N 31°19' E 121°41'1917364.6
2017-Aug-16 00:57N 31°31' E 121°23'1277.5
2017-Aug-16 00:47N 31°40' E 121°13'36124.0
2017-Aug-16 00:30N 31°17' E 121°45'259917.1
2017-Aug-16 00:30N 31°31' E 121°22'211723.7
2017-Aug-16 00:29N 31°43' E 121°41'20201.6
2017-Aug-16 00:23N 31°24' E 121°35'25207.9
2017-Aug-16 00:16N 31°40' E 121°13'2121.3
2017-Aug-16 00:15N 31°41' E 121°11'36147.0
2017-Aug-16 00:00N 31°18' E 121°43'3616298.0
2017-Aug-16 00:00N 31°41' E 121°11'11549.5
2017-Aug-15 23:59N 31°33' E 121°19'47923281.1
2017-Aug-15 23:58N 24°08' E 118°00'48322285.2
2017-Aug-15 23:56N 31°40' E 121°13'2530059.8
2017-Aug-15 23:56N 31°24' E 121°35'2052.4
2017-Aug-15 23:33N 31°43' E 121°41'49511135.1
2017-Aug-15 23:30N 24°07' E 118°03'48311506.8
2017-Aug-15 23:28N 31°40' E 121°13'252049.2
2017-Aug-15 23:27N 31°24' E 121°35'20910.9
2017-Aug-15 23:26N 31°43' E 121°41'24348.6
2017-Aug-15 23:22N 31°19' E 121°41'26560.3
2017-Aug-15 23:19N 31°36' E 121°17'857.8
2017-Aug-15 23:11N 31°41' E 121°11'26146.9
2017-Aug-15 23:00N 31°43' E 121°41'2210021.1
2017-Aug-15 23:00N 31°37' E 121°16'4711.1
2017-Aug-15 23:00N 31°40' E 121°13'25875.8
2017-Aug-15 22:58N 31°24' E 121°35'47528006.1
2017-Aug-15 22:57N 24°07' E 118°06'4837068.3
2017-Aug-15 22:53N 31°41' E 121°11'34274.0
2017-Aug-15 22:46N 31°19' E 121°41'32121.5
2017-Aug-15 22:30N 31°40' E 121°13'482347231.1
2017-Aug-15 22:30N 24°06' E 118°08'485581410.4
2017-Aug-15 22:30N 31°44' E 121°06'9455.7
2017-Aug-15 22:29N 31°38' E 121°14'23556.9
2017-Aug-15 22:26N 31°24' E 121°35'7270.7
2017-Aug-15 22:25N 31°19' E 121°41'31346.1
2017-Aug-15 22:20N 31°40' E 121°13'2414429.1
2017-Aug-15 22:19N 31°43' E 121°41'26675.6
2017-Aug-15 22:17N 31°41' E 121°11'2797.8
2017-Aug-15 22:00N 31°24' E 121°35'2618385.1
2017-Aug-15 22:00N 31°40' E 121°12'328909.0
2017-Aug-15 22:00N 31°19' E 121°41'291603.0
2017-Aug-15 21:59N 31°38' E 121°15'33255.9
2017-Aug-15 21:59N 31°40' E 121°13'223.2
2017-Aug-15 21:53N 31°41' E 121°10'0 4.7
2017-Aug-15 21:48N 31°41' E 121°11'318.9
2017-Aug-15 21:37N 31°43' E 121°08'645.3
2017-Aug-15 21:29N 31°39' E 121°13'255901.2
2017-Aug-15 21:29N 31°24' E 121°35'251185.1
2017-Aug-15 21:28N 31°40' E 121°13'3104.0
2017-Aug-15 21:26N 31°41' E 121°09'10395.7
2017-Aug-15 21:25N 31°35' E 121°18'10191.1
2017-Aug-15 21:21N 31°42' E 121°09'34162.8
2017-Aug-15 21:09N 31°20' E 121°40'21128.6
2017-Aug-15 20:59N 31°33' E 121°20'191123.5
2017-Aug-15 20:58N 31°46' E 121°04'351598.9
2017-Aug-15 20:57N 31°24' E 121°35'25637.0
2017-Aug-15 20:54N 31°40' E 121°12'6111.1
2017-Aug-15 20:51N 31°43' E 121°07'6351.6
2017-Aug-15 20:50N 31°40' E 121°13'30386.3
2017-Aug-15 20:46N 31°20' E 121°40'37127.1
2017-Aug-15 20:28N 31°44' E 121°07'5610135.6
2017-Aug-15 20:28N 31°58' E 120°02'552709.7
2017-Aug-15 20:27N 31°45' E 121°05'11536.2
2017-Aug-15 20:25N 31°38' E 121°15'271414.0
2017-Aug-15 20:24N 31°20' E 121°40'291293.3
2017-Aug-15 20:23N 31°39' E 121°13'261499.3
2017-Aug-15 20:22N 31°23' E 121°37'27829.7
2017-Aug-15 20:20N 31°40' E 121°13'24465.4
2017-Aug-15 20:17N 31°43' E 121°41'6797585.7
2017-Aug-15 20:11N 23°04' E 113°29'6603615.3
2017-Aug-15 20:00N 31°36' E 121°17'518780.2
2017-Aug-15 20:00N 31°40' E 121°13'60999.4
2017-Aug-15 19:57N 31°58' E 120°05'63936506.0
2017-Aug-15 19:56N 23°04' E 113°29'660237446.9
2017-Aug-15 19:56N 31°42' E 121°09'21154.5
2017-Aug-15 19:47N 31°28' E 121°28'13296.0
2017-Aug-15 19:45N 31°20' E 121°40'29250.7
2017-Aug-15 19:38N 31°39' E 121°13'241511.4
2017-Aug-15 19:37N 31°43' E 121°41'80767.3
2017-Aug-15 19:30N 31°57' E 120°08'656343.8
2017-Aug-15 19:30N 31°34' E 121°20'8619.9
2017-Aug-15 19:29N 31°40' E 121°13'301073.3
2017-Aug-15 19:27N 31°20' E 121°40'1104.6
2017-Aug-15 19:27N 31°20' E 121°41'12975.0
2017-Aug-15 19:26N 31°27' E 121°29'20979.0
2017-Aug-15 19:25N 31°43' E 121°41'262310.0
2017-Aug-15 19:24N 31°41' E 121°11'179.5
2017-Aug-15 19:23N 31°41' E 121°12'2 4.6
2017-Aug-15 19:00N 31°39' E 121°13'211789.2
2017-Aug-15 18:59N 31°25' E 121°32'221116.4
2017-Aug-15 18:58N 31°40' E 121°13'559927.7
2017-Aug-15 18:58N 31°57' E 120°11'853353.2
2017-Aug-15 18:56N 31°20' E 121°41'241060.4
2017-Aug-15 18:55N 31°43' E 121°41'231160.5
2017-Aug-15 18:54N 31°20' E 121°40'18310.9
2017-Aug-15 18:50N 31°31' E 121°23'121985.0
2017-Aug-15 18:50N 31°39' E 121°13'3193.0
2017-Aug-15 18:30N 31°20' E 121°41'95694.3
2017-Aug-15 18:30N 31°22' E 121°30'1119496.9
2017-Aug-15 18:30N 31°19' E 121°42'847558.1
2017-Aug-15 18:30N 31°57' E 120°14'53838.8
2017-Aug-15 18:26N 31°39' E 121°13'1120.0
2017-Aug-15 18:25N 31°40' E 121°13'6608280.7
2017-Aug-15 18:20N 23°04' E 113°29'6611962.8
2017-Aug-15 18:00N 31°17' E 121°45'367151.6
2017-Aug-15 18:00N 31°40' E 121°13'313209.5
2017-Aug-15 17:59N 31°20' E 121°41'66113668.2
2017-Aug-15 17:56N 23°04' E 113°29'64525781.4
2017-Aug-15 17:55N 31°58' E 120°17'56475.1
2017-Aug-15 17:48N 31°36' E 121°18'18466.7
2017-Aug-15 17:46N 31°21' E 121°30'1052.4
2017-Aug-15 17:34N 31°30' E 121°24'21321.5
2017-Aug-15 17:30N 31°18' E 121°44'344099.7
2017-Aug-15 17:29N 31°40' E 121°13'311783.3
2017-Aug-15 17:28N 31°20' E 121°41'243709.5
2017-Aug-15 17:28N 31°34' E 121°19'6596761.6
2017-Aug-15 17:22N 23°04' E 113°29'211580.1
2017-Aug-15 17:21N 22°43' E 113°28'67614235.6
2017-Aug-15 17:18N 31°30' E 121°24'10236.9
2017-Aug-15 17:16N 31°21' E 121°30'937.3
2017-Aug-15 17:02N 31°20' E 121°40'785511.9
2017-Aug-15 17:01N 32°00' E 120°22'0 4.6
2017-Aug-15 17:00N 32°00' E 120°22'7810410.5
2017-Aug-15 17:00N 31°20' E 121°40'312351.9
2017-Aug-15 16:59N 31°40' E 121°13'311842.1
2017-Aug-15 16:58N 31°20' E 121°40'2118597.3
2017-Aug-15 16:58N 31°33' E 121°21'65914467.6
2017-Aug-15 16:55N 23°04' E 113°29'66031677.8
2017-Aug-15 16:54N 31°41' E 121°11'331360.2
2017-Aug-15 16:52N 31°20' E 121°41'6785714.0
2017-Aug-15 16:45N 22°43' E 113°28'10319.6
2017-Aug-15 16:43N 22°51' E 113°34'6677060.7
2017-Aug-15 16:38N 31°39' E 121°13'233065.8
2017-Aug-15 16:37N 31°21' E 121°30'24243.8
2017-Aug-15 16:31N 31°43' E 121°41'241608.5
2017-Aug-15 16:30N 31°40' E 121°13'67893847.3
2017-Aug-15 16:30N 22°43' E 113°28'677187439.1
2017-Aug-15 16:30N 31°31' E 121°23'121912.6
2017-Aug-15 16:29N 31°39' E 121°13'667480239.4
2017-Aug-15 16:29N 22°52' E 113°33'668801603.4
2017-Aug-15 16:29N 31°19' E 121°42'341840.7
2017-Aug-15 16:28N 31°41' E 121°11'333324.0
2017-Aug-15 16:28N 31°20' E 121°41'91163.1
2017-Aug-15 16:27N 31°21' E 121°30'9719.3
2017-Aug-15 16:26N 31°20' E 121°40'241438.5
2017-Aug-15 16:25N 31°43' E 121°41'67189.0
2017-Aug-15 16:04N 32°04' E 120°26'801222.1
2017-Aug-15 16:00N 31°17' E 121°44'3480.7
2017-Aug-15 16:00N 31°19' E 121°41'159.0
2017-Aug-15 15:59N 31°20' E 121°41'16727.9
2017-Aug-15 15:58N 31°30' E 121°26'916574.2
2017-Aug-15 15:58N 31°21' E 121°30'24730.8
2017-Aug-15 15:56N 31°40' E 121°13'24485.3
2017-Aug-15 15:53N 31°43' E 121°41'68772719.1
2017-Aug-15 15:52N 22°54' E 113°29'668601565.6
2017-Aug-15 15:52N 31°41' E 121°11'433122.3
2017-Aug-15 15:51N 32°04' E 120°28'464241.6
2017-Aug-15 15:51N 31°39' E 121°13'36103.5
2017-Aug-15 15:30N 31°17' E 121°46'21135.4
2017-Aug-15 15:30N 31°17' E 121°43'364105.3
2017-Aug-15 15:30N 31°41' E 121°11'192247.7
2017-Aug-15 15:29N 31°28' E 121°28'66957351.7
2017-Aug-15 15:28N 22°55' E 113°25'66921502.9
2017-Aug-15 15:26N 31°39' E 121°13'24231.9
2017-Aug-15 15:20N 31°43' E 121°41'24392.9
2017-Aug-15 15:17N 31°21' E 121°30'6565830.4
2017-Aug-15 15:10N 23°04' E 113°29'12269.4
2017-Aug-15 15:07N 22°53' E 113°31'6675957.5
2017-Aug-15 15:00N 31°26' E 121°29'56237.2
2017-Aug-15 15:00N 31°21' E 121°30'668400740.0
2017-Aug-15 15:00N 22°54' E 113°22'67380752.2
2017-Aug-15 15:00N 31°19' E 121°42'1785.6
2017-Aug-15 15:00N 31°20' E 121°41'52181.4
2017-Aug-15 15:00N 31°16' E 121°46'2710915.6
2017-Aug-15 14:59N 31°43' E 121°41'241140.9
2017-Aug-15 14:58N 31°39' E 121°13'1212.2
2017-Aug-15 14:58N 31°40' E 121°13'66815035.8
2017-Aug-15 14:55N 22°54' E 113°30'6241603.6
2017-Aug-15 14:32N 30°00' E 121°58'1073745.5
2017-Aug-15 14:30N 31°40' E 121°13'10721469.1
2017-Aug-15 14:30N 29°60' E 121°58'62559233.9
2017-Aug-15 14:29N 22°55' E 113°26'67026506.9
2017-Aug-15 14:28N 31°19' E 121°42'10186.0
2017-Aug-15 14:24N 31°25' E 121°32'83796.1
2017-Aug-15 14:24N 31°20' E 121°40'67621165.8
2017-Aug-15 14:22N 22°53' E 113°17'67510346.7
2017-Aug-15 14:18N 31°41' E 121°11'3197.7
2017-Aug-15 14:18N 31°39' E 121°13'24632.0
2017-Aug-15 14:15N 31°43' E 121°41'24502.3
2017-Aug-15 14:12N 31°20' E 121°41'66115962.2
2017-Aug-15 14:10N 23°04' E 113°29'6614203.0
2017-Aug-15 14:00N 31°19' E 121°41'1866.3
2017-Aug-15 14:00N 31°20' E 121°40'338418.3
2017-Aug-15 14:00N 31°41' E 121°11'263553.9
2017-Aug-15 14:00N 31°43' E 121°41'10716732.0
2017-Aug-15 13:59N 29°58' E 122°00'846832.4
2017-Aug-15 13:59N 31°20' E 121°41'7613.6
2017-Aug-15 13:58N 31°24' E 121°34'11238.9
2017-Aug-15 13:55N 31°30' E 121°24'65991211.6
2017-Aug-15 13:55N 23°04' E 113°29'65912230.5
2017-Aug-15 13:52N 31°30' E 121°25'14328.4
2017-Aug-15 13:49N 31°39' E 121°13'23110.2
2017-Aug-15 13:37N 31°21' E 121°30'987.1
2017-Aug-15 13:30N 31°20' E 121°41'33660.6
2017-Aug-15 13:30N 31°18' E 121°44'343903.5
2017-Aug-15 13:30N 31°39' E 121°13'3520.3
2017-Aug-15 13:29N 31°41' E 121°11'17589.1
2017-Aug-15 13:28N 31°29' E 121°25'169.0
2017-Aug-15 13:27N 31°30' E 121°25'19471.7
2017-Aug-15 13:25N 31°43' E 121°41'232111.6
2017-Aug-15 13:24N 31°20' E 121°40'944.5
2017-Aug-15 13:13N 31°21' E 121°30'1365.0
2017-Aug-15 13:00N 31°17' E 121°45'3822559.0
2017-Aug-15 13:00N 31°41' E 121°11'353560.1
2017-Aug-15 13:00N 31°19' E 121°42'1222.8
2017-Aug-15 12:59N 31°20' E 121°41'16372.2
2017-Aug-15 12:57N 31°28' E 121°25'1481.6
2017-Aug-15 12:46N 31°20' E 121°39'66011056.8
2017-Aug-15 12:43N 23°04' E 113°29'12261.9
2017-Aug-15 12:40N 22°53' E 113°32'68661748.0
2017-Aug-15 12:39N 31°43' E 121°41'24356.4
2017-Aug-15 12:35N 31°39' E 121°13'31366.3
2017-Aug-15 12:30N 31°19' E 121°41'1131.7
2017-Aug-15 12:30N 31°20' E 121°41'4335.7
2017-Aug-15 12:29N 31°17' E 121°45'37520.9
2017-Aug-15 12:25N 31°41' E 121°11'32996.6
2017-Aug-15 12:23N 31°20' E 121°39'14198.6
2017-Aug-15 12:19N 31°28' E 121°25'6581184777.8
2017-Aug-15 12:19N 23°04' E 113°29'65911038.8
2017-Aug-15 12:15N 31°39' E 121°13'30121.5
2017-Aug-15 12:00N 31°20' E 121°40'128.3
2017-Aug-15 11:58N 31°20' E 121°39'66017101.8
2017-Aug-15 11:55N 23°04' E 113°29'66010066.1
2017-Aug-15 11:52N 31°41' E 121°11'26852.7
2017-Aug-15 11:50N 31°21' E 121°30'22321.4
2017-Aug-15 11:46N 31°38' E 121°14'123.2
2017-Aug-15 11:43N 31°39' E 121°13'15148.7
2017-Aug-15 11:37N 31°28' E 121°25'59708.1
2017-Aug-15 11:32N 32°04' E 120°30'7515017.4
2017-Aug-15 11:31N 31°20' E 121°41'143.4
2017-Aug-15 11:31N 31°20' E 121°40'2914881.3
2017-Aug-15 11:30N 31°38' E 121°14'221460.8
2017-Aug-15 11:30N 31°21' E 121°30'9667.8
2017-Aug-15 11:29N 31°20' E 121°41'251.3
2017-Aug-15 11:27N 31°20' E 121°39'32814.3
2017-Aug-15 11:24N 31°41' E 121°11'43723.6
2017-Aug-15 11:21N 32°04' E 120°28'65511797.1
2017-Aug-15 11:17N 23°04' E 113°29'61837697.2
2017-Aug-15 11:16N 29°56' E 122°04'2 7.9
2017-Aug-15 10:59N 29°55' E 122°07'1135268.3
2017-Aug-15 10:58N 31°38' E 121°14'282566.5
2017-Aug-15 10:57N 31°20' E 121°39'32850.9
2017-Aug-15 10:55N 31°41' E 121°11'336945.0
2017-Aug-15 10:55N 31°20' E 121°40'761252.1
2017-Aug-15 10:51N 32°04' E 120°28'76772.5
2017-Aug-15 10:45N 31°20' E 121°41'157.4
2017-Aug-15 10:45N 31°20' E 121°40'66112195.5
2017-Aug-15 10:42N 23°04' E 113°29'6193303.2
2017-Aug-15 10:30N 29°52' E 122°09'1166960.5
2017-Aug-15 10:29N 31°38' E 121°14'291239.6
2017-Aug-15 10:28N 31°20' E 121°40'010.8
2017-Aug-15 10:28N 31°20' E 121°40'302036.7
2017-Aug-15 10:27N 31°39' E 121°13'466122.0
2017-Aug-15 10:27N 32°04' E 120°28'761527.6
2017-Aug-15 10:24N 31°20' E 121°41'2470.8
2017-Aug-15 10:23N 31°20' E 121°39'66013821.4
2017-Aug-15 10:20N 23°04' E 113°29'6563935.6
2017-Aug-15 10:10N 31°21' E 121°30'843.2
2017-Aug-15 09:59N 31°21' E 121°40'1271.3
2017-Aug-15 09:59N 31°20' E 121°40'9749.2
2017-Aug-15 09:58N 31°21' E 121°30'9614.0
2017-Aug-15 09:57N 31°20' E 121°40'3013586.6
2017-Aug-15 09:57N 31°39' E 121°13'30730.4
2017-Aug-15 09:55N 31°20' E 121°40'30707.0
2017-Aug-15 09:52N 31°40' E 121°13'1122106.9
2017-Aug-15 09:49N 29°58' E 122°07'87273.6
2017-Aug-15 09:30N 31°21' E 121°38'295713.8
2017-Aug-15 09:30N 31°40' E 121°13'441769.1
2017-Aug-15 09:28N 32°04' E 120°30'743011.3
2017-Aug-15 09:27N 31°20' E 121°40'2582.9
2017-Aug-15 09:26N 31°22' E 121°40'8671.8
2017-Aug-15 09:26N 31°21' E 121°30'9749.1
2017-Aug-15 09:25N 31°20' E 121°40'291688.0
2017-Aug-15 09:24N 31°40' E 121°16'6627260.5
2017-Aug-15 09:19N 23°04' E 113°29'6607761.8
2017-Aug-15 09:13N 31°43' E 121°08'6139.8
2017-Aug-15 09:11N 31°39' E 121°13'325.2
2017-Aug-15 09:04N 31°41' E 121°11'26432.2
2017-Aug-15 09:00N 31°21' E 121°30'54181.4
2017-Aug-15 09:00N 31°22' E 121°36'267137.9
2017-Aug-15 09:00N 31°40' E 121°13'42675.2
2017-Aug-15 09:00N 31°42' E 121°09'33314.7
2017-Aug-15 08:54N 31°22' E 121°40'241393.2
2017-Aug-15 08:53N 31°37' E 121°18'6607568.0
2017-Aug-15 08:47N 23°04' E 113°29'66111657.8
2017-Aug-15 08:44N 31°20' E 121°40'301316.1
2017-Aug-15 08:43N 31°39' E 121°13'14116.0
2017-Aug-15 08:35N 31°30' E 121°26'15175.3
2017-Aug-15 08:30N 31°40' E 121°13'2383991.8
2017-Aug-15 08:30N 31°23' E 121°33'71244.2
2017-Aug-15 08:30N 31°20' E 121°40'0 0.0
2017-Aug-15 08:29N 31°20' E 121°40'1045143.1
2017-Aug-15 08:27N 29°41' E 122°19'61934283.5
2017-Aug-15 08:26N 23°04' E 113°29'65614758.5
2017-Aug-15 08:24N 31°21' E 121°30'82111.2
2017-Aug-15 08:23N 31°22' E 121°40'13196.4
2017-Aug-15 08:19N 31°29' E 121°27'8574.3
2017-Aug-15 08:19N 31°34' E 121°20'4617317.0
2017-Aug-15 08:15N 24°26' E 118°05'4571906.5
2017-Aug-15 08:00N 31°22' E 121°40'81122.3
2017-Aug-15 08:00N 31°23' E 121°30'22922.1
2017-Aug-15 07:59N 31°40' E 121°13'1296625.2
2017-Aug-15 07:57N 29°45' E 122°21'1122580.1
2017-Aug-15 07:55N 31°27' E 121°29'1275.2
2017-Aug-15 07:45N 31°20' E 121°40'261248.0
2017-Aug-15 07:44N 31°37' E 121°16'0 8.4
2017-Aug-15 07:41N 31°37' E 121°17'7284.6
2017-Aug-15 07:40N 31°41' E 121°11'22137.0
2017-Aug-15 07:30N 31°26' E 121°30'202098.6
2017-Aug-15 07:30N 31°40' E 121°14'4654658.2
2017-Aug-15 07:24N 24°26' E 118°05'46239584.0
2017-Aug-15 07:23N 31°35' E 121°18'1812829.4
2017-Aug-15 07:23N 31°21' E 121°31'8363.3
2017-Aug-15 07:22N 31°22' E 121°40'231097.5
2017-Aug-15 07:20N 31°35' E 121°18'241152.9
2017-Aug-15 07:19N 31°20' E 121°40'321484.6
2017-Aug-15 07:18N 31°41' E 121°11'1265912.3
2017-Aug-15 07:16N 29°51' E 122°23'9717382.7
2017-Aug-15 07:16N 31°20' E 121°40'15183.8
2017-Aug-15 07:11N 31°26' E 121°24'168177.7
2017-Aug-15 07:11N 31°39' E 121°13'6597106.4
2017-Aug-15 07:06N 23°04' E 113°29'6616625.9
2017-Aug-15 07:00N 31°20' E 121°40'221686.8
2017-Aug-15 06:59N 31°34' E 121°20'1412295.4
2017-Aug-15 06:59N 31°25' E 121°32'4407.7
2017-Aug-15 06:58N 31°21' E 121°31'040.1
2017-Aug-15 06:58N 31°21' E 121°30'8347.7
2017-Aug-15 06:56N 31°22' E 121°40'16882.4
2017-Aug-15 06:55N 31°30' E 121°24'040.0
2017-Aug-15 06:55N 31°30' E 121°24'13363.6
2017-Aug-15 06:52N 31°40' E 121°13'66015737.8
2017-Aug-15 06:50N 23°04' E 113°29'66038320.8
2017-Aug-15 06:49N 31°41' E 121°11'18409.8
2017-Aug-15 06:46N 31°26' E 121°23'12365.1
2017-Aug-15 06:44N 31°37' E 121°17'4634210.7
2017-Aug-15 06:38N 24°25' E 118°07'4594748.3
2017-Aug-15 06:32N 31°28' E 121°28'7227.7
2017-Aug-15 06:30N 31°21' E 121°31'018.2
2017-Aug-15 06:29N 31°21' E 121°30'13806.1
2017-Aug-15 06:28N 31°32' E 121°22'6592373484.1
2017-Aug-15 06:28N 23°04' E 113°29'66054038.8
2017-Aug-15 06:27N 31°20' E 121°40'241703.5
2017-Aug-15 06:26N 31°35' E 121°18'244481.5
2017-Aug-15 06:26N 31°20' E 121°40'189383.1
2017-Aug-15 06:26N 31°31' E 121°22'2420.7
2017-Aug-15 06:25N 31°30' E 121°24'51353.4
2017-Aug-15 06:25N 31°27' E 121°29'4283.4
2017-Aug-15 06:24N 31°25' E 121°32'242991.6
2017-Aug-15 06:24N 31°41' E 121°11'46622965.6
2017-Aug-15 06:23N 24°25' E 118°07'4658212.7
2017-Aug-15 06:19N 31°40' E 121°14'29298.1
2017-Aug-15 06:13N 31°22' E 121°40'833.5
2017-Aug-15 05:59N 31°21' E 121°31'11527.3
2017-Aug-15 05:58N 31°30' E 121°24'10407.2
2017-Aug-15 05:57N 31°21' E 121°30'82955.3
2017-Aug-15 05:56N 31°22' E 121°40'45831673.5
2017-Aug-15 05:56N 24°25' E 118°07'45856825.4
2017-Aug-15 05:55N 31°26' E 121°31'916967.3
2017-Aug-15 05:55N 31°20' E 121°40'0 0.2
2017-Aug-15 05:53N 31°20' E 121°40'8340.0
2017-Aug-15 05:52N 31°25' E 121°32'2428959.4
2017-Aug-15 05:51N 31°41' E 121°11'1192161.3
2017-Aug-15 05:48N 29°56' E 122°16'62718797.6
2017-Aug-15 05:46N 23°04' E 113°29'6592483.6
2017-Aug-15 05:30N 31°30' E 121°24'9471.9
2017-Aug-15 05:29N 31°24' E 121°32'45753020.4
2017-Aug-15 05:29N 24°25' E 118°07'45619309.5
2017-Aug-15 05:27N 31°20' E 121°40'8722.9
2017-Aug-15 05:27N 31°25' E 121°32'244138.4
2017-Aug-15 05:26N 31°41' E 121°11'261749.3
2017-Aug-15 05:25N 31°21' E 121°30'81156.7
2017-Aug-15 05:25N 31°20' E 121°40'245.6
2017-Aug-15 05:23N 31°22' E 121°40'29632.6
2017-Aug-15 05:20N 31°40' E 121°14'1159005.1
2017-Aug-15 05:19N 29°57' E 122°15'1032297.2
2017-Aug-15 05:16N 31°31' E 121°24'570.5
2017-Aug-15 05:13N 31°28' E 121°28'66051618.6
2017-Aug-15 05:12N 23°04' E 113°29'6603481.5
2017-Aug-15 05:00N 31°27' E 121°29'47361.6
2017-Aug-15 05:00N 31°30' E 121°25'1434.2
2017-Aug-15 05:00N 31°30' E 121°24'17749.0
2017-Aug-15 04:59N 31°20' E 121°40'45696541.9
2017-Aug-15 04:59N 24°25' E 118°07'45633494.5
2017-Aug-15 04:58N 31°20' E 121°40'324824.3
2017-Aug-15 04:57N 31°41' E 121°11'311878.9
2017-Aug-15 04:56N 31°22' E 121°40'85664.9
2017-Aug-15 04:56N 31°21' E 121°31'244057.1
2017-Aug-15 04:56N 31°40' E 121°14'24330.8
2017-Aug-15 04:52N 31°21' E 121°31'178.9
2017-Aug-15 04:51N 31°21' E 121°30'49839858.2
2017-Aug-15 04:50N 39°05' E 117°46'98511295.6
2017-Aug-15 04:45N 23°04' E 113°29'62623477.8
2017-Aug-15 04:43N 29°57' E 122°15'96447.8
2017-Aug-15 04:30N 31°26' E 121°30'21577.9
2017-Aug-15 04:30N 31°25' E 121°32'5529.9
2017-Aug-15 04:30N 31°28' E 121°27'1311276.3
2017-Aug-15 04:30N 31°22' E 121°40'256.9
2017-Aug-15 04:28N 31°20' E 121°40'17921.8
2017-Aug-15 04:27N 31°30' E 121°24'13769.7
2017-Aug-15 04:26N 31°40' E 121°14'242130.4
2017-Aug-15 04:25N 31°21' E 121°31'8598.2
2017-Aug-15 04:24N 31°20' E 121°40'66059442.4
2017-Aug-15 04:24N 23°04' E 113°29'66021797.1
2017-Aug-15 04:22N 31°41' E 121°11'46611723.8
2017-Aug-15 04:20N 24°25' E 118°07'39979812.9
2017-Aug-15 04:19N 29°57' E 122°15'102418.4
2017-Aug-15 04:05N 31°30' E 121°25'12158.0
2017-Aug-15 04:00N 31°22' E 121°36'660107988.0
2017-Aug-15 04:00N 23°04' E 113°29'660169691.1
2017-Aug-15 04:00N 31°25' E 121°32'9620.5
2017-Aug-15 03:59N 31°30' E 121°24'171932.9
2017-Aug-15 03:58N 31°20' E 121°40'91016.0
2017-Aug-15 03:58N 31°25' E 121°31'45813184.9
2017-Aug-15 03:56N 24°25' E 118°07'45420674.4
2017-Aug-15 03:54N 31°21' E 121°30'49828040.6
2017-Aug-15 03:53N 39°05' E 117°46'50258342.7
2017-Aug-15 03:53N 31°20' E 121°40'10358.8
2017-Aug-15 03:51N 31°26' E 121°30'6100.1
2017-Aug-15 03:47N 31°30' E 121°24'11582.2
2017-Aug-15 03:46N 31°21' E 121°31'921816.8
2017-Aug-15 03:43N 29°57' E 122°15'86632.7
2017-Aug-15 03:35N 31°15' E 121°32'10134.4
2017-Aug-15 03:30N 31°25' E 121°32'42213.1
2017-Aug-15 03:30N 31°21' E 121°31'41666.2
2017-Aug-15 03:30N 31°25' E 121°31'8539.0
2017-Aug-15 03:29N 31°30' E 121°24'1611804.6
2017-Aug-15 03:29N 31°20' E 121°39'4131.0
2017-Aug-15 03:27N 31°22' E 121°36'45614284.1
2017-Aug-15 03:26N 24°25' E 118°07'44822389.8
2017-Aug-15 03:24N 31°15' E 121°30'101916.9
2017-Aug-15 03:24N 31°20' E 121°40'660139864.5
2017-Aug-15 03:24N 23°04' E 113°29'6604017.9
2017-Aug-15 03:14N 31°25' E 121°31'967478.8
2017-Aug-15 03:13N 29°57' E 122°15'1171275.8
2017-Aug-15 03:08N 31°41' E 121°11'23196.3
2017-Aug-15 03:00N 31°25' E 121°31'3707.0
2017-Aug-15 03:00N 31°24' E 121°34'457274385.0
2017-Aug-15 03:00N 24°25' E 118°07'459110275.1
2017-Aug-15 03:00N 31°30' E 121°24'659338822.0
2017-Aug-15 03:00N 23°04' E 113°29'66036535.9
2017-Aug-15 02:59N 31°23' E 121°35'4172.0
2017-Aug-15 02:57N 31°21' E 121°31'91200.3
2017-Aug-15 02:57N 31°28' E 121°25'151292.7
2017-Aug-15 02:56N 31°20' E 121°40'8839630.6
2017-Aug-15 02:56N 29°57' E 122°15'9121886.6
2017-Aug-15 02:56N 31°22' E 121°36'26214.1
2017-Aug-15 02:49N 31°40' E 121°14'319.8
2017-Aug-15 02:40N 31°41' E 121°11'27154.4
2017-Aug-15 02:30N 31°23' E 121°34'4231.2
2017-Aug-15 02:29N 31°23' E 121°30'8742.7
2017-Aug-15 02:28N 31°29' E 121°25'14652.4
2017-Aug-15 02:27N 31°40' E 121°14'2630753.5
2017-Aug-15 02:27N 31°22' E 121°36'5258.3
2017-Aug-15 02:26N 31°25' E 121°31'233670.1
2017-Aug-15 02:25N 31°41' E 121°11'11735191.7
2017-Aug-15 02:25N 29°57' E 122°15'884064.7
2017-Aug-15 02:24N 31°20' E 121°40'66030097.4
2017-Aug-15 02:23N 23°04' E 113°29'6603986.0
2017-Aug-15 02:13N 31°25' E 121°32'2 7.0
2017-Aug-15 01:59N 31°24' E 121°31'7313.2
2017-Aug-15 01:58N 31°28' E 121°25'10763.3
2017-Aug-15 01:57N 31°23' E 121°34'3100.6
2017-Aug-15 01:56N 31°25' E 121°32'9513688.8
2017-Aug-15 01:55N 29°57' E 122°15'917461.3
2017-Aug-15 01:54N 31°22' E 121°36'4173.9
2017-Aug-15 01:53N 31°20' E 121°40'45618849.0
2017-Aug-15 01:52N 24°26' E 118°05'46514550.3
2017-Aug-15 01:50N 31°40' E 121°14'24990.7
2017-Aug-15 01:48N 31°21' E 121°31'65669457.1
2017-Aug-15 01:48N 23°04' E 113°29'65617890.6
2017-Aug-15 01:46N 31°21' E 121°31'2 8.3
2017-Aug-15 01:33N 31°22' E 121°29'249.4
2017-Aug-15 01:31N 31°21' E 121°31'241852.9
2017-Aug-15 01:30N 31°40' E 121°14'264612.3
2017-Aug-15 01:29N 31°22' E 121°36'113192.1
2017-Aug-15 01:29N 31°28' E 121°25'105727.0
2017-Aug-15 01:29N 31°23' E 121°34'65916483.0
2017-Aug-15 01:27N 23°04' E 113°29'62623477.8
2017-Aug-15 01:25N 29°57' E 122°15'932920.9
2017-Aug-15 01:23N 31°22' E 121°29'2363.4
2017-Aug-15 01:23N 31°21' E 121°31'0 1.9
2017-Aug-15 01:21N 31°21' E 121°31'939.6
2017-Aug-15 01:08N 31°28' E 121°25'0 0.5
2017-Aug-15 01:00N 31°28' E 121°25'113191.1
2017-Aug-15 01:00N 31°22' E 121°36'168.4
2017-Aug-15 00:59N 31°23' E 121°34'3100.8
2017-Aug-15 00:57N 31°25' E 121°32'222211.7
2017-Aug-15 00:57N 31°40' E 121°14'15778.5
2017-Aug-15 00:56N 31°28' E 121°25'13126.2
2017-Aug-15 00:49N 31°18' E 121°34'6555062.3
2017-Aug-15 00:42N 23°04' E 113°29'65613336.4
2017-Aug-15 00:39N 31°22' E 121°29'275.3
2017-Aug-15 00:37N 31°21' E 121°31'432.3
2017-Aug-15 00:29N 31°25' E 121°32'71140.2
2017-Aug-15 00:29N 31°28' E 121°25'10217.4
2017-Aug-15 00:26N 31°23' E 121°34'5372.5
2017-Aug-15 00:26N 31°22' E 121°29'7222.4
2017-Aug-15 00:24N 31°28' E 121°25'117708.7
2017-Aug-15 00:24N 31°22' E 121°36'4181.5
2017-Aug-15 00:22N 31°21' E 121°31'6568650.3
2017-Aug-15 00:18N 23°04' E 113°29'66042427.7
2017-Aug-15 00:17N 31°41' E 121°11'323164.0
2017-Aug-15 00:16N 31°15' E 121°32'685.5
2017-Aug-15 00:12N 31°21' E 121°31'632.9
2017-Aug-15 00:00N 31°15' E 121°30'146300.7
2017-Aug-15 00:00N 31°28' E 121°25'101272.2
2017-Aug-15 00:00N 31°23' E 121°34'3136.2
2017-Aug-14 23:58N 31°25' E 121°32'4343.0
2017-Aug-14 23:58N 31°22' E 121°29'61546.8
2017-Aug-14 23:57N 31°22' E 121°36'41542.1
2017-Aug-14 23:57N 31°21' E 121°31'6565993.8
2017-Aug-14 23:51N 23°04' E 113°29'656590388.6
2017-Aug-14 23:51N 31°21' E 121°31'9597.6
2017-Aug-14 23:50N 31°28' E 121°25'18229.2
2017-Aug-14 23:45N 31°41' E 121°11'3377.3
2017-Aug-14 23:45N 31°40' E 121°14'2689.6
2017-Aug-14 23:28N 31°22' E 121°36'66019787.8
2017-Aug-14 23:26N 23°04' E 113°29'658394936.8
2017-Aug-14 23:25N 31°28' E 121°25'106872.4
2017-Aug-14 23:25N 31°23' E 121°34'464.1
2017-Aug-14 23:22N 31°21' E 121°31'427.3
2017-Aug-14 23:13N 31°25' E 121°32'221518.4
2017-Aug-14 23:12N 31°40' E 121°14'1581.3
2017-Aug-14 23:01N 31°28' E 121°25'11305.9
2017-Aug-14 22:58N 31°22' E 121°36'11709.4
2017-Aug-14 22:58N 31°28' E 121°25'91391.1
2017-Aug-14 22:57N 31°21' E 121°31'477.0
2017-Aug-14 22:54N 31°23' E 121°34'3272.5
2017-Aug-14 22:54N 31°25' E 121°32'858.4
2017-Aug-14 22:46N 31°29' E 121°25'149.5
2017-Aug-14 22:45N 31°28' E 121°25'1004059.0
2017-Aug-14 22:43N 29°57' E 122°15'92426.1
2017-Aug-14 22:30N 31°21' E 121°31'4153.8
2017-Aug-14 22:28N 31°25' E 121°32'3104.7
2017-Aug-14 22:27N 31°23' E 121°34'11330.7
2017-Aug-14 22:25N 31°29' E 121°25'1166.3
2017-Aug-14 22:24N 31°28' E 121°25'1192.7
2017-Aug-14 22:17N 31°22' E 121°36'911446.2
2017-Aug-14 22:14N 29°57' E 122°15'92490.3
2017-Aug-14 22:02N 31°21' E 121°31'496.1
2017-Aug-14 22:00N 31°22' E 121°36'12358.5
2017-Aug-14 21:58N 31°29' E 121°25'83897.2
2017-Aug-14 21:58N 31°25' E 121°32'43124.3
2017-Aug-14 21:58N 31°21' E 121°31'24445.3
2017-Aug-14 21:54N 31°43' E 121°41'24757.4
2017-Aug-14 21:52N 31°21' E 121°31'423.7
2017-Aug-14 21:43N 31°23' E 121°34'10153.0
2017-Aug-14 21:40N 31°28' E 121°25'65817952.1
2017-Aug-14 21:38N 23°04' E 113°29'6594600.0
2017-Aug-14 21:29N 31°23' E 121°34'65911635.4
2017-Aug-14 21:26N 23°04' E 113°29'65651317.2
2017-Aug-14 21:25N 31°22' E 121°29'6744.7
2017-Aug-14 21:24N 31°22' E 121°36'482.0
2017-Aug-14 21:21N 31°21' E 121°31'10121.6
2017-Aug-14 21:16N 31°29' E 121°25'170.5
2017-Aug-14 21:15N 31°28' E 121°25'772.3
2017-Aug-14 21:10N 31°25' E 121°32'95655.7
2017-Aug-14 21:01N 29°57' E 122°15'912118.1
2017-Aug-14 20:59N 31°22' E 121°36'6601187304.2
2017-Aug-14 20:59N 23°04' E 113°29'65671533.1
2017-Aug-14 20:58N 31°22' E 121°29'265.0
2017-Aug-14 20:56N 31°21' E 121°31'4436.7
2017-Aug-14 20:56N 31°23' E 121°34'927063.3
2017-Aug-14 20:55N 29°57' E 122°15'1001499.0
2017-Aug-14 20:51N 31°28' E 121°25'7160.9
2017-Aug-14 20:49N 31°25' E 121°32'21677.8
2017-Aug-14 20:47N 31°40' E 121°14'141335.2
2017-Aug-14 20:46N 31°29' E 121°25'827.1
2017-Aug-14 20:29N 31°25' E 121°32'4301.3
2017-Aug-14 20:29N 31°22' E 121°36'478.7
2017-Aug-14 20:25N 31°21' E 121°31'2412331.6
2017-Aug-14 20:25N 31°43' E 121°41'11079055.8
2017-Aug-14 20:25N 29°57' E 122°15'923995.1
2017-Aug-14 20:24N 31°23' E 121°34'363.2
2017-Aug-14 20:20N 31°21' E 121°31'10895.5
2017-Aug-14 20:20N 31°29' E 121°25'6596341.6
2017-Aug-14 20:14N 23°04' E 113°29'65623844.4
2017-Aug-14 20:12N 31°22' E 121°29'22296.6
2017-Aug-14 20:07N 31°40' E 121°13'22190.3
2017-Aug-14 20:01N 31°25' E 121°32'211563.1
2017-Aug-14 20:00N 31°39' E 121°14'13280.6
2017-Aug-14 19:57N 31°29' E 121°25'10158.6
2017-Aug-14 19:53N 31°21' E 121°31'4863.0
2017-Aug-14 19:53N 31°22' E 121°36'6151.3
2017-Aug-14 19:51N 31°22' E 121°29'25237.8
2017-Aug-14 19:44N 31°41' E 121°11'139.3
2017-Aug-14 19:42N 31°40' E 121°12'26687.9
2017-Aug-14 19:40N 31°23' E 121°34'92612.9
2017-Aug-14 19:31N 29°57' E 122°15'1156269.8
2017-Aug-14 19:30N 31°40' E 121°13'4434.7
2017-Aug-14 19:29N 31°37' E 121°17'202286.4
2017-Aug-14 19:29N 31°23' E 121°34'1187.2
2017-Aug-14 19:29N 31°22' E 121°36'497.2
2017-Aug-14 19:26N 31°21' E 121°31'2411.1
2017-Aug-14 19:26N 31°22' E 121°29'25267.8
2017-Aug-14 19:20N 31°41' E 121°11'391.8
2017-Aug-14 19:18N 31°40' E 121°14'14150.0
2017-Aug-14 19:13N 31°29' E 121°25'8113.1
2017-Aug-14 19:09N 31°25' E 121°32'95849.4
2017-Aug-14 19:02N 29°57' E 122°15'62675131.7
2017-Aug-14 19:02N 23°04' E 113°29'66038321.6
2017-Aug-14 19:00N 31°38' E 121°16'52881.5
2017-Aug-14 19:00N 31°34' E 121°19'7622.7
2017-Aug-14 19:00N 31°29' E 121°25'171175.2
2017-Aug-14 18:59N 31°41' E 121°11'26951.4
2017-Aug-14 18:57N 31°21' E 121°31'3156.2
2017-Aug-14 18:56N 31°23' E 121°34'241207.3
2017-Aug-14 18:55N 31°40' E 121°14'224074.9
2017-Aug-14 18:54N 31°25' E 121°32'4134.7
2017-Aug-14 18:53N 31°22' E 121°36'6372.4
2017-Aug-14 18:52N 31°22' E 121°29'65618442.1
2017-Aug-14 18:50N 23°04' E 113°29'6595005.7
2017-Aug-14 18:42N 31°30' E 121°25'19286.3
2017-Aug-14 18:38N 31°43' E 121°41'24490.7
2017-Aug-14 18:35N 31°21' E 121°31'13180.2
2017-Aug-14 18:30N 31°32' E 121°22'137657.1
2017-Aug-14 18:30N 31°21' E 121°31'0 0.6
2017-Aug-14 18:30N 31°21' E 121°31'184097.1
2017-Aug-14 18:29N 31°36' E 121°18'8302.7
2017-Aug-14 18:28N 31°41' E 121°11'2511037.1
2017-Aug-14 18:28N 31°22' E 121°29'221470.7
2017-Aug-14 18:27N 31°40' E 121°14'6615689.2
2017-Aug-14 18:20N 23°04' E 113°29'65929667.8
2017-Aug-14 18:18N 31°23' E 121°34'10293.3
2017-Aug-14 18:16N 31°29' E 121°25'203364.7
2017-Aug-14 18:16N 31°43' E 121°41'2215625.0
2017-Aug-14 18:16N 31°22' E 121°36'427.0
2017-Aug-14 18:07N 31°25' E 121°32'1 7.5
2017-Aug-14 18:01N 31°25' E 121°32'142026.9
2017-Aug-14 18:00N 31°34' E 121°20'181307.9
2017-Aug-14 18:00N 31°22' E 121°36'41715.9
2017-Aug-14 18:00N 31°21' E 121°31'10336.3
2017-Aug-14 17:58N 31°30' E 121°25'10289.6
2017-Aug-14 17:56N 31°23' E 121°34'5631.2
2017-Aug-14 17:55N 31°22' E 121°29'9355983.2
2017-Aug-14 17:55N 29°57' E 122°15'1151157.1
2017-Aug-14 17:49N 31°40' E 121°14'22798.2
2017-Aug-14 17:48N 31°25' E 121°32'323.5
2017-Aug-14 17:40N 31°23' E 121°30'25834.8
2017-Aug-14 17:38N 31°41' E 121°11'27208.8
2017-Aug-14 17:30N 31°23' E 121°34'310885.3
2017-Aug-14 17:30N 31°25' E 121°32'4411.1
2017-Aug-14 17:30N 31°22' E 121°36'15836.2
2017-Aug-14 17:29N 31°32' E 121°22'6597937.7
2017-Aug-14 17:24N 23°04' E 113°29'65611749.2
2017-Aug-14 17:20N 31°21' E 121°31'24311.0
2017-Aug-14 17:16N 31°40' E 121°14'14484.5
2017-Aug-14 17:14N 31°30' E 121°25'81649.4
2017-Aug-14 17:14N 31°22' E 121°29'6815391.8
2017-Aug-14 17:13N 32°02' E 120°24'157112794.0
2017-Aug-14 17:13N 29°57' E 122°15'103480.0
2017-Aug-14 17:00N 31°31' E 121°24'910662.8
2017-Aug-14 17:00N 31°25' E 121°32'4201.7
2017-Aug-14 16:59N 31°23' E 121°37'5359.7
2017-Aug-14 16:58N 31°21' E 121°31'5181.8
2017-Aug-14 16:57N 31°22' E 121°36'2631024.9
2017-Aug-14 16:57N 31°40' E 121°14'483718.9
2017-Aug-14 16:56N 32°02' E 120°25'15714095.1
2017-Aug-14 16:55N 29°57' E 122°15'1022453.4
2017-Aug-14 16:53N 31°30' E 121°25'8123.1
2017-Aug-14 16:49N 31°22' E 121°29'5334.9
2017-Aug-14 16:48N 31°20' E 121°34'65738750.5
2017-Aug-14 16:47N 23°04' E 113°29'6585242.5
2017-Aug-14 16:39N 31°28' E 121°25'1177.9
2017-Aug-14 16:30N 31°23' E 121°37'121409.0
2017-Aug-14 16:30N 31°30' E 121°25'11358.3
2017-Aug-14 16:30N 31°29' E 121°27'8498.8
2017-Aug-14 16:29N 31°22' E 121°29'4124.0
2017-Aug-14 16:27N 31°25' E 121°32'6601187836.9
2017-Aug-14 16:27N 23°04' E 113°29'66129006.9
2017-Aug-14 16:26N 31°23' E 121°36'7221506.1
2017-Aug-14 16:25N 32°04' E 120°26'611631.0
2017-Aug-14 16:23N 31°28' E 121°25'181027.0
2017-Aug-14 16:22N 31°41' E 121°11'241160.4
2017-Aug-14 16:21N 31°22' E 121°27'22533.4
2017-Aug-14 16:18N 31°40' E 121°14'1758.6
2017-Aug-14 16:00N 31°28' E 121°29'8459.1
2017-Aug-14 15:59N 31°23' E 121°36'283726.5
2017-Aug-14 15:59N 31°41' E 121°11'241475.3
2017-Aug-14 15:58N 31°22' E 121°27'931954.6
2017-Aug-14 15:55N 29°57' E 122°15'934362.3
2017-Aug-14 15:54N 31°22' E 121°29'4720.1
2017-Aug-14 15:54N 31°25' E 121°32'66020133.0
2017-Aug-14 15:52N 23°04' E 113°29'65617364.4
2017-Aug-14 15:49N 31°21' E 121°31'10228.3
2017-Aug-14 15:47N 31°29' E 121°25'025.8
2017-Aug-14 15:46N 31°30' E 121°25'12455.0
2017-Aug-14 15:44N 31°23' E 121°37'26146.8
2017-Aug-14 15:34N 31°40' E 121°14'19330.4
2017-Aug-14 15:30N 31°26' E 121°30'4442.6
2017-Aug-14 15:30N 31°22' E 121°29'193.4
2017-Aug-14 15:29N 31°22' E 121°28'5193.6
2017-Aug-14 15:28N 31°25' E 121°32'7243.7
2017-Aug-14 15:26N 31°30' E 121°25'143178.7
2017-Aug-14 15:25N 31°40' E 121°14'2410649.9
2017-Aug-14 15:25N 31°21' E 121°31'5472.7
2017-Aug-14 15:25N 31°23' E 121°36'179.5
2017-Aug-14 15:24N 31°23' E 121°37'291378.5
2017-Aug-14 15:23N 31°41' E 121°11'17366.0
2017-Aug-14 15:20N 31°29' E 121°25'1017448.6
2017-Aug-14 15:19N 29°57' E 122°15'62610532.1
2017-Aug-14 15:16N 23°04' E 113°29'6602612.0
2017-Aug-14 15:00N 31°25' E 121°32'5257.2
2017-Aug-14 14:59N 31°23' E 121°37'61287.6
2017-Aug-14 14:59N 31°21' E 121°30'96702.6
2017-Aug-14 14:59N 31°30' E 121°25'111508.2
2017-Aug-14 14:58N 31°23' E 121°36'2833534.1
2017-Aug-14 14:58N 31°41' E 121°11'3208.3
2017-Aug-14 14:58N 31°40' E 121°14'222089.5
2017-Aug-14 14:57N 31°22' E 121°29'933053.6
2017-Aug-14 14:55N 29°57' E 122°15'1012517.1
2017-Aug-14 14:53N 31°29' E 121°25'65933405.1
2017-Aug-14 14:52N 23°04' E 113°29'6603443.0
2017-Aug-14 14:40N 31°25' E 121°32'438.2
2017-Aug-14 14:33N 31°21' E 121°31'129.6
2017-Aug-14 14:30N 31°22' E 121°30'383.4
2017-Aug-14 14:28N 31°25' E 121°32'45035.6
2017-Aug-14 14:28N 31°22' E 121°29'656118025.9
2017-Aug-14 14:28N 23°04' E 113°29'661169898.7
2017-Aug-14 14:27N 31°23' E 121°36'115.5
2017-Aug-14 14:24N 31°23' E 121°37'121015.8
2017-Aug-14 14:23N 31°30' E 121°25'17342.1
2017-Aug-14 14:20N 31°41' E 121°11'353.8
2017-Aug-14 14:17N 31°40' E 121°14'1151857.5
2017-Aug-14 14:13N 29°57' E 122°15'92640.9
2017-Aug-14 14:05N 31°21' E 121°31'3103.8
2017-Aug-14 14:03N 31°20' E 121°34'121.3
2017-Aug-14 14:00N 31°20' E 121°33'11257.7
2017-Aug-14 13:58N 31°30' E 121°25'11866.4
2017-Aug-14 13:57N 31°23' E 121°36'258277.2
2017-Aug-14 13:57N 31°40' E 121°14'661475596.1
2017-Aug-14 13:57N 23°04' E 113°29'66155362.3
2017-Aug-14 13:56N 31°23' E 121°37'926338.9
2017-Aug-14 13:55N 29°57' E 122°15'958556.5
2017-Aug-14 13:54N 31°25' E 121°32'453.3
2017-Aug-14 13:50N 31°22' E 121°29'2384.7
2017-Aug-14 13:49N 31°21' E 121°31'240.3
2017-Aug-14 13:47N 31°20' E 121°32'1150.0
2017-Aug-14 13:34N 31°29' E 121°25'14226.9
2017-Aug-14 13:30N 31°17' E 121°34'143981.7
2017-Aug-14 13:30N 31°30' E 121°25'122912.6
2017-Aug-14 13:30N 31°23' E 121°37'12875.7
2017-Aug-14 13:29N 31°29' E 121°25'10906.3
2017-Aug-14 13:28N 31°21' E 121°31'241548.1
2017-Aug-14 13:27N 31°40' E 121°14'212036.3
2017-Aug-14 13:27N 31°25' E 121°32'43485.8
2017-Aug-14 13:27N 31°23' E 121°36'62794.2
2017-Aug-14 13:27N 31°22' E 121°29'933998.8
2017-Aug-14 13:25N 29°57' E 122°15'91769.4
2017-Aug-14 13:18N 31°20' E 121°32'28147.5
2017-Aug-14 13:07N 31°41' E 121°11'011.3
2017-Aug-14 13:05N 31°41' E 121°11'32402.2
2017-Aug-14 13:01N 31°15' E 121°32'6415.3
2017-Aug-14 13:00N 31°21' E 121°31'241443.2
2017-Aug-14 12:59N 31°40' E 121°14'14881.2
2017-Aug-14 12:58N 31°29' E 121°25'113136.3
2017-Aug-14 12:57N 31°23' E 121°36'4700.1
2017-Aug-14 12:57N 31°20' E 121°32'5215.0
2017-Aug-14 12:56N 31°23' E 121°37'9211772.9
2017-Aug-14 12:55N 29°57' E 122°15'10226114.9
2017-Aug-14 12:55N 31°30' E 121°25'797.2
2017-Aug-14 12:50N 31°25' E 121°32'457.1
2017-Aug-14 12:46N 31°22' E 121°29'25992.3
2017-Aug-14 12:44N 31°41' E 121°11'18220.6
2017-Aug-14 12:40N 31°28' E 121°25'1065.4
2017-Aug-14 12:30N 31°20' E 121°32'71194.5
2017-Aug-14 12:30N 31°14' E 121°30'112435.1
2017-Aug-14 12:30N 31°23' E 121°36'63193.4
2017-Aug-14 12:30N 31°22' E 121°29'7319.6
2017-Aug-14 12:28N 31°23' E 121°37'2646892.2
2017-Aug-14 12:28N 31°40' E 121°14'66162578.4
2017-Aug-14 12:28N 23°04' E 113°29'660158377.1
2017-Aug-14 12:28N 31°25' E 121°32'952376.8
2017-Aug-14 12:25N 29°57' E 122°15'9032235.2
2017-Aug-14 12:25N 31°20' E 121°34'334.0
2017-Aug-14 12:20N 31°21' E 121°31'9126.2
2017-Aug-14 12:16N 31°28' E 121°25'1038.8
2017-Aug-14 12:00N 31°20' E 121°32'91299.8
2017-Aug-14 12:00N 31°11' E 121°29'10574.5
2017-Aug-14 11:59N 31°21' E 121°31'5800.3
2017-Aug-14 11:59N 31°23' E 121°36'4221.3
2017-Aug-14 11:58N 31°25' E 121°32'222092.1
2017-Aug-14 11:57N 31°40' E 121°14'15144.6
2017-Aug-14 11:51N 31°28' E 121°25'1004152.3
2017-Aug-14 11:49N 29°57' E 122°15'11719199.0
2017-Aug-14 11:49N 31°41' E 121°11'6604351.5
2017-Aug-14 11:40N 23°04' E 113°29'65716883.9
2017-Aug-14 11:37N 31°20' E 121°34'540.4
2017-Aug-14 11:31N 31°23' E 121°37'292068.9
2017-Aug-14 11:30N 31°41' E 121°11'660158394.5
2017-Aug-14 11:29N 23°04' E 113°29'6562363180.7
2017-Aug-14 11:29N 31°20' E 121°32'252657.9
2017-Aug-14 11:29N 31°40' E 121°14'331147.9
2017-Aug-14 11:27N 31°09' E 121°28'12856.6
2017-Aug-14 11:26N 31°21' E 121°31'9439.9
2017-Aug-14 11:25N 31°28' E 121°25'100361248.2
2017-Aug-14 11:25N 29°57' E 122°15'931679.5
2017-Aug-14 11:22N 31°22' E 121°29'4408.7
2017-Aug-14 11:21N 31°25' E 121°32'66216221.4
2017-Aug-14 11:19N 22°56' E 113°36'65912486.4
2017-Aug-14 11:16N 31°20' E 121°34'435.4
2017-Aug-14 11:08N 31°23' E 121°36'1 7.0
2017-Aug-14 11:01N 31°23' E 121°37'6610.0
2017-Aug-14 11:00N 31°21' E 121°31'278.1
2017-Aug-14 10:59N 31°20' E 121°32'5101.1
2017-Aug-14 10:56N 31°25' E 121°32'78052.5
2017-Aug-14 10:56N 31°28' E 121°25'65816119.2
2017-Aug-14 10:53N 23°04' E 113°29'66111435.1
2017-Aug-14 10:50N 31°23' E 121°36'92815.7
2017-Aug-14 10:43N 29°57' E 122°15'115939.4
2017-Aug-14 10:36N 31°40' E 121°14'14283.3
2017-Aug-14 10:33N 31°29' E 121°25'872.8
2017-Aug-14 10:27N 31°25' E 121°32'10212294.7
2017-Aug-14 10:26N 29°52' E 122°22'1233591.1
2017-Aug-14 10:24N 31°40' E 121°14'254793.6
2017-Aug-14 10:24N 31°23' E 121°36'187.9
2017-Aug-14 10:23N 31°23' E 121°37'921445.6
2017-Aug-14 10:19N 29°57' E 122°15'1004200.6
2017-Aug-14 10:18N 31°28' E 121°25'614794.9
2017-Aug-14 10:17N 32°01' E 120°24'601242.1
2017-Aug-14 10:14N 31°29' E 121°25'11192.3
2017-Aug-14 10:11N 31°20' E 121°32'2338.8
2017-Aug-14 10:10N 31°21' E 121°31'3171.2
2017-Aug-14 10:09N 31°20' E 121°34'29390.2
2017-Aug-14 10:05N 31°42' E 121°11'7122.3
2017-Aug-14 10:01N 31°46' E 121°04'342109.5
2017-Aug-14 10:00N 31°21' E 121°31'65337.7
2017-Aug-14 10:00N 31°23' E 121°37'113431.9
2017-Aug-14 10:00N 31°28' E 121°25'251826.9
2017-Aug-14 09:59N 31°46' E 121°04'383080.2
2017-Aug-14 09:58N 32°00' E 120°23'728136.4
2017-Aug-14 09:58N 31°23' E 121°36'41928.7
2017-Aug-14 09:58N 31°20' E 121°32'2510044.9
2017-Aug-14 09:58N 31°40' E 121°14'1152725.6
2017-Aug-14 09:55N 29°57' E 122°15'92223.9
2017-Aug-14 09:30N 31°23' E 121°36'163.0
2017-Aug-14 09:30N 31°23' E 121°37'61255.9
2017-Aug-14 09:29N 31°21' E 121°31'7014905.3
2017-Aug-14 09:29N 31°59' E 120°21'462807.4
2017-Aug-14 09:28N 31°41' E 121°11'66035462.9
2017-Aug-14 09:27N 23°04' E 113°29'65628473.0
2017-Aug-14 09:26N 31°20' E 121°32'9115534.7
2017-Aug-14 09:25N 29°57' E 122°15'1004753.0
2017-Aug-14 09:24N 31°28' E 121°25'151049.2
2017-Aug-14 09:23N 31°40' E 121°14'6339.5
2017-Aug-14 09:22N 31°43' E 121°08'127434.9
2017-Aug-14 09:04N 29°53' E 122°22'102121879.4
2017-Aug-14 09:04N 31°25' E 121°32'573.6
2017-Aug-14 09:00N 31°20' E 121°32'734871.0
2017-Aug-14 09:00N 31°57' E 120°18'713341.7
2017-Aug-14 08:58N 31°25' E 121°32'10220425.5
2017-Aug-14 08:58N 29°52' E 122°22'981279.5
2017-Aug-14 08:53N 31°23' E 121°37'36891.4
2017-Aug-14 08:51N 31°46' E 121°05'25646.3
2017-Aug-14 08:49N 31°28' E 121°25'15924.7
2017-Aug-14 08:48N 31°40' E 121°14'14874.2
2017-Aug-14 08:47N 31°29' E 121°25'102178.2
2017-Aug-14 08:46N 31°21' E 121°31'54604.0
2017-Aug-14 08:46N 31°23' E 121°36'92638.1
2017-Aug-14 08:38N 29°57' E 122°15'62714661.7
2017-Aug-14 08:35N 22°56' E 113°36'6648154.3
2017-Aug-14 08:30N 31°23' E 121°37'111056.5
2017-Aug-14 08:30N 31°28' E 121°25'10449.7
2017-Aug-14 08:28N 31°20' E 121°32'33011.1
2017-Aug-14 08:28N 31°22' E 121°29'283177.0
2017-Aug-14 08:28N 31°44' E 121°08'611681.2
2017-Aug-14 08:28N 31°40' E 121°14'12711107.3
2017-Aug-14 08:27N 29°49' E 122°24'10610934.5
2017-Aug-14 08:26N 31°25' E 121°32'4314.6
2017-Aug-14 08:26N 31°21' E 121°31'74445.0
2017-Aug-14 08:16N 31°56' E 120°14'173658.8
2017-Aug-14 08:00N 29°44' E 122°24'1337247.5
2017-Aug-14 07:59N 31°41' E 121°11'2613506.4
2017-Aug-14 07:59N 31°21' E 121°31'61322.7
2017-Aug-14 07:58N 31°23' E 121°37'160.7
2017-Aug-14 07:58N 31°23' E 121°36'41097.1
2017-Aug-14 07:57N 31°20' E 121°32'5168.7
2017-Aug-14 07:56N 31°25' E 121°32'7216.0
2017-Aug-14 07:54N 31°28' E 121°25'19962.2
2017-Aug-14 07:53N 31°41' E 121°09'1141.9
2017-Aug-14 07:52N 31°41' E 121°11'531438.3
2017-Aug-14 07:50N 31°56' E 120°11'1595901.4
2017-Aug-14 07:48N 29°57' E 122°15'11518012.6
2017-Aug-14 07:48N 31°40' E 121°14'2690.4
2017-Aug-14 07:31N 31°23' E 121°37'2510147.4
2017-Aug-14 07:30N 31°39' E 121°14'3197.6
2017-Aug-14 07:29N 31°41' E 121°11'361.6
2017-Aug-14 07:27N 31°40' E 121°14'447.6
2017-Aug-14 07:22N 31°41' E 121°09'55678.1
2017-Aug-14 07:17N 31°56' E 120°07'831316.9
2017-Aug-14 07:13N 31°23' E 121°36'11521.8
2017-Aug-14 07:12N 31°28' E 121°25'1160.6
2017-Aug-14 07:00N 31°23' E 121°37'222645.3
2017-Aug-14 07:00N 31°37' E 121°17'642101.7
2017-Aug-14 06:58N 31°57' E 120°05'841078.6
2017-Aug-14 06:53N 31°23' E 121°36'291343.8
2017-Aug-14 06:52N 31°42' E 121°10'25609.5
2017-Aug-14 06:50N 31°25' E 121°32'953423.7
2017-Aug-14 06:48N 29°57' E 122°15'1004352.4
2017-Aug-14 06:47N 31°28' E 121°25'18162.6
2017-Aug-14 06:40N 31°41' E 121°11'347.0
2017-Aug-14 06:37N 31°40' E 121°14'26247.2
2017-Aug-14 06:30N 31°23' E 121°37'9221979.0
2017-Aug-14 06:30N 29°57' E 122°15'10864796.6
2017-Aug-14 06:30N 31°34' E 121°19'7111.9
2017-Aug-14 06:26N 31°40' E 121°14'2327305.7
2017-Aug-14 06:26N 31°22' E 121°30'4151.4
2017-Aug-14 06:25N 31°25' E 121°32'436.6
2017-Aug-14 06:18N 31°23' E 121°36'28100616.0
2017-Aug-14 06:18N 31°41' E 121°11'1 9.8
2017-Aug-14 06:09N 31°41' E 121°09'26171.9
2017-Aug-14 06:00N 31°24' E 121°31'9537970.2
2017-Aug-14 06:00N 29°57' E 122°16'11870875.1
2017-Aug-14 06:00N 31°41' E 121°11'29103247.7
2017-Aug-14 06:00N 31°23' E 121°37'163569.1
2017-Aug-14 06:00N 31°32' E 121°22'15211.4
2017-Aug-14 05:56N 31°23' E 121°36'251979.9
2017-Aug-14 05:55N 31°40' E 121°14'424.7
2017-Aug-14 05:45N 31°41' E 121°09'521.1
2017-Aug-14 05:30N 31°39' E 121°15'1214086.6
2017-Aug-14 05:30N 31°31' E 121°25'171206.6
2017-Aug-14 05:30N 31°41' E 121°09'1166.0
2017-Aug-14 05:29N 31°41' E 121°11'21784.7
2017-Aug-14 05:27N 31°26' E 121°29'71031.8
2017-Aug-14 05:27N 31°23' E 121°36'99722.8
2017-Aug-14 05:19N 29°52' E 122°21'9814159.5
2017-Aug-14 05:18N 31°23' E 121°37'2375.2
2017-Aug-14 05:00N 31°37' E 121°16'11513.2
2017-Aug-14 04:59N 31°29' E 121°25'269.1
2017-Aug-14 04:58N 31°29' E 121°27'19504.2
2017-Aug-14 04:55N 31°41' E 121°09'302149.9
2017-Aug-14 04:55N 31°23' E 121°37'153.9
2017-Aug-14 04:54N 31°23' E 121°36'103902.4
2017-Aug-14 04:47N 29°49' E 122°25'1123566.7
2017-Aug-14 04:45N 31°28' E 121°25'1 5.1
2017-Aug-14 04:32N 31°29' E 121°25'11182.8
2017-Aug-14 04:29N 31°23' E 121°36'1667.9
2017-Aug-14 04:29N 31°23' E 121°37'171201.9
2017-Aug-14 04:28N 31°32' E 121°21'323.9
2017-Aug-14 04:20N 31°35' E 121°19'8563.2
2017-Aug-14 04:19N 31°28' E 121°25'393.5
2017-Aug-14 04:17N 31°27' E 121°29'211021.7
2017-Aug-14 04:15N 31°41' E 121°11'24835.5
2017-Aug-14 04:14N 31°25' E 121°32'66020480.7
2017-Aug-14 04:12N 23°04' E 113°29'656295077.5
2017-Aug-14 04:12N 31°22' E 121°29'3967.9
2017-Aug-14 04:11N 31°21' E 121°32'281115.5
2017-Aug-14 04:10N 31°41' E 121°09'30188.6
2017-Aug-14 04:00N 31°23' E 121°37'72185.7
2017-Aug-14 04:00N 31°27' E 121°30'65984792.6
2017-Aug-14 04:00N 23°04' E 113°29'66033461.1
2017-Aug-14 03:59N 31°25' E 121°32'171392.3
2017-Aug-14 03:58N 31°36' E 121°17'4104.2
2017-Aug-14 03:56N 31°33' E 121°20'112536.3
2017-Aug-14 03:56N 31°41' E 121°12'2421515.6
2017-Aug-14 03:55N 31°22' E 121°29'6138.0
2017-Aug-14 03:53N 31°23' E 121°36'291938.0
2017-Aug-14 03:52N 31°41' E 121°09'195614.1
2017-Aug-14 03:52N 31°28' E 121°25'10187.1
2017-Aug-14 03:49N 31°21' E 121°32'10215.3
2017-Aug-14 03:46N 31°29' E 121°25'1246.7
2017-Aug-14 03:30N 31°23' E 121°37'2513082.4
2017-Aug-14 03:30N 31°39' E 121°14'209130.2
2017-Aug-14 03:30N 31°25' E 121°31'659263779.0
2017-Aug-14 03:30N 23°04' E 113°29'65760612.8
2017-Aug-14 03:29N 31°20' E 121°34'15401.0
2017-Aug-14 03:27N 31°32' E 121°22'153057.7
2017-Aug-14 03:27N 31°42' E 121°09'2647229.4
2017-Aug-14 03:27N 31°22' E 121°29'388.6
2017-Aug-14 03:25N 31°21' E 121°32'10148.8
2017-Aug-14 03:21N 31°28' E 121°25'11104.1
2017-Aug-14 03:15N 31°23' E 121°36'21549.1
2017-Aug-14 03:13N 31°43' E 121°41'27544.8
2017-Aug-14 03:10N 31°41' E 121°09'17110.1
2017-Aug-14 03:00N 31°31' E 121°24'93275.0
2017-Aug-14 03:00N 31°23' E 121°30'65347.5
2017-Aug-14 03:00N 31°23' E 121°37'7365.2
2017-Aug-14 02:59N 31°22' E 121°29'7201.1
2017-Aug-14 02:57N 31°28' E 121°25'20638.1
2017-Aug-14 02:55N 31°43' E 121°41'24503.4
2017-Aug-14 02:52N 31°39' E 121°13'4962.6
2017-Aug-14 02:52N 31°41' E 121°09'65937661.2
2017-Aug-14 02:51N 23°04' E 113°29'66127340.6
2017-Aug-14 02:49N 31°23' E 121°36'456.7
2017-Aug-14 02:45N 31°21' E 121°32'441.0
2017-Aug-14 02:38N 31°25' E 121°32'534.5
2017-Aug-14 02:30N 31°20' E 121°33'106147.5
2017-Aug-14 02:30N 31°29' E 121°27'2556.4
2017-Aug-14 02:30N 31°29' E 121°25'12591.7
2017-Aug-14 02:29N 31°23' E 121°37'51703.0
2017-Aug-14 02:28N 31°25' E 121°32'211093.7
2017-Aug-14 02:27N 31°39' E 121°13'65912625.6
2017-Aug-14 02:24N 23°04' E 113°29'66169959.8
2017-Aug-14 02:24N 31°23' E 121°36'480.4
2017-Aug-14 02:20N 31°20' E 121°34'11257.9
2017-Aug-14 02:18N 31°28' E 121°25'10424.9
2017-Aug-14 02:16N 31°21' E 121°32'282459.1
2017-Aug-14 02:16N 31°42' E 121°10'25792.1
2017-Aug-14 02:14N 31°22' E 121°29'24183.0
2017-Aug-14 02:06N 31°43' E 121°41'21219.2
2017-Aug-14 02:00N 31°23' E 121°37'5133.0
2017-Aug-14 01:58N 31°20' E 121°34'3350.2
2017-Aug-14 01:58N 31°17' E 121°34'41739.2
2017-Aug-14 01:58N 31°21' E 121°32'726522.5
2017-Aug-14 01:58N 31°27' E 121°29'41066.8
2017-Aug-14 01:57N 31°25' E 121°32'71098.5
2017-Aug-14 01:57N 31°28' E 121°25'7905.6
2017-Aug-14 01:57N 31°22' E 121°29'61862.5
2017-Aug-14 01:56N 31°23' E 121°36'251102.2
2017-Aug-14 01:55N 31°39' E 121°13'65923501.5
2017-Aug-14 01:53N 23°04' E 113°29'6591713.1
2017-Aug-14 01:30N 31°41' E 121°09'2341938.5
2017-Aug-14 01:30N 31°26' E 121°30'11775.1
2017-Aug-14 01:29N 31°15' E 121°31'142986.2
2017-Aug-14 01:29N 31°28' E 121°25'11623.8
2017-Aug-14 01:28N 31°23' E 121°37'5384.9
2017-Aug-14 01:27N 31°21' E 121°32'451.6
2017-Aug-14 01:22N 31°23' E 121°36'4284.6
2017-Aug-14 01:22N 31°25' E 121°32'212696.8
2017-Aug-14 01:21N 31°39' E 121°13'65953947.4
2017-Aug-14 01:20N 23°04' E 113°29'6563927.8
2017-Aug-14 01:10N 31°22' E 121°29'25152.3
2017-Aug-14 01:00N 31°41' E 121°09'261203.0
2017-Aug-14 00:59N 31°25' E 121°33'42326.2
2017-Aug-14 00:59N 31°21' E 121°32'8868.5
2017-Aug-14 00:58N 31°12' E 121°30'121126.9
2017-Aug-14 00:58N 31°23' E 121°36'66129366.0
2017-Aug-14 00:56N 23°04' E 113°29'660113130.5
2017-Aug-14 00:56N 31°25' E 121°32'211238.1
2017-Aug-14 00:55N 31°39' E 121°13'211504.9
2017-Aug-14 00:54N 31°22' E 121°29'764.2
2017-Aug-14 00:48N 31°23' E 121°37'1141.7
2017-Aug-14 00:31N 31°28' E 121°25'15509.9
2017-Aug-14 00:29N 31°39' E 121°14'2615381.9
2017-Aug-14 00:29N 31°23' E 121°37'5430.5
2017-Aug-14 00:29N 31°20' E 121°34'4211.9
2017-Aug-14 00:27N 31°23' E 121°36'15936.7
2017-Aug-14 00:26N 31°10' E 121°28'192308.9
2017-Aug-14 00:26N 31°28' E 121°25'93239.0
2017-Aug-14 00:26N 31°24' E 121°35'66124520.0
2017-Aug-14 00:24N 23°04' E 113°29'66024242.3
2017-Aug-14 00:23N 31°25' E 121°32'25147.7
2017-Aug-14 00:12N 31°41' E 121°09'25308.6
2017-Aug-14 00:07N 31°22' E 121°29'541.9
2017-Aug-14 00:00N 31°24' E 121°35'2302.9
2017-Aug-13 23:59N 31°23' E 121°37'678187874.8
2017-Aug-13 23:59N 22°44' E 113°27'67467376.1
2017-Aug-13 23:58N 31°20' E 121°34'4753.3
2017-Aug-13 23:58N 31°23' E 121°36'11264.4
2017-Aug-13 23:56N 31°28' E 121°25'7284.2
2017-Aug-13 23:54N 31°25' E 121°32'19501.3
2017-Aug-13 23:52N 31°07' E 121°28'6445987.4
2017-Aug-13 23:46N 23°04' E 113°29'65623605.9
2017-Aug-13 23:44N 31°22' E 121°29'730.6
2017-Aug-13 23:30N 31°23' E 121°37'2237.7
2017-Aug-13 23:29N 31°24' E 121°35'51416.4
2017-Aug-13 23:29N 31°20' E 121°34'61847.7
2017-Aug-13 23:29N 31°25' E 121°32'71509.8
2017-Aug-13 23:29N 31°28' E 121°25'10257.2
2017-Aug-13 23:26N 31°21' E 121°32'6576303.0
2017-Aug-13 23:20N 23°04' E 113°29'206678.6
2017-Aug-13 23:20N 22°44' E 113°27'67363751.2
2017-Aug-13 23:19N 31°22' E 121°29'25116.0
2017-Aug-13 23:06N 31°41' E 121°09'30303.5
2017-Aug-13 23:00N 31°23' E 121°37'5590.9
2017-Aug-13 23:00N 31°21' E 121°32'101383.4
2017-Aug-13 22:59N 31°28' E 121°25'658157977.4
2017-Aug-13 22:59N 23°04' E 113°29'65715554.4
2017-Aug-13 22:57N 31°20' E 121°33'4275.8
2017-Aug-13 22:56N 31°24' E 121°35'266.0
2017-Aug-13 22:54N 31°25' E 121°32'25276.1
2017-Aug-13 22:48N 31°41' E 121°09'2545824.1
2017-Aug-13 22:48N 31°22' E 121°29'723.9
2017-Aug-13 22:30N 31°23' E 121°37'71065.5
2017-Aug-13 22:30N 31°22' E 121°29'65628101.8
2017-Aug-13 22:28N 23°04' E 113°29'660237572.3
2017-Aug-13 22:28N 31°25' E 121°32'271.2
2017-Aug-13 22:26N 31°24' E 121°35'9899.7
2017-Aug-13 22:26N 31°28' E 121°25'102659.0
2017-Aug-13 22:26N 31°21' E 121°32'121.0
2017-Aug-13 22:21N 31°21' E 121°31'27495.8
2017-Aug-13 22:18N 31°41' E 121°09'676.5
2017-Aug-13 22:14N 31°46' E 121°05'6628476.3
2017-Aug-13 22:09N 23°01' E 113°31'6634789.5
2017-Aug-13 22:01N 31°23' E 121°37'303978.8
2017-Aug-13 22:00N 31°41' E 121°09'251853.6
2017-Aug-13 21:59N 31°25' E 121°32'4321.0
2017-Aug-13 21:58N 31°21' E 121°32'10473.5
2017-Aug-13 21:57N 31°28' E 121°25'91116.6
2017-Aug-13 21:57N 31°24' E 121°35'66122667.3
2017-Aug-13 21:55N 23°03' E 113°30'249.7
2017-Aug-13 21:52N 23°04' E 113°29'660263990.8
2017-Aug-13 21:52N 31°44' E 121°07'293113.8
2017-Aug-13 21:52N 31°22' E 121°29'218.2
2017-Aug-13 21:47N 31°21' E 121°31'10129.7
2017-Aug-13 21:42N 31°29' E 121°25'24673.9
2017-Aug-13 21:40N 31°47' E 121°05'6614124.7
2017-Aug-13 21:30N 23°04' E 113°29'66176811.8
2017-Aug-13 21:30N 31°23' E 121°37'66129759.4
2017-Aug-13 21:28N 23°04' E 113°29'6572363834.9
2017-Aug-13 21:28N 31°21' E 121°32'3193.3
2017-Aug-13 21:28N 31°22' E 121°29'7650.7
2017-Aug-13 21:27N 31°28' E 121°25'7197.9
2017-Aug-13 21:25N 31°25' E 121°32'2549.4
2017-Aug-13 21:25N 31°24' E 121°35'34378.8
2017-Aug-13 21:19N 31°47' E 121°05'6373.3
2017-Aug-13 21:18N 31°41' E 121°09'273239.5
2017-Aug-13 21:18N 31°21' E 121°31'620.9
2017-Aug-13 21:00N 31°23' E 121°37'661148798.0
2017-Aug-13 21:00N 23°04' E 113°29'6592372686.9
2017-Aug-13 21:00N 31°41' E 121°09'66071967.4
2017-Aug-13 21:00N 23°06' E 113°26'661216305.5
2017-Aug-13 20:59N 31°40' E 121°14'10453.8
2017-Aug-13 20:58N 31°49' E 121°10'333930.0
2017-Aug-13 20:58N 31°24' E 121°35'987.5
2017-Aug-13 20:51N 31°28' E 121°25'8507.5
2017-Aug-13 20:50N 31°21' E 121°31'10734.0
2017-Aug-13 20:50N 31°29' E 121°25'8134.0
2017-Aug-13 20:46N 31°22' E 121°29'418.0
2017-Aug-13 20:32N 31°25' E 121°32'5178.9
2017-Aug-13 20:30N 31°23' E 121°37'21752.8
2017-Aug-13 20:30N 31°24' E 121°35'92943.7
2017-Aug-13 20:30N 31°28' E 121°25'7976.1
2017-Aug-13 20:30N 31°22' E 121°29'65739399.8
2017-Aug-13 20:29N 23°06' E 113°25'66154069.7
2017-Aug-13 20:28N 31°25' E 121°32'6605909.7
2017-Aug-13 20:21N 23°04' E 113°29'2603219.5
2017-Aug-13 20:16N 24°08' E 118°04'4741705.5
2017-Aug-13 20:00N 31°23' E 121°37'47323984.3
2017-Aug-13 19:59N 24°08' E 118°07'4747383.4
2017-Aug-13 19:55N 31°28' E 121°25'65936507.1
2017-Aug-13 19:54N 23°06' E 113°25'66030064.0
2017-Aug-13 19:52N 31°29' E 121°25'81229.7
2017-Aug-13 19:52N 31°22' E 121°29'3401.2
2017-Aug-13 19:52N 31°21' E 121°32'24963.7
2017-Aug-13 19:50N 31°39' E 121°13'2833546.0
2017-Aug-13 19:50N 31°15' E 121°30'101743.9
2017-Aug-13 19:50N 31°24' E 121°35'66130889.6
2017-Aug-13 19:48N 23°04' E 113°29'6603038.0
2017-Aug-13 19:35N 31°25' E 121°32'6617825.9
2017-Aug-13 19:30N 23°06' E 113°25'662264901.2
2017-Aug-13 19:30N 31°23' E 121°37'11325.2
2017-Aug-13 19:28N 31°28' E 121°25'65810820.6
2017-Aug-13 19:24N 23°04' E 113°29'65967765.8
2017-Aug-13 19:24N 31°29' E 121°25'83873.7
2017-Aug-13 19:24N 31°25' E 121°32'4519.0
2017-Aug-13 19:23N 31°22' E 121°29'551.8
2017-Aug-13 19:17N 31°24' E 121°35'458.7
2017-Aug-13 19:13N 31°21' E 121°32'18132.2
2017-Aug-13 19:05N 31°03' E 121°29'21296.8
2017-Aug-13 19:00N 31°23' E 121°37'5261.8
2017-Aug-13 18:59N 31°25' E 121°32'4107.5
2017-Aug-13 18:57N 31°22' E 121°29'3983.1
2017-Aug-13 18:57N 31°21' E 121°32'10705.1
2017-Aug-13 18:56N 31°28' E 121°25'253669.5
2017-Aug-13 18:56N 31°03' E 121°29'2719167.0
2017-Aug-13 18:55N 31°29' E 121°25'66069854.2
2017-Aug-13 18:55N 23°06' E 113°25'657107500.0
2017-Aug-13 18:55N 31°21' E 121°31'573.7
2017-Aug-13 18:51N 31°24' E 121°35'415.4
2017-Aug-13 18:34N 31°20' E 121°33'567.2
2017-Aug-13 18:30N 31°23' E 121°37'112927.8
2017-Aug-13 18:30N 31°28' E 121°25'281269.9
2017-Aug-13 18:28N 31°01' E 121°29'2011859.5
2017-Aug-13 18:28N 31°21' E 121°32'5262.8
2017-Aug-13 18:27N 31°25' E 121°32'42295.8
2017-Aug-13 18:27N 31°21' E 121°32'4276.2
2017-Aug-13 18:26N 31°24' E 121°35'10231.6
2017-Aug-13 18:24N 31°29' E 121°25'8123.4
2017-Aug-13 18:20N 31°22' E 121°29'222787.4
2017-Aug-13 18:19N 31°39' E 121°13'420.0
2017-Aug-13 18:08N 31°41' E 121°09'28237.5
2017-Aug-13 18:00N 31°21' E 121°32'51951.9
2017-Aug-13 18:00N 31°23' E 121°37'6622384128.7
2017-Aug-13 18:00N 23°06' E 113°25'657118318.6
2017-Aug-13 18:00N 31°22' E 121°30'7402.9
2017-Aug-13 17:59N 31°28' E 121°25'91903.6
2017-Aug-13 17:59N 31°24' E 121°35'5429.3
2017-Aug-13 17:58N 31°22' E 121°29'22720.4
2017-Aug-13 17:56N 31°00' E 121°26'222354.9
2017-Aug-13 17:55N 31°21' E 121°31'656214689.9
2017-Aug-13 17:55N 23°04' E 113°29'6595520.0
2017-Aug-13 17:48N 31°39' E 121°13'14161.9
2017-Aug-13 17:43N 31°29' E 121°25'1257.7
2017-Aug-13 17:30N 31°23' E 121°37'662264894.6
2017-Aug-13 17:30N 23°06' E 113°25'660158337.2
2017-Aug-13 17:30N 31°24' E 121°32'32588.2
2017-Aug-13 17:30N 31°21' E 121°32'1130.1
2017-Aug-13 17:29N 31°21' E 121°31'65654920.3
2017-Aug-13 17:28N 23°04' E 113°29'65624848.7
2017-Aug-13 17:27N 31°22' E 121°29'2225863.8
2017-Aug-13 17:27N 31°39' E 121°13'23359.7
2017-Aug-13 17:23N 31°24' E 121°35'9177.9
2017-Aug-13 17:20N 31°28' E 121°25'193742.7
2017-Aug-13 17:20N 31°41' E 121°09'4316459.9
2017-Aug-13 17:16N 24°45' E 119°03'4218516.8
2017-Aug-13 17:13N 31°25' E 121°32'6613085.8
2017-Aug-13 17:00N 23°06' E 113°25'662216743.4
2017-Aug-13 17:00N 31°23' E 121°37'7710.5
2017-Aug-13 16:59N 31°22' E 121°29'221325.0
2017-Aug-13 16:58N 31°39' E 121°14'41336.3
2017-Aug-13 16:58N 31°41' E 121°09'263061.2
2017-Aug-13 16:57N 31°23' E 121°30'3207.2
2017-Aug-13 16:56N 31°25' E 121°32'231.7
2017-Aug-13 16:52N 31°24' E 121°35'478.6
2017-Aug-13 16:49N 31°21' E 121°32'6577600.9
2017-Aug-13 16:44N 23°04' E 113°29'6587846.8
2017-Aug-13 16:39N 31°28' E 121°25'4206969.2
2017-Aug-13 16:35N 24°49' E 118°59'4195305.9
2017-Aug-13 16:30N 31°23' E 121°37'41894109.5
2017-Aug-13 16:30N 24°49' E 118°58'32157858.5
2017-Aug-13 16:30N 23°06' E 113°25'321144614.7
2017-Aug-13 16:30N 24°49' E 118°58'41439251.4
2017-Aug-13 16:29N 31°21' E 121°32'657147732.8
2017-Aug-13 16:29N 23°04' E 113°29'6582369593.1
2017-Aug-13 16:29N 31°28' E 121°25'7295.0
2017-Aug-13 16:27N 31°24' E 121°32'217403.3
2017-Aug-13 16:27N 31°38' E 121°14'23934.9
2017-Aug-13 16:26N 31°24' E 121°35'257.9
2017-Aug-13 16:23N 31°25' E 121°32'25207.8
2017-Aug-13 16:16N 31°41' E 121°09'4261645.3
2017-Aug-13 16:00N 24°52' E 118°55'41634862.7
2017-Aug-13 16:00N 31°23' E 121°37'416149839.3
2017-Aug-13 16:00N 24°52' E 118°55'42615326.5
2017-Aug-13 15:58N 31°41' E 121°09'283505.4
2017-Aug-13 15:57N 31°21' E 121°32'4167.1
2017-Aug-13 15:56N 31°24' E 121°35'661148651.6
2017-Aug-13 15:56N 23°04' E 113°29'4170.5
2017-Aug-13 15:54N 23°06' E 113°25'66029324.0
2017-Aug-13 15:53N 31°27' E 121°28'4182.1
2017-Aug-13 15:52N 31°25' E 121°32'20390.6
2017-Aug-13 15:48N 31°38' E 121°14'14150.0
2017-Aug-13 15:43N 31°28' E 121°25'7317.0
2017-Aug-13 15:42N 31°22' E 121°29'4122047.4
2017-Aug-13 15:29N 24°53' E 118°55'32076765.6
2017-Aug-13 15:29N 23°06' E 113°25'659395627.2
2017-Aug-13 15:29N 31°29' E 121°25'41816526.8
2017-Aug-13 15:28N 24°53' E 118°55'41671355.0
2017-Aug-13 15:27N 31°25' E 121°32'4297.2
2017-Aug-13 15:26N 31°21' E 121°32'4646.8
2017-Aug-13 15:26N 31°24' E 121°35'233878.8
2017-Aug-13 15:26N 31°38' E 121°14'14283.3
2017-Aug-13 15:23N 31°28' E 121°25'7209.6
2017-Aug-13 15:21N 31°22' E 121°29'65640700.1
2017-Aug-13 15:20N 23°04' E 113°29'65911035.7
2017-Aug-13 15:16N 31°41' E 121°09'30529.3
2017-Aug-13 15:13N 31°23' E 121°37'0 0.0
2017-Aug-13 15:00N 31°23' E 121°37'113742.9
2017-Aug-13 15:00N 31°28' E 121°25'41738509.4
2017-Aug-13 14:59N 24°53' E 118°55'424508969.6
2017-Aug-13 14:59N 31°39' E 121°13'66021610.3
2017-Aug-13 14:58N 23°06' E 113°25'65763890.5
2017-Aug-13 14:57N 31°22' E 121°29'656236119.7
2017-Aug-13 14:57N 23°04' E 113°29'65840871.2
2017-Aug-13 14:56N 31°32' E 121°21'147167.9
2017-Aug-13 14:56N 31°24' E 121°35'66184944.9
2017-Aug-13 14:55N 23°04' E 113°29'31729278.6
2017-Aug-13 14:55N 24°53' E 118°55'41634055.8
2017-Aug-13 14:54N 31°25' E 121°32'435.4
2017-Aug-13 14:46N 31°21' E 121°32'4687.6
2017-Aug-13 14:46N 31°23' E 121°36'1 3.5
2017-Aug-13 14:30N 31°23' E 121°35'6602376052.6
2017-Aug-13 14:30N 23°04' E 113°29'661198444.7
2017-Aug-13 14:30N 31°23' E 121°37'7287.3
2017-Aug-13 14:29N 31°22' E 121°29'261744.7
2017-Aug-13 14:28N 31°41' E 121°09'42690114.0
2017-Aug-13 14:28N 24°53' E 118°55'32019516.7
2017-Aug-13 14:27N 23°06' E 113°25'320115148.4
2017-Aug-13 14:26N 24°53' E 118°55'4164770.4
2017-Aug-13 14:21N 31°24' E 121°35'66114772.8
2017-Aug-13 14:19N 23°04' E 113°29'65734760.3
2017-Aug-13 14:17N 31°21' E 121°32'21135.9
2017-Aug-13 14:08N 31°37' E 121°18'863.3
2017-Aug-13 14:01N 31°41' E 121°09'303706.2
2017-Aug-13 14:00N 31°23' E 121°37'662794699.7
2017-Aug-13 14:00N 23°06' E 113°25'662158783.9
2017-Aug-13 14:00N 31°37' E 121°18'42454486.3
2017-Aug-13 13:59N 24°53' E 118°55'42350793.1
2017-Aug-13 13:59N 31°38' E 121°15'42329303.7
2017-Aug-13 13:58N 24°53' E 118°55'41674895.5
2017-Aug-13 13:58N 31°24' E 121°35'2575.5
2017-Aug-13 13:58N 31°23' E 121°34'6591186810.6
2017-Aug-13 13:58N 23°04' E 113°29'656112409.7
2017-Aug-13 13:57N 31°22' E 121°29'3296.3
2017-Aug-13 13:57N 31°21' E 121°32'33323.0
2017-Aug-13 13:50N 31°45' E 121°05'540.7
2017-Aug-13 13:43N 31°41' E 121°09'19223.8
2017-Aug-13 13:38N 31°28' E 121°25'6585588.9
2017-Aug-13 13:31N 23°04' E 113°29'66188172.7
2017-Aug-13 13:30N 31°23' E 121°37'41637418.8
2017-Aug-13 13:29N 24°53' E 118°55'424127134.7
2017-Aug-13 13:29N 31°37' E 121°18'66227695.9
2017-Aug-13 13:28N 23°06' E 113°25'32082261.1
2017-Aug-13 13:28N 24°53' E 118°55'41298883.9
2017-Aug-13 13:27N 31°21' E 121°32'350.0
2017-Aug-13 13:24N 31°22' E 121°29'5315.9
2017-Aug-13 13:23N 31°24' E 121°35'934.6
2017-Aug-13 13:07N 31°28' E 121°25'6595345.9
2017-Aug-13 13:00N 23°06' E 113°25'662216519.5
2017-Aug-13 13:00N 31°37' E 121°18'106288.5
2017-Aug-13 12:59N 31°29' E 121°25'418300676.5
2017-Aug-13 12:59N 24°53' E 118°55'0 0.2
2017-Aug-13 12:58N 24°53' E 118°55'3171141866.6
2017-Aug-13 12:58N 23°04' E 113°29'66138990.6
2017-Aug-13 12:57N 31°24' E 121°35'284.5
2017-Aug-13 12:55N 31°23' E 121°37'7453.0
2017-Aug-13 12:54N 31°22' E 121°29'522.7
2017-Aug-13 12:42N 31°23' E 121°34'6603324.6
2017-Aug-13 12:30N 23°06' E 113°25'32050072.0
2017-Aug-13 12:29N 24°53' E 118°55'416374603.6
2017-Aug-13 12:29N 31°25' E 121°32'2393.2
2017-Aug-13 12:29N 31°24' E 121°35'2154.1
2017-Aug-13 12:28N 31°23' E 121°37'192004.7
2017-Aug-13 12:27N 31°36' E 121°20'151616.0
2017-Aug-13 12:27N 31°23' E 121°31'3759.8
2017-Aug-13 12:27N 31°23' E 121°34'41512231.7
2017-Aug-13 12:25N 24°53' E 118°55'4126927.8
2017-Aug-13 12:21N 31°21' E 121°32'11227.2
2017-Aug-13 12:18N 31°30' E 121°25'1241.6
2017-Aug-13 12:00N 31°23' E 121°37'183335.9
2017-Aug-13 12:00N 31°34' E 121°21'1510712.6
2017-Aug-13 12:00N 31°23' E 121°33'66025826.8
2017-Aug-13 11:59N 23°06' E 113°25'662103561.8
2017-Aug-13 11:58N 31°24' E 121°35'102937.0
2017-Aug-13 11:58N 31°30' E 121°25'41862756.6
2017-Aug-13 11:58N 24°53' E 118°55'41528155.9
2017-Aug-13 11:57N 31°23' E 121°34'41578540.1
2017-Aug-13 11:56N 24°53' E 118°55'4164526.9
2017-Aug-13 11:51N 31°25' E 121°32'1132.3
2017-Aug-13 11:31N 31°32' E 121°22'152471.1
2017-Aug-13 11:30N 31°22' E 121°36'2126.9
2017-Aug-13 11:29N 31°23' E 121°37'416249458.6
2017-Aug-13 11:29N 24°53' E 118°55'32071978.4
2017-Aug-13 11:29N 23°06' E 113°25'6609249.5
2017-Aug-13 11:25N 31°23' E 121°34'415106590.2
2017-Aug-13 11:25N 24°53' E 118°55'4166541.2
2017-Aug-13 11:21N 31°24' E 121°35'4578.3
2017-Aug-13 11:20N 31°20' E 121°32'5116.4
2017-Aug-13 11:18N 31°21' E 121°38'6268.7
2017-Aug-13 11:16N 31°25' E 121°32'8910.3
2017-Aug-13 11:16N 31°30' E 121°25'1247.3
2017-Aug-13 11:00N 31°23' E 121°37'662476838.5
2017-Aug-13 11:00N 23°06' E 113°25'66049523.3
2017-Aug-13 10:59N 31°23' E 121°34'415186530.3
2017-Aug-13 10:59N 24°53' E 118°55'419251552.3
2017-Aug-13 10:59N 31°31' E 121°25'156098.9
2017-Aug-13 10:59N 31°21' E 121°38'1361.8
2017-Aug-13 10:59N 31°20' E 121°40'41419343.8
2017-Aug-13 10:58N 24°53' E 118°55'4165853.2
2017-Aug-13 10:53N 31°25' E 121°32'2196.4
2017-Aug-13 10:53N 31°24' E 121°35'107036.2
2017-Aug-13 10:53N 31°29' E 121°25'0 5.4
2017-Aug-13 10:49N 31°30' E 121°25'11126.7
2017-Aug-13 10:44N 31°20' E 121°32'6564873.0
2017-Aug-13 10:36N 23°04' E 113°29'6607688.4
2017-Aug-13 10:31N 31°25' E 121°32'93960.0
2017-Aug-13 10:30N 31°20' E 121°40'0 8.1
2017-Aug-13 10:30N 31°20' E 121°40'662264695.5
2017-Aug-13 10:30N 23°06' E 113°25'662170300.6
2017-Aug-13 10:30N 31°23' E 121°37'122010.8
2017-Aug-13 10:29N 31°30' E 121°25'418125518.4
2017-Aug-13 10:29N 24°53' E 118°55'41850188.1
2017-Aug-13 10:29N 31°29' E 121°27'94557.1
2017-Aug-13 10:29N 31°23' E 121°34'659237360.4
2017-Aug-13 10:29N 23°04' E 113°29'31719687.2
2017-Aug-13 10:28N 24°53' E 118°55'4169189.8
2017-Aug-13 10:25N 31°24' E 121°35'4519.8
2017-Aug-13 10:24N 31°20' E 121°32'11460.7
2017-Aug-13 10:23N 31°29' E 121°25'0 0.9
2017-Aug-13 10:00N 31°30' E 121°25'122955.3
2017-Aug-13 10:00N 31°23' E 121°37'662125483.8
2017-Aug-13 10:00N 23°06' E 113°25'662340285.6
2017-Aug-13 10:00N 31°19' E 121°41'11556.7
2017-Aug-13 10:00N 31°19' E 121°42'104627.4
2017-Aug-13 10:00N 31°25' E 121°32'41683245.2
2017-Aug-13 09:59N 24°53' E 118°55'412164720.9
2017-Aug-13 09:59N 31°20' E 121°32'4816.5
2017-Aug-13 09:59N 31°24' E 121°35'52765.0
2017-Aug-13 09:59N 31°27' E 121°29'4314.1
2017-Aug-13 09:58N 31°29' E 121°25'41879225.4
2017-Aug-13 09:58N 24°53' E 118°55'4153561.5
2017-Aug-13 09:51N 31°23' E 121°34'11207.8
2017-Aug-13 09:47N 31°31' E 121°25'2278.0
2017-Aug-13 09:30N 31°17' E 121°45'144116.4
2017-Aug-13 09:30N 31°25' E 121°32'51134.0
2017-Aug-13 09:30N 31°23' E 121°37'1211055.7
2017-Aug-13 09:30N 31°29' E 121°25'6602375075.5
2017-Aug-13 09:30N 23°06' E 113°25'660791674.8
2017-Aug-13 09:30N 31°24' E 121°31'41546711.3
2017-Aug-13 09:29N 24°53' E 118°55'0 0.0
2017-Aug-13 09:28N 24°53' E 118°55'4186875.2
2017-Aug-13 09:24N 31°29' E 121°27'102207.9
2017-Aug-13 09:24N 31°20' E 121°32'8170.6
2017-Aug-13 09:21N 31°19' E 121°42'8215.1
2017-Aug-13 09:19N 31°24' E 121°35'223.8
2017-Aug-13 09:15N 31°23' E 121°34'359.8
2017-Aug-13 09:12N 31°24' E 121°31'65818958.8
2017-Aug-13 09:10N 23°04' E 113°29'65910184.0
2017-Aug-13 09:06N 31°30' E 121°25'11129.3
2017-Aug-13 09:00N 31°20' E 121°32'104658.4
2017-Aug-13 09:00N 31°18' E 121°44'1619413.6
2017-Aug-13 09:00N 31°27' E 121°29'66088031.6
2017-Aug-13 09:00N 23°06' E 113°25'32032904.4
2017-Aug-13 08:59N 24°53' E 118°55'41678776.1
2017-Aug-13 08:59N 31°23' E 121°37'814257.7
2017-Aug-13 08:59N 31°18' E 121°44'1112840.9
2017-Aug-13 08:59N 31°23' E 121°33'1399.9
2017-Aug-13 08:59N 31°23' E 121°34'1112675.7
2017-Aug-13 08:59N 31°29' E 121°25'1011809.5
2017-Aug-13 08:59N 31°24' E 121°35'2179.3
2017-Aug-13 08:58N 31°25' E 121°32'41688144.4
2017-Aug-13 08:58N 24°53' E 118°55'41814077.8
2017-Aug-13 08:56N 31°30' E 121°25'8237.2
2017-Aug-13 08:54N 31°23' E 121°30'4131070.5
2017-Aug-13 08:31N 24°53' E 118°55'414165780.6
2017-Aug-13 08:30N 31°22' E 121°37'89839.2
2017-Aug-13 08:30N 31°17' E 121°45'663596334.8
2017-Aug-13 08:30N 23°06' E 113°25'662794202.8
2017-Aug-13 08:30N 31°19' E 121°41'102674.5
2017-Aug-13 08:30N 31°25' E 121°32'3229.0
2017-Aug-13 08:29N 31°23' E 121°30'4131487996.6
2017-Aug-13 08:29N 24°53' E 118°55'4161496726.6
2017-Aug-13 08:29N 31°23' E 121°37'5102.3
2017-Aug-13 08:27N 31°25' E 121°32'2393.2
2017-Aug-13 08:26N 31°24' E 121°35'237.1
2017-Aug-13 08:24N 31°23' E 121°34'975.8
2017-Aug-13 08:16N 31°15' E 121°29'15265.6
2017-Aug-13 08:13N 31°30' E 121°25'0 7.6
2017-Aug-13 08:11N 31°29' E 121°25'4182496.2
2017-Aug-13 08:01N 24°53' E 118°55'415213642.2
2017-Aug-13 08:00N 31°23' E 121°35'9698.8
2017-Aug-13 08:00N 31°18' E 121°43'6622382704.0
2017-Aug-13 08:00N 23°06' E 113°25'32052348.0
2017-Aug-13 07:59N 24°53' E 118°55'41613870.1
2017-Aug-13 07:57N 31°24' E 121°35'66149552.5
2017-Aug-13 07:57N 23°04' E 113°29'65747295.2
2017-Aug-13 07:56N 31°23' E 121°30'8256.1
2017-Aug-13 07:54N 31°15' E 121°31'15683.1
2017-Aug-13 07:53N 31°29' E 121°25'0 5.2
2017-Aug-13 07:49N 31°30' E 121°25'11618.9
2017-Aug-13 07:48N 31°23' E 121°34'738.7
2017-Aug-13 07:38N 31°19' E 121°41'9216.3
2017-Aug-13 07:35N 31°25' E 121°32'4165131.5
2017-Aug-13 07:31N 24°53' E 118°55'416748373.3
2017-Aug-13 07:30N 31°23' E 121°37'24400.8
2017-Aug-13 07:30N 31°23' E 121°34'660237694.6
2017-Aug-13 07:30N 23°06' E 113°25'320288439.2
2017-Aug-13 07:30N 24°51' E 118°57'41639426.7
2017-Aug-13 07:30N 31°22' E 121°39'151049.6
2017-Aug-13 07:29N 31°20' E 121°21'64933884.9
2017-Aug-13 07:28N 23°04' E 113°29'66123782.3
2017-Aug-13 07:26N 31°19' E 121°41'10341.9
2017-Aug-13 07:24N 31°23' E 121°30'842.8
2017-Aug-13 07:13N 31°30' E 121°25'10551.5
2017-Aug-13 07:12N 31°24' E 121°35'7239.9
2017-Aug-13 07:10N 31°19' E 121°41'4152663.4
2017-Aug-13 07:01N 24°50' E 118°56'4731.1
2017-Aug-13 07:00N 24°49' E 119°00'418250643.3
2017-Aug-13 07:00N 31°23' E 121°37'662476803.7
2017-Aug-13 07:00N 23°06' E 113°25'66364465.7
2017-Aug-13 06:59N 31°20' E 121°42'18679.9
2017-Aug-13 06:58N 31°30' E 121°25'113823.6
2017-Aug-13 06:58N 31°23' E 121°34'422.7
2017-Aug-13 06:48N 31°23' E 121°30'4130.2
2017-Aug-13 06:46N 31°24' E 121°35'4540.4
2017-Aug-13 06:45N 31°20' E 121°32'66621218.4
2017-Aug-13 06:43N 22°55' E 113°25'670603127.4
2017-Aug-13 06:43N 31°19' E 121°41'997.1
2017-Aug-13 06:38N 31°25' E 121°32'4203607.2
2017-Aug-13 06:31N 24°48' E 118°59'417300207.6
2017-Aug-13 06:30N 31°23' E 121°30'65539.4
2017-Aug-13 06:30N 31°23' E 121°37'5204.7
2017-Aug-13 06:29N 31°19' E 121°41'024.8
2017-Aug-13 06:28N 31°19' E 121°41'66923166.8
2017-Aug-13 06:26N 22°55' E 113°27'66922949.1
2017-Aug-13 06:25N 31°24' E 121°35'4400.9
2017-Aug-13 06:24N 31°20' E 121°32'657169057.4
2017-Aug-13 06:24N 23°06' E 113°25'6517965.7
2017-Aug-13 06:19N 31°58' E 120°26'582203.7
2017-Aug-13 06:17N 31°29' E 121°25'9137.8
2017-Aug-13 06:13N 31°20' E 121°23'10241.8
2017-Aug-13 06:11N 31°30' E 121°25'11277.4
2017-Aug-13 06:09N 31°23' E 121°34'1184.7
2017-Aug-13 06:00N 31°17' E 121°46'2743.6
2017-Aug-13 06:00N 31°18' E 121°44'82367.9
2017-Aug-13 06:00N 31°23' E 121°37'66276897.8
2017-Aug-13 06:00N 23°06' E 113°25'650195063.1
2017-Aug-13 05:59N 31°58' E 120°26'44031650.2
2017-Aug-13 05:59N 24°45' E 119°03'420302243.3
2017-Aug-13 05:58N 31°23' E 121°34'113781.6
2017-Aug-13 05:58N 31°29' E 121°25'101686.5
2017-Aug-13 05:58N 31°24' E 121°35'6688879.9
2017-Aug-13 05:53N 22°53' E 113°30'665797581.3
2017-Aug-13 05:53N 31°23' E 121°30'5287.0
2017-Aug-13 05:52N 31°20' E 121°25'8139.8
2017-Aug-13 05:49N 31°28' E 121°28'8446.4
2017-Aug-13 05:48N 31°21' E 121°31'10220.2
2017-Aug-13 05:45N 31°30' E 121°25'1667.0
2017-Aug-13 05:31N 31°20' E 121°40'41486.7
2017-Aug-13 05:30N 31°18' E 121°44'1657491.9
2017-Aug-13 05:30N 31°21' E 121°26'175999.9
2017-Aug-13 05:30N 31°17' E 121°45'795663.2
2017-Aug-13 05:29N 31°58' E 120°26'631982.2
2017-Aug-13 05:27N 31°26' E 121°30'51082.2
2017-Aug-13 05:27N 31°23' E 121°34'477.4
2017-Aug-13 05:24N 31°23' E 121°30'658592041.0
2017-Aug-13 05:24N 23°06' E 113°25'65798558.6
2017-Aug-13 05:24N 31°22' E 121°30'539.6
2017-Aug-13 05:17N 31°24' E 121°35'417.6
2017-Aug-13 05:02N 31°20' E 121°32'4178.3
2017-Aug-13 05:00N 31°22' E 121°28'6478.9
2017-Aug-13 05:00N 31°23' E 121°34'660158471.5
2017-Aug-13 04:59N 23°06' E 113°25'650585161.8
2017-Aug-13 04:59N 31°58' E 120°26'65233719.4
2017-Aug-13 04:59N 31°23' E 121°30'113908.0
2017-Aug-13 04:59N 31°19' E 121°42'015.8
2017-Aug-13 04:58N 31°19' E 121°42'112399.1
2017-Aug-13 04:57N 31°23' E 121°30'973023.6
2017-Aug-13 04:55N 29°55' E 122°17'9870433.3
2017-Aug-13 04:55N 31°25' E 121°32'9337.6
2017-Aug-13 04:54N 31°20' E 121°40'91050.4
2017-Aug-13 04:53N 31°23' E 121°30'457.3
2017-Aug-13 04:49N 31°24' E 121°35'4503.7
2017-Aug-13 04:48N 31°20' E 121°32'722.7
2017-Aug-13 04:30N 31°20' E 121°40'104436.7
2017-Aug-13 04:30N 31°22' E 121°29'22745.4
2017-Aug-13 04:30N 31°24' E 121°31'81101.9
2017-Aug-13 04:30N 31°29' E 121°25'66087967.9
2017-Aug-13 04:29N 23°06' E 113°25'650585161.8
2017-Aug-13 04:29N 31°58' E 120°26'15369033.5
2017-Aug-13 04:29N 29°57' E 122°15'9414130.8
2017-Aug-13 04:29N 31°24' E 121°35'7521.8
2017-Aug-13 04:28N 31°19' E 121°41'85887.5
2017-Aug-13 04:28N 31°21' E 121°31'8260.0
2017-Aug-13 04:26N 31°19' E 121°41'7720.2
2017-Aug-13 04:25N 31°23' E 121°34'4299.3
2017-Aug-13 04:25N 31°23' E 121°30'326.0
2017-Aug-13 04:18N 31°25' E 121°32'846.8
2017-Aug-13 04:08N 31°30' E 121°25'861.3
2017-Aug-13 04:00N 31°23' E 121°30'41584.4
2017-Aug-13 04:00N 31°24' E 121°35'67525.1
2017-Aug-13 04:00N 31°20' E 121°40'6755.8
2017-Aug-13 04:00N 31°23' E 121°34'66012780.0
2017-Aug-13 03:56N 23°06' E 113°25'6579980.2
2017-Aug-13 03:53N 31°22' E 121°30'101181.7
2017-Aug-13 03:52N 31°19' E 121°41'9755.3
2017-Aug-13 03:51N 31°25' E 121°32'3170.1
2017-Aug-13 03:50N 31°23' E 121°30'8189.1
2017-Aug-13 03:48N 31°30' E 121°25'528.6
2017-Aug-13 03:37N 31°26' E 121°29'1199.1
2017-Aug-13 03:30N 31°20' E 121°40'92940.6
2017-Aug-13 03:30N 31°24' E 121°31'31381.2
2017-Aug-13 03:30N 31°23' E 121°34'0 8.4
2017-Aug-13 03:30N 31°23' E 121°34'4149.6
2017-Aug-13 03:28N 31°23' E 121°30'1035729.4
2017-Aug-13 03:28N 31°19' E 121°41'91133.4
2017-Aug-13 03:28N 31°25' E 121°32'66156648.3
2017-Aug-13 03:27N 23°06' E 113°25'65834826.2
2017-Aug-13 03:26N 31°23' E 121°30'10280.0
2017-Aug-13 03:24N 31°19' E 121°41'17542.9
2017-Aug-13 03:22N 31°30' E 121°25'582284.6
2017-Aug-13 03:20N 31°58' E 120°26'65017850.6
2017-Aug-13 03:18N 23°04' E 113°29'413.0
2017-Aug-13 03:00N 23°06' E 113°25'66266167.1
2017-Aug-13 03:00N 31°19' E 121°41'7192.3
2017-Aug-13 02:58N 31°23' E 121°34'10488.9
2017-Aug-13 02:57N 31°30' E 121°25'8159.4
2017-Aug-13 02:54N 31°24' E 121°31'6510180.1
2017-Aug-13 02:53N 31°58' E 120°26'6517962.6
2017-Aug-13 02:53N 31°23' E 121°30'65778816.4
2017-Aug-13 02:53N 23°04' E 113°29'66069869.3
2017-Aug-13 02:52N 31°25' E 121°32'10329.0
2017-Aug-13 02:50N 31°19' E 121°41'7129.3
2017-Aug-13 02:47N 31°23' E 121°34'6625.2
2017-Aug-13 02:47N 31°20' E 121°40'0 0.0
2017-Aug-13 02:30N 31°20' E 121°40'63226.2
2017-Aug-13 02:30N 31°23' E 121°34'101204.6
2017-Aug-13 02:30N 31°30' E 121°25'660148511.4
2017-Aug-13 02:29N 23°06' E 113°25'4284.1
2017-Aug-13 02:29N 23°04' E 113°29'66038316.2
2017-Aug-13 02:28N 31°25' E 121°32'3156.3
2017-Aug-13 02:26N 31°23' E 121°34'3223.1
2017-Aug-13 02:26N 31°24' E 121°31'2156.3
2017-Aug-13 02:25N 31°23' E 121°30'10677.0
2017-Aug-13 02:24N 31°19' E 121°41'50431277.5
2017-Aug-13 02:23N 39°05' E 117°45'50412959.3
2017-Aug-13 02:21N 31°19' E 121°41'1780.8
2017-Aug-13 02:08N 31°29' E 121°25'16124.9
2017-Aug-13 02:00N 31°20' E 121°40'61183.3
2017-Aug-13 02:00N 31°23' E 121°34'660339566.1
2017-Aug-13 02:00N 23°06' E 113°25'65847363.0
2017-Aug-13 01:59N 31°23' E 121°30'4195.3
2017-Aug-13 01:58N 31°24' E 121°34'7380.9
2017-Aug-13 01:57N 31°19' E 121°41'0 4.3
2017-Aug-13 01:56N 31°19' E 121°41'66112322.5
2017-Aug-13 01:53N 23°04' E 113°29'6507151.8
2017-Aug-13 01:47N 31°58' E 120°26'65611.0
2017-Aug-13 01:41N 31°24' E 121°31'6646017.0
2017-Aug-13 01:34N 22°54' E 113°34'66554410.8
2017-Aug-13 01:33N 31°25' E 121°32'66113366.4
2017-Aug-13 01:31N 23°06' E 113°25'662595500.4
2017-Aug-13 01:30N 31°19' E 121°41'1208.2
2017-Aug-13 01:30N 31°20' E 121°40'91257.3
2017-Aug-13 01:30N 31°24' E 121°31'347.5
2017-Aug-13 01:26N 31°23' E 121°34'66462879.4
2017-Aug-13 01:25N 22°55' E 113°34'661198399.0
2017-Aug-13 01:25N 31°23' E 121°30'4102.6
2017-Aug-13 01:23N 31°24' E 121°34'7116.8
2017-Aug-13 01:19N 31°19' E 121°41'66117881.5
2017-Aug-13 01:17N 23°04' E 113°29'66010947.4
2017-Aug-13 01:13N 31°25' E 121°32'940.8
2017-Aug-13 01:00N 31°20' E 121°40'66279420.0
2017-Aug-13 01:00N 23°06' E 113°25'661125293.8
2017-Aug-13 01:00N 31°24' E 121°34'663103848.5
2017-Aug-13 00:59N 22°57' E 113°33'662108401.3
2017-Aug-13 00:59N 31°23' E 121°34'72660.9
2017-Aug-13 00:59N 31°19' E 121°41'102407.0
2017-Aug-13 00:58N 31°23' E 121°30'8758.7
2017-Aug-13 00:58N 31°30' E 121°25'8133.3
2017-Aug-13 00:54N 31°25' E 121°32'987.7
2017-Aug-13 00:48N 31°19' E 121°41'412.9
2017-Aug-13 00:30N 31°22' E 121°38'4511.2
2017-Aug-13 00:30N 31°23' E 121°34'66079227.4
2017-Aug-13 00:29N 23°06' E 113°25'66172097.8
2017-Aug-13 00:29N 31°25' E 121°32'256.6
2017-Aug-13 00:27N 31°24' E 121°34'4319.5
2017-Aug-13 00:26N 31°23' E 121°30'103609.8
2017-Aug-13 00:26N 31°19' E 121°41'6618183.1
2017-Aug-13 00:21N 23°02' E 113°31'66119049.4
2017-Aug-13 00:19N 31°19' E 121°41'661475631.8
2017-Aug-13 00:19N 23°04' E 113°29'6673903.7
2017-Aug-13 00:09N 31°23' E 121°47'0 0.0
2017-Aug-13 00:00N 31°23' E 121°47'1526834.1
2017-Aug-13 00:00N 31°23' E 121°30'71175.7
2017-Aug-13 00:00N 31°22' E 121°38'66231796.0
2017-Aug-12 23:59N 23°06' E 113°25'662595484.6
2017-Aug-12 23:59N 31°19' E 121°41'7370.9
2017-Aug-12 23:57N 31°24' E 121°34'2435.9
2017-Aug-12 23:57N 31°25' E 121°32'3219.1
2017-Aug-12 23:56N 31°23' E 121°34'11111.2
2017-Aug-12 23:51N 31°30' E 121°25'17149.0
2017-Aug-12 23:44N 31°19' E 121°41'6613041.2
2017-Aug-12 23:31N 23°04' E 113°29'661125316.5
2017-Aug-12 23:30N 31°22' E 121°38'83482.3
2017-Aug-12 23:30N 31°23' E 121°47'15386.1
2017-Aug-12 23:28N 31°23' E 121°30'3738.2
2017-Aug-12 23:28N 31°25' E 121°32'661132179.3
2017-Aug-12 23:27N 23°06' E 113°25'66028297.0
2017-Aug-12 23:26N 31°23' E 121°34'7380.0
2017-Aug-12 23:25N 31°19' E 121°41'7896.3
2017-Aug-12 23:24N 31°24' E 121°34'67010128.4
2017-Aug-12 23:21N 22°55' E 113°26'10126.6
2017-Aug-12 23:16N 23°04' E 113°29'6672615.2
2017-Aug-12 23:00N 31°23' E 121°47'89286.1
2017-Aug-12 23:00N 31°22' E 121°38'41553.1
2017-Aug-12 23:00N 31°24' E 121°34'2127.4
2017-Aug-12 22:59N 31°25' E 121°32'31845.5
2017-Aug-12 22:59N 31°23' E 121°30'101121.9
2017-Aug-12 22:59N 31°19' E 121°41'7417.0
2017-Aug-12 22:58N 31°23' E 121°34'66011538.7
2017-Aug-12 22:54N 23°06' E 113°25'425.6
2017-Aug-12 22:45N 23°04' E 113°29'6612618.6
2017-Aug-12 22:30N 31°17' E 121°45'82714.7
2017-Aug-12 22:30N 31°22' E 121°38'4969.8
2017-Aug-12 22:30N 31°23' E 121°34'66021223.9
2017-Aug-12 22:28N 23°06' E 113°25'66119993.5
2017-Aug-12 22:26N 31°25' E 121°32'3246.4
2017-Aug-12 22:25N 31°23' E 121°30'10212.5
2017-Aug-12 22:22N 31°19' E 121°41'797.1
2017-Aug-12 22:18N 31°24' E 121°34'413.4
2017-Aug-12 22:01N 31°22' E 121°38'71474.7
2017-Aug-12 22:00N 31°17' E 121°44'22689.7
2017-Aug-12 22:00N 31°18' E 121°42'66221466.2
2017-Aug-12 21:58N 23°06' E 113°25'66148553.4
2017-Aug-12 21:58N 31°25' E 121°32'343.0
2017-Aug-12 21:53N 31°23' E 121°34'1255.0
2017-Aug-12 21:53N 31°24' E 121°34'490.4
2017-Aug-12 21:50N 31°23' E 121°30'8706.9
2017-Aug-12 21:50N 31°29' E 121°25'0 1.2
2017-Aug-12 21:43N 31°29' E 121°25'1362.3
2017-Aug-12 21:30N 31°22' E 121°38'133189.6
2017-Aug-12 21:30N 31°29' E 121°25'211907.7
2017-Aug-12 21:29N 31°17' E 121°45'66299351.9
2017-Aug-12 21:29N 23°06' E 113°25'66113298.7
2017-Aug-12 21:26N 31°24' E 121°34'4187.9
2017-Aug-12 21:25N 31°23' E 121°30'4718.4
2017-Aug-12 21:24N 31°23' E 121°34'111148.0
2017-Aug-12 21:24N 31°29' E 121°25'8104.6
2017-Aug-12 21:19N 31°25' E 121°32'9608.1
2017-Aug-12 21:18N 31°19' E 121°41'412.8
2017-Aug-12 21:01N 31°22' E 121°38'7464.8
2017-Aug-12 21:00N 31°18' E 121°44'662148999.9
2017-Aug-12 20:59N 23°06' E 113°25'66024735.3
2017-Aug-12 20:58N 31°29' E 121°25'10458.9
2017-Aug-12 20:57N 31°24' E 121°34'44697.8
2017-Aug-12 20:56N 31°23' E 121°30'101994.6
2017-Aug-12 20:56N 31°19' E 121°41'71191.5
2017-Aug-12 20:56N 31°24' E 121°35'338.9
2017-Aug-12 20:52N 31°25' E 121°32'6603985.8
2017-Aug-12 20:42N 23°04' E 113°29'6173877.6
2017-Aug-12 20:32N 30°02' E 121°57'822942.0
2017-Aug-12 20:30N 31°22' E 121°38'661216449.6
2017-Aug-12 20:30N 23°04' E 113°29'61776610.5
2017-Aug-12 20:30N 30°02' E 121°57'79141350.1
2017-Aug-12 20:30N 31°19' E 121°41'17528.4
2017-Aug-12 20:28N 31°29' E 121°25'66024735.2
2017-Aug-12 20:26N 23°06' E 113°25'658131552.7
2017-Aug-12 20:26N 31°23' E 121°30'450.9
2017-Aug-12 20:21N 31°24' E 121°34'8415.6
2017-Aug-12 20:20N 31°19' E 121°41'7161.0
2017-Aug-12 20:18N 31°24' E 121°35'350.8
2017-Aug-12 20:14N 31°25' E 121°32'625.5
2017-Aug-12 20:00N 31°22' E 121°38'6242.7
2017-Aug-12 19:59N 31°18' E 121°44'80143342.4
2017-Aug-12 19:59N 29°59' E 121°59'61724129.8
2017-Aug-12 19:57N 23°04' E 113°29'4443.8
2017-Aug-12 19:57N 23°06' E 113°25'66220892.7
2017-Aug-12 19:55N 31°19' E 121°41'7354.5
2017-Aug-12 19:54N 31°24' E 121°35'137.8
2017-Aug-12 19:52N 31°24' E 121°34'471.0
2017-Aug-12 19:49N 31°23' E 121°30'722.9
2017-Aug-12 19:31N 31°22' E 121°38'86980.0
2017-Aug-12 19:30N 31°17' E 121°45'13140.8
2017-Aug-12 19:25N 31°14' E 121°30'9532.0
2017-Aug-12 19:24N 31°23' E 121°30'658147997.7
2017-Aug-12 19:24N 23°06' E 113°25'4170.7
2017-Aug-12 19:22N 23°04' E 113°29'66091421.7
2017-Aug-12 19:22N 31°24' E 121°34'1279.9
2017-Aug-12 19:22N 31°24' E 121°35'7790.3
2017-Aug-12 19:21N 31°19' E 121°41'10676.2
2017-Aug-12 19:20N 31°25' E 121°32'6683885.9
2017-Aug-12 19:10N 22°54' E 113°28'6694160.2
2017-Aug-12 19:00N 31°18' E 121°44'72657.4
2017-Aug-12 19:00N 31°22' E 121°38'725488.1
2017-Aug-12 19:00N 31°17' E 121°44'662264910.6
2017-Aug-12 19:00N 23°06' E 113°25'65847359.3
2017-Aug-12 18:59N 31°23' E 121°30'5505.1
2017-Aug-12 18:59N 31°24' E 121°35'6699668.7
2017-Aug-12 18:54N 22°54' E 113°30'66825578.8
2017-Aug-12 18:53N 31°40' E 121°12'66037111.4
2017-Aug-12 18:52N 23°04' E 113°29'660169682.5
2017-Aug-12 18:52N 31°25' E 121°32'241.9
2017-Aug-12 18:49N 31°24' E 121°34'28375.2
2017-Aug-12 18:44N 31°42' E 121°09'1983.7
2017-Aug-12 18:31N 31°29' E 121°25'660339225.0
2017-Aug-12 18:31N 23°06' E 113°25'6621192201.5
2017-Aug-12 18:31N 31°22' E 121°38'89368.0
2017-Aug-12 18:30N 31°17' E 121°45'3638.0
2017-Aug-12 18:30N 31°19' E 121°42'82035.7
2017-Aug-12 18:30N 31°24' E 121°35'196.6
2017-Aug-12 18:29N 31°24' E 121°34'264080.8
2017-Aug-12 18:29N 31°41' E 121°11'24541.9
2017-Aug-12 18:26N 31°23' E 121°30'65714330.9
2017-Aug-12 18:24N 23°04' E 113°29'66011937.5
2017-Aug-12 18:20N 31°25' E 121°32'730.0
2017-Aug-12 18:05N 31°29' E 121°25'66711021.0
2017-Aug-12 18:02N 22°55' E 113°27'67032591.9
2017-Aug-12 18:00N 31°22' E 121°38'662298050.4
2017-Aug-12 18:00N 23°06' E 113°25'661237878.6
2017-Aug-12 18:00N 31°39' E 121°15'325794.0
2017-Aug-12 18:00N 31°18' E 121°43'207030.6
2017-Aug-12 18:00N 31°29' E 121°25'17293.3
2017-Aug-12 17:56N 31°19' E 121°41'7167.7
2017-Aug-12 17:54N 31°24' E 121°35'1311.0
2017-Aug-12 17:54N 31°24' E 121°34'4993.7
2017-Aug-12 17:53N 31°23' E 121°30'3261.3
2017-Aug-12 17:53N 31°25' E 121°32'520.8
2017-Aug-12 17:39N 31°21' E 121°32'20165.2
2017-Aug-12 17:32N 31°36' E 121°18'27857.4
2017-Aug-12 17:30N 31°19' E 121°42'53277.7
2017-Aug-12 17:30N 31°22' E 121°38'221305.9
2017-Aug-12 17:29N 31°36' E 121°18'191190.2
2017-Aug-12 17:28N 31°24' E 121°35'180.1
2017-Aug-12 17:28N 31°24' E 121°34'66135527.6
2017-Aug-12 17:26N 23°06' E 113°25'65836999.4
2017-Aug-12 17:25N 31°23' E 121°30'2124.4
2017-Aug-12 17:25N 31°21' E 121°30'9357.5
2017-Aug-12 17:23N 31°19' E 121°41'86297.2
2017-Aug-12 17:06N 29°56' E 122°04'89969.4
2017-Aug-12 17:00N 31°22' E 121°38'662216763.9
2017-Aug-12 17:00N 23°06' E 113°25'6601187860.1
2017-Aug-12 17:00N 31°34' E 121°20'141772.9
2017-Aug-12 17:00N 31°24' E 121°31'658473608.9
2017-Aug-12 16:59N 23°04' E 113°29'65914372.8
2017-Aug-12 16:57N 31°29' E 121°25'171794.1
2017-Aug-12 16:56N 31°19' E 121°41'71050.9
2017-Aug-12 16:56N 31°24' E 121°35'934781.8
2017-Aug-12 16:55N 29°55' E 122°07'936088.9
2017-Aug-12 16:54N 31°23' E 121°30'4355.6
2017-Aug-12 16:53N 31°24' E 121°34'14227.2
2017-Aug-12 16:49N 31°32' E 121°22'21278.8
2017-Aug-12 16:45N 31°19' E 121°41'733.3
2017-Aug-12 16:31N 31°24' E 121°34'4245.7
2017-Aug-12 16:30N 31°22' E 121°38'76624.8
2017-Aug-12 16:30N 31°25' E 121°30'81057.9
2017-Aug-12 16:30N 31°31' E 121°24'101419.6
2017-Aug-12 16:30N 31°24' E 121°32'9311.4
2017-Aug-12 16:28N 31°19' E 121°41'7515.3
2017-Aug-12 16:27N 31°24' E 121°35'662397095.7
2017-Aug-12 16:27N 23°06' E 113°25'62142986.5
2017-Aug-12 16:26N 29°53' E 122°10'1166240.2
2017-Aug-12 16:25N 31°38' E 121°14'134722.7
2017-Aug-12 16:25N 31°29' E 121°25'1710085.3
2017-Aug-12 16:25N 31°19' E 121°41'92011.0
2017-Aug-12 16:24N 31°25' E 121°32'2199.3
2017-Aug-12 16:24N 31°24' E 121°34'6611663.4
2017-Aug-12 16:00N 23°06' E 113°25'658182149.8
2017-Aug-12 16:00N 31°23' E 121°30'1224.6
2017-Aug-12 15:59N 31°22' E 121°30'9383791.8
2017-Aug-12 15:59N 29°55' E 122°08'8810531.4
2017-Aug-12 15:59N 31°19' E 121°41'172059.8
2017-Aug-12 15:58N 31°30' E 121°25'3738.0
2017-Aug-12 15:58N 31°27' E 121°28'7671.0
2017-Aug-12 15:58N 31°24' E 121°34'154.6
2017-Aug-12 15:57N 31°24' E 121°35'398.2
2017-Aug-12 15:55N 31°22' E 121°38'634.6
2017-Aug-12 15:44N 31°25' E 121°32'10903.4
2017-Aug-12 15:44N 31°19' E 121°41'1043.7
2017-Aug-12 15:30N 31°23' E 121°30'10622.6
2017-Aug-12 15:29N 31°19' E 121°41'7642.2
2017-Aug-12 15:28N 31°24' E 121°35'662125400.3
2017-Aug-12 15:28N 23°06' E 113°25'66185016.9
2017-Aug-12 15:28N 31°24' E 121°34'90920.8
2017-Aug-12 15:22N 29°58' E 122°03'9686493.3
2017-Aug-12 15:22N 31°29' E 121°27'1140655.7
2017-Aug-12 15:22N 31°22' E 121°38'66114174.5
2017-Aug-12 15:19N 23°04' E 113°29'65921560.1
2017-Aug-12 15:17N 31°29' E 121°25'14273.5
2017-Aug-12 15:14N 31°40' E 121°14'312019.7
2017-Aug-12 15:13N 31°19' E 121°41'66125573.7
2017-Aug-12 15:11N 23°04' E 113°29'65926367.4
2017-Aug-12 15:10N 31°30' E 121°25'1484.1
2017-Aug-12 15:00N 31°22' E 121°38'141745.6
2017-Aug-12 15:00N 31°30' E 121°25'659296687.8
2017-Aug-12 15:00N 23°03' E 113°30'660215864.7
2017-Aug-12 14:59N 31°28' E 121°28'6367.2
2017-Aug-12 14:58N 31°24' E 121°34'7273.7
2017-Aug-12 14:57N 31°19' E 121°41'0 0.0
2017-Aug-12 14:57N 31°19' E 121°41'661113254.8
2017-Aug-12 14:56N 23°04' E 113°29'65717518.4
2017-Aug-12 14:54N 31°23' E 121°30'52063.8
2017-Aug-12 14:54N 31°24' E 121°35'66214267.0
2017-Aug-12 14:51N 23°06' E 113°25'6618147.0
2017-Aug-12 14:46N 31°25' E 121°32'213342.3
2017-Aug-12 14:46N 31°40' E 121°14'2282.7
2017-Aug-12 14:30N 31°23' E 121°30'101715.9
2017-Aug-12 14:30N 31°19' E 121°41'7923.8
2017-Aug-12 14:29N 31°24' E 121°34'661140023.2
2017-Aug-12 14:29N 23°06' E 113°25'66057970.0
2017-Aug-12 14:28N 31°26' E 121°30'21157.3
2017-Aug-12 14:28N 31°25' E 121°32'81144.5
2017-Aug-12 14:28N 31°30' E 121°25'103710.5
2017-Aug-12 14:28N 31°24' E 121°35'7250.0
2017-Aug-12 14:26N 31°19' E 121°41'30251.2
2017-Aug-12 14:19N 31°39' E 121°14'6603700.4
2017-Aug-12 14:08N 23°04' E 113°29'6595246.6
2017-Aug-12 14:01N 31°29' E 121°25'71405.0
2017-Aug-12 14:00N 31°25' E 121°31'192990.5
2017-Aug-12 14:00N 31°38' E 121°15'123236.0
2017-Aug-12 14:00N 31°30' E 121°25'660475259.0
2017-Aug-12 14:00N 23°06' E 113°25'4483.9
2017-Aug-12 13:59N 23°04' E 113°29'660182879.5
2017-Aug-12 13:59N 31°24' E 121°35'7203.2
2017-Aug-12 13:57N 31°19' E 121°41'71217.8
2017-Aug-12 13:57N 31°24' E 121°34'484.8
2017-Aug-12 13:54N 31°23' E 121°30'10131.5
2017-Aug-12 13:49N 31°19' E 121°41'6622078.5
2017-Aug-12 13:30N 23°06' E 113°25'660198024.6
2017-Aug-12 13:30N 31°30' E 121°25'74868.8
2017-Aug-12 13:30N 31°25' E 121°31'16643.7
2017-Aug-12 13:28N 31°37' E 121°17'27652.1
2017-Aug-12 13:26N 31°19' E 121°41'71217.8
2017-Aug-12 13:26N 31°24' E 121°34'41527.3
2017-Aug-12 13:25N 31°23' E 121°30'101385.9
2017-Aug-12 13:25N 31°19' E 121°41'4205.5
2017-Aug-12 13:24N 31°22' E 121°38'6151.6
2017-Aug-12 13:22N 31°25' E 121°32'4584.2
2017-Aug-12 13:21N 31°21' E 121°31'1034.8
2017-Aug-12 13:04N 31°29' E 121°25'247.4
2017-Aug-12 13:01N 31°28' E 121°27'9802.6
2017-Aug-12 13:00N 31°23' E 121°36'194630.1
2017-Aug-12 13:00N 31°35' E 121°19'257437.6
2017-Aug-12 12:59N 31°19' E 121°41'66235028.5
2017-Aug-12 12:58N 23°06' E 113°25'66279397.5
2017-Aug-12 12:58N 31°19' E 121°41'172835.1
2017-Aug-12 12:57N 31°29' E 121°24'8264.0
2017-Aug-12 12:56N 31°23' E 121°30'733.8
2017-Aug-12 12:43N 31°17' E 121°34'71414.3
2017-Aug-12 12:43N 31°24' E 121°34'10330.3
2017-Aug-12 12:41N 31°30' E 121°25'630.3
2017-Aug-12 12:30N 31°33' E 121°20'660237537.8
2017-Aug-12 12:30N 23°06' E 113°25'65940211.5
2017-Aug-12 12:29N 31°30' E 121°23'155.5
2017-Aug-12 12:28N 31°31' E 121°22'133221.7
2017-Aug-12 12:27N 31°24' E 121°34'4755.4
2017-Aug-12 12:27N 31°23' E 121°30'3110.7
2017-Aug-12 12:26N 31°25' E 121°30'6599881.5
2017-Aug-12 12:22N 23°04' E 113°29'66117617.4
2017-Aug-12 12:20N 31°19' E 121°41'0 0.0
2017-Aug-12 12:19N 31°19' E 121°41'20525.1
2017-Aug-12 12:16N 31°31' E 121°21'18457.7
2017-Aug-12 12:14N 31°15' E 121°30'16397.2
2017-Aug-12 12:12N 31°30' E 121°25'211.2
2017-Aug-12 12:00N 31°28' E 121°26'85407.0
2017-Aug-12 12:00N 31°33' E 121°20'1845.9
2017-Aug-12 12:00N 31°32' E 121°20'2415.3
2017-Aug-12 12:00N 31°32' E 121°22'131731.5
2017-Aug-12 12:00N 31°21' E 121°31'154956.6
2017-Aug-12 11:59N 31°33' E 121°20'2320398.1
2017-Aug-12 11:59N 31°19' E 121°41'66268055.0
2017-Aug-12 11:59N 23°06' E 113°25'66116303.4
2017-Aug-12 11:56N 31°24' E 121°34'7137.5
2017-Aug-12 11:53N 31°19' E 121°41'101162.4
2017-Aug-12 11:53N 31°23' E 121°30'8648.3
2017-Aug-12 11:52N 31°30' E 121°25'65919451.9
2017-Aug-12 11:50N 23°04' E 113°29'6603972.5
2017-Aug-12 11:40N 31°25' E 121°32'212.8
2017-Aug-12 11:30N 31°24' E 121°34'41375.2
2017-Aug-12 11:30N 31°23' E 121°30'101109.6
2017-Aug-12 11:29N 31°31' E 121°22'203778.6
2017-Aug-12 11:29N 31°19' E 121°41'171143.5
2017-Aug-12 11:28N 31°30' E 121°25'1200.5
2017-Aug-12 11:28N 31°30' E 121°25'9422.8
2017-Aug-12 11:27N 31°36' E 121°17'66039606.0
2017-Aug-12 11:26N 23°06' E 113°25'66064198.1
2017-Aug-12 11:25N 31°35' E 121°17'26701.0
2017-Aug-12 11:23N 31°19' E 121°41'6612378349.8
2017-Aug-12 11:23N 23°04' E 113°29'656102720.8
2017-Aug-12 11:22N 31°21' E 121°31'422.2
2017-Aug-12 11:11N 31°25' E 121°32'4954779.8
2017-Aug-12 11:05N 39°05' E 117°46'4965736.5
2017-Aug-12 11:00N 31°25' E 121°32'42711.5
2017-Aug-12 11:00N 31°21' E 121°31'232085.2
2017-Aug-12 10:59N 31°39' E 121°14'660792544.0
2017-Aug-12 10:59N 23°06' E 113°25'660182642.2
2017-Aug-12 10:59N 31°34' E 121°18'17943.3
2017-Aug-12 10:58N 31°24' E 121°34'203062.6
2017-Aug-12 10:57N 31°37' E 121°16'121351.4
2017-Aug-12 10:57N 31°28' E 121°25'71197.4
2017-Aug-12 10:57N 31°23' E 121°30'10208.1
2017-Aug-12 10:54N 31°19' E 121°41'0 2.0
2017-Aug-12 10:52N 31°19' E 121°41'6617455.5
2017-Aug-12 10:47N 23°04' E 113°29'65911196.3
2017-Aug-12 10:43N 31°38' E 121°15'1553976.5
2017-Aug-12 10:43N 31°28' E 121°28'72375.5
2017-Aug-12 10:32N 31°57' E 120°10'763842.9
2017-Aug-12 10:30N 31°23' E 121°30'43459.7
2017-Aug-12 10:30N 31°27' E 121°29'142225.4
2017-Aug-12 10:30N 31°19' E 121°42'299525.7
2017-Aug-12 10:30N 31°37' E 121°16'191125.4
2017-Aug-12 10:29N 31°22' E 121°30'7507.1
2017-Aug-12 10:28N 31°28' E 121°25'144966.9
2017-Aug-12 10:28N 31°38' E 121°14'1311520.5
2017-Aug-12 10:28N 31°29' E 121°25'9588.5
2017-Aug-12 10:27N 31°24' E 121°34'66147606.6
2017-Aug-12 10:26N 23°06' E 113°25'64118605.8
2017-Aug-12 10:24N 31°57' E 120°10'561516.8
2017-Aug-12 10:22N 31°39' E 121°13'311174.9
2017-Aug-12 10:20N 31°19' E 121°41'966.0
2017-Aug-12 10:12N 31°21' E 121°31'1 7.6
2017-Aug-12 10:01N 31°22' E 121°30'149836.3
2017-Aug-12 10:00N 31°17' E 121°45'3412088.2
2017-Aug-12 10:00N 31°38' E 121°14'660475239.5
2017-Aug-12 10:00N 23°06' E 113°25'660103322.6
2017-Aug-12 10:00N 31°25' E 121°32'264.0
2017-Aug-12 09:58N 31°24' E 121°34'4372.0
2017-Aug-12 09:57N 31°23' E 121°30'71088.5
2017-Aug-12 09:57N 31°28' E 121°25'16502.9
2017-Aug-12 09:55N 31°19' E 121°41'321850.1
2017-Aug-12 09:54N 31°40' E 121°12'151921.9
2017-Aug-12 09:53N 31°29' E 121°25'16146.0
2017-Aug-12 09:47N 31°40' E 121°11'547514.2
2017-Aug-12 09:46N 31°57' E 120°10'79301.1
2017-Aug-12 09:31N 31°24' E 121°34'1113181.0
2017-Aug-12 09:30N 31°17' E 121°44'662216720.0
2017-Aug-12 09:30N 23°06' E 113°25'64159156.5
2017-Aug-12 09:30N 31°57' E 120°10'5734337.3
2017-Aug-12 09:30N 31°38' E 121°14'217518.4
2017-Aug-12 09:29N 31°22' E 121°30'7626.6
2017-Aug-12 09:29N 31°28' E 121°25'712028.5
2017-Aug-12 09:29N 31°23' E 121°30'4198.5
2017-Aug-12 09:28N 31°23' E 121°34'28209.0
2017-Aug-12 09:20N 31°41' E 121°10'1788.5
2017-Aug-12 09:08N 31°29' E 121°25'13107.5
2017-Aug-12 09:01N 31°38' E 121°14'344560.0
2017-Aug-12 09:00N 31°17' E 121°45'4493.8
2017-Aug-12 09:00N 31°19' E 121°41'66227383.2
2017-Aug-12 08:58N 23°06' E 113°25'4158.3
2017-Aug-12 08:57N 23°04' E 113°29'65715160.1
2017-Aug-12 08:54N 31°23' E 121°30'71002.4
2017-Aug-12 08:54N 31°28' E 121°25'9635.6
2017-Aug-12 08:53N 31°24' E 121°34'4297.5
2017-Aug-12 08:52N 31°21' E 121°31'113.2
2017-Aug-12 08:45N 31°22' E 121°30'8833.5
2017-Aug-12 08:45N 31°29' E 121°25'21109.1
2017-Aug-12 08:33N 31°09' E 121°27'32930.9
2017-Aug-12 08:31N 31°38' E 121°14'301512.0
2017-Aug-12 08:30N 31°19' E 121°41'3391.1
2017-Aug-12 08:30N 31°17' E 121°44'66241083.7
2017-Aug-12 08:29N 23°06' E 113°25'66118596.2
2017-Aug-12 08:27N 31°24' E 121°34'10843.2
2017-Aug-12 08:26N 31°29' E 121°25'8161.8
2017-Aug-12 08:23N 31°23' E 121°30'205676.6
2017-Aug-12 08:23N 31°38' E 121°14'221362.2
2017-Aug-12 08:22N 31°21' E 121°31'1236.6
2017-Aug-12 08:21N 31°22' E 121°30'7171.3
2017-Aug-12 08:19N 31°28' E 121°25'192029.0
2017-Aug-12 08:18N 31°10' E 121°28'1474.0
2017-Aug-12 08:07N 31°23' E 121°34'231313.1
2017-Aug-12 08:06N 31°38' E 121°14'30305.8
2017-Aug-12 08:00N 31°19' E 121°41'172961.4
2017-Aug-12 08:00N 31°29' E 121°25'10224.4
2017-Aug-12 07:57N 31°24' E 121°34'147071.6
2017-Aug-12 07:57N 31°11' E 121°28'131670.8
2017-Aug-12 07:56N 31°23' E 121°34'234935.4
2017-Aug-12 07:56N 31°38' E 121°14'202049.4
2017-Aug-12 07:56N 31°23' E 121°30'1172.3
2017-Aug-12 07:55N 31°22' E 121°30'28787.4
2017-Aug-12 07:53N 31°43' E 121°07'372278.0
2017-Aug-12 07:52N 31°19' E 121°41'662140106.5
2017-Aug-12 07:52N 23°06' E 113°25'65979095.3
2017-Aug-12 07:51N 31°28' E 121°25'6587094.6
2017-Aug-12 07:46N 23°04' E 113°29'659197775.9
2017-Aug-12 07:46N 31°38' E 121°14'571870.5
2017-Aug-12 07:44N 31°57' E 120°10'6412841.3
2017-Aug-12 07:30N 23°06' E 113°25'65712999.9
2017-Aug-12 07:27N 31°21' E 121°31'229.2
2017-Aug-12 07:23N 31°23' E 121°30'4271.9
2017-Aug-12 07:22N 31°24' E 121°34'66029711.2
2017-Aug-12 07:21N 23°04' E 113°29'65080694.3
2017-Aug-12 07:21N 31°13' E 121°30'11365.8
2017-Aug-12 07:19N 31°19' E 121°41'10194.0
2017-Aug-12 07:16N 31°22' E 121°30'211475.6
2017-Aug-12 07:15N 31°38' E 121°14'23358.3
2017-Aug-12 07:11N 31°23' E 121°34'1098.8
2017-Aug-12 07:05N 31°14' E 121°30'374748.4
2017-Aug-12 07:05N 31°44' E 121°06'6609175.2
2017-Aug-12 07:00N 23°06' E 113°25'66095055.7
2017-Aug-12 07:00N 31°38' E 121°14'21756.8
2017-Aug-12 06:58N 31°24' E 121°31'3162.4
2017-Aug-12 06:57N 31°23' E 121°34'41926.5
2017-Aug-12 06:57N 31°23' E 121°30'4152.8
2017-Aug-12 06:55N 31°24' E 121°34'9203.5
2017-Aug-12 06:53N 31°28' E 121°25'145167.3
2017-Aug-12 06:53N 31°14' E 121°29'11243.2
2017-Aug-12 06:50N 31°19' E 121°41'17418.7
2017-Aug-12 06:48N 31°29' E 121°25'69284.5
2017-Aug-12 06:33N 31°57' E 120°10'64113259.8
2017-Aug-12 06:30N 23°06' E 113°25'660475421.4
2017-Aug-12 06:30N 31°23' E 121°34'102640.3
2017-Aug-12 06:30N 31°28' E 121°25'71504.6
2017-Aug-12 06:30N 31°23' E 121°30'84062.4
2017-Aug-12 06:29N 31°15' E 121°32'9624.2
2017-Aug-12 06:29N 31°24' E 121°34'782683.4
2017-Aug-12 06:27N 31°57' E 120°11'6454730.1
2017-Aug-12 06:19N 23°02' E 113°24'658157837.0
2017-Aug-12 06:18N 31°15' E 121°32'32825.5
2017-Aug-12 06:16N 31°42' E 121°11'48451289.1
2017-Aug-12 06:15N 24°07' E 118°03'4742412.4
2017-Aug-12 06:04N 31°19' E 121°41'667.9
2017-Aug-12 05:58N 31°17' E 121°34'622685.0
2017-Aug-12 05:58N 31°19' E 121°41'7581.6
2017-Aug-12 05:57N 31°23' E 121°34'6919.2
2017-Aug-12 05:57N 31°17' E 121°34'8846.6
2017-Aug-12 05:56N 31°25' E 121°32'2158.1
2017-Aug-12 05:56N 31°24' E 121°34'47646324.6
2017-Aug-12 05:55N 24°06' E 118°03'474170487.5
2017-Aug-12 05:55N 31°23' E 121°30'7545254.0
2017-Aug-12 05:55N 31°57' E 120°11'643289195.6
2017-Aug-12 05:55N 23°04' E 113°25'279.6
2017-Aug-12 05:53N 23°06' E 113°25'6592944.1
2017-Aug-12 05:40N 31°28' E 121°25'0 0.0
2017-Aug-12 05:30N 31°28' E 121°25'107471.1
2017-Aug-12 05:30N 31°24' E 121°36'66182091.2
2017-Aug-12 05:29N 23°05' E 113°28'641209787.8
2017-Aug-12 05:29N 31°57' E 120°11'781479.3
2017-Aug-12 05:26N 31°24' E 121°34'75378.1
2017-Aug-12 05:26N 31°19' E 121°41'1035978.8
2017-Aug-12 05:26N 31°23' E 121°30'485.3
2017-Aug-12 05:23N 31°20' E 121°33'912031.4
2017-Aug-12 05:20N 29°57' E 122°16'961526.0
2017-Aug-12 05:16N 31°25' E 121°32'429.6
2017-Aug-12 05:08N 31°21' E 121°31'325.7
2017-Aug-12 05:01N 31°24' E 121°31'4153.8
2017-Aug-12 05:00N 31°21' E 121°32'12906.1
2017-Aug-12 05:00N 31°21' E 121°31'11304.9
2017-Aug-12 05:00N 31°21' E 121°32'65750343.2
2017-Aug-12 04:59N 23°06' E 113°25'62894171.5
2017-Aug-12 04:59N 29°57' E 122°16'8819891.8
2017-Aug-12 04:59N 31°20' E 121°41'54784.2
2017-Aug-12 04:58N 31°24' E 121°36'5157.7
2017-Aug-12 04:56N 31°23' E 121°30'393.0
2017-Aug-12 04:55N 31°25' E 121°32'7366.5
2017-Aug-12 04:54N 31°28' E 121°25'24382.4
2017-Aug-12 04:50N 31°45' E 121°05'323331.9
2017-Aug-12 04:49N 31°24' E 121°34'271658.4
2017-Aug-12 04:48N 31°42' E 121°11'012.4
2017-Aug-12 04:47N 31°42' E 121°10'48412723.5
2017-Aug-12 04:45N 24°06' E 118°04'4746415.9
2017-Aug-12 04:40N 31°20' E 121°40'91559.1
2017-Aug-12 04:30N 29°54' E 122°14'624204117.1
2017-Aug-12 04:30N 23°04' E 113°29'66159459.9
2017-Aug-12 04:30N 31°20' E 121°39'44877.0
2017-Aug-12 04:29N 31°24' E 121°36'61102.1
2017-Aug-12 04:29N 31°22' E 121°30'7332855.2
2017-Aug-12 04:29N 31°56' E 120°14'736232.8
2017-Aug-12 04:28N 31°23' E 121°30'141.4
2017-Aug-12 04:28N 31°23' E 121°30'291603.4
2017-Aug-12 04:26N 31°45' E 121°06'304135.0
2017-Aug-12 04:26N 31°22' E 121°30'9214.1
2017-Aug-12 04:24N 31°20' E 121°40'6362.6
2017-Aug-12 04:23N 31°24' E 121°34'22805.1
2017-Aug-12 04:21N 31°38' E 121°14'65919614.4
2017-Aug-12 04:19N 23°04' E 113°29'6586476.6
2017-Aug-12 04:13N 31°24' E 121°31'113.4
2017-Aug-12 04:07N 31°25' E 121°32'4764418.1
2017-Aug-12 04:00N 24°06' E 118°03'485134221.3
2017-Aug-12 04:00N 31°57' E 120°15'7223455.2
2017-Aug-12 04:00N 31°25' E 121°31'1382.8
2017-Aug-12 04:00N 31°24' E 121°31'659395260.0
2017-Aug-12 04:00N 23°02' E 113°31'6592371150.9
2017-Aug-12 04:00N 31°23' E 121°31'51121.2
2017-Aug-12 03:59N 31°22' E 121°36'282.2
2017-Aug-12 03:58N 31°21' E 121°38'34708.1
2017-Aug-12 03:58N 31°24' E 121°36'2273.5
2017-Aug-12 03:58N 31°24' E 121°34'232.1
2017-Aug-12 03:54N 31°25' E 121°32'288342.5
2017-Aug-12 03:54N 31°43' E 121°08'47165207.6
2017-Aug-12 03:54N 39°05' E 117°46'98544895.3
2017-Aug-12 03:52N 23°04' E 113°29'65717262.9
2017-Aug-12 03:50N 31°23' E 121°30'133.0
2017-Aug-12 03:47N 31°24' E 121°31'70506.0
2017-Aug-12 03:39N 31°58' E 120°19'47828.3
2017-Aug-12 03:36N 31°42' E 121°10'29341.0
2017-Aug-12 03:31N 31°23' E 121°36'4922.2
2017-Aug-12 03:30N 31°24' E 121°32'100180407.3
2017-Aug-12 03:30N 29°47' E 122°05'101181871.6
2017-Aug-12 03:30N 31°24' E 121°31'661396890.4
2017-Aug-12 03:30N 22°58' E 113°32'662340419.5
2017-Aug-12 03:30N 31°24' E 121°32'2334.4
2017-Aug-12 03:30N 31°23' E 121°34'283814.4
2017-Aug-12 03:29N 31°42' E 121°10'4886231.6
2017-Aug-12 03:29N 31°58' E 120°17'682710.6
2017-Aug-12 03:28N 31°27' E 121°28'677140.3
2017-Aug-12 03:27N 31°57' E 120°17'7316497.6
2017-Aug-12 03:27N 31°24' E 121°34'4508.6
2017-Aug-12 03:26N 31°23' E 121°30'27090.5
2017-Aug-12 03:26N 31°25' E 121°31'65910733.1
2017-Aug-12 03:23N 23°04' E 113°29'2596958.8
2017-Aug-12 03:20N 24°06' E 118°03'4859183.3
2017-Aug-12 03:17N 31°42' E 121°09'1 8.8
2017-Aug-12 03:08N 31°43' E 121°08'20214.3
2017-Aug-12 03:03N 31°29' E 121°25'10234.8
2017-Aug-12 03:00N 31°24' E 121°34'2233.3
2017-Aug-12 03:00N 31°23' E 121°36'10412852.1
2017-Aug-12 03:00N 29°42' E 122°02'10453483.4
2017-Aug-12 02:59N 31°23' E 121°30'735707.3
2017-Aug-12 02:59N 31°56' E 120°14'67121023.6
2017-Aug-12 02:59N 31°28' E 121°26'197.9
2017-Aug-12 02:58N 31°29' E 121°25'71309.8
2017-Aug-12 02:58N 31°24' E 121°31'709033.4
2017-Aug-12 02:57N 31°59' E 120°19'65257252.3
2017-Aug-12 02:56N 22°55' E 113°33'66215773.4
2017-Aug-12 02:54N 31°23' E 121°30'4738784.2
2017-Aug-12 02:51N 24°06' E 118°03'4848983.7
2017-Aug-12 02:47N 31°41' E 121°10'2481.7
2017-Aug-12 02:30N 31°25' E 121°30'7517999.4
2017-Aug-12 02:30N 31°56' E 120°10'7618132.7
2017-Aug-12 02:29N 31°23' E 121°30'9832.8
2017-Aug-12 02:29N 31°30' E 121°23'155450.0
2017-Aug-12 02:29N 31°41' E 121°11'484290301.0
2017-Aug-12 02:29N 24°06' E 118°04'475131510.9
2017-Aug-12 02:28N 31°24' E 121°31'3491.1
2017-Aug-12 02:28N 31°22' E 121°29'82237.1
2017-Aug-12 02:28N 31°29' E 121°25'13140.3
2017-Aug-12 02:22N 31°39' E 121°14'0 2.0
2017-Aug-12 02:14N 31°38' E 121°14'1321667.1
2017-Aug-12 02:09N 29°33' E 122°01'1741129.5
2017-Aug-12 02:00N 31°56' E 120°07'7420411.9
2017-Aug-12 02:00N 31°28' E 121°27'6647.8
2017-Aug-12 01:59N 31°23' E 121°30'1255.1
2017-Aug-12 01:59N 31°24' E 121°31'251654.0
2017-Aug-12 01:58N 31°41' E 121°10'177.7
2017-Aug-12 01:57N 31°41' E 121°11'48386990.0
2017-Aug-12 01:57N 24°07' E 118°03'47618225.4
2017-Aug-12 01:56N 31°25' E 121°32'660296897.0
2017-Aug-12 01:55N 23°04' E 113°29'62716467.5
2017-Aug-12 01:53N 29°56' E 122°17'1152045.5
2017-Aug-12 01:50N 31°38' E 121°14'21716.0
2017-Aug-12 01:48N 31°22' E 121°29'6388.5
2017-Aug-12 01:47N 31°23' E 121°36'27379.3
2017-Aug-12 01:43N 31°41' E 121°12'1730445.2
2017-Aug-12 01:43N 31°28' E 121°25'18725.5
2017-Aug-12 01:41N 31°42' E 121°11'28157.4
2017-Aug-12 01:30N 31°23' E 121°36'241970.6
2017-Aug-12 01:30N 31°38' E 121°14'2412.5
2017-Aug-12 01:29N 31°40' E 121°12'7168.8
2017-Aug-12 01:27N 31°44' E 121°06'301212.3
2017-Aug-12 01:25N 31°23' E 121°30'241804.7
2017-Aug-12 01:24N 31°41' E 121°11'24312.7
2017-Aug-12 01:20N 31°25' E 121°32'113344.9
2017-Aug-12 01:20N 31°31' E 121°21'14375.2
2017-Aug-12 01:17N 31°42' E 121°11'48526035.3
2017-Aug-12 01:16N 24°06' E 118°04'4782487.9
2017-Aug-12 01:05N 31°29' E 121°25'17191.7
2017-Aug-12 00:59N 31°42' E 121°11'197.0
2017-Aug-12 00:59N 31°41' E 121°11'24361.1
2017-Aug-12 00:55N 31°25' E 121°32'33399.6
2017-Aug-12 00:55N 31°23' E 121°30'5124.8
2017-Aug-12 00:52N 31°23' E 121°36'6409.3
2017-Aug-12 00:51N 31°22' E 121°29'16173.7
2017-Aug-12 00:46N 31°35' E 121°18'65915208.1
2017-Aug-12 00:43N 23°04' E 113°29'661182916.2
2017-Aug-12 00:43N 31°40' E 121°14'2283.2
2017-Aug-12 00:27N 31°23' E 121°30'22497.8
2017-Aug-12 00:24N 31°39' E 121°13'22913.4
2017-Aug-12 00:23N 31°22' E 121°29'20534.1
2017-Aug-12 00:20N 31°38' E 121°15'1923345.0
2017-Aug-12 00:20N 31°25' E 121°32'221022.1
2017-Aug-12 00:19N 31°40' E 121°14'5387108340.0
2017-Aug-12 00:16N 49°18' W 123°02'538826791.9
2017-Aug-12 00:04N 31°39' E 121°13'14602.0
2017-Aug-12 00:03N 31°29' E 121°25'48925162.7
2017-Aug-12 00:01N 39°05' E 117°46'0 0.0
2017-Aug-11 23:59N 39°05' E 117°46'49712166.6
2017-Aug-11 23:56N 31°23' E 121°30'53891293393.8
2017-Aug-11 23:56N 49°18' W 123°02'5386430857.0
2017-Aug-11 23:55N 31°25' E 121°32'222626.2
2017-Aug-11 23:55N 31°39' E 121°13'252.1
2017-Aug-11 23:53N 31°40' E 121°11'273158.1
2017-Aug-11 23:52N 31°23' E 121°36'267260.1
2017-Aug-11 23:52N 31°40' E 121°12'124.1
2017-Aug-11 23:49N 31°40' E 121°14'218.8
2017-Aug-11 23:41N 31°41' E 121°11'1731382.5
2017-Aug-11 23:41N 31°28' E 121°25'737.5
2017-Aug-11 23:30N 31°23' E 121°30'242279.6
2017-Aug-11 23:29N 31°41' E 121°11'5387248627.5
2017-Aug-11 23:28N 49°18' W 123°04'5384269194.3
2017-Aug-11 23:27N 31°25' E 121°32'49668627.3
2017-Aug-11 23:27N 39°05' E 117°46'49874742.3
2017-Aug-11 23:26N 31°23' E 121°36'678.1
2017-Aug-11 23:21N 31°22' E 121°29'22373.4
2017-Aug-11 23:18N 31°40' E 121°14'7196.1
2017-Aug-11 23:16N 31°44' E 121°06'422.2
2017-Aug-11 23:04N 31°42' E 121°11'28413.0
2017-Aug-11 23:00N 31°23' E 121°36'2811012.1
2017-Aug-11 23:00N 31°41' E 121°11'53831490567.7
2017-Aug-11 23:00N 49°19' W 123°10'61972231003.9
2017-Aug-11 22:59N 22°44' E 113°26'67853086.2
2017-Aug-11 22:59N 31°40' E 121°14'119.2
2017-Aug-11 22:55N 31°39' E 121°13'371.0
2017-Aug-11 22:52N 31°42' E 121°11'251174.9
2017-Aug-11 22:51N 31°22' E 121°29'148.1
2017-Aug-11 22:49N 31°23' E 121°30'3188.9
2017-Aug-11 22:49N 31°25' E 121°32'411.3
2017-Aug-11 22:29N 31°23' E 121°36'281671.9
2017-Aug-11 22:28N 31°42' E 121°11'53819685650.6
2017-Aug-11 22:28N 49°18' W 123°11'5382538226.4
2017-Aug-11 22:27N 31°23' E 121°30'120.6
2017-Aug-11 22:24N 31°22' E 121°29'4474.9
2017-Aug-11 22:23N 31°25' E 121°32'22539.3
2017-Aug-11 22:21N 31°40' E 121°14'3298.2
2017-Aug-11 22:20N 31°41' E 121°11'105558.0
2017-Aug-11 22:09N 30°03' E 121°56'542838163.1
2017-Aug-11 22:00N 49°18' W 123°13'53804842213.9
2017-Aug-11 22:00N 31°41' E 121°11'243213.3
2017-Aug-11 22:00N 31°24' E 121°31'202099.5
2017-Aug-11 21:59N 31°38' E 121°15'201715.5
2017-Aug-11 21:59N 31°22' E 121°29'8324898.7
2017-Aug-11 21:58N 30°03' E 121°57'901937.8
2017-Aug-11 21:56N 31°28' E 121°25'7140.7
2017-Aug-11 21:53N 31°25' E 121°32'478.1
2017-Aug-11 21:50N 31°23' E 121°36'28169.1
2017-Aug-11 21:40N 31°42' E 121°11'17504.9
2017-Aug-11 21:38N 31°29' E 121°25'141517.7
2017-Aug-11 21:37N 31°39' E 121°13'537847453.4
2017-Aug-11 21:30N 49°19' W 123°15'5375134386.0
2017-Aug-11 21:28N 31°25' E 121°32'2529442.8
2017-Aug-11 21:28N 31°42' E 121°11'10911558.7
2017-Aug-11 21:27N 30°00' E 121°58'10127936.8
2017-Aug-11 21:27N 31°35' E 121°18'8994.3
2017-Aug-11 21:27N 31°29' E 121°25'14503.3
2017-Aug-11 21:25N 31°39' E 121°13'471039.4
2017-Aug-11 21:22N 32°00' E 120°23'721022.7
2017-Aug-11 21:18N 31°24' E 121°36'61235.7
2017-Aug-11 21:02N 31°60' E 120°38'5385162916.6
2017-Aug-11 21:01N 49°19' W 123°17'54261775799.4
2017-Aug-11 21:00N 29°58' E 121°59'9035972.0
2017-Aug-11 21:00N 31°25' E 121°32'12357.6
2017-Aug-11 20:58N 31°33' E 121°21'139121.9
2017-Aug-11 20:58N 31°42' E 121°11'289304.6
2017-Aug-11 20:58N 31°24' E 121°36'25289.2
2017-Aug-11 20:53N 31°39' E 121°13'2215521.8
2017-Aug-11 20:53N 31°24' E 121°31'2428426.9
2017-Aug-11 20:53N 31°41' E 121°11'422168.7
2017-Aug-11 20:51N 32°04' E 120°30'59394.6
2017-Aug-11 20:42N 31°28' E 121°25'53495.0
2017-Aug-11 20:36N 32°00' E 120°35'52538.4
2017-Aug-11 20:30N 31°31' E 121°25'526959.4
2017-Aug-11 20:30N 32°00' E 120°34'361422.7
2017-Aug-11 20:28N 31°42' E 121°11'53764838543.1
2017-Aug-11 20:28N 49°19' W 123°17'53772765358.8
2017-Aug-11 20:28N 31°41' E 121°11'2833013.9
2017-Aug-11 20:28N 31°24' E 121°36'10794.6
2017-Aug-11 20:27N 31°28' E 121°25'6189.6
2017-Aug-11 20:25N 31°25' E 121°32'691543.3
2017-Aug-11 20:22N 31°58' E 120°20'701979.8
2017-Aug-11 20:20N 31°25' E 121°32'115.1
2017-Aug-11 20:15N 31°24' E 121°31'22170.6
2017-Aug-11 20:07N 31°39' E 121°13'2211394.9
2017-Aug-11 20:07N 31°22' E 121°29'24214.8
2017-Aug-11 20:00N 31°41' E 121°11'53781935919.2
2017-Aug-11 20:00N 49°19' W 123°16'5375429973.4
2017-Aug-11 19:59N 31°25' E 121°32'631712.9
2017-Aug-11 19:57N 32°02' E 120°31'5710800.6
2017-Aug-11 19:57N 31°28' E 121°25'62052.0
2017-Aug-11 19:57N 31°24' E 121°31'4357.4
2017-Aug-11 19:56N 31°27' E 121°29'181018.5
2017-Aug-11 19:55N 31°39' E 121°13'25802.1
2017-Aug-11 19:53N 31°24' E 121°36'6322.8
2017-Aug-11 19:52N 31°22' E 121°29'4120.9
2017-Aug-11 19:50N 31°25' E 121°32'72221.9
2017-Aug-11 19:30N 31°56' E 120°15'54081946921.8
2017-Aug-11 19:30N 49°18' W 123°13'53801383351.6
2017-Aug-11 19:30N 31°39' E 121°13'  
Track history (hours):
 
Tides and Currents Weather Stations Pressure Air Temp Water Temp Dewpoint Dewpoint Depression Visibility Wind Speed Wind Dir Waves Ship Positions

Su Yang Bo 001

Last reported at 2017-Aug-21 19:30 UTC. Time now 2017-Aug-21 19:41 UTC.
Position N 31°31' E 121°22'.

Length 50 m.

Type: Towing. MMSI: 200002069.

Date/timePositionNaut miles runAvg speedWind from/ knotsBaromVisibWave heightAir tempDewpointWater temp
2017-Aug-21 19:30N 31°31' E 121°22'8906.3
2017-Aug-21 19:29N 31°26' E 121°29'252529.4
2017-Aug-21 19:29N 31°43' E 121°07'65927926.1
2017-Aug-21 19:27N 23°05' E 113°27'656118089.0
2017-Aug-21 19:27N 31°22' E 121°29'7475.7
2017-Aug-21 19:26N 31°28' E 121°26'6629028.4
2017-Aug-21 19:22N 22°59' E 113°31'6635762.8
2017-Aug-21 19:15N 31°39' E 121°13'104695.4
2017-Aug-21 19:06N 29°60' E 121°49'922765.3
2017-Aug-21 19:04N 31°29' E 121°25'0 6.2
2017-Aug-21 19:02N 31°29' E 121°25'5220.0
2017-Aug-21 19:00N 31°26' E 121°29'7567.3
2017-Aug-21 19:00N 31°30' E 121°23'65839505.8
2017-Aug-21 18:59N 23°05' E 113°27'6591186492.0
2017-Aug-21 18:59N 31°29' E 121°25'222829.5
2017-Aug-21 18:58N 31°44' E 121°06'222214.0
2017-Aug-21 18:58N 31°29' E 121°25'3219.0
2017-Aug-21 18:57N 31°31' E 121°22'66236650.0
2017-Aug-21 18:56N 22°59' E 113°31'613147187.5
2017-Aug-21 18:56N 29°59' E 121°50'1059696.6
2017-Aug-21 18:55N 31°39' E 121°13'22835.6
2017-Aug-21 18:53N 31°22' E 121°29'1061.5
2017-Aug-21 18:44N 31°30' E 121°23'15109.2
2017-Aug-21 18:36N 31°41' E 121°11'115.4
2017-Aug-21 18:32N 31°41' E 121°11'14360.1
2017-Aug-21 18:30N 31°31' E 121°22'81007.6
2017-Aug-21 18:30N 31°26' E 121°29'1018069.3
2017-Aug-21 18:30N 31°32' E 121°20'65916695.7
2017-Aug-21 18:27N 23°05' E 113°27'65927276.1
2017-Aug-21 18:26N 31°30' E 121°25'845.0
2017-Aug-21 18:15N 31°22' E 121°29'221017.7
2017-Aug-21 18:13N 31°39' E 121°13'547742.6
2017-Aug-21 18:13N 31°56' E 120°13'1461594.9
2017-Aug-21 18:08N 29°58' E 121°54'946410.0
2017-Aug-21 18:07N 31°30' E 121°25'66221289.0
2017-Aug-21 18:05N 22°59' E 113°31'776.3
2017-Aug-21 18:00N 23°05' E 113°28'658103029.6
2017-Aug-21 17:59N 31°31' E 121°22'66299260.3
2017-Aug-21 17:59N 22°59' E 113°31'66256759.7
2017-Aug-21 17:58N 31°30' E 121°25'672529.4
2017-Aug-21 17:57N 31°56' E 120°13'525998.3
2017-Aug-21 17:56N 31°41' E 121°11'10935661.4
2017-Aug-21 17:56N 29°58' E 121°55'90324312.8
2017-Aug-21 17:56N 31°26' E 121°29'41607.9
2017-Aug-21 17:56N 31°22' E 121°29'847212.3
2017-Aug-21 17:55N 31°59' E 120°00'157385.6
2017-Aug-21 17:30N 29°59' E 121°58'616554588.7
2017-Aug-21 17:30N 23°03' E 113°30'65887799.4
2017-Aug-21 17:30N 31°26' E 121°29'735451.9
2017-Aug-21 17:29N 31°56' E 120°11'66805.8
2017-Aug-21 17:24N 31°31' E 121°22'3104.6
2017-Aug-21 17:23N 31°29' E 121°25'011.0
2017-Aug-21 17:22N 31°30' E 121°25'163241.3
2017-Aug-21 17:21N 31°41' E 121°11'482991.9
2017-Aug-21 17:20N 31°57' E 120°17'707023.2
2017-Aug-21 17:20N 31°22' E 121°29'65913253.5
2017-Aug-21 17:17N 22°59' E 113°31'66324100.9
2017-Aug-21 17:15N 31°37' E 121°15'64355.2
2017-Aug-21 17:04N 31°58' E 120°04'611137.8
2017-Aug-21 17:01N 31°39' E 121°13'3241.7
2017-Aug-21 17:00N 31°41' E 121°11'148554.7
2017-Aug-21 17:00N 31°31' E 121°22'661264309.8
2017-Aug-21 17:00N 22°60' E 113°31'6452322680.4
2017-Aug-21 17:00N 31°56' E 120°15'6529160.0
2017-Aug-21 17:00N 31°30' E 121°25'7411529.0
2017-Aug-21 17:00N 31°58' E 120°05'3371.6
2017-Aug-21 16:59N 31°56' E 120°08'594858.5
2017-Aug-21 16:58N 31°38' E 121°15'4228.0
2017-Aug-21 16:57N 31°41' E 121°11'2854.0
2017-Aug-21 16:57N 31°39' E 121°13'194072.3
2017-Aug-21 16:57N 31°26' E 121°29'66134018.7
2017-Aug-21 16:56N 22°59' E 113°31'6626225.1
2017-Aug-21 16:49N 31°30' E 121°25'8448.7
2017-Aug-21 16:48N 31°22' E 121°29'1090.4
2017-Aug-21 16:42N 31°30' E 121°23'6623466.5
2017-Aug-21 16:30N 22°56' E 113°33'64580055.7
2017-Aug-21 16:30N 31°56' E 120°11'6514665.9
2017-Aug-21 16:29N 31°31' E 121°22'125192.3
2017-Aug-21 16:29N 31°39' E 121°13'66372312.0
2017-Aug-21 16:29N 22°59' E 113°31'66214526.2
2017-Aug-21 16:26N 31°30' E 121°23'7665.5
2017-Aug-21 16:25N 31°26' E 121°29'7613685.5
2017-Aug-21 16:25N 31°57' E 120°07'71575.9
2017-Aug-21 16:18N 31°30' E 121°25'833.6
2017-Aug-21 16:03N 31°22' E 121°29'22778.4
2017-Aug-21 16:01N 31°39' E 121°13'632960.9
2017-Aug-21 16:00N 31°58' E 120°02'634384.4
2017-Aug-21 15:59N 31°39' E 121°13'3407.8
2017-Aug-21 15:58N 31°42' E 121°11'5613365.3
2017-Aug-21 15:58N 31°56' E 120°08'64368030.8
2017-Aug-21 15:58N 22°59' E 113°31'661119065.4
2017-Aug-21 15:57N 31°26' E 121°29'5981.0
2017-Aug-21 15:57N 31°30' E 121°25'8177.4
2017-Aug-21 15:54N 31°22' E 121°29'7645347.4
2017-Aug-21 15:54N 31°57' E 120°10'541633.9
2017-Aug-21 15:52N 31°41' E 121°11'236.1
2017-Aug-21 15:49N 31°39' E 121°13'12333.0
2017-Aug-21 15:47N 31°31' E 121°22'0 0.0
2017-Aug-21 15:29N 31°31' E 121°22'81295.5
2017-Aug-21 15:29N 31°26' E 121°29'66134511.7
2017-Aug-21 15:28N 22°59' E 113°31'66315293.6
2017-Aug-21 15:25N 31°39' E 121°13'14371.4
2017-Aug-21 15:23N 31°29' E 121°25'675904.7
2017-Aug-21 15:22N 31°57' E 120°13'13752.4
2017-Aug-21 15:21N 32°00' E 119°58'671714.1
2017-Aug-21 15:19N 31°39' E 121°12'22350.3
2017-Aug-21 15:15N 31°22' E 121°29'85993.0
2017-Aug-21 15:15N 31°30' E 121°25'521.5
2017-Aug-21 15:00N 31°26' E 121°29'714304.8
2017-Aug-21 14:59N 31°57' E 120°14'633355.1
2017-Aug-21 14:58N 31°31' E 121°22'109436.1
2017-Aug-21 14:58N 31°22' E 121°29'6597367.6
2017-Aug-21 14:53N 22°59' E 113°31'6421950.1
2017-Aug-21 14:33N 32°02' E 119°57'861705.5
2017-Aug-21 14:30N 31°26' E 121°29'66132620.6
2017-Aug-21 14:29N 22°59' E 113°31'64812960.6
2017-Aug-21 14:26N 31°57' E 120°17'621530.7
2017-Aug-21 14:23N 31°31' E 121°22'781696.2
2017-Aug-21 14:21N 32°01' E 119°58'876240.8
2017-Aug-21 14:20N 31°22' E 121°29'85264.6
2017-Aug-21 14:00N 31°60' E 119°59'834351.2
2017-Aug-21 13:59N 31°26' E 121°29'684438.8
2017-Aug-21 13:58N 31°59' E 120°19'6505751.6
2017-Aug-21 13:52N 22°59' E 113°31'66312053.4
2017-Aug-21 13:48N 31°39' E 121°13'222513.1
2017-Aug-21 13:48N 31°22' E 121°29'0 0.0
2017-Aug-21 13:29N 31°22' E 121°29'251675.3
2017-Aug-21 13:28N 31°41' E 121°10'136.8
2017-Aug-21 13:26N 31°41' E 121°11'22779.9
2017-Aug-21 13:25N 31°26' E 121°29'801428.4
2017-Aug-21 13:21N 31°58' E 120°03'8527860.3
2017-Aug-21 13:21N 31°20' E 121°32'6609205.7
2017-Aug-21 13:17N 22°59' E 113°31'6628248.5
2017-Aug-21 13:12N 31°29' E 121°25'622393.4
2017-Aug-21 13:10N 32°00' E 120°22'49294.9
2017-Aug-21 13:00N 31°39' E 121°14'2110850.3
2017-Aug-21 13:00N 31°22' E 121°29'81054.7
2017-Aug-21 13:00N 31°29' E 121°25'10537.4
2017-Aug-21 12:59N 31°21' E 121°31'12636.4
2017-Aug-21 12:57N 31°31' E 121°22'66222473.3
2017-Aug-21 12:56N 22°59' E 113°31'654112112.9
2017-Aug-21 12:55N 32°01' E 120°23'15888.3
2017-Aug-21 12:54N 31°58' E 120°05'786234.3
2017-Aug-21 12:54N 31°26' E 121°29'221902.2
2017-Aug-21 12:53N 31°41' E 121°11'17156.4
2017-Aug-21 12:46N 31°29' E 121°25'61224.1
2017-Aug-21 12:30N 32°02' E 120°24'662725.6
2017-Aug-21 12:29N 31°26' E 121°29'4204.9
2017-Aug-21 12:28N 31°22' E 121°30'112996.5
2017-Aug-21 12:27N 31°31' E 121°22'682923.3
2017-Aug-21 12:26N 31°57' E 120°08'644193075.0
2017-Aug-21 12:26N 22°59' E 113°31'663125699.3
2017-Aug-21 12:25N 31°41' E 121°11'25404.9
2017-Aug-21 12:22N 31°22' E 121°29'1850.5
2017-Aug-21 12:01N 31°36' E 121°17'17442.8
2017-Aug-21 11:58N 31°23' E 121°30'284.3
2017-Aug-21 11:57N 31°22' E 121°29'255516.4
2017-Aug-21 11:57N 31°41' E 121°11'535605.8
2017-Aug-21 11:56N 31°57' E 120°11'64510316.6
2017-Aug-21 11:53N 22°59' E 113°31'66111788.7
2017-Aug-21 11:49N 31°26' E 121°29'1358.1
2017-Aug-21 11:36N 31°35' E 121°18'6284.4
2017-Aug-21 11:34N 31°31' E 121°22'8104.8
2017-Aug-21 11:30N 31°26' E 121°29'343.0
2017-Aug-21 11:26N 31°24' E 121°31'66261097.4
2017-Aug-21 11:26N 22°59' E 113°31'66314286.8
2017-Aug-21 11:23N 31°35' E 121°19'591673.2
2017-Aug-21 11:21N 31°57' E 120°15'635387.1
2017-Aug-21 11:20N 31°31' E 121°22'66113224.5
2017-Aug-21 11:17N 22°56' E 113°36'663298369.6
2017-Aug-21 11:17N 31°41' E 121°11'256305.7
2017-Aug-21 11:17N 31°22' E 121°29'832.5
2017-Aug-21 11:02N 31°29' E 121°25'17581.5
2017-Aug-21 11:00N 31°41' E 121°11'112995.0
2017-Aug-21 11:00N 31°33' E 121°20'59105719.9
2017-Aug-21 11:00N 31°57' E 120°17'6274050.1
2017-Aug-21 11:00N 31°31' E 121°22'8733.3
2017-Aug-21 10:59N 31°26' E 121°29'661148831.7
2017-Aug-21 10:59N 22°59' E 113°31'659593093.9
2017-Aug-21 10:59N 31°22' E 121°29'4107.3
2017-Aug-21 10:56N 31°26' E 121°29'662108382.7
2017-Aug-21 10:56N 22°55' E 113°36'6633241.1
2017-Aug-21 10:44N 31°29' E 121°25'0 1.4
2017-Aug-21 10:33N 31°29' E 121°25'474.2
2017-Aug-21 10:30N 31°32' E 121°22'12353.8
2017-Aug-21 10:28N 31°22' E 121°29'4299.2
2017-Aug-21 10:27N 31°26' E 121°29'8444.8
2017-Aug-21 10:26N 31°31' E 121°22'662183243.6
2017-Aug-21 10:26N 22°59' E 113°31'65122988.7
2017-Aug-21 10:24N 31°59' E 120°20'65590632.8
2017-Aug-21 10:24N 22°53' E 113°34'665119666.5
2017-Aug-21 10:23N 31°29' E 121°25'0 5.0
2017-Aug-21 10:20N 31°29' E 121°25'17455.4
2017-Aug-21 10:18N 31°41' E 121°11'1575.2
2017-Aug-21 10:06N 31°30' E 121°23'668.1
2017-Aug-21 10:00N 31°26' E 121°29'723974.7
2017-Aug-21 10:00N 31°31' E 121°24'66328753.7
2017-Aug-21 09:59N 22°59' E 113°31'81060.1
2017-Aug-21 09:58N 22°51' E 113°34'66548887.0
2017-Aug-21 09:57N 31°30' E 121°23'028.1
2017-Aug-21 09:56N 31°31' E 121°22'141755.9
2017-Aug-21 09:56N 31°41' E 121°11'468197.2
2017-Aug-21 09:56N 32°01' E 120°23'71938.4
2017-Aug-21 09:51N 31°24' E 121°34'66020493.7
2017-Aug-21 09:49N 23°04' E 113°29'65918398.6
2017-Aug-21 09:47N 31°40' E 121°11'16369.8
2017-Aug-21 09:44N 31°29' E 121°25'8289.3
2017-Aug-21 09:43N 31°22' E 121°29'1068.3
2017-Aug-21 09:34N 31°30' E 121°23'228.5
2017-Aug-21 09:30N 31°29' E 121°25'380.1
2017-Aug-21 09:28N 31°31' E 121°22'66299257.7
2017-Aug-21 09:27N 22°59' E 113°31'662170131.3
2017-Aug-21 09:27N 31°33' E 121°20'10481.8
2017-Aug-21 09:26N 31°26' E 121°29'65846459.6
2017-Aug-21 09:25N 23°04' E 113°29'66017855.8
2017-Aug-21 09:23N 31°29' E 121°27'45314297.3
2017-Aug-21 09:21N 24°33' E 118°06'4538666.6
2017-Aug-21 09:18N 31°30' E 121°23'105925.2
2017-Aug-21 09:18N 31°22' E 121°29'671641.1
2017-Aug-21 09:15N 32°04' E 120°27'4803286.6
2017-Aug-21 09:07N 24°19' E 118°07'47011999.1
2017-Aug-21 09:04N 31°40' E 121°11'4707690.6
2017-Aug-21 09:01N 24°19' E 118°07'46213859.1
2017-Aug-21 08:59N 31°26' E 121°29'45010803.8
2017-Aug-21 08:56N 24°33' E 118°06'452232494.6
2017-Aug-21 08:56N 31°28' E 121°28'32883.0
2017-Aug-21 08:56N 31°29' E 121°25'16560.0
2017-Aug-21 08:54N 31°40' E 121°11'25351.3
2017-Aug-21 08:50N 31°24' E 121°34'5137.8
2017-Aug-21 08:48N 31°22' E 121°29'664125810.8
2017-Aug-21 08:47N 22°48' E 113°37'66922931.6
2017-Aug-21 08:46N 31°41' E 121°11'66321324.4
2017-Aug-21 08:44N 22°59' E 113°31'6629415.7
2017-Aug-21 08:39N 31°31' E 121°22'4662991.9
2017-Aug-21 08:30N 24°17' E 118°10'464835768.4
2017-Aug-21 08:30N 31°24' E 121°34'121560.8
2017-Aug-21 08:30N 31°31' E 121°22'86754.0
2017-Aug-21 08:30N 31°26' E 121°29'174.1
2017-Aug-21 08:29N 31°26' E 121°29'475.2
2017-Aug-21 08:26N 31°22' E 121°29'241671.4
2017-Aug-21 08:25N 31°40' E 121°11'17753.0
2017-Aug-21 08:24N 31°29' E 121°25'66810877.6
2017-Aug-21 08:20N 22°47' E 113°38'142759.5
2017-Aug-21 08:20N 22°59' E 113°31'2692829.3
2017-Aug-21 08:14N 24°33' E 118°06'4594486.9
2017-Aug-21 08:08N 31°41' E 121°11'4593287.4
2017-Aug-21 07:59N 24°32' E 118°05'201530.3
2017-Aug-21 07:59N 24°13' E 118°09'448291.7
2017-Aug-21 07:58N 23°43' E 117°33'510458738.8
2017-Aug-21 07:58N 31°31' E 121°22'658118509.7
2017-Aug-21 07:58N 23°04' E 113°29'205637.2
2017-Aug-21 07:58N 22°46' E 113°39'66766712.7
2017-Aug-21 07:57N 31°26' E 121°29'3132.4
2017-Aug-21 07:56N 31°25' E 121°32'7137.1
2017-Aug-21 07:53N 31°29' E 121°25'6622383863.0
2017-Aug-21 07:53N 22°59' E 113°31'664132723.8
2017-Aug-21 07:52N 31°24' E 121°34'9338.4
2017-Aug-21 07:51N 31°29' E 121°25'8346.8
2017-Aug-21 07:49N 31°22' E 121°29'24546.0
2017-Aug-21 07:47N 31°41' E 121°11'0 1.3
2017-Aug-21 07:39N 31°40' E 121°11'16216.8
2017-Aug-21 07:34N 31°29' E 121°25'4566957.6
2017-Aug-21 07:31N 24°29' E 118°04'264474865.3
2017-Aug-21 07:30N 22°45' E 113°40'67056069.4
2017-Aug-21 07:30N 31°24' E 121°34'127027.5
2017-Aug-21 07:30N 31°31' E 121°22'3919.9
2017-Aug-21 07:29N 31°29' E 121°25'51032.5
2017-Aug-21 07:29N 31°26' E 121°29'47225347.0
2017-Aug-21 07:28N 24°09' E 118°07'48018594.5
2017-Aug-21 07:27N 31°42' E 121°09'65917577.3
2017-Aug-21 07:24N 23°04' E 113°29'6209.4
2017-Aug-21 07:23N 22°59' E 113°31'6595608.5
2017-Aug-21 07:16N 31°22' E 121°29'558.5
2017-Aug-21 07:11N 31°24' E 121°34'4956774.1
2017-Aug-21 07:06N 39°05' E 117°51'47210972.8
2017-Aug-21 07:04N 31°41' E 121°11'4847678.8
2017-Aug-21 07:00N 24°06' E 118°05'48432279.3
2017-Aug-21 06:59N 31°41' E 121°11'66385292.8
2017-Aug-21 06:59N 22°59' E 113°31'65955171.1
2017-Aug-21 06:58N 31°22' E 121°29'43221.3
2017-Aug-21 06:58N 31°26' E 121°29'8228.4
2017-Aug-21 06:56N 31°31' E 121°22'12203.7
2017-Aug-21 06:52N 31°24' E 121°34'66011006.0
2017-Aug-21 06:49N 23°04' E 113°29'6602134.0
2017-Aug-21 06:30N 31°24' E 121°34'5680.8
2017-Aug-21 06:30N 31°26' E 121°29'8230.3
2017-Aug-21 06:28N 31°31' E 121°22'27917623.7
2017-Aug-21 06:27N 36°05' E 120°18'86211984.9
2017-Aug-21 06:23N 22°59' E 113°31'632.2
2017-Aug-21 06:12N 23°04' E 113°29'2564776.3
2017-Aug-21 06:09N 24°00' E 118°02'4825181.9
2017-Aug-21 06:03N 31°24' E 121°34'49512457.1
2017-Aug-21 06:01N 39°05' E 117°51'98673957.5
2017-Aug-21 06:00N 23°04' E 113°29'660125118.8
2017-Aug-21 06:00N 31°24' E 121°34'48414755.2
2017-Aug-21 05:58N 23°59' E 118°01'48617137.5
2017-Aug-21 05:56N 31°31' E 121°22'81132.3
2017-Aug-21 05:56N 31°26' E 121°29'66640615.1
2017-Aug-21 05:55N 22°51' E 113°34'9147.9
2017-Aug-21 05:51N 22°59' E 113°31'66379617.6
2017-Aug-21 05:51N 31°24' E 121°34'25122.7
2017-Aug-21 05:39N 31°41' E 121°12'24288.7
2017-Aug-21 05:34N 31°22' E 121°29'452.9
2017-Aug-21 05:30N 31°26' E 121°29'5583.1
2017-Aug-21 05:29N 31°25' E 121°34'036.6
2017-Aug-21 05:29N 31°24' E 121°34'66325962.4
2017-Aug-21 05:27N 22°59' E 113°31'6502.5
2017-Aug-21 05:27N 22°53' E 113°32'66626943.2
2017-Aug-21 05:25N 31°31' E 121°22'65852671.0
2017-Aug-21 05:24N 23°04' E 113°29'6604132.0
2017-Aug-21 05:15N 31°41' E 121°12'24149.7
2017-Aug-21 05:05N 31°22' E 121°29'6568001.8
2017-Aug-21 05:00N 23°04' E 113°29'65838228.1
2017-Aug-21 04:59N 31°31' E 121°22'81045.2
2017-Aug-21 04:59N 31°26' E 121°29'661264589.7
2017-Aug-21 04:59N 22°59' E 113°31'5462.1
2017-Aug-21 04:58N 22°54' E 113°29'66935392.2
2017-Aug-21 04:57N 31°24' E 121°34'25593.9
2017-Aug-21 04:54N 31°41' E 121°12'41271.1
2017-Aug-21 04:54N 31°43' E 121°08'29481.2
2017-Aug-21 04:51N 31°24' E 121°34'22458.1
2017-Aug-21 04:48N 31°40' E 121°15'23123.2
2017-Aug-21 04:36N 31°21' E 121°31'10215.0
2017-Aug-21 04:33N 31°30' E 121°25'66212161.2
2017-Aug-21 04:30N 22°59' E 113°31'6642388865.1
2017-Aug-21 04:30N 31°24' E 121°34'51085.9
2017-Aug-21 04:30N 31°22' E 121°29'4113.8
2017-Aug-21 04:28N 31°26' E 121°29'171492.3
2017-Aug-21 04:27N 31°38' E 121°16'66121629.0
2017-Aug-21 04:25N 23°04' E 113°29'65991219.5
2017-Aug-21 04:25N 31°30' E 121°25'10594.8
2017-Aug-21 04:24N 31°21' E 121°31'123370.5
2017-Aug-21 04:24N 31°31' E 121°22'57207.8
2017-Aug-21 04:07N 32°02' E 120°26'1 8.9
2017-Aug-21 04:00N 32°01' E 120°25'69124500.2
2017-Aug-21 04:00N 31°25' E 121°34'12331.6
2017-Aug-21 03:58N 31°31' E 121°22'10738.0
2017-Aug-21 03:57N 31°22' E 121°29'656112410.0
2017-Aug-21 03:57N 23°04' E 113°29'65813938.1
2017-Aug-21 03:54N 31°26' E 121°29'51161.9
2017-Aug-21 03:54N 31°21' E 121°31'188107.7
2017-Aug-21 03:54N 31°36' E 121°18'8125.0
2017-Aug-21 03:50N 31°41' E 121°11'26194.1
2017-Aug-21 03:42N 31°24' E 121°34'25239.8
2017-Aug-21 03:35N 31°41' E 121°12'667.6
2017-Aug-21 03:30N 31°44' E 121°06'313810.6
2017-Aug-21 03:30N 31°25' E 121°34'125263.4
2017-Aug-21 03:30N 31°31' E 121°22'31558.7
2017-Aug-21 03:30N 31°34' E 121°20'568135.3
2017-Aug-21 03:29N 31°59' E 120°21'4711251.6
2017-Aug-21 03:29N 31°41' E 121°12'213168.1
2017-Aug-21 03:29N 31°26' E 121°29'4406.0
2017-Aug-21 03:28N 31°24' E 121°34'26588.2
2017-Aug-21 03:25N 31°41' E 121°11'66027308.6
2017-Aug-21 03:24N 23°04' E 113°29'65694504.3
2017-Aug-21 03:23N 31°21' E 121°31'21348.1
2017-Aug-21 03:20N 31°38' E 121°16'19378.8
2017-Aug-21 03:17N 31°22' E 121°29'17241.9
2017-Aug-21 03:13N 31°36' E 121°18'57274.9
2017-Aug-21 03:00N 31°56' E 120°16'6224793.6
2017-Aug-21 03:00N 31°31' E 121°22'1524.0
2017-Aug-21 03:00N 31°32' E 121°23'13934.4
2017-Aug-21 02:59N 31°21' E 121°31'174060.2
2017-Aug-21 02:59N 31°35' E 121°19'494074.3
2017-Aug-21 02:58N 31°57' E 120°28'605868.3
2017-Aug-21 02:58N 31°26' E 121°29'144452.4
2017-Aug-21 02:57N 31°36' E 121°18'8192.6
2017-Aug-21 02:55N 31°41' E 121°11'138.2
2017-Aug-21 02:53N 31°41' E 121°12'242867.7
2017-Aug-21 02:53N 31°22' E 121°29'579.4
2017-Aug-21 02:49N 31°24' E 121°34'011.5
2017-Aug-21 02:48N 31°25' E 121°34'47511712.2
2017-Aug-21 02:46N 24°09' E 118°00'8963803.4
2017-Aug-21 02:32N 39°05' E 117°51'48622124.4
2017-Aug-21 02:30N 31°31' E 121°22'5416255.0
2017-Aug-21 02:30N 31°58' E 120°27'432144.7
2017-Aug-21 02:29N 31°39' E 121°13'5610571.3
2017-Aug-21 02:29N 31°56' E 120°11'774484.7
2017-Aug-21 02:28N 31°24' E 121°34'51402.8
2017-Aug-21 02:28N 31°22' E 121°29'131510.3
2017-Aug-21 02:27N 31°33' E 121°21'48311439.3
2017-Aug-21 02:24N 39°05' E 117°51'89736269.0
2017-Aug-21 02:23N 24°08' E 118°03'47474167.7
2017-Aug-21 02:23N 31°26' E 121°29'65860755.4
2017-Aug-21 02:22N 23°04' E 113°29'66044829.1
2017-Aug-21 02:21N 31°41' E 121°12'251911.1
2017-Aug-21 02:20N 31°25' E 121°34'26668.3
2017-Aug-21 02:18N 31°41' E 121°11'14216.9
2017-Aug-21 02:14N 31°32' E 121°23'1 4.9
2017-Aug-21 02:00N 31°31' E 121°22'104183.8
2017-Aug-21 02:00N 31°22' E 121°29'4757.9
2017-Aug-21 02:00N 31°26' E 121°29'2175624.4
2017-Aug-21 02:00N 31°41' E 121°12'660118797.2
2017-Aug-21 02:00N 23°04' E 113°29'660264144.1
2017-Aug-21 02:00N 31°24' E 121°34'47589957.6
2017-Aug-21 01:59N 24°07' E 118°06'477114598.7
2017-Aug-21 01:59N 31°31' E 121°24'91029.4
2017-Aug-21 01:58N 31°37' E 121°16'20512.0
2017-Aug-21 01:56N 31°24' E 121°34'664584.3
2017-Aug-21 01:55N 31°58' E 120°27'412753.4
2017-Aug-21 01:54N 31°41' E 121°11'201194.7
2017-Aug-21 01:53N 31°28' E 121°29'66118172.3
2017-Aug-21 01:51N 22°60' E 113°32'6422747.3
2017-Aug-21 01:37N 31°55' E 120°10'54462.2
2017-Aug-21 01:30N 31°41' E 121°12'244297.6
2017-Aug-21 01:30N 31°22' E 121°29'162916.0
2017-Aug-21 01:29N 31°36' E 121°18'171621.3
2017-Aug-21 01:29N 31°25' E 121°34'124210.7
2017-Aug-21 01:29N 31°31' E 121°22'4771715824.5
2017-Aug-21 01:29N 24°06' E 118°07'47547457.4
2017-Aug-21 01:28N 31°24' E 121°34'66067912.0
2017-Aug-21 01:27N 23°04' E 113°29'65034415.0
2017-Aug-21 01:26N 31°58' E 120°27'625591.5
2017-Aug-21 01:26N 31°26' E 121°29'22796.1
2017-Aug-21 01:24N 31°41' E 121°11'17135.2
2017-Aug-21 01:17N 31°29' E 121°25'66126423.4
2017-Aug-21 01:15N 22°60' E 113°32'6619918.1
2017-Aug-21 01:11N 31°28' E 121°28'724962.6
2017-Aug-21 01:10N 31°55' E 120°10'48735.1
2017-Aug-21 01:06N 31°45' E 121°06'301770.8
2017-Aug-21 01:05N 31°25' E 121°32'441.5
2017-Aug-21 01:00N 31°23' E 121°36'474568981.9
2017-Aug-21 01:00N 24°06' E 118°07'479861485.2
2017-Aug-21 01:00N 31°33' E 121°20'111095.8
2017-Aug-21 00:59N 31°26' E 121°29'212443.0
2017-Aug-21 00:59N 31°41' E 121°12'243265.8
2017-Aug-21 00:58N 31°25' E 121°32'8101.7
2017-Aug-21 00:54N 31°29' E 121°25'8567.6
2017-Aug-21 00:53N 31°22' E 121°29'5197.1
2017-Aug-21 00:51N 31°24' E 121°34'415681.2
2017-Aug-21 00:51N 31°27' E 121°29'733604.1
2017-Aug-21 00:50N 31°55' E 120°10'101150.9
2017-Aug-21 00:50N 31°58' E 120°22'661142.4
2017-Aug-21 00:46N 31°26' E 121°30'71227.0
2017-Aug-21 00:46N 31°30' E 121°23'1257.3
2017-Aug-21 00:34N 31°21' E 121°31'4707662.0
2017-Aug-21 00:30N 24°07' E 118°08'47795468.3
2017-Aug-21 00:30N 31°32' E 121°23'1761110.9
2017-Aug-21 00:30N 31°22' E 121°39'7650.5
2017-Aug-21 00:29N 31°23' E 121°30'81216.6
2017-Aug-21 00:29N 31°29' E 121°25'161855.6
2017-Aug-21 00:28N 31°41' E 121°12'1312137.2
2017-Aug-21 00:28N 31°31' E 121°22'121823.6
2017-Aug-21 00:28N 31°21' E 121°31'26971.6
2017-Aug-21 00:28N 31°22' E 121°29'5188.3
2017-Aug-21 00:26N 31°24' E 121°34'3130.3
2017-Aug-21 00:25N 31°25' E 121°31'7533663.5
2017-Aug-21 00:25N 31°55' E 120°10'64255011.9
2017-Aug-21 00:24N 22°60' E 113°32'660791841.3
2017-Aug-21 00:24N 31°26' E 121°29'32350.4
2017-Aug-21 00:24N 31°25' E 121°32'701848.7
2017-Aug-21 00:22N 31°57' E 120°18'481590.9
2017-Aug-21 00:20N 31°41' E 121°11'291.4
2017-Aug-21 00:18N 31°42' E 121°08'65911458.4
2017-Aug-21 00:15N 23°04' E 113°29'6422691.4
2017-Aug-21 00:01N 31°56' E 120°15'744869.8
2017-Aug-21 00:00N 31°24' E 121°34'61245.7
2017-Aug-20 23:59N 31°20' E 121°39'75117.5
2017-Aug-20 23:59N 31°24' E 121°32'7616082.9
2017-Aug-20 23:59N 31°55' E 120°10'7713254.1
2017-Aug-20 23:59N 31°21' E 121°32'1322963.2
2017-Aug-20 23:59N 31°31' E 121°22'81600.3
2017-Aug-20 23:58N 31°26' E 121°29'47319151.2
2017-Aug-20 23:57N 24°07' E 118°08'47029703.6
2017-Aug-20 23:56N 31°22' E 121°29'5252.9
2017-Aug-20 23:55N 31°24' E 121°34'66043216.1
2017-Aug-20 23:54N 23°04' E 113°29'66046587.5
2017-Aug-20 23:53N 31°41' E 121°12'16755.7
2017-Aug-20 23:52N 31°29' E 121°25'0184.4
2017-Aug-20 23:52N 31°29' E 121°25'19946.7
2017-Aug-20 23:50N 31°43' E 121°08'12127225.8
2017-Aug-20 23:50N 29°57' E 122°16'1196019.2
2017-Aug-20 23:49N 31°41' E 121°11'16123.4
2017-Aug-20 23:41N 31°30' E 121°24'46413705.1
2017-Aug-20 23:39N 24°18' E 118°10'1 9.6
2017-Aug-20 23:30N 24°17' E 118°11'46352112.6
2017-Aug-20 23:30N 31°24' E 121°34'4775.2
2017-Aug-20 23:30N 31°25' E 121°29'416079.9
2017-Aug-20 23:30N 31°21' E 121°31'71047.1
2017-Aug-20 23:29N 31°20' E 121°39'4914.3
2017-Aug-20 23:29N 31°23' E 121°36'808986.6
2017-Aug-20 23:28N 31°56' E 120°10'6614852.2
2017-Aug-20 23:28N 31°31' E 121°22'161569.2
2017-Aug-20 23:28N 31°42' E 121°09'66098930.5
2017-Aug-20 23:27N 23°04' E 113°29'659263519.5
2017-Aug-20 23:27N 31°29' E 121°25'2107.6
2017-Aug-20 23:26N 31°30' E 121°23'14110.2
2017-Aug-20 23:18N 31°41' E 121°12'242203.5
2017-Aug-20 23:18N 31°22' E 121°29'872.9
2017-Aug-20 23:11N 31°30' E 121°24'161429.9
2017-Aug-20 23:10N 31°41' E 121°11'6625741.5
2017-Aug-20 23:03N 22°60' E 113°32'66315098.5
2017-Aug-20 23:00N 31°22' E 121°38'2228.8
2017-Aug-20 23:00N 31°20' E 121°39'46244995.0
2017-Aug-20 22:59N 24°15' E 118°15'46123352.8
2017-Aug-20 22:58N 31°22' E 121°29'252293.3
2017-Aug-20 22:57N 31°41' E 121°11'1180.2
2017-Aug-20 22:57N 31°41' E 121°12'13571.2
2017-Aug-20 22:56N 31°31' E 121°22'18645.6
2017-Aug-20 22:54N 31°15' E 121°32'17997.5
2017-Aug-20 22:53N 31°30' E 121°23'116608.7
2017-Aug-20 22:53N 31°24' E 121°34'9314.3
2017-Aug-20 22:51N 31°30' E 121°24'142367.8
2017-Aug-20 22:51N 31°17' E 121°34'3112263.7
2017-Aug-20 22:51N 31°41' E 121°11'581029.6
2017-Aug-20 22:47N 31°57' E 120°05'741063.7
2017-Aug-20 22:43N 31°29' E 121°25'963309.3
2017-Aug-20 22:41N 30°00' E 122°06'963827.9
2017-Aug-20 22:40N 31°29' E 121°25'4672905.0
2017-Aug-20 22:30N 24°12' E 118°19'464334296.4
2017-Aug-20 22:30N 31°21' E 121°39'177861.0
2017-Aug-20 22:30N 31°31' E 121°22'1812768.5
2017-Aug-20 22:30N 31°15' E 121°33'7687.6
2017-Aug-20 22:29N 31°20' E 121°39'6345.1
2017-Aug-20 22:28N 31°24' E 121°34'11826.1
2017-Aug-20 22:27N 31°30' E 121°23'743249.8
2017-Aug-20 22:26N 31°58' E 120°02'8291.4
2017-Aug-20 22:24N 31°55' E 120°10'692497.6
2017-Aug-20 22:23N 31°29' E 121°25'014.4
2017-Aug-20 22:22N 31°29' E 121°25'16138.9
2017-Aug-20 22:15N 31°41' E 121°12'32467.5
2017-Aug-20 22:11N 31°13' E 121°30'32929.7
2017-Aug-20 22:09N 31°41' E 121°11'24208.9
2017-Aug-20 22:02N 31°22' E 121°29'9289.4
2017-Aug-20 22:00N 31°20' E 121°39'171170.5
2017-Aug-20 21:59N 31°30' E 121°23'1139652.1
2017-Aug-20 21:59N 31°24' E 121°34'791.1
2017-Aug-20 21:55N 31°20' E 121°40'328731.0
2017-Aug-20 21:54N 31°41' E 121°12'546709.4
2017-Aug-20 21:54N 31°55' E 120°10'6812968.9
2017-Aug-20 21:54N 31°29' E 121°25'347.7
2017-Aug-20 21:50N 31°31' E 121°22'284.7
2017-Aug-20 21:49N 31°30' E 121°24'6595501.6
2017-Aug-20 21:42N 23°04' E 113°29'66021213.4
2017-Aug-20 21:40N 31°41' E 121°11'66258115.0
2017-Aug-20 21:39N 22°60' E 113°32'22724782.2
2017-Aug-20 21:38N 23°42' E 117°35'5163320.1
2017-Aug-20 21:29N 31°41' E 121°12'164424.8
2017-Aug-20 21:29N 31°29' E 121°25'079.6
2017-Aug-20 21:29N 31°30' E 121°24'68122530.8
2017-Aug-20 21:29N 31°55' E 120°10'838305.1
2017-Aug-20 21:28N 31°20' E 121°39'17684.2
2017-Aug-20 21:27N 31°30' E 121°23'111017.0
2017-Aug-20 21:26N 31°24' E 121°34'121555.0
2017-Aug-20 21:25N 31°31' E 121°22'18120.8
2017-Aug-20 21:16N 31°20' E 121°40'32919.8
2017-Aug-20 21:14N 31°41' E 121°11'662108324.1
2017-Aug-20 21:14N 22°60' E 113°32'66224324.4
2017-Aug-20 21:12N 31°42' E 121°11'25440.6
2017-Aug-20 21:09N 31°22' E 121°29'27891.6
2017-Aug-20 21:07N 31°42' E 121°08'65916941.7
2017-Aug-20 21:05N 23°04' E 113°29'6567894.8
2017-Aug-20 21:00N 31°22' E 121°29'91821.5
2017-Aug-20 21:00N 31°20' E 121°39'127.8
2017-Aug-20 20:58N 31°20' E 121°40'182982.8
2017-Aug-20 20:58N 31°31' E 121°22'121134.7
2017-Aug-20 20:57N 31°24' E 121°34'91786.4
2017-Aug-20 20:57N 31°30' E 121°24'66145729.8
2017-Aug-20 20:56N 22°60' E 113°32'66220722.9
2017-Aug-20 20:54N 31°41' E 121°11'66037123.5
2017-Aug-20 20:53N 23°04' E 113°29'64010760.8
2017-Aug-20 20:49N 31°56' E 120°10'541343.1
2017-Aug-20 20:47N 31°41' E 121°12'16217.9
2017-Aug-20 20:43N 31°29' E 121°25'2189.8
2017-Aug-20 20:42N 31°30' E 121°23'2160.1
2017-Aug-20 20:41N 31°29' E 121°25'1583.5
2017-Aug-20 20:30N 31°20' E 121°39'8521823.9
2017-Aug-20 20:30N 31°56' E 120°08'684872.2
2017-Aug-20 20:29N 31°31' E 121°22'3259.4
2017-Aug-20 20:29N 31°29' E 121°25'17778.4
2017-Aug-20 20:28N 31°41' E 121°11'264386.7
2017-Aug-20 20:27N 31°24' E 121°34'91207.3
2017-Aug-20 20:27N 31°29' E 121°25'2114.0
2017-Aug-20 20:26N 31°30' E 121°23'18514.6
2017-Aug-20 20:24N 31°20' E 121°40'66015850.5
2017-Aug-20 20:21N 23°04' E 113°29'6607008.6
2017-Aug-20 20:16N 31°41' E 121°12'241074.4
2017-Aug-20 20:14N 31°22' E 121°29'842.2
2017-Aug-20 20:03N 31°29' E 121°25'0 6.5
2017-Aug-20 20:01N 31°29' E 121°25'161003.8
2017-Aug-20 20:00N 31°41' E 121°12'593156.1
2017-Aug-20 19:59N 31°57' E 120°05'8229537.0
2017-Aug-20 19:59N 31°24' E 121°34'92718.8
2017-Aug-20 19:59N 31°29' E&